<?xml version="1.0" encoding="UTF-8" standalone="no" ?>
<gpx xmlns="http://www.topografix.com/GPX/1/1" xmlns:xsi="http://www.w3.org/2001/XMLSchema-instance" xsi:schemaLocation="http://www.topografix.com/GPX/1/1 http://www.topografix.com/GPX/1/1/gpx.xsd" version="1.1" creator="VisuGPX - https://www.visugpx.com">
  <metadata>
    <name>Lake Challenge 2023 By YoYo</name>
    <desc><![CDATA[Challenge gravel: Effectuer les contours des 12 plus gros lacs Suisse.
Manque le Lac Majeur qui sera ajouté en 2024]]></desc>
  </metadata>
  <trk>
    <name><![CDATA[Bielersee]]></name>
    <desc><![CDATA[March]]></desc>
    <extensions>
      <line xmlns="http://www.topografix.com/GPX/gpx_style/0/2">
        <color>ff8c00</color>
        <width>3</width>
          <extensions>
            <sens>1</sens>
          </extensions>
      </line>
    </extensions>
    <trkseg>
      <trkpt lat="47.05608" lon="7.07168">
        <ele>482.869493</ele>
        <time>2023-03-11T12:21:49.849Z</time>
      </trkpt>
      <trkpt lat="47.05594" lon="7.07156">
        <ele>482.869493</ele>
        <time>2023-03-11T12:36:16.531Z</time>
      </trkpt>
      <trkpt lat="47.05587" lon="7.07144">
        <ele>482.869493</ele>
        <time>2023-03-11T12:36:21.519Z</time>
      </trkpt>
      <trkpt lat="47.0558" lon="7.07132">
        <ele>482.869493</ele>
        <time>2023-03-11T12:36:25.562Z</time>
      </trkpt>
      <trkpt lat="47.05572" lon="7.07122">
        <ele>482.869493</ele>
        <time>2023-03-11T12:36:29.543Z</time>
      </trkpt>
      <trkpt lat="47.05563" lon="7.07111">
        <ele>482.869493</ele>
        <time>2023-03-11T12:36:33.560Z</time>
      </trkpt>
      <trkpt lat="47.05557" lon="7.071">
        <ele>482.869493</ele>
        <time>2023-03-11T12:36:36.541Z</time>
      </trkpt>
      <trkpt lat="47.05552" lon="7.07087">
        <ele>482.869493</ele>
        <time>2023-03-11T12:36:39.557Z</time>
      </trkpt>
      <trkpt lat="47.05548" lon="7.07073">
        <ele>482.868589</ele>
        <time>2023-03-11T12:36:42.559Z</time>
      </trkpt>
      <trkpt lat="47.05542" lon="7.07058">
        <ele>482.794731</ele>
        <time>2023-03-11T12:36:45.567Z</time>
      </trkpt>
      <trkpt lat="47.05538" lon="7.07043">
        <ele>482.723834</ele>
        <time>2023-03-11T12:36:48.539Z</time>
      </trkpt>
      <trkpt lat="47.05534" lon="7.07028">
        <ele>482.654285</ele>
        <time>2023-03-11T12:36:51.543Z</time>
      </trkpt>
      <trkpt lat="47.0553" lon="7.07011">
        <ele>482.578444</ele>
        <time>2023-03-11T12:36:54.559Z</time>
      </trkpt>
      <trkpt lat="47.05527" lon="7.06993">
        <ele>482.499846</ele>
        <time>2023-03-11T12:36:57.568Z</time>
      </trkpt>
      <trkpt lat="47.05523" lon="7.06976">
        <ele>482.424709</ele>
        <time>2023-03-11T12:37:00.565Z</time>
      </trkpt>
      <trkpt lat="47.05518" lon="7.06959">
        <ele>482.346086</ele>
        <time>2023-03-11T12:37:03.572Z</time>
      </trkpt>
      <trkpt lat="47.05512" lon="7.06943">
        <ele>482.268567</ele>
        <time>2023-03-11T12:37:06.563Z</time>
      </trkpt>
      <trkpt lat="47.05507" lon="7.06927">
        <ele>482.192931</ele>
        <time>2023-03-11T12:37:09.564Z</time>
      </trkpt>
      <trkpt lat="47.05506" lon="7.0691">
        <ele>482.119318</ele>
        <time>2023-03-11T12:37:12.537Z</time>
      </trkpt>
      <trkpt lat="47.05503" lon="7.06893">
        <ele>482.044878</ele>
        <time>2023-03-11T12:37:15.532Z</time>
      </trkpt>
      <trkpt lat="47.05499" lon="7.06876">
        <ele>481.967313</ele>
        <time>2023-03-11T12:37:18.556Z</time>
      </trkpt>
      <trkpt lat="47.05496" lon="7.06862">
        <ele>481.904298</ele>
        <time>2023-03-11T12:37:20.551Z</time>
      </trkpt>
      <trkpt lat="47.05494" lon="7.06843">
        <ele>481.82321</ele>
        <time>2023-03-11T12:37:23.559Z</time>
      </trkpt>
      <trkpt lat="47.05489" lon="7.06825">
        <ele>481.741937</ele>
        <time>2023-03-11T12:37:26.539Z</time>
      </trkpt>
      <trkpt lat="47.05483" lon="7.0681">
        <ele>481.711782</ele>
        <time>2023-03-11T12:37:29.555Z</time>
      </trkpt>
      <trkpt lat="47.05477" lon="7.06796">
        <ele>481.6812</ele>
        <time>2023-03-11T12:37:32.560Z</time>
      </trkpt>
      <trkpt lat="47.05468" lon="7.06783">
        <ele>481.649611</ele>
        <time>2023-03-11T12:37:35.541Z</time>
      </trkpt>
      <trkpt lat="47.0546" lon="7.0677">
        <ele>481.618374</ele>
        <time>2023-03-11T12:37:38.553Z</time>
      </trkpt>
      <trkpt lat="47.05455" lon="7.06754">
        <ele>481.587713</ele>
        <time>2023-03-11T12:37:41.545Z</time>
      </trkpt>
      <trkpt lat="47.05448" lon="7.06739">
        <ele>481.555655</ele>
        <time>2023-03-11T12:37:44.553Z</time>
      </trkpt>
      <trkpt lat="47.05441" lon="7.06722">
        <ele>481.519811</ele>
        <time>2023-03-11T12:37:47.552Z</time>
      </trkpt>
      <trkpt lat="47.05437" lon="7.06709">
        <ele>481.49434</ele>
        <time>2023-03-11T12:37:49.540Z</time>
      </trkpt>
      <trkpt lat="47.05433" lon="7.06696">
        <ele>481.468809</ele>
        <time>2023-03-11T12:37:51.551Z</time>
      </trkpt>
      <trkpt lat="47.05428" lon="7.06684">
        <ele>481.444496</ele>
        <time>2023-03-11T12:37:53.545Z</time>
      </trkpt>
      <trkpt lat="47.05423" lon="7.06672">
        <ele>481.420334</ele>
        <time>2023-03-11T12:37:55.557Z</time>
      </trkpt>
      <trkpt lat="47.05419" lon="7.0666">
        <ele>481.39593</ele>
        <time>2023-03-11T12:37:57.555Z</time>
      </trkpt>
      <trkpt lat="47.05414" lon="7.06648">
        <ele>481.370468</ele>
        <time>2023-03-11T12:37:59.548Z</time>
      </trkpt>
      <trkpt lat="47.05411" lon="7.06634">
        <ele>481.34539</ele>
        <time>2023-03-11T12:38:01.530Z</time>
      </trkpt>
      <trkpt lat="47.05408" lon="7.06619">
        <ele>481.318298</ele>
        <time>2023-03-11T12:38:03.550Z</time>
      </trkpt>
      <trkpt lat="47.05407" lon="7.06605">
        <ele>481.293424</ele>
        <time>2023-03-11T12:38:05.548Z</time>
      </trkpt>
      <trkpt lat="47.05405" lon="7.06591">
        <ele>481.268873</ele>
        <time>2023-03-11T12:38:07.540Z</time>
      </trkpt>
      <trkpt lat="47.05403" lon="7.06578">
        <ele>481.246875</ele>
        <time>2023-03-11T12:38:09.552Z</time>
      </trkpt>
      <trkpt lat="47.05401" lon="7.06559">
        <ele>481.215765</ele>
        <time>2023-03-11T12:38:12.566Z</time>
      </trkpt>
      <trkpt lat="47.05401" lon="7.06546">
        <ele>481.194626</ele>
        <time>2023-03-11T12:38:14.526Z</time>
      </trkpt>
      <trkpt lat="47.05401" lon="7.06532">
        <ele>481.172546</ele>
        <time>2023-03-11T12:38:16.529Z</time>
      </trkpt>
      <trkpt lat="47.05399" lon="7.06518">
        <ele>481.150443</ele>
        <time>2023-03-11T12:38:18.542Z</time>
      </trkpt>
      <trkpt lat="47.05398" lon="7.06505">
        <ele>481.12864</ele>
        <time>2023-03-11T12:38:20.534Z</time>
      </trkpt>
      <trkpt lat="47.05396" lon="7.06491">
        <ele>481.107032</ele>
        <time>2023-03-11T12:38:22.555Z</time>
      </trkpt>
      <trkpt lat="47.05395" lon="7.06477">
        <ele>481.083295</ele>
        <time>2023-03-11T12:38:24.550Z</time>
      </trkpt>
      <trkpt lat="47.05393" lon="7.0646">
        <ele>481.05664</ele>
        <time>2023-03-11T12:38:27.547Z</time>
      </trkpt>
      <trkpt lat="47.0538" lon="7.06458">
        <ele>481.026825</ele>
        <time>2023-03-11T12:38:30.538Z</time>
      </trkpt>
      <trkpt lat="47.05368" lon="7.0646">
        <ele>480.998386</ele>
        <time>2023-03-11T12:38:32.536Z</time>
      </trkpt>
      <trkpt lat="47.05358" lon="7.06461">
        <ele>480.973931</ele>
        <time>2023-03-11T12:38:34.555Z</time>
      </trkpt>
      <trkpt lat="47.05348" lon="7.06462">
        <ele>480.950909</ele>
        <time>2023-03-11T12:38:36.544Z</time>
      </trkpt>
      <trkpt lat="47.05338" lon="7.06463">
        <ele>480.92832</ele>
        <time>2023-03-11T12:38:38.544Z</time>
      </trkpt>
      <trkpt lat="47.05329" lon="7.06464">
        <ele>480.905916</ele>
        <time>2023-03-11T12:38:40.557Z</time>
      </trkpt>
      <trkpt lat="47.05319" lon="7.06465">
        <ele>480.882078</ele>
        <time>2023-03-11T12:38:42.561Z</time>
      </trkpt>
      <trkpt lat="47.05308" lon="7.06466">
        <ele>480.856239</ele>
        <time>2023-03-11T12:38:44.556Z</time>
      </trkpt>
      <trkpt lat="47.05298" lon="7.06468">
        <ele>480.950027</ele>
        <time>2023-03-11T12:38:46.550Z</time>
      </trkpt>
      <trkpt lat="47.05289" lon="7.06468">
        <ele>481.062528</ele>
        <time>2023-03-11T12:38:48.561Z</time>
      </trkpt>
      <trkpt lat="47.0528" lon="7.06466">
        <ele>481.173493</ele>
        <time>2023-03-11T12:38:50.543Z</time>
      </trkpt>
      <trkpt lat="47.05272" lon="7.06458">
        <ele>481.282677</ele>
        <time>2023-03-11T12:38:52.542Z</time>
      </trkpt>
      <trkpt lat="47.05264" lon="7.06444">
        <ele>481.426427</ele>
        <time>2023-03-11T12:38:55.535Z</time>
      </trkpt>
      <trkpt lat="47.05257" lon="7.06429">
        <ele>481.572989</ele>
        <time>2023-03-11T12:38:58.535Z</time>
      </trkpt>
      <trkpt lat="47.05248" lon="7.06415">
        <ele>481.731477</ele>
        <time>2023-03-11T12:39:01.524Z</time>
      </trkpt>
      <trkpt lat="47.05236" lon="7.06406">
        <ele>481.89193</ele>
        <time>2023-03-11T12:39:04.524Z</time>
      </trkpt>
      <trkpt lat="47.05224" lon="7.06406">
        <ele>482.032696</ele>
        <time>2023-03-11T12:39:06.525Z</time>
      </trkpt>
      <trkpt lat="47.05214" lon="7.06408">
        <ele>482.145277</ele>
        <time>2023-03-11T12:39:08.534Z</time>
      </trkpt>
      <trkpt lat="47.05201" lon="7.0641">
        <ele>482.304354</ele>
        <time>2023-03-11T12:39:11.542Z</time>
      </trkpt>
      <trkpt lat="47.05191" lon="7.06413">
        <ele>482.424611</ele>
        <time>2023-03-11T12:39:13.543Z</time>
      </trkpt>
      <trkpt lat="47.05182" lon="7.06416">
        <ele>482.531969</ele>
        <time>2023-03-11T12:39:15.554Z</time>
      </trkpt>
      <trkpt lat="47.0517" lon="7.0642">
        <ele>482.67618</ele>
        <time>2023-03-11T12:39:18.544Z</time>
      </trkpt>
      <trkpt lat="47.05161" lon="7.06426">
        <ele>482.80317</ele>
        <time>2023-03-11T12:39:21.514Z</time>
      </trkpt>
      <trkpt lat="47.05151" lon="7.06429">
        <ele>482.923428</ele>
        <time>2023-03-11T12:39:24.523Z</time>
      </trkpt>
      <trkpt lat="47.0514" lon="7.06435">
        <ele>482.89902</ele>
        <time>2023-03-11T12:39:27.539Z</time>
      </trkpt>
      <trkpt lat="47.05131" lon="7.06441">
        <ele>482.774564</ele>
        <time>2023-03-11T12:39:30.552Z</time>
      </trkpt>
      <trkpt lat="47.0512" lon="7.06446">
        <ele>482.624947</ele>
        <time>2023-03-11T12:39:32.503Z</time>
      </trkpt>
      <trkpt lat="47.05109" lon="7.06445">
        <ele>482.474668</ele>
        <time>2023-03-11T12:39:35.529Z</time>
      </trkpt>
      <trkpt lat="47.051" lon="7.06443">
        <ele>482.355884</ele>
        <time>2023-03-11T12:39:38.539Z</time>
      </trkpt>
      <trkpt lat="47.05086" lon="7.06445">
        <ele>482.172643</ele>
        <time>2023-03-11T12:39:41.525Z</time>
      </trkpt>
      <trkpt lat="47.05075" lon="7.06448">
        <ele>482.038542</ele>
        <time>2023-03-11T12:39:43.535Z</time>
      </trkpt>
      <trkpt lat="47.05062" lon="7.06451">
        <ele>481.869471</ele>
        <time>2023-03-11T12:39:46.542Z</time>
      </trkpt>
      <trkpt lat="47.0505" lon="7.06453">
        <ele>481.703298</ele>
        <time>2023-03-11T12:39:49.541Z</time>
      </trkpt>
      <trkpt lat="47.05039" lon="7.06454">
        <ele>481.563186</ele>
        <time>2023-03-11T12:39:52.549Z</time>
      </trkpt>
      <trkpt lat="47.05028" lon="7.06456">
        <ele>481.425567</ele>
        <time>2023-03-11T12:39:55.555Z</time>
      </trkpt>
      <trkpt lat="47.05017" lon="7.06458">
        <ele>481.273922</ele>
        <time>2023-03-11T12:39:58.534Z</time>
      </trkpt>
      <trkpt lat="47.05008" lon="7.06462">
        <ele>481.155127</ele>
        <time>2023-03-11T12:40:00.530Z</time>
      </trkpt>
      <trkpt lat="47.04999" lon="7.06468">
        <ele>481.034358</ele>
        <time>2023-03-11T12:40:02.547Z</time>
      </trkpt>
      <trkpt lat="47.0499" lon="7.06474">
        <ele>480.899331</ele>
        <time>2023-03-11T12:40:05.545Z</time>
      </trkpt>
      <trkpt lat="47.04981" lon="7.06482">
        <ele>480.764916</ele>
        <time>2023-03-11T12:40:08.525Z</time>
      </trkpt>
      <trkpt lat="47.04972" lon="7.06493">
        <ele>480.670438</ele>
        <time>2023-03-11T12:40:11.512Z</time>
      </trkpt>
      <trkpt lat="47.04964" lon="7.06502">
        <ele>480.7224</ele>
        <time>2023-03-11T12:40:14.548Z</time>
      </trkpt>
      <trkpt lat="47.04951" lon="7.0651">
        <ele>480.790829</ele>
        <time>2023-03-11T12:40:17.524Z</time>
      </trkpt>
      <trkpt lat="47.04942" lon="7.06509">
        <ele>480.836703</ele>
        <time>2023-03-11T12:40:19.536Z</time>
      </trkpt>
      <trkpt lat="47.04932" lon="7.06512">
        <ele>480.885154</ele>
        <time>2023-03-11T12:40:21.540Z</time>
      </trkpt>
      <trkpt lat="47.04919" lon="7.06512">
        <ele>480.948545</ele>
        <time>2023-03-11T12:40:24.540Z</time>
      </trkpt>
      <trkpt lat="47.04907" lon="7.06511">
        <ele>481.007604</ele>
        <time>2023-03-11T12:40:27.534Z</time>
      </trkpt>
      <trkpt lat="47.04895" lon="7.06509">
        <ele>481.0688</ele>
        <time>2023-03-11T12:40:30.547Z</time>
      </trkpt>
      <trkpt lat="47.04882" lon="7.06506">
        <ele>481.134774</ele>
        <time>2023-03-11T12:40:33.555Z</time>
      </trkpt>
      <trkpt lat="47.04872" lon="7.06504">
        <ele>481.180038</ele>
        <time>2023-03-11T12:40:35.549Z</time>
      </trkpt>
      <trkpt lat="47.04863" lon="7.06502">
        <ele>481.225303</ele>
        <time>2023-03-11T12:40:37.549Z</time>
      </trkpt>
      <trkpt lat="47.04854" lon="7.06498">
        <ele>481.272265</ele>
        <time>2023-03-11T12:40:39.547Z</time>
      </trkpt>
      <trkpt lat="47.04845" lon="7.06494">
        <ele>481.318942</ele>
        <time>2023-03-11T12:40:41.544Z</time>
      </trkpt>
      <trkpt lat="47.04836" lon="7.06489">
        <ele>481.366572</ele>
        <time>2023-03-11T12:40:43.557Z</time>
      </trkpt>
      <trkpt lat="47.04827" lon="7.06483">
        <ele>481.414849</ele>
        <time>2023-03-11T12:40:45.550Z</time>
      </trkpt>
      <trkpt lat="47.04819" lon="7.06475">
        <ele>481.463242</ele>
        <time>2023-03-11T12:40:47.539Z</time>
      </trkpt>
      <trkpt lat="47.0481" lon="7.06468">
        <ele>481.513078</ele>
        <time>2023-03-11T12:40:49.545Z</time>
      </trkpt>
      <trkpt lat="47.04802" lon="7.0646">
        <ele>481.549029</ele>
        <time>2023-03-11T12:40:51.555Z</time>
      </trkpt>
      <trkpt lat="47.04794" lon="7.06454">
        <ele>481.567784</ele>
        <time>2023-03-11T12:40:53.547Z</time>
      </trkpt>
      <trkpt lat="47.04783" lon="7.06456">
        <ele>481.59</ele>
        <time>2023-03-11T12:40:57.529Z</time>
      </trkpt>
      <trkpt lat="47.04775" lon="7.0645">
        <ele>481.608757</ele>
        <time>2023-03-11T12:41:00.544Z</time>
      </trkpt>
      <trkpt lat="47.04763" lon="7.06442">
        <ele>481.636004</ele>
        <time>2023-03-11T12:41:03.554Z</time>
      </trkpt>
      <trkpt lat="47.04753" lon="7.06442">
        <ele>481.657299</ele>
        <time>2023-03-11T12:41:05.538Z</time>
      </trkpt>
      <trkpt lat="47.04742" lon="7.06448">
        <ele>481.679957</ele>
        <time>2023-03-11T12:41:07.536Z</time>
      </trkpt>
      <trkpt lat="47.04735" lon="7.0646">
        <ele>481.703485</ele>
        <time>2023-03-11T12:41:09.546Z</time>
      </trkpt>
      <trkpt lat="47.04728" lon="7.06473">
        <ele>481.726843</ele>
        <time>2023-03-11T12:41:11.527Z</time>
      </trkpt>
      <trkpt lat="47.0472" lon="7.06485">
        <ele>481.749756</ele>
        <time>2023-03-11T12:41:13.575Z</time>
      </trkpt>
      <trkpt lat="47.04713" lon="7.06495">
        <ele>481.77002</ele>
        <time>2023-03-11T12:41:15.553Z</time>
      </trkpt>
      <trkpt lat="47.04705" lon="7.06509">
        <ele>481.79671</ele>
        <time>2023-03-11T12:41:18.568Z</time>
      </trkpt>
      <trkpt lat="47.04696" lon="7.06522">
        <ele>481.820805</ele>
        <time>2023-03-11T12:41:21.558Z</time>
      </trkpt>
      <trkpt lat="47.0469" lon="7.06533">
        <ele>481.84197</ele>
        <time>2023-03-11T12:41:24.538Z</time>
      </trkpt>
      <trkpt lat="47.04682" lon="7.06544">
        <ele>481.863938</ele>
        <time>2023-03-11T12:41:27.545Z</time>
      </trkpt>
      <trkpt lat="47.04675" lon="7.06557">
        <ele>481.888344</ele>
        <time>2023-03-11T12:41:30.556Z</time>
      </trkpt>
      <trkpt lat="47.04667" lon="7.06569">
        <ele>481.910522</ele>
        <time>2023-03-11T12:41:33.541Z</time>
      </trkpt>
      <trkpt lat="47.0466" lon="7.06578">
        <ele>481.980695</ele>
        <time>2023-03-11T12:41:36.562Z</time>
      </trkpt>
      <trkpt lat="47.04654" lon="7.06589">
        <ele>482.052881</ele>
        <time>2023-03-11T12:41:40.517Z</time>
      </trkpt>
      <trkpt lat="47.04647" lon="7.06597">
        <ele>482.122608</ele>
        <time>2023-03-11T12:41:50.518Z</time>
      </trkpt>
      <trkpt lat="47.0464" lon="7.06608">
        <ele>482.19938</ele>
        <time>2023-03-11T12:41:55.536Z</time>
      </trkpt>
      <trkpt lat="47.04632" lon="7.06618">
        <ele>482.279823</ele>
        <time>2023-03-11T12:41:59.532Z</time>
      </trkpt>
      <trkpt lat="47.04625" lon="7.0663">
        <ele>482.359227</ele>
        <time>2023-03-11T12:42:03.549Z</time>
      </trkpt>
      <trkpt lat="47.0462" lon="7.06641">
        <ele>482.430766</ele>
        <time>2023-03-11T12:42:07.553Z</time>
      </trkpt>
      <trkpt lat="47.0461" lon="7.0664">
        <ele>482.505048</ele>
        <time>2023-03-11T12:42:11.548Z</time>
      </trkpt>
      <trkpt lat="47.046" lon="7.06625">
        <ele>482.61502</ele>
        <time>2023-03-11T12:42:15.538Z</time>
      </trkpt>
      <trkpt lat="47.04595" lon="7.06614">
        <ele>482.684837</ele>
        <time>2023-03-11T12:42:17.550Z</time>
      </trkpt>
      <trkpt lat="47.04588" lon="7.06605">
        <ele>482.754</ele>
        <time>2023-03-11T12:42:19.531Z</time>
      </trkpt>
      <trkpt lat="47.04582" lon="7.06595">
        <ele>482.829325</ele>
        <time>2023-03-11T12:42:23.558Z</time>
      </trkpt>
      <trkpt lat="47.04575" lon="7.06583">
        <ele>482.910316</ele>
        <time>2023-03-11T12:42:27.556Z</time>
      </trkpt>
      <trkpt lat="47.04578" lon="7.0657">
        <ele>482.984863</ele>
        <time>2023-03-11T12:42:31.541Z</time>
      </trkpt>
      <trkpt lat="47.04588" lon="7.06565">
        <ele>483.064098</ele>
        <time>2023-03-11T12:42:34.534Z</time>
      </trkpt>
      <trkpt lat="47.04596" lon="7.06557">
        <ele>483.139895</ele>
        <time>2023-03-11T12:42:37.532Z</time>
      </trkpt>
      <trkpt lat="47.04608" lon="7.06548">
        <ele>483.239594</ele>
        <time>2023-03-11T12:42:40.561Z</time>
      </trkpt>
      <trkpt lat="47.04616" lon="7.06542">
        <ele>483.288948</ele>
        <time>2023-03-11T12:42:42.538Z</time>
      </trkpt>
      <trkpt lat="47.04624" lon="7.06535">
        <ele>483.291207</ele>
        <time>2023-03-11T12:42:44.549Z</time>
      </trkpt>
      <trkpt lat="47.04635" lon="7.06525">
        <ele>483.294375</ele>
        <time>2023-03-11T12:42:47.565Z</time>
      </trkpt>
      <trkpt lat="47.04648" lon="7.06518">
        <ele>483.29746</ele>
        <time>2023-03-11T12:42:50.551Z</time>
      </trkpt>
      <trkpt lat="47.04657" lon="7.06516">
        <ele>483.299701</ele>
        <time>2023-03-11T12:42:52.507Z</time>
      </trkpt>
      <trkpt lat="47.04666" lon="7.06512">
        <ele>483.301852</ele>
        <time>2023-03-11T12:42:54.566Z</time>
      </trkpt>
      <trkpt lat="47.04677" lon="7.06504">
        <ele>483.304783</ele>
        <time>2023-03-11T12:42:57.529Z</time>
      </trkpt>
      <trkpt lat="47.04687" lon="7.06492">
        <ele>483.307764</ele>
        <time>2023-03-11T12:43:00.529Z</time>
      </trkpt>
      <trkpt lat="47.04697" lon="7.0648">
        <ele>483.310923</ele>
        <time>2023-03-11T12:43:03.554Z</time>
      </trkpt>
      <trkpt lat="47.04704" lon="7.06472">
        <ele>483.313069</ele>
        <time>2023-03-11T12:43:05.555Z</time>
      </trkpt>
      <trkpt lat="47.04713" lon="7.06458">
        <ele>483.316178</ele>
        <time>2023-03-11T12:43:08.546Z</time>
      </trkpt>
      <trkpt lat="47.0472" lon="7.0645">
        <ele>483.318308</ele>
        <time>2023-03-11T12:43:10.545Z</time>
      </trkpt>
      <trkpt lat="47.04727" lon="7.06441">
        <ele>483.320455</ele>
        <time>2023-03-11T12:43:12.547Z</time>
      </trkpt>
      <trkpt lat="47.04737" lon="7.06428">
        <ele>483.323514</ele>
        <time>2023-03-11T12:43:15.551Z</time>
      </trkpt>
      <trkpt lat="47.04745" lon="7.06417">
        <ele>483.326128</ele>
        <time>2023-03-11T12:43:18.551Z</time>
      </trkpt>
      <trkpt lat="47.04753" lon="7.06407">
        <ele>483.328655</ele>
        <time>2023-03-11T12:43:22.558Z</time>
      </trkpt>
      <trkpt lat="47.0475" lon="7.0642">
        <ele>483.330784</ele>
        <time>2023-03-11T12:43:40.541Z</time>
      </trkpt>
      <trkpt lat="47.04742" lon="7.06432">
        <ele>483.648007</ele>
        <time>2023-03-11T12:43:44.534Z</time>
      </trkpt>
      <trkpt lat="47.04735" lon="7.06442">
        <ele>483.942413</ele>
        <time>2023-03-11T12:43:47.555Z</time>
      </trkpt>
      <trkpt lat="47.04726" lon="7.06454">
        <ele>484.270604</ele>
        <time>2023-03-11T12:43:50.550Z</time>
      </trkpt>
      <trkpt lat="47.04717" lon="7.06467">
        <ele>484.63213</ele>
        <time>2023-03-11T12:43:53.549Z</time>
      </trkpt>
      <trkpt lat="47.0471" lon="7.06476">
        <ele>484.913212</ele>
        <time>2023-03-11T12:43:55.557Z</time>
      </trkpt>
      <trkpt lat="47.04702" lon="7.06487">
        <ele>485.220778</ele>
        <time>2023-03-11T12:43:57.548Z</time>
      </trkpt>
      <trkpt lat="47.04693" lon="7.06498">
        <ele>485.538828</ele>
        <time>2023-03-11T12:43:59.551Z</time>
      </trkpt>
      <trkpt lat="47.04685" lon="7.0651">
        <ele>485.866352</ele>
        <time>2023-03-11T12:44:01.546Z</time>
      </trkpt>
      <trkpt lat="47.04677" lon="7.06522">
        <ele>486.198661</ele>
        <time>2023-03-11T12:44:03.558Z</time>
      </trkpt>
      <trkpt lat="47.04669" lon="7.06534">
        <ele>486.529581</ele>
        <time>2023-03-11T12:44:05.553Z</time>
      </trkpt>
      <trkpt lat="47.0466" lon="7.06546">
        <ele>486.863896</ele>
        <time>2023-03-11T12:44:07.563Z</time>
      </trkpt>
      <trkpt lat="47.04652" lon="7.06557">
        <ele>487.176652</ele>
        <time>2023-03-11T12:44:09.548Z</time>
      </trkpt>
      <trkpt lat="47.04644" lon="7.06568">
        <ele>487.492044</ele>
        <time>2023-03-11T12:44:11.556Z</time>
      </trkpt>
      <trkpt lat="47.04635" lon="7.0658">
        <ele>487.831829</ele>
        <time>2023-03-11T12:44:13.552Z</time>
      </trkpt>
      <trkpt lat="47.04626" lon="7.06591">
        <ele>488.184282</ele>
        <time>2023-03-11T12:44:15.551Z</time>
      </trkpt>
      <trkpt lat="47.04617" lon="7.06603">
        <ele>488.459656</ele>
        <time>2023-03-11T12:44:17.555Z</time>
      </trkpt>
      <trkpt lat="47.04608" lon="7.06615">
        <ele>488.501696</ele>
        <time>2023-03-11T12:44:19.545Z</time>
      </trkpt>
      <trkpt lat="47.04601" lon="7.06626">
        <ele>488.540616</ele>
        <time>2023-03-11T12:44:21.551Z</time>
      </trkpt>
      <trkpt lat="47.04593" lon="7.06636">
        <ele>488.579059</ele>
        <time>2023-03-11T12:44:23.540Z</time>
      </trkpt>
      <trkpt lat="47.04585" lon="7.06646">
        <ele>488.616253</ele>
        <time>2023-03-11T12:44:25.564Z</time>
      </trkpt>
      <trkpt lat="47.04577" lon="7.06656">
        <ele>488.65553</ele>
        <time>2023-03-11T12:44:27.547Z</time>
      </trkpt>
      <trkpt lat="47.04569" lon="7.06667">
        <ele>488.69474</ele>
        <time>2023-03-11T12:44:29.555Z</time>
      </trkpt>
      <trkpt lat="47.04561" lon="7.06679">
        <ele>488.735913</ele>
        <time>2023-03-11T12:44:31.553Z</time>
      </trkpt>
      <trkpt lat="47.04553" lon="7.0669">
        <ele>488.777519</ele>
        <time>2023-03-11T12:44:33.555Z</time>
      </trkpt>
      <trkpt lat="47.04544" lon="7.06702">
        <ele>488.820013</ele>
        <time>2023-03-11T12:44:35.558Z</time>
      </trkpt>
      <trkpt lat="47.04535" lon="7.06713">
        <ele>488.863316</ele>
        <time>2023-03-11T12:44:37.547Z</time>
      </trkpt>
      <trkpt lat="47.04526" lon="7.06726">
        <ele>488.907783</ele>
        <time>2023-03-11T12:44:39.553Z</time>
      </trkpt>
      <trkpt lat="47.04518" lon="7.0674">
        <ele>488.954348</ele>
        <time>2023-03-11T12:44:41.548Z</time>
      </trkpt>
      <trkpt lat="47.04507" lon="7.06754">
        <ele>489.006789</ele>
        <time>2023-03-11T12:44:43.562Z</time>
      </trkpt>
      <trkpt lat="47.04497" lon="7.06769">
        <ele>489.060097</ele>
        <time>2023-03-11T12:44:45.555Z</time>
      </trkpt>
      <trkpt lat="47.04486" lon="7.06784">
        <ele>489.022266</ele>
        <time>2023-03-11T12:44:47.547Z</time>
      </trkpt>
      <trkpt lat="47.04476" lon="7.06799">
        <ele>488.591495</ele>
        <time>2023-03-11T12:44:49.572Z</time>
      </trkpt>
      <trkpt lat="47.04466" lon="7.06813">
        <ele>488.179331</ele>
        <time>2023-03-11T12:44:51.551Z</time>
      </trkpt>
      <trkpt lat="47.04455" lon="7.06827">
        <ele>487.752129</ele>
        <time>2023-03-11T12:44:53.556Z</time>
      </trkpt>
      <trkpt lat="47.04445" lon="7.06841">
        <ele>487.332061</ele>
        <time>2023-03-11T12:44:55.545Z</time>
      </trkpt>
      <trkpt lat="47.04434" lon="7.06856">
        <ele>486.905647</ele>
        <time>2023-03-11T12:44:57.554Z</time>
      </trkpt>
      <trkpt lat="47.04424" lon="7.0687">
        <ele>486.489145</ele>
        <time>2023-03-11T12:44:59.537Z</time>
      </trkpt>
      <trkpt lat="47.04414" lon="7.06883">
        <ele>486.090464</ele>
        <time>2023-03-11T12:45:01.532Z</time>
      </trkpt>
      <trkpt lat="47.04404" lon="7.06897">
        <ele>485.67773</ele>
        <time>2023-03-11T12:45:03.553Z</time>
      </trkpt>
      <trkpt lat="47.04394" lon="7.0691">
        <ele>485.270526</ele>
        <time>2023-03-11T12:45:05.547Z</time>
      </trkpt>
      <trkpt lat="47.04385" lon="7.06924">
        <ele>484.86547</ele>
        <time>2023-03-11T12:45:07.552Z</time>
      </trkpt>
      <trkpt lat="47.04376" lon="7.06938">
        <ele>484.485435</ele>
        <time>2023-03-11T12:45:09.540Z</time>
      </trkpt>
      <trkpt lat="47.04367" lon="7.06952">
        <ele>484.100299</ele>
        <time>2023-03-11T12:45:11.549Z</time>
      </trkpt>
      <trkpt lat="47.04358" lon="7.06966">
        <ele>483.731032</ele>
        <time>2023-03-11T12:45:13.560Z</time>
      </trkpt>
      <trkpt lat="47.04355" lon="7.06985">
        <ele>483.637001</ele>
        <time>2023-03-11T12:45:15.553Z</time>
      </trkpt>
      <trkpt lat="47.04363" lon="7.07001">
        <ele>483.540975</ele>
        <time>2023-03-11T12:45:17.539Z</time>
      </trkpt>
      <trkpt lat="47.04372" lon="7.07012">
        <ele>483.454238</ele>
        <time>2023-03-11T12:45:19.530Z</time>
      </trkpt>
      <trkpt lat="47.04365" lon="7.06999">
        <ele>483.37228</ele>
        <time>2023-03-11T12:45:30.544Z</time>
      </trkpt>
      <trkpt lat="47.0436" lon="7.06984">
        <ele>483.287719</ele>
        <time>2023-03-11T12:45:33.534Z</time>
      </trkpt>
      <trkpt lat="47.04352" lon="7.06972">
        <ele>483.207486</ele>
        <time>2023-03-11T12:45:36.537Z</time>
      </trkpt>
      <trkpt lat="47.04343" lon="7.06978">
        <ele>483.136809</ele>
        <time>2023-03-11T12:45:38.533Z</time>
      </trkpt>
      <trkpt lat="47.04333" lon="7.06989">
        <ele>483.05204</ele>
        <time>2023-03-11T12:45:40.533Z</time>
      </trkpt>
      <trkpt lat="47.04324" lon="7.07">
        <ele>482.969051</ele>
        <time>2023-03-11T12:45:42.562Z</time>
      </trkpt>
      <trkpt lat="47.04315" lon="7.07011">
        <ele>482.884052</ele>
        <time>2023-03-11T12:45:44.535Z</time>
      </trkpt>
      <trkpt lat="47.04306" lon="7.07022">
        <ele>482.799463</ele>
        <time>2023-03-11T12:45:46.553Z</time>
      </trkpt>
      <trkpt lat="47.04298" lon="7.07032">
        <ele>482.721637</ele>
        <time>2023-03-11T12:45:48.555Z</time>
      </trkpt>
      <trkpt lat="47.0429" lon="7.07042">
        <ele>482.644369</ele>
        <time>2023-03-11T12:45:50.561Z</time>
      </trkpt>
      <trkpt lat="47.04281" lon="7.07051">
        <ele>482.568374</ele>
        <time>2023-03-11T12:45:52.551Z</time>
      </trkpt>
      <trkpt lat="47.04273" lon="7.0706">
        <ele>482.49412</ele>
        <time>2023-03-11T12:45:54.555Z</time>
      </trkpt>
      <trkpt lat="47.04265" lon="7.0707">
        <ele>482.449072</ele>
        <time>2023-03-11T12:45:56.555Z</time>
      </trkpt>
      <trkpt lat="47.04257" lon="7.07078">
        <ele>482.458995</ele>
        <time>2023-03-11T12:45:58.553Z</time>
      </trkpt>
      <trkpt lat="47.04249" lon="7.07086">
        <ele>482.468912</ele>
        <time>2023-03-11T12:46:00.555Z</time>
      </trkpt>
      <trkpt lat="47.0424" lon="7.07099">
        <ele>482.481432</ele>
        <time>2023-03-11T12:46:03.544Z</time>
      </trkpt>
      <trkpt lat="47.04231" lon="7.07114">
        <ele>482.495438</ele>
        <time>2023-03-11T12:46:06.539Z</time>
      </trkpt>
      <trkpt lat="47.04229" lon="7.07132">
        <ele>482.507837</ele>
        <time>2023-03-11T12:46:09.527Z</time>
      </trkpt>
      <trkpt lat="47.04236" lon="7.07144">
        <ele>482.519009</ele>
        <time>2023-03-11T12:46:11.538Z</time>
      </trkpt>
      <trkpt lat="47.04245" lon="7.07155">
        <ele>482.5308</ele>
        <time>2023-03-11T12:46:13.536Z</time>
      </trkpt>
      <trkpt lat="47.04253" lon="7.0717">
        <ele>482.543535</ele>
        <time>2023-03-11T12:46:15.540Z</time>
      </trkpt>
      <trkpt lat="47.0426" lon="7.07184">
        <ele>482.556147</ele>
        <time>2023-03-11T12:46:17.566Z</time>
      </trkpt>
      <trkpt lat="47.04267" lon="7.07199">
        <ele>482.568467</ele>
        <time>2023-03-11T12:46:19.555Z</time>
      </trkpt>
      <trkpt lat="47.04273" lon="7.07213">
        <ele>482.579755</ele>
        <time>2023-03-11T12:46:21.563Z</time>
      </trkpt>
      <trkpt lat="47.0428" lon="7.07225">
        <ele>482.59054</ele>
        <time>2023-03-11T12:46:23.560Z</time>
      </trkpt>
      <trkpt lat="47.04286" lon="7.07239">
        <ele>482.601998</ele>
        <time>2023-03-11T12:46:25.569Z</time>
      </trkpt>
      <trkpt lat="47.04292" lon="7.07252">
        <ele>482.613</ele>
        <time>2023-03-11T12:46:27.558Z</time>
      </trkpt>
      <trkpt lat="47.04298" lon="7.07266">
        <ele>482.624126</ele>
        <time>2023-03-11T12:46:29.574Z</time>
      </trkpt>
      <trkpt lat="47.04304" lon="7.07279">
        <ele>482.650424</ele>
        <time>2023-03-11T12:46:31.557Z</time>
      </trkpt>
      <trkpt lat="47.0431" lon="7.07292">
        <ele>482.683279</ele>
        <time>2023-03-11T12:46:33.559Z</time>
      </trkpt>
      <trkpt lat="47.04316" lon="7.07303">
        <ele>482.713496</ele>
        <time>2023-03-11T12:46:35.546Z</time>
      </trkpt>
      <trkpt lat="47.04321" lon="7.07314">
        <ele>482.744204</ele>
        <time>2023-03-11T12:46:37.549Z</time>
      </trkpt>
      <trkpt lat="47.04327" lon="7.07326">
        <ele>482.775982</ele>
        <time>2023-03-11T12:46:39.570Z</time>
      </trkpt>
      <trkpt lat="47.04333" lon="7.07339">
        <ele>482.80884</ele>
        <time>2023-03-11T12:46:41.553Z</time>
      </trkpt>
      <trkpt lat="47.04338" lon="7.07351">
        <ele>482.839919</ele>
        <time>2023-03-11T12:46:43.561Z</time>
      </trkpt>
      <trkpt lat="47.04343" lon="7.07362">
        <ele>482.870115</ele>
        <time>2023-03-11T12:46:45.567Z</time>
      </trkpt>
      <trkpt lat="47.04348" lon="7.07374">
        <ele>482.899785</ele>
        <time>2023-03-11T12:46:47.557Z</time>
      </trkpt>
      <trkpt lat="47.04353" lon="7.07385">
        <ele>482.928519</ele>
        <time>2023-03-11T12:46:49.579Z</time>
      </trkpt>
      <trkpt lat="47.04358" lon="7.07396">
        <ele>482.958146</ele>
        <time>2023-03-11T12:46:51.558Z</time>
      </trkpt>
      <trkpt lat="47.04364" lon="7.07407">
        <ele>482.987249</ele>
        <time>2023-03-11T12:46:53.566Z</time>
      </trkpt>
      <trkpt lat="47.04369" lon="7.07417">
        <ele>483.016111</ele>
        <time>2023-03-11T12:46:55.557Z</time>
      </trkpt>
      <trkpt lat="47.04375" lon="7.07429">
        <ele>483.047544</ele>
        <time>2023-03-11T12:46:57.561Z</time>
      </trkpt>
      <trkpt lat="47.0438" lon="7.07442">
        <ele>483.080481</ele>
        <time>2023-03-11T12:46:59.569Z</time>
      </trkpt>
      <trkpt lat="47.04387" lon="7.07455">
        <ele>483.115138</ele>
        <time>2023-03-11T12:47:01.569Z</time>
      </trkpt>
      <trkpt lat="47.04393" lon="7.07468">
        <ele>483.149253</ele>
        <time>2023-03-11T12:47:03.557Z</time>
      </trkpt>
      <trkpt lat="47.04399" lon="7.07481">
        <ele>483.182656</ele>
        <time>2023-03-11T12:47:05.561Z</time>
      </trkpt>
      <trkpt lat="47.04404" lon="7.07493">
        <ele>483.18823</ele>
        <time>2023-03-11T12:47:07.570Z</time>
      </trkpt>
      <trkpt lat="47.04409" lon="7.07505">
        <ele>483.156877</ele>
        <time>2023-03-11T12:47:09.545Z</time>
      </trkpt>
      <trkpt lat="47.04414" lon="7.07516">
        <ele>483.126873</ele>
        <time>2023-03-11T12:47:11.559Z</time>
      </trkpt>
      <trkpt lat="47.04421" lon="7.07527">
        <ele>483.096182</ele>
        <time>2023-03-11T12:47:13.550Z</time>
      </trkpt>
      <trkpt lat="47.04426" lon="7.07538">
        <ele>483.066178</ele>
        <time>2023-03-11T12:47:15.561Z</time>
      </trkpt>
      <trkpt lat="47.04433" lon="7.07549">
        <ele>483.03407</ele>
        <time>2023-03-11T12:47:17.553Z</time>
      </trkpt>
      <trkpt lat="47.04438" lon="7.07561">
        <ele>483.004247</ele>
        <time>2023-03-11T12:47:19.548Z</time>
      </trkpt>
      <trkpt lat="47.04443" lon="7.07573">
        <ele>482.973549</ele>
        <time>2023-03-11T12:47:21.552Z</time>
      </trkpt>
      <trkpt lat="47.04449" lon="7.07584">
        <ele>482.942218</ele>
        <time>2023-03-11T12:47:23.536Z</time>
      </trkpt>
      <trkpt lat="47.04455" lon="7.07595">
        <ele>482.910373</ele>
        <time>2023-03-11T12:47:25.563Z</time>
      </trkpt>
      <trkpt lat="47.04461" lon="7.07607">
        <ele>482.877834</ele>
        <time>2023-03-11T12:47:27.562Z</time>
      </trkpt>
      <trkpt lat="47.04467" lon="7.0762">
        <ele>482.844226</ele>
        <time>2023-03-11T12:47:29.556Z</time>
      </trkpt>
      <trkpt lat="47.04474" lon="7.07633">
        <ele>482.809736</ele>
        <time>2023-03-11T12:47:31.559Z</time>
      </trkpt>
      <trkpt lat="47.0448" lon="7.07645">
        <ele>482.776504</ele>
        <time>2023-03-11T12:47:33.560Z</time>
      </trkpt>
      <trkpt lat="47.04486" lon="7.07656">
        <ele>482.744431</ele>
        <time>2023-03-11T12:47:35.567Z</time>
      </trkpt>
      <trkpt lat="47.04492" lon="7.07669">
        <ele>482.709563</ele>
        <time>2023-03-11T12:47:37.556Z</time>
      </trkpt>
      <trkpt lat="47.04498" lon="7.07681">
        <ele>482.678475</ele>
        <time>2023-03-11T12:47:39.555Z</time>
      </trkpt>
      <trkpt lat="47.04504" lon="7.07693">
        <ele>482.645243</ele>
        <time>2023-03-11T12:47:41.577Z</time>
      </trkpt>
      <trkpt lat="47.04511" lon="7.07705">
        <ele>482.630677</ele>
        <time>2023-03-11T12:47:43.560Z</time>
      </trkpt>
      <trkpt lat="47.04517" lon="7.07716">
        <ele>482.645992</ele>
        <time>2023-03-11T12:47:45.558Z</time>
      </trkpt>
      <trkpt lat="47.04523" lon="7.07729">
        <ele>482.662826</ele>
        <time>2023-03-11T12:47:47.558Z</time>
      </trkpt>
      <trkpt lat="47.0453" lon="7.07741">
        <ele>482.679298</ele>
        <time>2023-03-11T12:47:49.554Z</time>
      </trkpt>
      <trkpt lat="47.04536" lon="7.07753">
        <ele>482.695654</ele>
        <time>2023-03-11T12:47:51.565Z</time>
      </trkpt>
      <trkpt lat="47.04542" lon="7.07766">
        <ele>482.712455</ele>
        <time>2023-03-11T12:47:53.559Z</time>
      </trkpt>
      <trkpt lat="47.04548" lon="7.07779">
        <ele>482.729418</ele>
        <time>2023-03-11T12:47:55.531Z</time>
      </trkpt>
      <trkpt lat="47.04555" lon="7.07792">
        <ele>482.746853</ele>
        <time>2023-03-11T12:47:57.559Z</time>
      </trkpt>
      <trkpt lat="47.04561" lon="7.07804">
        <ele>482.763389</ele>
        <time>2023-03-11T12:47:59.553Z</time>
      </trkpt>
      <trkpt lat="47.04568" lon="7.07817">
        <ele>482.780265</ele>
        <time>2023-03-11T12:48:01.560Z</time>
      </trkpt>
      <trkpt lat="47.04574" lon="7.07829">
        <ele>482.796834</ele>
        <time>2023-03-11T12:48:03.538Z</time>
      </trkpt>
      <trkpt lat="47.04581" lon="7.07842">
        <ele>482.813455</ele>
        <time>2023-03-11T12:48:05.557Z</time>
      </trkpt>
      <trkpt lat="47.04587" lon="7.07854">
        <ele>482.829718</ele>
        <time>2023-03-11T12:48:07.551Z</time>
      </trkpt>
      <trkpt lat="47.04593" lon="7.07866">
        <ele>482.84589</ele>
        <time>2023-03-11T12:48:09.559Z</time>
      </trkpt>
      <trkpt lat="47.04598" lon="7.07878">
        <ele>482.861527</ele>
        <time>2023-03-11T12:48:11.560Z</time>
      </trkpt>
      <trkpt lat="47.04604" lon="7.07889">
        <ele>482.876016</ele>
        <time>2023-03-11T12:48:13.558Z</time>
      </trkpt>
      <trkpt lat="47.04608" lon="7.07902">
        <ele>482.890699</ele>
        <time>2023-03-11T12:48:15.543Z</time>
      </trkpt>
      <trkpt lat="47.04608" lon="7.07917">
        <ele>482.90735</ele>
        <time>2023-03-11T12:48:18.538Z</time>
      </trkpt>
      <trkpt lat="47.04601" lon="7.07929">
        <ele>482.952687</ele>
        <time>2023-03-11T12:48:21.537Z</time>
      </trkpt>
      <trkpt lat="47.04594" lon="7.07939">
        <ele>482.991092</ele>
        <time>2023-03-11T12:48:23.535Z</time>
      </trkpt>
      <trkpt lat="47.04586" lon="7.07949">
        <ele>483.033422</ele>
        <time>2023-03-11T12:48:25.534Z</time>
      </trkpt>
      <trkpt lat="47.04579" lon="7.0796">
        <ele>483.075999</ele>
        <time>2023-03-11T12:48:27.556Z</time>
      </trkpt>
      <trkpt lat="47.04573" lon="7.07971">
        <ele>483.11521</ele>
        <time>2023-03-11T12:48:29.559Z</time>
      </trkpt>
      <trkpt lat="47.04567" lon="7.07981">
        <ele>483.152735</ele>
        <time>2023-03-11T12:48:31.570Z</time>
      </trkpt>
      <trkpt lat="47.04561" lon="7.07992">
        <ele>483.191207</ele>
        <time>2023-03-11T12:48:33.578Z</time>
      </trkpt>
      <trkpt lat="47.04554" lon="7.08002">
        <ele>483.229118</ele>
        <time>2023-03-11T12:48:35.539Z</time>
      </trkpt>
      <trkpt lat="47.04545" lon="7.08017">
        <ele>483.283739</ele>
        <time>2023-03-11T12:48:38.546Z</time>
      </trkpt>
      <trkpt lat="47.04539" lon="7.08027">
        <ele>483.321579</ele>
        <time>2023-03-11T12:48:40.555Z</time>
      </trkpt>
      <trkpt lat="47.04533" lon="7.08038">
        <ele>483.361164</ele>
        <time>2023-03-11T12:48:42.572Z</time>
      </trkpt>
      <trkpt lat="47.04526" lon="7.08048">
        <ele>483.400168</ele>
        <time>2023-03-11T12:48:44.560Z</time>
      </trkpt>
      <trkpt lat="47.0452" lon="7.08058">
        <ele>483.437863</ele>
        <time>2023-03-11T12:48:46.564Z</time>
      </trkpt>
      <trkpt lat="47.04513" lon="7.08069">
        <ele>483.478512</ele>
        <time>2023-03-11T12:48:48.548Z</time>
      </trkpt>
      <trkpt lat="47.04506" lon="7.0808">
        <ele>483.520246</ele>
        <time>2023-03-11T12:48:50.562Z</time>
      </trkpt>
      <trkpt lat="47.04499" lon="7.0809">
        <ele>483.560778</ele>
        <time>2023-03-11T12:48:52.559Z</time>
      </trkpt>
      <trkpt lat="47.04493" lon="7.081">
        <ele>483.600594</ele>
        <time>2023-03-11T12:48:54.556Z</time>
      </trkpt>
      <trkpt lat="47.04486" lon="7.08111">
        <ele>483.636174</ele>
        <time>2023-03-11T12:48:56.559Z</time>
      </trkpt>
      <trkpt lat="47.04479" lon="7.08123">
        <ele>483.589971</ele>
        <time>2023-03-11T12:48:59.560Z</time>
      </trkpt>
      <trkpt lat="47.04474" lon="7.08135">
        <ele>483.5496</ele>
        <time>2023-03-11T12:49:02.558Z</time>
      </trkpt>
      <trkpt lat="47.0448" lon="7.08149">
        <ele>483.502028</ele>
        <time>2023-03-11T12:49:05.546Z</time>
      </trkpt>
      <trkpt lat="47.04485" lon="7.08161">
        <ele>483.459248</ele>
        <time>2023-03-11T12:49:07.538Z</time>
      </trkpt>
      <trkpt lat="47.0449" lon="7.08174">
        <ele>483.41679</ele>
        <time>2023-03-11T12:49:09.538Z</time>
      </trkpt>
      <trkpt lat="47.04495" lon="7.08186">
        <ele>483.37578</ele>
        <time>2023-03-11T12:49:11.536Z</time>
      </trkpt>
      <trkpt lat="47.04501" lon="7.08203">
        <ele>483.319637</ele>
        <time>2023-03-11T12:49:14.550Z</time>
      </trkpt>
      <trkpt lat="47.04507" lon="7.0822">
        <ele>483.262084</ele>
        <time>2023-03-11T12:49:17.560Z</time>
      </trkpt>
      <trkpt lat="47.04512" lon="7.08232">
        <ele>483.220394</ele>
        <time>2023-03-11T12:49:19.556Z</time>
      </trkpt>
      <trkpt lat="47.04516" lon="7.08245">
        <ele>483.17849</ele>
        <time>2023-03-11T12:49:21.558Z</time>
      </trkpt>
      <trkpt lat="47.04521" lon="7.08258">
        <ele>483.136076</ele>
        <time>2023-03-11T12:49:23.562Z</time>
      </trkpt>
      <trkpt lat="47.04525" lon="7.0827">
        <ele>483.096398</ele>
        <time>2023-03-11T12:49:25.560Z</time>
      </trkpt>
      <trkpt lat="47.04531" lon="7.08284">
        <ele>483.046978</ele>
        <time>2023-03-11T12:49:28.563Z</time>
      </trkpt>
      <trkpt lat="47.04536" lon="7.083">
        <ele>482.995901</ele>
        <time>2023-03-11T12:49:31.561Z</time>
      </trkpt>
      <trkpt lat="47.0454" lon="7.08312">
        <ele>482.956285</ele>
        <time>2023-03-11T12:49:33.572Z</time>
      </trkpt>
      <trkpt lat="47.04544" lon="7.08325">
        <ele>482.914625</ele>
        <time>2023-03-11T12:49:35.541Z</time>
      </trkpt>
      <trkpt lat="47.04548" lon="7.08338">
        <ele>482.872459</ele>
        <time>2023-03-11T12:49:37.551Z</time>
      </trkpt>
      <trkpt lat="47.04553" lon="7.08351">
        <ele>482.889562</ele>
        <time>2023-03-11T12:49:39.567Z</time>
      </trkpt>
      <trkpt lat="47.04557" lon="7.08364">
        <ele>482.924322</ele>
        <time>2023-03-11T12:49:41.551Z</time>
      </trkpt>
      <trkpt lat="47.04561" lon="7.08377">
        <ele>482.956759</ele>
        <time>2023-03-11T12:49:43.527Z</time>
      </trkpt>
      <trkpt lat="47.04566" lon="7.08396">
        <ele>483.006778</ele>
        <time>2023-03-11T12:49:46.552Z</time>
      </trkpt>
      <trkpt lat="47.04569" lon="7.08414">
        <ele>483.051002</ele>
        <time>2023-03-11T12:49:49.537Z</time>
      </trkpt>
      <trkpt lat="47.04573" lon="7.08432">
        <ele>483.097181</ele>
        <time>2023-03-11T12:49:52.560Z</time>
      </trkpt>
      <trkpt lat="47.04578" lon="7.08446">
        <ele>483.133331</ele>
        <time>2023-03-11T12:49:54.567Z</time>
      </trkpt>
      <trkpt lat="47.04585" lon="7.08459">
        <ele>483.17292</ele>
        <time>2023-03-11T12:49:56.537Z</time>
      </trkpt>
      <trkpt lat="47.04591" lon="7.08474">
        <ele>483.214276</ele>
        <time>2023-03-11T12:49:59.533Z</time>
      </trkpt>
      <trkpt lat="47.04599" lon="7.08485">
        <ele>483.254098</ele>
        <time>2023-03-11T12:50:02.542Z</time>
      </trkpt>
      <trkpt lat="47.04611" lon="7.0849">
        <ele>483.296131</ele>
        <time>2023-03-11T12:50:05.546Z</time>
      </trkpt>
      <trkpt lat="47.04613" lon="7.08508">
        <ele>483.340433</ele>
        <time>2023-03-11T12:50:08.525Z</time>
      </trkpt>
      <trkpt lat="47.04606" lon="7.08524">
        <ele>483.384692</ele>
        <time>2023-03-11T12:50:11.534Z</time>
      </trkpt>
      <trkpt lat="47.04599" lon="7.08539">
        <ele>483.428358</ele>
        <time>2023-03-11T12:50:14.575Z</time>
      </trkpt>
      <trkpt lat="47.04592" lon="7.08552">
        <ele>483.468539</ele>
        <time>2023-03-11T12:50:17.541Z</time>
      </trkpt>
      <trkpt lat="47.04584" lon="7.08563">
        <ele>483.53401</ele>
        <time>2023-03-11T12:50:21.566Z</time>
      </trkpt>
      <trkpt lat="47.04577" lon="7.08576">
        <ele>483.646067</ele>
        <time>2023-03-11T12:50:25.553Z</time>
      </trkpt>
      <trkpt lat="47.04572" lon="7.08591">
        <ele>483.764598</ele>
        <time>2023-03-11T12:50:28.548Z</time>
      </trkpt>
      <trkpt lat="47.0457" lon="7.08604">
        <ele>483.861787</ele>
        <time>2023-03-11T12:50:30.533Z</time>
      </trkpt>
      <trkpt lat="47.04568" lon="7.08623">
        <ele>483.995835</ele>
        <time>2023-03-11T12:50:33.562Z</time>
      </trkpt>
      <trkpt lat="47.04566" lon="7.08636">
        <ele>484.087918</ele>
        <time>2023-03-11T12:50:35.554Z</time>
      </trkpt>
      <trkpt lat="47.04567" lon="7.08652">
        <ele>484.202016</ele>
        <time>2023-03-11T12:50:38.543Z</time>
      </trkpt>
      <trkpt lat="47.04574" lon="7.08667">
        <ele>484.326541</ele>
        <time>2023-03-11T12:50:41.546Z</time>
      </trkpt>
      <trkpt lat="47.04576" lon="7.0868">
        <ele>484.420117</ele>
        <time>2023-03-11T12:50:43.531Z</time>
      </trkpt>
      <trkpt lat="47.04576" lon="7.08698">
        <ele>484.550413</ele>
        <time>2023-03-11T12:50:46.557Z</time>
      </trkpt>
      <trkpt lat="47.04577" lon="7.08712">
        <ele>484.643261</ele>
        <time>2023-03-11T12:50:48.559Z</time>
      </trkpt>
      <trkpt lat="47.04574" lon="7.08729">
        <ele>484.768707</ele>
        <time>2023-03-11T12:50:51.540Z</time>
      </trkpt>
      <trkpt lat="47.04573" lon="7.08747">
        <ele>484.890062</ele>
        <time>2023-03-11T12:50:54.563Z</time>
      </trkpt>
      <trkpt lat="47.04571" lon="7.08761">
        <ele>484.988815</ele>
        <time>2023-03-11T12:50:56.569Z</time>
      </trkpt>
      <trkpt lat="47.04565" lon="7.08775">
        <ele>485.107843</ele>
        <time>2023-03-11T12:50:59.542Z</time>
      </trkpt>
      <trkpt lat="47.04558" lon="7.08788">
        <ele>485.223998</ele>
        <time>2023-03-11T12:51:02.525Z</time>
      </trkpt>
      <trkpt lat="47.04552" lon="7.08803">
        <ele>485.2991</ele>
        <time>2023-03-11T12:51:05.549Z</time>
      </trkpt>
      <trkpt lat="47.04546" lon="7.08816">
        <ele>485.064508</ele>
        <time>2023-03-11T12:51:08.546Z</time>
      </trkpt>
      <trkpt lat="47.04541" lon="7.08833">
        <ele>484.786562</ele>
        <time>2023-03-11T12:51:11.537Z</time>
      </trkpt>
      <trkpt lat="47.04538" lon="7.08848">
        <ele>484.543284</ele>
        <time>2023-03-11T12:51:14.545Z</time>
      </trkpt>
      <trkpt lat="47.0454" lon="7.08862">
        <ele>484.33059</ele>
        <time>2023-03-11T12:51:17.550Z</time>
      </trkpt>
      <trkpt lat="47.04542" lon="7.08878">
        <ele>484.091427</ele>
        <time>2023-03-11T12:51:20.554Z</time>
      </trkpt>
      <trkpt lat="47.04545" lon="7.08893">
        <ele>483.844112</ele>
        <time>2023-03-11T12:51:23.526Z</time>
      </trkpt>
      <trkpt lat="47.04547" lon="7.0891">
        <ele>483.581429</ele>
        <time>2023-03-11T12:51:26.559Z</time>
      </trkpt>
      <trkpt lat="47.04549" lon="7.08925">
        <ele>483.357609</ele>
        <time>2023-03-11T12:51:29.559Z</time>
      </trkpt>
      <trkpt lat="47.0455" lon="7.08941">
        <ele>483.113486</ele>
        <time>2023-03-11T12:51:32.549Z</time>
      </trkpt>
      <trkpt lat="47.04552" lon="7.08954">
        <ele>482.907641</ele>
        <time>2023-03-11T12:51:35.554Z</time>
      </trkpt>
      <trkpt lat="47.04553" lon="7.08969">
        <ele>482.680356</ele>
        <time>2023-03-11T12:51:38.559Z</time>
      </trkpt>
      <trkpt lat="47.04554" lon="7.08986">
        <ele>482.417394</ele>
        <time>2023-03-11T12:51:41.557Z</time>
      </trkpt>
      <trkpt lat="47.04555" lon="7.09002">
        <ele>482.175799</ele>
        <time>2023-03-11T12:51:44.563Z</time>
      </trkpt>
      <trkpt lat="47.04557" lon="7.09018">
        <ele>481.932696</ele>
        <time>2023-03-11T12:51:47.560Z</time>
      </trkpt>
      <trkpt lat="47.04557" lon="7.09033">
        <ele>481.698746</ele>
        <time>2023-03-11T12:51:50.544Z</time>
      </trkpt>
      <trkpt lat="47.04559" lon="7.09048">
        <ele>481.472401</ele>
        <time>2023-03-11T12:51:53.539Z</time>
      </trkpt>
      <trkpt lat="47.04559" lon="7.09063">
        <ele>481.33245</ele>
        <time>2023-03-11T12:51:56.563Z</time>
      </trkpt>
      <trkpt lat="47.04561" lon="7.09082">
        <ele>481.359021</ele>
        <time>2023-03-11T12:51:59.569Z</time>
      </trkpt>
      <trkpt lat="47.04564" lon="7.09099">
        <ele>481.384162</ele>
        <time>2023-03-11T12:52:02.552Z</time>
      </trkpt>
      <trkpt lat="47.04566" lon="7.09115">
        <ele>481.407256</ele>
        <time>2023-03-11T12:52:05.560Z</time>
      </trkpt>
      <trkpt lat="47.04567" lon="7.09131">
        <ele>481.430356</ele>
        <time>2023-03-11T12:52:08.550Z</time>
      </trkpt>
      <trkpt lat="47.04563" lon="7.09148">
        <ele>481.454937</ele>
        <time>2023-03-11T12:52:11.543Z</time>
      </trkpt>
      <trkpt lat="47.04561" lon="7.09161">
        <ele>481.474762</ele>
        <time>2023-03-11T12:52:13.560Z</time>
      </trkpt>
      <trkpt lat="47.0456" lon="7.09175">
        <ele>481.493785</ele>
        <time>2023-03-11T12:52:15.532Z</time>
      </trkpt>
      <trkpt lat="47.04561" lon="7.09193">
        <ele>481.51913</ele>
        <time>2023-03-11T12:52:18.536Z</time>
      </trkpt>
      <trkpt lat="47.04562" lon="7.09208">
        <ele>481.541473</ele>
        <time>2023-03-11T12:52:21.557Z</time>
      </trkpt>
      <trkpt lat="47.04562" lon="7.09224">
        <ele>481.562948</ele>
        <time>2023-03-11T12:52:24.554Z</time>
      </trkpt>
      <trkpt lat="47.0456" lon="7.0924">
        <ele>481.587031</ele>
        <time>2023-03-11T12:52:27.536Z</time>
      </trkpt>
      <trkpt lat="47.04556" lon="7.09256">
        <ele>481.610075</ele>
        <time>2023-03-11T12:52:30.538Z</time>
      </trkpt>
      <trkpt lat="47.04551" lon="7.09271">
        <ele>481.63325</ele>
        <time>2023-03-11T12:52:33.539Z</time>
      </trkpt>
      <trkpt lat="47.04547" lon="7.09287">
        <ele>481.657698</ele>
        <time>2023-03-11T12:52:36.540Z</time>
      </trkpt>
      <trkpt lat="47.04542" lon="7.09303">
        <ele>481.683402</ele>
        <time>2023-03-11T12:52:39.570Z</time>
      </trkpt>
      <trkpt lat="47.04539" lon="7.09317">
        <ele>481.723491</ele>
        <time>2023-03-11T12:52:41.535Z</time>
      </trkpt>
      <trkpt lat="47.04533" lon="7.09328">
        <ele>481.807648</ele>
        <time>2023-03-11T12:52:43.548Z</time>
      </trkpt>
      <trkpt lat="47.04522" lon="7.09329">
        <ele>481.90261</ele>
        <time>2023-03-11T12:52:45.537Z</time>
      </trkpt>
      <trkpt lat="47.04512" lon="7.09325">
        <ele>481.994446</ele>
        <time>2023-03-11T12:52:47.534Z</time>
      </trkpt>
      <trkpt lat="47.04502" lon="7.09321">
        <ele>482.08225</ele>
        <time>2023-03-11T12:52:49.551Z</time>
      </trkpt>
      <trkpt lat="47.04493" lon="7.09319">
        <ele>482.165648</ele>
        <time>2023-03-11T12:52:51.552Z</time>
      </trkpt>
      <trkpt lat="47.04482" lon="7.09322">
        <ele>482.260943</ele>
        <time>2023-03-11T12:52:54.545Z</time>
      </trkpt>
      <trkpt lat="47.04474" lon="7.09335">
        <ele>482.365652</ele>
        <time>2023-03-11T12:52:58.530Z</time>
      </trkpt>
      <trkpt lat="47.04482" lon="7.09352">
        <ele>482.489086</ele>
        <time>2023-03-11T12:53:01.530Z</time>
      </trkpt>
      <trkpt lat="47.04489" lon="7.09365">
        <ele>482.5847</ele>
        <time>2023-03-11T12:53:03.558Z</time>
      </trkpt>
      <trkpt lat="47.04496" lon="7.09379">
        <ele>482.688582</ele>
        <time>2023-03-11T12:53:05.563Z</time>
      </trkpt>
      <trkpt lat="47.04502" lon="7.09393">
        <ele>482.786612</ele>
        <time>2023-03-11T12:53:07.556Z</time>
      </trkpt>
      <trkpt lat="47.04506" lon="7.09406">
        <ele>482.875707</ele>
        <time>2023-03-11T12:53:09.565Z</time>
      </trkpt>
      <trkpt lat="47.04511" lon="7.0942">
        <ele>482.964254</ele>
        <time>2023-03-11T12:53:11.556Z</time>
      </trkpt>
      <trkpt lat="47.04515" lon="7.09434">
        <ele>483.05555</ele>
        <time>2023-03-11T12:53:13.558Z</time>
      </trkpt>
      <trkpt lat="47.04519" lon="7.09448">
        <ele>483.147397</ele>
        <time>2023-03-11T12:53:15.548Z</time>
      </trkpt>
      <trkpt lat="47.04522" lon="7.09463">
        <ele>483.235016</ele>
        <time>2023-03-11T12:53:17.572Z</time>
      </trkpt>
      <trkpt lat="47.04524" lon="7.09478">
        <ele>483.262879</ele>
        <time>2023-03-11T12:53:19.546Z</time>
      </trkpt>
      <trkpt lat="47.04527" lon="7.09492">
        <ele>483.264016</ele>
        <time>2023-03-11T12:53:21.542Z</time>
      </trkpt>
      <trkpt lat="47.04529" lon="7.09508">
        <ele>483.265207</ele>
        <time>2023-03-11T12:53:23.564Z</time>
      </trkpt>
      <trkpt lat="47.0453" lon="7.09523">
        <ele>483.266356</ele>
        <time>2023-03-11T12:53:25.533Z</time>
      </trkpt>
      <trkpt lat="47.04531" lon="7.09539">
        <ele>483.267541</ele>
        <time>2023-03-11T12:53:27.554Z</time>
      </trkpt>
      <trkpt lat="47.04532" lon="7.09554">
        <ele>483.268687</ele>
        <time>2023-03-11T12:53:29.559Z</time>
      </trkpt>
      <trkpt lat="47.04532" lon="7.0957">
        <ele>483.269823</ele>
        <time>2023-03-11T12:53:31.547Z</time>
      </trkpt>
      <trkpt lat="47.04531" lon="7.09584">
        <ele>483.270877</ele>
        <time>2023-03-11T12:53:33.535Z</time>
      </trkpt>
      <trkpt lat="47.04529" lon="7.09598">
        <ele>483.27201</ele>
        <time>2023-03-11T12:53:35.541Z</time>
      </trkpt>
      <trkpt lat="47.04526" lon="7.09612">
        <ele>483.273061</ele>
        <time>2023-03-11T12:53:37.542Z</time>
      </trkpt>
      <trkpt lat="47.04527" lon="7.09627">
        <ele>483.274155</ele>
        <time>2023-03-11T12:53:40.548Z</time>
      </trkpt>
      <trkpt lat="47.04537" lon="7.09631">
        <ele>483.275277</ele>
        <time>2023-03-11T12:53:44.545Z</time>
      </trkpt>
      <trkpt lat="47.04546" lon="7.09636">
        <ele>483.276326</ele>
        <time>2023-03-11T12:53:50.545Z</time>
      </trkpt>
      <trkpt lat="47.04551" lon="7.09648">
        <ele>483.277365</ele>
        <time>2023-03-11T12:53:54.544Z</time>
      </trkpt>
      <trkpt lat="47.04546" lon="7.09661">
        <ele>483.278432</ele>
        <time>2023-03-11T12:53:59.553Z</time>
      </trkpt>
      <trkpt lat="47.04537" lon="7.09659">
        <ele>483.27947</ele>
        <time>2023-03-11T12:54:03.553Z</time>
      </trkpt>
      <trkpt lat="47.04525" lon="7.09663">
        <ele>483.28074</ele>
        <time>2023-03-11T12:54:07.561Z</time>
      </trkpt>
      <trkpt lat="47.04515" lon="7.09659">
        <ele>483.274174</ele>
        <time>2023-03-11T12:54:11.543Z</time>
      </trkpt>
      <trkpt lat="47.04507" lon="7.09666">
        <ele>483.217033</ele>
        <time>2023-03-11T12:54:13.546Z</time>
      </trkpt>
      <trkpt lat="47.04501" lon="7.09676">
        <ele>483.157038</ele>
        <time>2023-03-11T12:54:15.525Z</time>
      </trkpt>
      <trkpt lat="47.04493" lon="7.09685">
        <ele>483.096018</ele>
        <time>2023-03-11T12:54:17.561Z</time>
      </trkpt>
      <trkpt lat="47.04485" lon="7.09691">
        <ele>483.035774</ele>
        <time>2023-03-11T12:54:19.524Z</time>
      </trkpt>
      <trkpt lat="47.04473" lon="7.09698">
        <ele>482.955292</ele>
        <time>2023-03-11T12:54:22.542Z</time>
      </trkpt>
      <trkpt lat="47.04463" lon="7.09699">
        <ele>482.892447</ele>
        <time>2023-03-11T12:54:25.549Z</time>
      </trkpt>
      <trkpt lat="47.0446" lon="7.09712">
        <ele>482.832969</ele>
        <time>2023-03-11T12:54:28.560Z</time>
      </trkpt>
      <trkpt lat="47.04463" lon="7.09726">
        <ele>482.771724</ele>
        <time>2023-03-11T12:54:30.538Z</time>
      </trkpt>
      <trkpt lat="47.04466" lon="7.09739">
        <ele>482.71059</ele>
        <time>2023-03-11T12:54:32.537Z</time>
      </trkpt>
      <trkpt lat="47.04471" lon="7.09753">
        <ele>482.643734</ele>
        <time>2023-03-11T12:54:34.538Z</time>
      </trkpt>
      <trkpt lat="47.04475" lon="7.09768">
        <ele>482.575812</ele>
        <time>2023-03-11T12:54:36.555Z</time>
      </trkpt>
      <trkpt lat="47.04479" lon="7.09782">
        <ele>482.508839</ele>
        <time>2023-03-11T12:54:38.547Z</time>
      </trkpt>
      <trkpt lat="47.04483" lon="7.09796">
        <ele>482.444596</ele>
        <time>2023-03-11T12:54:40.568Z</time>
      </trkpt>
      <trkpt lat="47.04488" lon="7.09809">
        <ele>482.381611</ele>
        <time>2023-03-11T12:54:42.555Z</time>
      </trkpt>
      <trkpt lat="47.04492" lon="7.09822">
        <ele>482.31808</ele>
        <time>2023-03-11T12:54:44.564Z</time>
      </trkpt>
      <trkpt lat="47.04496" lon="7.09836">
        <ele>482.253675</ele>
        <time>2023-03-11T12:54:46.561Z</time>
      </trkpt>
      <trkpt lat="47.04502" lon="7.09854">
        <ele>482.167451</ele>
        <time>2023-03-11T12:54:49.570Z</time>
      </trkpt>
      <trkpt lat="47.04506" lon="7.09866">
        <ele>482.135301</ele>
        <time>2023-03-11T12:54:51.559Z</time>
      </trkpt>
      <trkpt lat="47.0451" lon="7.09879">
        <ele>482.119154</ele>
        <time>2023-03-11T12:54:54.556Z</time>
      </trkpt>
      <trkpt lat="47.04521" lon="7.09888">
        <ele>482.100605</ele>
        <time>2023-03-11T12:54:57.544Z</time>
      </trkpt>
      <trkpt lat="47.04528" lon="7.09898">
        <ele>482.085171</ele>
        <time>2023-03-11T12:54:59.546Z</time>
      </trkpt>
      <trkpt lat="47.04533" lon="7.0991">
        <ele>482.069563</ele>
        <time>2023-03-11T12:55:01.535Z</time>
      </trkpt>
      <trkpt lat="47.04539" lon="7.09923">
        <ele>482.052975</ele>
        <time>2023-03-11T12:55:03.561Z</time>
      </trkpt>
      <trkpt lat="47.04545" lon="7.09935">
        <ele>482.037369</ele>
        <time>2023-03-11T12:55:05.563Z</time>
      </trkpt>
      <trkpt lat="47.04551" lon="7.09947">
        <ele>482.021321</ele>
        <time>2023-03-11T12:55:07.546Z</time>
      </trkpt>
      <trkpt lat="47.04558" lon="7.09959">
        <ele>482.004228</ele>
        <time>2023-03-11T12:55:09.570Z</time>
      </trkpt>
      <trkpt lat="47.04564" lon="7.09971">
        <ele>481.988337</ele>
        <time>2023-03-11T12:55:11.585Z</time>
      </trkpt>
      <trkpt lat="47.0457" lon="7.09984">
        <ele>481.972022</ele>
        <time>2023-03-11T12:55:13.560Z</time>
      </trkpt>
      <trkpt lat="47.04576" lon="7.09996">
        <ele>481.955659</ele>
        <time>2023-03-11T12:55:15.553Z</time>
      </trkpt>
      <trkpt lat="47.04582" lon="7.10008">
        <ele>481.93881</ele>
        <time>2023-03-11T12:55:17.559Z</time>
      </trkpt>
      <trkpt lat="47.04589" lon="7.10021">
        <ele>481.921683</ele>
        <time>2023-03-11T12:55:19.564Z</time>
      </trkpt>
      <trkpt lat="47.04595" lon="7.10034">
        <ele>481.905361</ele>
        <time>2023-03-11T12:55:21.556Z</time>
      </trkpt>
      <trkpt lat="47.04601" lon="7.10045">
        <ele>481.889572</ele>
        <time>2023-03-11T12:55:23.565Z</time>
      </trkpt>
      <trkpt lat="47.04606" lon="7.10056">
        <ele>481.875206</ele>
        <time>2023-03-11T12:55:25.575Z</time>
      </trkpt>
      <trkpt lat="47.04613" lon="7.10071">
        <ele>481.859802</ele>
        <time>2023-03-11T12:55:28.559Z</time>
      </trkpt>
      <trkpt lat="47.0462" lon="7.10085">
        <ele>481.856811</ele>
        <time>2023-03-11T12:55:30.560Z</time>
      </trkpt>
      <trkpt lat="47.04626" lon="7.10097">
        <ele>481.854163</ele>
        <time>2023-03-11T12:55:32.551Z</time>
      </trkpt>
      <trkpt lat="47.04633" lon="7.10111">
        <ele>481.851022</ele>
        <time>2023-03-11T12:55:35.548Z</time>
      </trkpt>
      <trkpt lat="47.0464" lon="7.10123">
        <ele>481.848184</ele>
        <time>2023-03-11T12:55:38.554Z</time>
      </trkpt>
      <trkpt lat="47.04647" lon="7.1014">
        <ele>481.844507</ele>
        <time>2023-03-11T12:55:40.534Z</time>
      </trkpt>
      <trkpt lat="47.04654" lon="7.1015">
        <ele>481.842027</ele>
        <time>2023-03-11T12:55:42.544Z</time>
      </trkpt>
      <trkpt lat="47.04661" lon="7.10158">
        <ele>481.839531</ele>
        <time>2023-03-11T12:55:46.560Z</time>
      </trkpt>
      <trkpt lat="47.04669" lon="7.10166">
        <ele>481.837124</ele>
        <time>2023-03-11T12:55:52.536Z</time>
      </trkpt>
      <trkpt lat="47.04672" lon="7.10184">
        <ele>481.833817</ele>
        <time>2023-03-11T12:55:56.544Z</time>
      </trkpt>
      <trkpt lat="47.04676" lon="7.10196">
        <ele>481.831395</ele>
        <time>2023-03-11T12:55:58.557Z</time>
      </trkpt>
      <trkpt lat="47.04682" lon="7.10209">
        <ele>481.828702</ele>
        <time>2023-03-11T12:56:00.559Z</time>
      </trkpt>
      <trkpt lat="47.04688" lon="7.10222">
        <ele>481.825707</ele>
        <time>2023-03-11T12:56:02.568Z</time>
      </trkpt>
      <trkpt lat="47.04696" lon="7.10235">
        <ele>481.822677</ele>
        <time>2023-03-11T12:56:04.548Z</time>
      </trkpt>
      <trkpt lat="47.04703" lon="7.1025">
        <ele>481.819419</ele>
        <time>2023-03-11T12:56:07.542Z</time>
      </trkpt>
      <trkpt lat="47.0471" lon="7.10266">
        <ele>481.815921</ele>
        <time>2023-03-11T12:56:10.550Z</time>
      </trkpt>
      <trkpt lat="47.04717" lon="7.10283">
        <ele>481.796263</ele>
        <time>2023-03-11T12:56:13.566Z</time>
      </trkpt>
      <trkpt lat="47.04725" lon="7.103">
        <ele>481.71691</ele>
        <time>2023-03-11T12:56:16.548Z</time>
      </trkpt>
      <trkpt lat="47.0473" lon="7.10312">
        <ele>481.66311</ele>
        <time>2023-03-11T12:56:18.562Z</time>
      </trkpt>
      <trkpt lat="47.04735" lon="7.10324">
        <ele>481.60893</ele>
        <time>2023-03-11T12:56:20.561Z</time>
      </trkpt>
      <trkpt lat="47.0474" lon="7.10337">
        <ele>481.553576</ele>
        <time>2023-03-11T12:56:22.554Z</time>
      </trkpt>
      <trkpt lat="47.04745" lon="7.10348">
        <ele>481.501602</ele>
        <time>2023-03-11T12:56:24.563Z</time>
      </trkpt>
      <trkpt lat="47.04749" lon="7.10361">
        <ele>481.448396</ele>
        <time>2023-03-11T12:56:26.559Z</time>
      </trkpt>
      <trkpt lat="47.04755" lon="7.10374">
        <ele>481.390743</ele>
        <time>2023-03-11T12:56:28.557Z</time>
      </trkpt>
      <trkpt lat="47.0476" lon="7.10385">
        <ele>481.337276</ele>
        <time>2023-03-11T12:56:30.559Z</time>
      </trkpt>
      <trkpt lat="47.04766" lon="7.10397">
        <ele>481.283484</ele>
        <time>2023-03-11T12:56:32.561Z</time>
      </trkpt>
      <trkpt lat="47.04771" lon="7.10408">
        <ele>481.228728</ele>
        <time>2023-03-11T12:56:34.554Z</time>
      </trkpt>
      <trkpt lat="47.04777" lon="7.10421">
        <ele>481.173317</ele>
        <time>2023-03-11T12:56:36.577Z</time>
      </trkpt>
      <trkpt lat="47.04782" lon="7.10432">
        <ele>481.119198</ele>
        <time>2023-03-11T12:56:38.557Z</time>
      </trkpt>
      <trkpt lat="47.04787" lon="7.10445">
        <ele>481.066926</ele>
        <time>2023-03-11T12:56:40.564Z</time>
      </trkpt>
      <trkpt lat="47.04792" lon="7.10458">
        <ele>481.007775</ele>
        <time>2023-03-11T12:56:42.581Z</time>
      </trkpt>
      <trkpt lat="47.04798" lon="7.1047">
        <ele>480.951785</ele>
        <time>2023-03-11T12:56:44.562Z</time>
      </trkpt>
      <trkpt lat="47.04804" lon="7.10482">
        <ele>480.894547</ele>
        <time>2023-03-11T12:56:46.566Z</time>
      </trkpt>
      <trkpt lat="47.0481" lon="7.10495">
        <ele>480.835736</ele>
        <time>2023-03-11T12:56:48.559Z</time>
      </trkpt>
      <trkpt lat="47.04815" lon="7.10507">
        <ele>480.839302</ele>
        <time>2023-03-11T12:56:50.561Z</time>
      </trkpt>
      <trkpt lat="47.04821" lon="7.10519">
        <ele>480.895844</ele>
        <time>2023-03-11T12:56:52.571Z</time>
      </trkpt>
      <trkpt lat="47.04826" lon="7.10531">
        <ele>480.954724</ele>
        <time>2023-03-11T12:56:54.558Z</time>
      </trkpt>
      <trkpt lat="47.04832" lon="7.10544">
        <ele>481.014902</ele>
        <time>2023-03-11T12:56:56.571Z</time>
      </trkpt>
      <trkpt lat="47.04837" lon="7.10556">
        <ele>481.072206</ele>
        <time>2023-03-11T12:56:58.568Z</time>
      </trkpt>
      <trkpt lat="47.04843" lon="7.10568">
        <ele>481.131392</ele>
        <time>2023-03-11T12:57:00.568Z</time>
      </trkpt>
      <trkpt lat="47.04849" lon="7.10579">
        <ele>481.188961</ele>
        <time>2023-03-11T12:57:02.564Z</time>
      </trkpt>
      <trkpt lat="47.04855" lon="7.10592">
        <ele>481.250464</ele>
        <time>2023-03-11T12:57:04.580Z</time>
      </trkpt>
      <trkpt lat="47.0486" lon="7.10603">
        <ele>481.305022</ele>
        <time>2023-03-11T12:57:06.558Z</time>
      </trkpt>
      <trkpt lat="47.04868" lon="7.10619">
        <ele>481.383394</ele>
        <time>2023-03-11T12:57:09.563Z</time>
      </trkpt>
      <trkpt lat="47.04876" lon="7.10634">
        <ele>481.458535</ele>
        <time>2023-03-11T12:57:12.554Z</time>
      </trkpt>
      <trkpt lat="47.04882" lon="7.10648">
        <ele>481.522704</ele>
        <time>2023-03-11T12:57:15.563Z</time>
      </trkpt>
      <trkpt lat="47.04889" lon="7.1066">
        <ele>481.586211</ele>
        <time>2023-03-11T12:57:18.543Z</time>
      </trkpt>
      <trkpt lat="47.04894" lon="7.10672">
        <ele>481.644406</ele>
        <time>2023-03-11T12:57:21.547Z</time>
      </trkpt>
      <trkpt lat="47.049" lon="7.10683">
        <ele>481.701952</ele>
        <time>2023-03-11T12:57:23.572Z</time>
      </trkpt>
      <trkpt lat="47.04905" lon="7.10696">
        <ele>481.760476</ele>
        <time>2023-03-11T12:57:26.544Z</time>
      </trkpt>
      <trkpt lat="47.0491" lon="7.10709">
        <ele>481.81891</ele>
        <time>2023-03-11T12:57:30.532Z</time>
      </trkpt>
      <trkpt lat="47.04915" lon="7.1072">
        <ele>481.860248</ele>
        <time>2023-03-11T12:57:32.561Z</time>
      </trkpt>
      <trkpt lat="47.04921" lon="7.10733">
        <ele>481.835502</ele>
        <time>2023-03-11T12:57:34.559Z</time>
      </trkpt>
      <trkpt lat="47.04927" lon="7.10746">
        <ele>481.807549</ele>
        <time>2023-03-11T12:57:36.568Z</time>
      </trkpt>
      <trkpt lat="47.04934" lon="7.1076">
        <ele>481.778589</ele>
        <time>2023-03-11T12:57:38.549Z</time>
      </trkpt>
      <trkpt lat="47.0494" lon="7.10771">
        <ele>481.754864</ele>
        <time>2023-03-11T12:57:40.551Z</time>
      </trkpt>
      <trkpt lat="47.04946" lon="7.10782">
        <ele>481.730531</ele>
        <time>2023-03-11T12:57:42.560Z</time>
      </trkpt>
      <trkpt lat="47.04951" lon="7.10795">
        <ele>481.705785</ele>
        <time>2023-03-11T12:57:44.565Z</time>
      </trkpt>
      <trkpt lat="47.04957" lon="7.10808">
        <ele>481.679184</ele>
        <time>2023-03-11T12:57:46.567Z</time>
      </trkpt>
      <trkpt lat="47.04962" lon="7.1082">
        <ele>481.654977</ele>
        <time>2023-03-11T12:57:48.566Z</time>
      </trkpt>
      <trkpt lat="47.04967" lon="7.10833">
        <ele>481.629955</ele>
        <time>2023-03-11T12:57:50.567Z</time>
      </trkpt>
      <trkpt lat="47.04973" lon="7.10845">
        <ele>481.604937</ele>
        <time>2023-03-11T12:57:52.558Z</time>
      </trkpt>
      <trkpt lat="47.04979" lon="7.10857">
        <ele>481.581032</ele>
        <time>2023-03-11T12:57:54.560Z</time>
      </trkpt>
      <trkpt lat="47.04984" lon="7.10869">
        <ele>481.55544</ele>
        <time>2023-03-11T12:57:56.561Z</time>
      </trkpt>
      <trkpt lat="47.0499" lon="7.10882">
        <ele>481.529162</ele>
        <time>2023-03-11T12:57:58.562Z</time>
      </trkpt>
      <trkpt lat="47.04996" lon="7.10895">
        <ele>481.502602</ele>
        <time>2023-03-11T12:58:00.555Z</time>
      </trkpt>
      <trkpt lat="47.05002" lon="7.10908">
        <ele>481.476187</ele>
        <time>2023-03-11T12:58:02.568Z</time>
      </trkpt>
      <trkpt lat="47.05008" lon="7.10921">
        <ele>481.449632</ele>
        <time>2023-03-11T12:58:04.560Z</time>
      </trkpt>
      <trkpt lat="47.05015" lon="7.10933">
        <ele>481.423053</ele>
        <time>2023-03-11T12:58:06.560Z</time>
      </trkpt>
      <trkpt lat="47.05022" lon="7.10946">
        <ele>481.407408</ele>
        <time>2023-03-11T12:58:08.550Z</time>
      </trkpt>
      <trkpt lat="47.05027" lon="7.10959">
        <ele>481.394398</ele>
        <time>2023-03-11T12:58:10.569Z</time>
      </trkpt>
      <trkpt lat="47.05033" lon="7.10972">
        <ele>481.381794</ele>
        <time>2023-03-11T12:58:12.561Z</time>
      </trkpt>
      <trkpt lat="47.05039" lon="7.10985">
        <ele>481.368096</ele>
        <time>2023-03-11T12:58:14.570Z</time>
      </trkpt>
      <trkpt lat="47.05045" lon="7.10998">
        <ele>481.354949</ele>
        <time>2023-03-11T12:58:16.567Z</time>
      </trkpt>
      <trkpt lat="47.05051" lon="7.11011">
        <ele>481.341796</ele>
        <time>2023-03-11T12:58:18.573Z</time>
      </trkpt>
      <trkpt lat="47.05057" lon="7.11024">
        <ele>481.328718</ele>
        <time>2023-03-11T12:58:20.569Z</time>
      </trkpt>
      <trkpt lat="47.05064" lon="7.11037">
        <ele>481.315422</ele>
        <time>2023-03-11T12:58:22.559Z</time>
      </trkpt>
      <trkpt lat="47.0507" lon="7.1105">
        <ele>481.30255</ele>
        <time>2023-03-11T12:58:24.560Z</time>
      </trkpt>
      <trkpt lat="47.05076" lon="7.11064">
        <ele>481.288915</ele>
        <time>2023-03-11T12:58:26.565Z</time>
      </trkpt>
      <trkpt lat="47.05082" lon="7.11077">
        <ele>481.275416</ele>
        <time>2023-03-11T12:58:28.567Z</time>
      </trkpt>
      <trkpt lat="47.05087" lon="7.1109">
        <ele>481.262741</ele>
        <time>2023-03-11T12:58:30.571Z</time>
      </trkpt>
      <trkpt lat="47.05094" lon="7.11104">
        <ele>481.248905</ele>
        <time>2023-03-11T12:58:32.568Z</time>
      </trkpt>
      <trkpt lat="47.05101" lon="7.11118">
        <ele>481.234239</ele>
        <time>2023-03-11T12:58:34.577Z</time>
      </trkpt>
      <trkpt lat="47.05107" lon="7.11131">
        <ele>481.220954</ele>
        <time>2023-03-11T12:58:36.560Z</time>
      </trkpt>
      <trkpt lat="47.05113" lon="7.11145">
        <ele>481.207394</ele>
        <time>2023-03-11T12:58:38.549Z</time>
      </trkpt>
      <trkpt lat="47.05118" lon="7.11158">
        <ele>481.19417</ele>
        <time>2023-03-11T12:58:40.561Z</time>
      </trkpt>
      <trkpt lat="47.05124" lon="7.11171">
        <ele>481.180572</ele>
        <time>2023-03-11T12:58:42.572Z</time>
      </trkpt>
      <trkpt lat="47.05131" lon="7.11184">
        <ele>481.165666</ele>
        <time>2023-03-11T12:58:44.561Z</time>
      </trkpt>
      <trkpt lat="47.05138" lon="7.11197">
        <ele>481.149874</ele>
        <time>2023-03-11T12:58:46.560Z</time>
      </trkpt>
      <trkpt lat="47.05144" lon="7.11211">
        <ele>481.135294</ele>
        <time>2023-03-11T12:58:48.558Z</time>
      </trkpt>
      <trkpt lat="47.05148" lon="7.11226">
        <ele>481.120251</ele>
        <time>2023-03-11T12:58:50.547Z</time>
      </trkpt>
      <trkpt lat="47.05151" lon="7.11242">
        <ele>481.105983</ele>
        <time>2023-03-11T12:58:52.561Z</time>
      </trkpt>
      <trkpt lat="47.05155" lon="7.11256">
        <ele>481.092025</ele>
        <time>2023-03-11T12:58:54.555Z</time>
      </trkpt>
      <trkpt lat="47.05162" lon="7.11271">
        <ele>481.075665</ele>
        <time>2023-03-11T12:58:56.547Z</time>
      </trkpt>
      <trkpt lat="47.05169" lon="7.11284">
        <ele>481.060605</ele>
        <time>2023-03-11T12:58:58.571Z</time>
      </trkpt>
      <trkpt lat="47.05176" lon="7.11297">
        <ele>481.046254</ele>
        <time>2023-03-11T12:59:00.573Z</time>
      </trkpt>
      <trkpt lat="47.05182" lon="7.11311">
        <ele>481.03109</ele>
        <time>2023-03-11T12:59:02.557Z</time>
      </trkpt>
      <trkpt lat="47.05188" lon="7.11324">
        <ele>481.016598</ele>
        <time>2023-03-11T12:59:04.563Z</time>
      </trkpt>
      <trkpt lat="47.05194" lon="7.11338">
        <ele>481.001805</ele>
        <time>2023-03-11T12:59:06.559Z</time>
      </trkpt>
      <trkpt lat="47.05201" lon="7.11351">
        <ele>480.986863</ele>
        <time>2023-03-11T12:59:08.544Z</time>
      </trkpt>
      <trkpt lat="47.05208" lon="7.11365">
        <ele>480.971609</ele>
        <time>2023-03-11T12:59:10.562Z</time>
      </trkpt>
      <trkpt lat="47.05214" lon="7.11378">
        <ele>480.965729</ele>
        <time>2023-03-11T12:59:12.551Z</time>
      </trkpt>
      <trkpt lat="47.0522" lon="7.11391">
        <ele>480.992087</ele>
        <time>2023-03-11T12:59:14.578Z</time>
      </trkpt>
      <trkpt lat="47.05226" lon="7.11405">
        <ele>481.021447</ele>
        <time>2023-03-11T12:59:16.560Z</time>
      </trkpt>
      <trkpt lat="47.05233" lon="7.11419">
        <ele>481.049641</ele>
        <time>2023-03-11T12:59:18.568Z</time>
      </trkpt>
      <trkpt lat="47.05239" lon="7.11432">
        <ele>481.076134</ele>
        <time>2023-03-11T12:59:20.564Z</time>
      </trkpt>
      <trkpt lat="47.05245" lon="7.11444">
        <ele>481.102769</ele>
        <time>2023-03-11T12:59:22.562Z</time>
      </trkpt>
      <trkpt lat="47.0525" lon="7.11457">
        <ele>481.129407</ele>
        <time>2023-03-11T12:59:24.566Z</time>
      </trkpt>
      <trkpt lat="47.05256" lon="7.1147">
        <ele>481.156467</ele>
        <time>2023-03-11T12:59:26.566Z</time>
      </trkpt>
      <trkpt lat="47.05263" lon="7.11484">
        <ele>481.185663</ele>
        <time>2023-03-11T12:59:28.565Z</time>
      </trkpt>
      <trkpt lat="47.05269" lon="7.11497">
        <ele>481.212156</ele>
        <time>2023-03-11T12:59:30.566Z</time>
      </trkpt>
      <trkpt lat="47.05276" lon="7.11511">
        <ele>481.240632</ele>
        <time>2023-03-11T12:59:32.570Z</time>
      </trkpt>
      <trkpt lat="47.05282" lon="7.11524">
        <ele>481.268541</ele>
        <time>2023-03-11T12:59:34.561Z</time>
      </trkpt>
      <trkpt lat="47.05288" lon="7.11537">
        <ele>481.296197</ele>
        <time>2023-03-11T12:59:36.581Z</time>
      </trkpt>
      <trkpt lat="47.05295" lon="7.1155">
        <ele>481.32411</ele>
        <time>2023-03-11T12:59:38.553Z</time>
      </trkpt>
      <trkpt lat="47.05301" lon="7.11563">
        <ele>481.35131</ele>
        <time>2023-03-11T12:59:40.568Z</time>
      </trkpt>
      <trkpt lat="47.05306" lon="7.11576">
        <ele>481.376287</ele>
        <time>2023-03-11T12:59:42.569Z</time>
      </trkpt>
      <trkpt lat="47.05311" lon="7.11589">
        <ele>481.402681</ele>
        <time>2023-03-11T12:59:44.558Z</time>
      </trkpt>
      <trkpt lat="47.05318" lon="7.11603">
        <ele>481.44813</ele>
        <time>2023-03-11T12:59:46.563Z</time>
      </trkpt>
      <trkpt lat="47.05324" lon="7.11616">
        <ele>481.504018</ele>
        <time>2023-03-11T12:59:48.561Z</time>
      </trkpt>
      <trkpt lat="47.05331" lon="7.1163">
        <ele>481.558607</ele>
        <time>2023-03-11T12:59:50.577Z</time>
      </trkpt>
      <trkpt lat="47.05337" lon="7.11642">
        <ele>481.610381</ele>
        <time>2023-03-11T12:59:52.560Z</time>
      </trkpt>
      <trkpt lat="47.05343" lon="7.11655">
        <ele>481.661608</ele>
        <time>2023-03-11T12:59:54.573Z</time>
      </trkpt>
      <trkpt lat="47.0535" lon="7.11668">
        <ele>481.715041</ele>
        <time>2023-03-11T12:59:56.561Z</time>
      </trkpt>
      <trkpt lat="47.05355" lon="7.11682">
        <ele>481.767685</ele>
        <time>2023-03-11T12:59:58.564Z</time>
      </trkpt>
      <trkpt lat="47.05362" lon="7.11695">
        <ele>481.821117</ele>
        <time>2023-03-11T13:00:00.546Z</time>
      </trkpt>
      <trkpt lat="47.05368" lon="7.11708">
        <ele>481.872618</ele>
        <time>2023-03-11T13:00:02.564Z</time>
      </trkpt>
      <trkpt lat="47.05374" lon="7.11721">
        <ele>481.927695</ele>
        <time>2023-03-11T13:00:04.557Z</time>
      </trkpt>
      <trkpt lat="47.0538" lon="7.11734">
        <ele>481.979744</ele>
        <time>2023-03-11T13:00:06.523Z</time>
      </trkpt>
      <trkpt lat="47.05386" lon="7.11747">
        <ele>482.03235</ele>
        <time>2023-03-11T13:00:08.551Z</time>
      </trkpt>
      <trkpt lat="47.05392" lon="7.1176">
        <ele>482.083029</ele>
        <time>2023-03-11T13:00:10.570Z</time>
      </trkpt>
      <trkpt lat="47.05398" lon="7.11773">
        <ele>482.134548</ele>
        <time>2023-03-11T13:00:12.579Z</time>
      </trkpt>
      <trkpt lat="47.05404" lon="7.11785">
        <ele>482.185798</ele>
        <time>2023-03-11T13:00:14.580Z</time>
      </trkpt>
      <trkpt lat="47.0541" lon="7.11799">
        <ele>482.237652</ele>
        <time>2023-03-11T13:00:16.562Z</time>
      </trkpt>
      <trkpt lat="47.05416" lon="7.11811">
        <ele>482.288065</ele>
        <time>2023-03-11T13:00:18.558Z</time>
      </trkpt>
      <trkpt lat="47.05422" lon="7.11824">
        <ele>482.306722</ele>
        <time>2023-03-11T13:00:20.560Z</time>
      </trkpt>
      <trkpt lat="47.05428" lon="7.11837">
        <ele>482.324986</ele>
        <time>2023-03-11T13:00:22.559Z</time>
      </trkpt>
      <trkpt lat="47.05434" lon="7.1185">
        <ele>482.34405</ele>
        <time>2023-03-11T13:00:24.568Z</time>
      </trkpt>
      <trkpt lat="47.0544" lon="7.11863">
        <ele>482.362118</ele>
        <time>2023-03-11T13:00:26.559Z</time>
      </trkpt>
      <trkpt lat="47.05447" lon="7.11876">
        <ele>482.381954</ele>
        <time>2023-03-11T13:00:28.562Z</time>
      </trkpt>
      <trkpt lat="47.05452" lon="7.11889">
        <ele>482.399727</ele>
        <time>2023-03-11T13:00:30.555Z</time>
      </trkpt>
      <trkpt lat="47.05458" lon="7.11902">
        <ele>482.41859</ele>
        <time>2023-03-11T13:00:32.563Z</time>
      </trkpt>
      <trkpt lat="47.05464" lon="7.11915">
        <ele>482.43716</ele>
        <time>2023-03-11T13:00:34.557Z</time>
      </trkpt>
      <trkpt lat="47.0547" lon="7.11927">
        <ele>482.454737</ele>
        <time>2023-03-11T13:00:36.568Z</time>
      </trkpt>
      <trkpt lat="47.05476" lon="7.11941">
        <ele>482.473994</ele>
        <time>2023-03-11T13:00:38.541Z</time>
      </trkpt>
      <trkpt lat="47.05482" lon="7.11953">
        <ele>482.491473</ele>
        <time>2023-03-11T13:00:40.566Z</time>
      </trkpt>
      <trkpt lat="47.05487" lon="7.11966">
        <ele>482.510041</ele>
        <time>2023-03-11T13:00:42.567Z</time>
      </trkpt>
      <trkpt lat="47.05494" lon="7.11979">
        <ele>482.529291</ele>
        <time>2023-03-11T13:00:44.573Z</time>
      </trkpt>
      <trkpt lat="47.05499" lon="7.11992">
        <ele>482.547166</ele>
        <time>2023-03-11T13:00:46.569Z</time>
      </trkpt>
      <trkpt lat="47.05505" lon="7.12005">
        <ele>482.565725</ele>
        <time>2023-03-11T13:00:48.561Z</time>
      </trkpt>
      <trkpt lat="47.05511" lon="7.12017">
        <ele>482.584192</ele>
        <time>2023-03-11T13:00:50.570Z</time>
      </trkpt>
      <trkpt lat="47.05518" lon="7.1203">
        <ele>482.602957</ele>
        <time>2023-03-11T13:00:52.576Z</time>
      </trkpt>
      <trkpt lat="47.05523" lon="7.12042">
        <ele>482.626653</ele>
        <time>2023-03-11T13:00:54.561Z</time>
      </trkpt>
      <trkpt lat="47.05529" lon="7.12055">
        <ele>482.652063</ele>
        <time>2023-03-11T13:00:56.567Z</time>
      </trkpt>
      <trkpt lat="47.05535" lon="7.12068">
        <ele>482.676813</ele>
        <time>2023-03-11T13:00:58.563Z</time>
      </trkpt>
      <trkpt lat="47.05542" lon="7.12082">
        <ele>482.703276</ele>
        <time>2023-03-11T13:01:00.558Z</time>
      </trkpt>
      <trkpt lat="47.05548" lon="7.12095">
        <ele>482.728816</ele>
        <time>2023-03-11T13:01:02.552Z</time>
      </trkpt>
      <trkpt lat="47.05554" lon="7.12108">
        <ele>482.754761</ele>
        <time>2023-03-11T13:01:04.567Z</time>
      </trkpt>
      <trkpt lat="47.05561" lon="7.12121">
        <ele>482.781938</ele>
        <time>2023-03-11T13:01:06.565Z</time>
      </trkpt>
      <trkpt lat="47.05567" lon="7.12133">
        <ele>482.8055</ele>
        <time>2023-03-11T13:01:08.553Z</time>
      </trkpt>
      <trkpt lat="47.05573" lon="7.12146">
        <ele>482.829359</ele>
        <time>2023-03-11T13:01:10.561Z</time>
      </trkpt>
      <trkpt lat="47.05579" lon="7.1216">
        <ele>482.856881</ele>
        <time>2023-03-11T13:01:12.568Z</time>
      </trkpt>
      <trkpt lat="47.05585" lon="7.12173">
        <ele>482.882558</ele>
        <time>2023-03-11T13:01:14.576Z</time>
      </trkpt>
      <trkpt lat="47.05591" lon="7.12187">
        <ele>482.907071</ele>
        <time>2023-03-11T13:01:16.566Z</time>
      </trkpt>
      <trkpt lat="47.05597" lon="7.12199">
        <ele>482.931835</ele>
        <time>2023-03-11T13:01:18.561Z</time>
      </trkpt>
      <trkpt lat="47.05604" lon="7.12213">
        <ele>482.959776</ele>
        <time>2023-03-11T13:01:20.579Z</time>
      </trkpt>
      <trkpt lat="47.05611" lon="7.12228">
        <ele>482.989306</ele>
        <time>2023-03-11T13:01:22.561Z</time>
      </trkpt>
      <trkpt lat="47.05619" lon="7.12243">
        <ele>483.018825</ele>
        <time>2023-03-11T13:01:24.567Z</time>
      </trkpt>
      <trkpt lat="47.05625" lon="7.12257">
        <ele>482.889189</ele>
        <time>2023-03-11T13:01:26.567Z</time>
      </trkpt>
      <trkpt lat="47.05632" lon="7.1227">
        <ele>482.734919</ele>
        <time>2023-03-11T13:01:28.570Z</time>
      </trkpt>
      <trkpt lat="47.05638" lon="7.12283">
        <ele>482.582259</ele>
        <time>2023-03-11T13:01:30.564Z</time>
      </trkpt>
      <trkpt lat="47.05644" lon="7.12295">
        <ele>482.439209</ele>
        <time>2023-03-11T13:01:32.580Z</time>
      </trkpt>
      <trkpt lat="47.05649" lon="7.12307">
        <ele>482.29775</ele>
        <time>2023-03-11T13:01:34.564Z</time>
      </trkpt>
      <trkpt lat="47.05656" lon="7.12319">
        <ele>482.15057</ele>
        <time>2023-03-11T13:01:36.573Z</time>
      </trkpt>
      <trkpt lat="47.05662" lon="7.12332">
        <ele>481.996256</ele>
        <time>2023-03-11T13:01:38.556Z</time>
      </trkpt>
      <trkpt lat="47.05668" lon="7.12345">
        <ele>481.839579</ele>
        <time>2023-03-11T13:01:40.559Z</time>
      </trkpt>
      <trkpt lat="47.05675" lon="7.12358">
        <ele>481.681951</ele>
        <time>2023-03-11T13:01:42.572Z</time>
      </trkpt>
      <trkpt lat="47.05681" lon="7.12371">
        <ele>481.531423</ele>
        <time>2023-03-11T13:01:44.566Z</time>
      </trkpt>
      <trkpt lat="47.05687" lon="7.12383">
        <ele>481.385866</ele>
        <time>2023-03-11T13:01:46.593Z</time>
      </trkpt>
      <trkpt lat="47.05694" lon="7.12395">
        <ele>481.23926</ele>
        <time>2023-03-11T13:01:48.562Z</time>
      </trkpt>
      <trkpt lat="47.057" lon="7.12408">
        <ele>481.088208</ele>
        <time>2023-03-11T13:01:50.575Z</time>
      </trkpt>
      <trkpt lat="47.05706" lon="7.1242">
        <ele>480.933833</ele>
        <time>2023-03-11T13:01:52.561Z</time>
      </trkpt>
      <trkpt lat="47.05713" lon="7.12433">
        <ele>480.77868</ele>
        <time>2023-03-11T13:01:54.575Z</time>
      </trkpt>
      <trkpt lat="47.05719" lon="7.12446">
        <ele>480.628421</ele>
        <time>2023-03-11T13:01:56.568Z</time>
      </trkpt>
      <trkpt lat="47.05725" lon="7.12459">
        <ele>480.475667</ele>
        <time>2023-03-11T13:01:58.559Z</time>
      </trkpt>
      <trkpt lat="47.05731" lon="7.12472">
        <ele>480.484751</ele>
        <time>2023-03-11T13:02:00.569Z</time>
      </trkpt>
      <trkpt lat="47.05737" lon="7.12484">
        <ele>480.4986</ele>
        <time>2023-03-11T13:02:02.569Z</time>
      </trkpt>
      <trkpt lat="47.05743" lon="7.12495">
        <ele>480.512067</ele>
        <time>2023-03-11T13:02:04.566Z</time>
      </trkpt>
      <trkpt lat="47.05748" lon="7.12508">
        <ele>480.52546</ele>
        <time>2023-03-11T13:02:06.569Z</time>
      </trkpt>
      <trkpt lat="47.05754" lon="7.12521">
        <ele>480.540382</ele>
        <time>2023-03-11T13:02:08.553Z</time>
      </trkpt>
      <trkpt lat="47.05761" lon="7.12533">
        <ele>480.554944</ele>
        <time>2023-03-11T13:02:10.558Z</time>
      </trkpt>
      <trkpt lat="47.05766" lon="7.12546">
        <ele>480.569434</ele>
        <time>2023-03-11T13:02:12.575Z</time>
      </trkpt>
      <trkpt lat="47.05772" lon="7.12559">
        <ele>480.583742</ele>
        <time>2023-03-11T13:02:14.563Z</time>
      </trkpt>
      <trkpt lat="47.05778" lon="7.12572">
        <ele>480.598279</ele>
        <time>2023-03-11T13:02:16.571Z</time>
      </trkpt>
      <trkpt lat="47.05784" lon="7.12584">
        <ele>480.612203</ele>
        <time>2023-03-11T13:02:18.571Z</time>
      </trkpt>
      <trkpt lat="47.0579" lon="7.12597">
        <ele>480.626896</ele>
        <time>2023-03-11T13:02:20.575Z</time>
      </trkpt>
      <trkpt lat="47.05796" lon="7.1261">
        <ele>480.641745</ele>
        <time>2023-03-11T13:02:22.549Z</time>
      </trkpt>
      <trkpt lat="47.05802" lon="7.12624">
        <ele>480.656695</ele>
        <time>2023-03-11T13:02:24.559Z</time>
      </trkpt>
      <trkpt lat="47.05808" lon="7.12637">
        <ele>480.671155</ele>
        <time>2023-03-11T13:02:26.564Z</time>
      </trkpt>
      <trkpt lat="47.05814" lon="7.1265">
        <ele>480.685385</ele>
        <time>2023-03-11T13:02:28.565Z</time>
      </trkpt>
      <trkpt lat="47.05819" lon="7.12662">
        <ele>480.698773</ele>
        <time>2023-03-11T13:02:30.567Z</time>
      </trkpt>
      <trkpt lat="47.05825" lon="7.12675">
        <ele>480.713396</ele>
        <time>2023-03-11T13:02:32.566Z</time>
      </trkpt>
      <trkpt lat="47.0583" lon="7.12688">
        <ele>480.741799</ele>
        <time>2023-03-11T13:02:34.578Z</time>
      </trkpt>
      <trkpt lat="47.05836" lon="7.12701">
        <ele>480.773219</ele>
        <time>2023-03-11T13:02:36.580Z</time>
      </trkpt>
      <trkpt lat="47.05841" lon="7.12714">
        <ele>480.804687</ele>
        <time>2023-03-11T13:02:38.554Z</time>
      </trkpt>
      <trkpt lat="47.05846" lon="7.12727">
        <ele>480.836539</ele>
        <time>2023-03-11T13:02:40.576Z</time>
      </trkpt>
      <trkpt lat="47.05852" lon="7.1274">
        <ele>480.869422</ele>
        <time>2023-03-11T13:02:42.568Z</time>
      </trkpt>
      <trkpt lat="47.05857" lon="7.12754">
        <ele>480.902438</ele>
        <time>2023-03-11T13:02:44.576Z</time>
      </trkpt>
      <trkpt lat="47.05864" lon="7.12768">
        <ele>480.938005</ele>
        <time>2023-03-11T13:02:46.576Z</time>
      </trkpt>
      <trkpt lat="47.0587" lon="7.12782">
        <ele>480.973228</ele>
        <time>2023-03-11T13:02:48.574Z</time>
      </trkpt>
      <trkpt lat="47.05876" lon="7.12797">
        <ele>481.008018</ele>
        <time>2023-03-11T13:02:50.573Z</time>
      </trkpt>
      <trkpt lat="47.05882" lon="7.1281">
        <ele>481.042381</ele>
        <time>2023-03-11T13:02:52.572Z</time>
      </trkpt>
      <trkpt lat="47.05887" lon="7.12824">
        <ele>481.074233</ele>
        <time>2023-03-11T13:02:54.573Z</time>
      </trkpt>
      <trkpt lat="47.05893" lon="7.12836">
        <ele>481.10548</ele>
        <time>2023-03-11T13:02:56.567Z</time>
      </trkpt>
      <trkpt lat="47.05898" lon="7.12848">
        <ele>481.136564</ele>
        <time>2023-03-11T13:02:58.558Z</time>
      </trkpt>
      <trkpt lat="47.05904" lon="7.12859">
        <ele>481.165067</ele>
        <time>2023-03-11T13:03:00.565Z</time>
      </trkpt>
      <trkpt lat="47.05909" lon="7.12871">
        <ele>481.194588</ele>
        <time>2023-03-11T13:03:02.564Z</time>
      </trkpt>
      <trkpt lat="47.05916" lon="7.12883">
        <ele>481.226998</ele>
        <time>2023-03-11T13:03:04.574Z</time>
      </trkpt>
      <trkpt lat="47.05922" lon="7.12896">
        <ele>481.259282</ele>
        <time>2023-03-11T13:03:06.576Z</time>
      </trkpt>
      <trkpt lat="47.05927" lon="7.1291">
        <ele>481.391245</ele>
        <time>2023-03-11T13:03:08.554Z</time>
      </trkpt>
      <trkpt lat="47.05932" lon="7.12922">
        <ele>481.55229</ele>
        <time>2023-03-11T13:03:10.582Z</time>
      </trkpt>
      <trkpt lat="47.05938" lon="7.12936">
        <ele>481.726336</ele>
        <time>2023-03-11T13:03:12.568Z</time>
      </trkpt>
      <trkpt lat="47.05944" lon="7.12949">
        <ele>481.890551</ele>
        <time>2023-03-11T13:03:14.585Z</time>
      </trkpt>
      <trkpt lat="47.05949" lon="7.12961">
        <ele>482.05207</ele>
        <time>2023-03-11T13:03:16.572Z</time>
      </trkpt>
      <trkpt lat="47.05955" lon="7.12974">
        <ele>482.216326</ele>
        <time>2023-03-11T13:03:18.589Z</time>
      </trkpt>
      <trkpt lat="47.0596" lon="7.12987">
        <ele>482.376438</ele>
        <time>2023-03-11T13:03:20.575Z</time>
      </trkpt>
      <trkpt lat="47.05966" lon="7.13">
        <ele>482.54604</ele>
        <time>2023-03-11T13:03:22.563Z</time>
      </trkpt>
      <trkpt lat="47.05971" lon="7.13012">
        <ele>482.700594</ele>
        <time>2023-03-11T13:03:24.577Z</time>
      </trkpt>
      <trkpt lat="47.05977" lon="7.13025">
        <ele>482.869259</ele>
        <time>2023-03-11T13:03:26.562Z</time>
      </trkpt>
      <trkpt lat="47.05982" lon="7.13038">
        <ele>483.036332</ele>
        <time>2023-03-11T13:03:28.559Z</time>
      </trkpt>
      <trkpt lat="47.05987" lon="7.13051">
        <ele>483.190326</ele>
        <time>2023-03-11T13:03:30.569Z</time>
      </trkpt>
      <trkpt lat="47.05993" lon="7.13063">
        <ele>483.356408</ele>
        <time>2023-03-11T13:03:32.559Z</time>
      </trkpt>
      <trkpt lat="47.05999" lon="7.13077">
        <ele>483.529182</ele>
        <time>2023-03-11T13:03:34.575Z</time>
      </trkpt>
      <trkpt lat="47.06004" lon="7.13091">
        <ele>483.701956</ele>
        <time>2023-03-11T13:03:36.572Z</time>
      </trkpt>
      <trkpt lat="47.06009" lon="7.13104">
        <ele>483.86847</ele>
        <time>2023-03-11T13:03:38.546Z</time>
      </trkpt>
      <trkpt lat="47.06014" lon="7.13118">
        <ele>484.037239</ele>
        <time>2023-03-11T13:03:40.569Z</time>
      </trkpt>
      <trkpt lat="47.06018" lon="7.13131">
        <ele>484.09984</ele>
        <time>2023-03-11T13:03:42.539Z</time>
      </trkpt>
      <trkpt lat="47.06022" lon="7.13145">
        <ele>484.059094</ele>
        <time>2023-03-11T13:03:44.575Z</time>
      </trkpt>
      <trkpt lat="47.06027" lon="7.13158">
        <ele>484.016992</ele>
        <time>2023-03-11T13:03:46.575Z</time>
      </trkpt>
      <trkpt lat="47.06031" lon="7.13173">
        <ele>483.972032</ele>
        <time>2023-03-11T13:03:48.574Z</time>
      </trkpt>
      <trkpt lat="47.06035" lon="7.13188">
        <ele>483.925936</ele>
        <time>2023-03-11T13:03:50.562Z</time>
      </trkpt>
      <trkpt lat="47.06038" lon="7.13201">
        <ele>483.888544</ele>
        <time>2023-03-11T13:03:52.576Z</time>
      </trkpt>
      <trkpt lat="47.0604" lon="7.13218">
        <ele>483.840118</ele>
        <time>2023-03-11T13:03:55.550Z</time>
      </trkpt>
      <trkpt lat="47.0604" lon="7.13237">
        <ele>483.787359</ele>
        <time>2023-03-11T13:03:58.574Z</time>
      </trkpt>
      <trkpt lat="47.06046" lon="7.13253">
        <ele>483.736871</ele>
        <time>2023-03-11T13:04:01.558Z</time>
      </trkpt>
      <trkpt lat="47.06056" lon="7.13258">
        <ele>483.695811</ele>
        <time>2023-03-11T13:04:04.561Z</time>
      </trkpt>
      <trkpt lat="47.0607" lon="7.13259">
        <ele>483.639523</ele>
        <time>2023-03-11T13:04:07.561Z</time>
      </trkpt>
      <trkpt lat="47.06084" lon="7.13258">
        <ele>483.580444</ele>
        <time>2023-03-11T13:04:10.551Z</time>
      </trkpt>
      <trkpt lat="47.06095" lon="7.13256">
        <ele>483.534657</ele>
        <time>2023-03-11T13:04:12.565Z</time>
      </trkpt>
      <trkpt lat="47.06107" lon="7.13255">
        <ele>483.485696</ele>
        <time>2023-03-11T13:04:14.590Z</time>
      </trkpt>
      <trkpt lat="47.06119" lon="7.13253">
        <ele>483.437985</ele>
        <time>2023-03-11T13:04:16.583Z</time>
      </trkpt>
      <trkpt lat="47.06129" lon="7.13253">
        <ele>483.395316</ele>
        <time>2023-03-11T13:04:18.598Z</time>
      </trkpt>
      <trkpt lat="47.06139" lon="7.13251">
        <ele>483.356791</ele>
        <time>2023-03-11T13:04:20.572Z</time>
      </trkpt>
      <trkpt lat="47.0615" lon="7.13251">
        <ele>483.317002</ele>
        <time>2023-03-11T13:04:22.579Z</time>
      </trkpt>
      <trkpt lat="47.06161" lon="7.13256">
        <ele>483.272473</ele>
        <time>2023-03-11T13:04:24.569Z</time>
      </trkpt>
      <trkpt lat="47.06171" lon="7.13268">
        <ele>483.227132</ele>
        <time>2023-03-11T13:04:26.555Z</time>
      </trkpt>
      <trkpt lat="47.06179" lon="7.13278">
        <ele>483.185985</ele>
        <time>2023-03-11T13:04:28.558Z</time>
      </trkpt>
      <trkpt lat="47.0619" lon="7.13285">
        <ele>483.143102</ele>
        <time>2023-03-11T13:04:30.561Z</time>
      </trkpt>
      <trkpt lat="47.062" lon="7.1329">
        <ele>483.100711</ele>
        <time>2023-03-11T13:04:32.573Z</time>
      </trkpt>
      <trkpt lat="47.06212" lon="7.13295">
        <ele>483.056454</ele>
        <time>2023-03-11T13:04:34.567Z</time>
      </trkpt>
      <trkpt lat="47.06223" lon="7.13299">
        <ele>483.014922</ele>
        <time>2023-03-11T13:04:36.578Z</time>
      </trkpt>
      <trkpt lat="47.06233" lon="7.13304">
        <ele>482.975556</ele>
        <time>2023-03-11T13:04:38.553Z</time>
      </trkpt>
      <trkpt lat="47.06243" lon="7.13314">
        <ele>482.931536</ele>
        <time>2023-03-11T13:04:40.556Z</time>
      </trkpt>
      <trkpt lat="47.06253" lon="7.13323">
        <ele>482.886825</ele>
        <time>2023-03-11T13:04:42.563Z</time>
      </trkpt>
      <trkpt lat="47.06263" lon="7.13334">
        <ele>482.841106</ele>
        <time>2023-03-11T13:04:44.559Z</time>
      </trkpt>
      <trkpt lat="47.06271" lon="7.13345">
        <ele>482.800309</ele>
        <time>2023-03-11T13:04:46.572Z</time>
      </trkpt>
      <trkpt lat="47.0628" lon="7.13355">
        <ele>482.758588</ele>
        <time>2023-03-11T13:04:48.570Z</time>
      </trkpt>
      <trkpt lat="47.06288" lon="7.13365">
        <ele>482.719451</ele>
        <time>2023-03-11T13:04:50.566Z</time>
      </trkpt>
      <trkpt lat="47.06296" lon="7.13375">
        <ele>482.629848</ele>
        <time>2023-03-11T13:04:52.570Z</time>
      </trkpt>
      <trkpt lat="47.06306" lon="7.13386">
        <ele>482.526293</ele>
        <time>2023-03-11T13:04:54.536Z</time>
      </trkpt>
      <trkpt lat="47.06313" lon="7.13395">
        <ele>482.442572</ele>
        <time>2023-03-11T13:04:56.561Z</time>
      </trkpt>
      <trkpt lat="47.06321" lon="7.13404">
        <ele>482.351789</ele>
        <time>2023-03-11T13:04:58.564Z</time>
      </trkpt>
      <trkpt lat="47.06329" lon="7.13412">
        <ele>482.26715</ele>
        <time>2023-03-11T13:05:00.575Z</time>
      </trkpt>
      <trkpt lat="47.06338" lon="7.13421">
        <ele>482.165909</ele>
        <time>2023-03-11T13:05:02.539Z</time>
      </trkpt>
      <trkpt lat="47.06348" lon="7.1343">
        <ele>482.062286</ele>
        <time>2023-03-11T13:05:04.546Z</time>
      </trkpt>
      <trkpt lat="47.06358" lon="7.1344">
        <ele>481.960476</ele>
        <time>2023-03-11T13:05:06.569Z</time>
      </trkpt>
      <trkpt lat="47.06367" lon="7.13449">
        <ele>481.866945</ele>
        <time>2023-03-11T13:05:08.561Z</time>
      </trkpt>
      <trkpt lat="47.06375" lon="7.1346">
        <ele>481.766423</ele>
        <time>2023-03-11T13:05:10.574Z</time>
      </trkpt>
      <trkpt lat="47.06383" lon="7.1347">
        <ele>481.673204</ele>
        <time>2023-03-11T13:05:12.586Z</time>
      </trkpt>
      <trkpt lat="47.06391" lon="7.1348">
        <ele>481.583293</ele>
        <time>2023-03-11T13:05:14.572Z</time>
      </trkpt>
      <trkpt lat="47.06399" lon="7.1349">
        <ele>481.490867</ele>
        <time>2023-03-11T13:05:16.579Z</time>
      </trkpt>
      <trkpt lat="47.06407" lon="7.13501">
        <ele>481.393133</ele>
        <time>2023-03-11T13:05:18.572Z</time>
      </trkpt>
      <trkpt lat="47.06415" lon="7.13511">
        <ele>481.301767</ele>
        <time>2023-03-11T13:05:20.575Z</time>
      </trkpt>
      <trkpt lat="47.06422" lon="7.13521">
        <ele>481.211577</ele>
        <time>2023-03-11T13:05:22.573Z</time>
      </trkpt>
      <trkpt lat="47.0643" lon="7.13531">
        <ele>481.129499</ele>
        <time>2023-03-11T13:05:24.579Z</time>
      </trkpt>
      <trkpt lat="47.06437" lon="7.13541">
        <ele>481.193281</ele>
        <time>2023-03-11T13:05:26.583Z</time>
      </trkpt>
      <trkpt lat="47.06445" lon="7.13551">
        <ele>481.258513</ele>
        <time>2023-03-11T13:05:28.574Z</time>
      </trkpt>
      <trkpt lat="47.06453" lon="7.13561">
        <ele>481.320126</ele>
        <time>2023-03-11T13:05:30.576Z</time>
      </trkpt>
      <trkpt lat="47.0646" lon="7.13571">
        <ele>481.383169</ele>
        <time>2023-03-11T13:05:32.575Z</time>
      </trkpt>
      <trkpt lat="47.06468" lon="7.13582">
        <ele>481.449456</ele>
        <time>2023-03-11T13:05:34.577Z</time>
      </trkpt>
      <trkpt lat="47.06476" lon="7.13594">
        <ele>481.519119</ele>
        <time>2023-03-11T13:05:36.595Z</time>
      </trkpt>
      <trkpt lat="47.06483" lon="7.13604">
        <ele>481.577889</ele>
        <time>2023-03-11T13:05:38.557Z</time>
      </trkpt>
      <trkpt lat="47.0649" lon="7.13612">
        <ele>481.634208</ele>
        <time>2023-03-11T13:05:40.579Z</time>
      </trkpt>
      <trkpt lat="47.06499" lon="7.13622">
        <ele>481.703431</ele>
        <time>2023-03-11T13:05:42.567Z</time>
      </trkpt>
      <trkpt lat="47.06509" lon="7.13634">
        <ele>481.782003</ele>
        <time>2023-03-11T13:05:45.582Z</time>
      </trkpt>
      <trkpt lat="47.06517" lon="7.13642">
        <ele>481.845657</ele>
        <time>2023-03-11T13:05:47.554Z</time>
      </trkpt>
      <trkpt lat="47.06527" lon="7.13649">
        <ele>481.913239</ele>
        <time>2023-03-11T13:05:49.571Z</time>
      </trkpt>
      <trkpt lat="47.06538" lon="7.13657">
        <ele>481.985801</ele>
        <time>2023-03-11T13:05:51.568Z</time>
      </trkpt>
      <trkpt lat="47.06547" lon="7.13663">
        <ele>482.048436</ele>
        <time>2023-03-11T13:05:53.570Z</time>
      </trkpt>
      <trkpt lat="47.06556" lon="7.13666">
        <ele>482.106105</ele>
        <time>2023-03-11T13:05:55.554Z</time>
      </trkpt>
      <trkpt lat="47.06565" lon="7.13671">
        <ele>482.164618</ele>
        <time>2023-03-11T13:05:57.570Z</time>
      </trkpt>
      <trkpt lat="47.06576" lon="7.13677">
        <ele>482.239811</ele>
        <time>2023-03-11T13:05:59.578Z</time>
      </trkpt>
      <trkpt lat="47.06587" lon="7.13684">
        <ele>482.335813</ele>
        <time>2023-03-11T13:06:01.574Z</time>
      </trkpt>
      <trkpt lat="47.06596" lon="7.13689">
        <ele>482.416415</ele>
        <time>2023-03-11T13:06:03.569Z</time>
      </trkpt>
      <trkpt lat="47.06605" lon="7.13694">
        <ele>482.496032</ele>
        <time>2023-03-11T13:06:05.573Z</time>
      </trkpt>
      <trkpt lat="47.06615" lon="7.13699">
        <ele>482.587247</ele>
        <time>2023-03-11T13:06:07.577Z</time>
      </trkpt>
      <trkpt lat="47.06625" lon="7.13706">
        <ele>482.679041</ele>
        <time>2023-03-11T13:06:09.585Z</time>
      </trkpt>
      <trkpt lat="47.06634" lon="7.13712">
        <ele>482.763454</ele>
        <time>2023-03-11T13:06:11.577Z</time>
      </trkpt>
      <trkpt lat="47.06643" lon="7.13717">
        <ele>482.847006</ele>
        <time>2023-03-11T13:06:13.584Z</time>
      </trkpt>
      <trkpt lat="47.06653" lon="7.13721">
        <ele>482.931554</ele>
        <time>2023-03-11T13:06:15.569Z</time>
      </trkpt>
      <trkpt lat="47.06663" lon="7.13725">
        <ele>483.015166</ele>
        <time>2023-03-11T13:06:17.574Z</time>
      </trkpt>
      <trkpt lat="47.06672" lon="7.1373">
        <ele>483.097366</ele>
        <time>2023-03-11T13:06:19.574Z</time>
      </trkpt>
      <trkpt lat="47.06683" lon="7.13736">
        <ele>483.193691</ele>
        <time>2023-03-11T13:06:21.567Z</time>
      </trkpt>
      <trkpt lat="47.06693" lon="7.1374">
        <ele>483.280045</ele>
        <time>2023-03-11T13:06:23.580Z</time>
      </trkpt>
      <trkpt lat="47.06702" lon="7.13745">
        <ele>483.362416</ele>
        <time>2023-03-11T13:06:25.580Z</time>
      </trkpt>
      <trkpt lat="47.06712" lon="7.13751">
        <ele>483.451878</ele>
        <time>2023-03-11T13:06:27.601Z</time>
      </trkpt>
      <trkpt lat="47.06721" lon="7.13756">
        <ele>483.533533</ele>
        <time>2023-03-11T13:06:29.573Z</time>
      </trkpt>
      <trkpt lat="47.06731" lon="7.13761">
        <ele>483.620028</ele>
        <time>2023-03-11T13:06:31.575Z</time>
      </trkpt>
      <trkpt lat="47.06739" lon="7.13766">
        <ele>483.695713</ele>
        <time>2023-03-11T13:06:33.579Z</time>
      </trkpt>
      <trkpt lat="47.06748" lon="7.13771">
        <ele>483.699342</ele>
        <time>2023-03-11T13:06:35.566Z</time>
      </trkpt>
      <trkpt lat="47.06756" lon="7.13776">
        <ele>483.578453</ele>
        <time>2023-03-11T13:06:37.582Z</time>
      </trkpt>
      <trkpt lat="47.06765" lon="7.13782">
        <ele>483.456639</ele>
        <time>2023-03-11T13:06:39.575Z</time>
      </trkpt>
      <trkpt lat="47.06773" lon="7.1379">
        <ele>483.337558</ele>
        <time>2023-03-11T13:06:41.549Z</time>
      </trkpt>
      <trkpt lat="47.06782" lon="7.13781">
        <ele>483.195081</ele>
        <time>2023-03-11T13:06:55.568Z</time>
      </trkpt>
      <trkpt lat="47.06788" lon="7.13766">
        <ele>483.045058</ele>
        <time>2023-03-11T13:06:58.558Z</time>
      </trkpt>
      <trkpt lat="47.06793" lon="7.1375">
        <ele>482.885819</ele>
        <time>2023-03-11T13:07:01.586Z</time>
      </trkpt>
      <trkpt lat="47.06797" lon="7.13734">
        <ele>482.735183</ele>
        <time>2023-03-11T13:07:04.581Z</time>
      </trkpt>
      <trkpt lat="47.068" lon="7.13717">
        <ele>482.584015</ele>
        <time>2023-03-11T13:07:07.570Z</time>
      </trkpt>
      <trkpt lat="47.06804" lon="7.13703">
        <ele>482.454922</ele>
        <time>2023-03-11T13:07:10.531Z</time>
      </trkpt>
      <trkpt lat="47.06807" lon="7.13689">
        <ele>482.320738</ele>
        <time>2023-03-11T13:07:13.550Z</time>
      </trkpt>
      <trkpt lat="47.06811" lon="7.13672">
        <ele>482.169425</ele>
        <time>2023-03-11T13:07:16.574Z</time>
      </trkpt>
      <trkpt lat="47.06814" lon="7.13656">
        <ele>482.01963</ele>
        <time>2023-03-11T13:07:19.568Z</time>
      </trkpt>
      <trkpt lat="47.06818" lon="7.1364">
        <ele>481.876445</ele>
        <time>2023-03-11T13:07:22.568Z</time>
      </trkpt>
      <trkpt lat="47.06821" lon="7.13625">
        <ele>481.734388</ele>
        <time>2023-03-11T13:07:25.578Z</time>
      </trkpt>
      <trkpt lat="47.06824" lon="7.13611">
        <ele>481.605848</ele>
        <time>2023-03-11T13:07:28.574Z</time>
      </trkpt>
      <trkpt lat="47.06827" lon="7.13594">
        <ele>481.457661</ele>
        <time>2023-03-11T13:07:32.579Z</time>
      </trkpt>
      <trkpt lat="47.0683" lon="7.1358">
        <ele>481.607509</ele>
        <time>2023-03-11T13:07:36.583Z</time>
      </trkpt>
      <trkpt lat="47.06834" lon="7.13567">
        <ele>481.806776</ele>
        <time>2023-03-11T13:07:40.558Z</time>
      </trkpt>
      <trkpt lat="47.06829" lon="7.13585">
        <ele>482.072638</ele>
        <time>2023-03-11T13:11:26.576Z</time>
      </trkpt>
      <trkpt lat="47.06825" lon="7.13599">
        <ele>482.281449</ele>
        <time>2023-03-11T13:11:30.586Z</time>
      </trkpt>
      <trkpt lat="47.06821" lon="7.13617">
        <ele>482.539098</ele>
        <time>2023-03-11T13:11:33.596Z</time>
      </trkpt>
      <trkpt lat="47.06817" lon="7.13636">
        <ele>482.816327</ele>
        <time>2023-03-11T13:11:36.589Z</time>
      </trkpt>
      <trkpt lat="47.06815" lon="7.13649">
        <ele>482.998654</ele>
        <time>2023-03-11T13:11:38.581Z</time>
      </trkpt>
      <trkpt lat="47.06812" lon="7.13662">
        <ele>483.185955</ele>
        <time>2023-03-11T13:11:40.596Z</time>
      </trkpt>
      <trkpt lat="47.06808" lon="7.13679">
        <ele>483.437526</ele>
        <time>2023-03-11T13:11:43.597Z</time>
      </trkpt>
      <trkpt lat="47.06804" lon="7.13698">
        <ele>483.710643</ele>
        <time>2023-03-11T13:11:46.583Z</time>
      </trkpt>
      <trkpt lat="47.06801" lon="7.13715">
        <ele>483.95584</ele>
        <time>2023-03-11T13:11:49.613Z</time>
      </trkpt>
      <trkpt lat="47.06797" lon="7.13731">
        <ele>484.194615</ele>
        <time>2023-03-11T13:11:52.596Z</time>
      </trkpt>
      <trkpt lat="47.06793" lon="7.13744">
        <ele>484.393298</ele>
        <time>2023-03-11T13:11:54.566Z</time>
      </trkpt>
      <trkpt lat="47.06789" lon="7.13758">
        <ele>484.598684</ele>
        <time>2023-03-11T13:11:56.588Z</time>
      </trkpt>
      <trkpt lat="47.06785" lon="7.13771">
        <ele>484.800334</ele>
        <time>2023-03-11T13:11:58.599Z</time>
      </trkpt>
      <trkpt lat="47.06781" lon="7.13785">
        <ele>485.002159</ele>
        <time>2023-03-11T13:12:00.596Z</time>
      </trkpt>
      <trkpt lat="47.0678" lon="7.13798">
        <ele>485.157112</ele>
        <time>2023-03-11T13:12:02.566Z</time>
      </trkpt>
      <trkpt lat="47.06785" lon="7.13812">
        <ele>485.324531</ele>
        <time>2023-03-11T13:12:05.553Z</time>
      </trkpt>
      <trkpt lat="47.06791" lon="7.13823">
        <ele>485.469224</ele>
        <time>2023-03-11T13:12:08.559Z</time>
      </trkpt>
      <trkpt lat="47.068" lon="7.13824">
        <ele>485.61524</ele>
        <time>2023-03-11T13:12:14.549Z</time>
      </trkpt>
      <trkpt lat="47.0681" lon="7.13823">
        <ele>485.761333</ele>
        <time>2023-03-11T13:12:18.563Z</time>
      </trkpt>
      <trkpt lat="47.0682" lon="7.13823">
        <ele>485.914952</ele>
        <time>2023-03-11T13:12:21.606Z</time>
      </trkpt>
      <trkpt lat="47.06831" lon="7.13822">
        <ele>486.080144</ele>
        <time>2023-03-11T13:12:24.574Z</time>
      </trkpt>
      <trkpt lat="47.06842" lon="7.13822">
        <ele>486.247697</ele>
        <time>2023-03-11T13:12:27.591Z</time>
      </trkpt>
      <trkpt lat="47.06854" lon="7.13825">
        <ele>486.42696</ele>
        <time>2023-03-11T13:12:31.590Z</time>
      </trkpt>
      <trkpt lat="47.06863" lon="7.13824">
        <ele>486.571444</ele>
        <time>2023-03-11T13:12:34.577Z</time>
      </trkpt>
      <trkpt lat="47.06874" lon="7.13826">
        <ele>486.732341</ele>
        <time>2023-03-11T13:12:36.574Z</time>
      </trkpt>
      <trkpt lat="47.06886" lon="7.13828">
        <ele>486.915792</ele>
        <time>2023-03-11T13:12:39.582Z</time>
      </trkpt>
      <trkpt lat="47.06897" lon="7.13832">
        <ele>487.089942</ele>
        <time>2023-03-11T13:12:42.563Z</time>
      </trkpt>
      <trkpt lat="47.06907" lon="7.13838">
        <ele>487.25404</ele>
        <time>2023-03-11T13:12:45.567Z</time>
      </trkpt>
      <trkpt lat="47.06917" lon="7.13845">
        <ele>487.426616</ele>
        <time>2023-03-11T13:12:48.577Z</time>
      </trkpt>
      <trkpt lat="47.06927" lon="7.13853">
        <ele>487.607006</ele>
        <time>2023-03-11T13:12:51.587Z</time>
      </trkpt>
      <trkpt lat="47.06936" lon="7.1386">
        <ele>487.747281</ele>
        <time>2023-03-11T13:12:53.593Z</time>
      </trkpt>
      <trkpt lat="47.06944" lon="7.13864">
        <ele>487.914028</ele>
        <time>2023-03-11T13:12:55.595Z</time>
      </trkpt>
      <trkpt lat="47.06957" lon="7.1387">
        <ele>488.165758</ele>
        <time>2023-03-11T13:12:58.580Z</time>
      </trkpt>
      <trkpt lat="47.06968" lon="7.13876">
        <ele>488.406643</ele>
        <time>2023-03-11T13:13:01.594Z</time>
      </trkpt>
      <trkpt lat="47.06976" lon="7.13882">
        <ele>488.588796</ele>
        <time>2023-03-11T13:13:03.583Z</time>
      </trkpt>
      <trkpt lat="47.06985" lon="7.13887">
        <ele>488.775634</ele>
        <time>2023-03-11T13:13:05.584Z</time>
      </trkpt>
      <trkpt lat="47.06998" lon="7.13893">
        <ele>489.040049</ele>
        <time>2023-03-11T13:13:08.564Z</time>
      </trkpt>
      <trkpt lat="47.07007" lon="7.13898">
        <ele>489.228021</ele>
        <time>2023-03-11T13:13:10.595Z</time>
      </trkpt>
      <trkpt lat="47.07016" lon="7.13905">
        <ele>489.424091</ele>
        <time>2023-03-11T13:13:12.573Z</time>
      </trkpt>
      <trkpt lat="47.07026" lon="7.13912">
        <ele>489.643216</ele>
        <time>2023-03-11T13:13:14.590Z</time>
      </trkpt>
      <trkpt lat="47.07034" lon="7.13918">
        <ele>489.826296</ele>
        <time>2023-03-11T13:13:16.586Z</time>
      </trkpt>
      <trkpt lat="47.07042" lon="7.13923">
        <ele>490.005591</ele>
        <time>2023-03-11T13:13:18.588Z</time>
      </trkpt>
      <trkpt lat="47.07051" lon="7.13929">
        <ele>490.193719</ele>
        <time>2023-03-11T13:13:20.594Z</time>
      </trkpt>
      <trkpt lat="47.07061" lon="7.13936">
        <ele>490.407587</ele>
        <time>2023-03-11T13:13:22.592Z</time>
      </trkpt>
      <trkpt lat="47.07069" lon="7.13943">
        <ele>490.605239</ele>
        <time>2023-03-11T13:13:24.596Z</time>
      </trkpt>
      <trkpt lat="47.07082" lon="7.13952">
        <ele>490.875169</ele>
        <time>2023-03-11T13:13:27.585Z</time>
      </trkpt>
      <trkpt lat="47.07091" lon="7.1396">
        <ele>491.082421</ele>
        <time>2023-03-11T13:13:29.586Z</time>
      </trkpt>
      <trkpt lat="47.071" lon="7.13967">
        <ele>491.284392</ele>
        <time>2023-03-11T13:13:31.581Z</time>
      </trkpt>
      <trkpt lat="47.07109" lon="7.13972">
        <ele>491.129599</ele>
        <time>2023-03-11T13:13:33.580Z</time>
      </trkpt>
      <trkpt lat="47.07119" lon="7.1398">
        <ele>490.678436</ele>
        <time>2023-03-11T13:13:35.591Z</time>
      </trkpt>
      <trkpt lat="47.0713" lon="7.13987">
        <ele>490.233096</ele>
        <time>2023-03-11T13:13:37.595Z</time>
      </trkpt>
      <trkpt lat="47.07138" lon="7.13993">
        <ele>489.864705</ele>
        <time>2023-03-11T13:13:39.588Z</time>
      </trkpt>
      <trkpt lat="47.07149" lon="7.14">
        <ele>489.403028</ele>
        <time>2023-03-11T13:13:41.604Z</time>
      </trkpt>
      <trkpt lat="47.07157" lon="7.14008">
        <ele>489.027297</ele>
        <time>2023-03-11T13:13:43.586Z</time>
      </trkpt>
      <trkpt lat="47.07166" lon="7.14015">
        <ele>488.639727</ele>
        <time>2023-03-11T13:13:45.591Z</time>
      </trkpt>
      <trkpt lat="47.07174" lon="7.14022">
        <ele>488.244058</ele>
        <time>2023-03-11T13:13:47.591Z</time>
      </trkpt>
      <trkpt lat="47.07187" lon="7.1403">
        <ele>487.732648</ele>
        <time>2023-03-11T13:13:50.578Z</time>
      </trkpt>
      <trkpt lat="47.07196" lon="7.14036">
        <ele>487.326389</ele>
        <time>2023-03-11T13:13:52.605Z</time>
      </trkpt>
      <trkpt lat="47.07205" lon="7.14042">
        <ele>486.934641</ele>
        <time>2023-03-11T13:13:54.585Z</time>
      </trkpt>
      <trkpt lat="47.07214" lon="7.14048">
        <ele>486.559239</ele>
        <time>2023-03-11T13:13:56.588Z</time>
      </trkpt>
      <trkpt lat="47.07222" lon="7.14054">
        <ele>486.193147</ele>
        <time>2023-03-11T13:13:58.590Z</time>
      </trkpt>
      <trkpt lat="47.07231" lon="7.14061">
        <ele>485.808379</ele>
        <time>2023-03-11T13:14:00.593Z</time>
      </trkpt>
      <trkpt lat="47.0724" lon="7.14066">
        <ele>485.420588</ele>
        <time>2023-03-11T13:14:02.587Z</time>
      </trkpt>
      <trkpt lat="47.07249" lon="7.14073">
        <ele>485.041669</ele>
        <time>2023-03-11T13:14:04.582Z</time>
      </trkpt>
      <trkpt lat="47.07259" lon="7.1408">
        <ele>484.626364</ele>
        <time>2023-03-11T13:14:06.597Z</time>
      </trkpt>
      <trkpt lat="47.07267" lon="7.14086">
        <ele>484.313607</ele>
        <time>2023-03-11T13:14:08.562Z</time>
      </trkpt>
      <trkpt lat="47.07279" lon="7.14093">
        <ele>484.057382</ele>
        <time>2023-03-11T13:14:11.586Z</time>
      </trkpt>
      <trkpt lat="47.07288" lon="7.141">
        <ele>483.861811</ele>
        <time>2023-03-11T13:14:13.593Z</time>
      </trkpt>
      <trkpt lat="47.07297" lon="7.14106">
        <ele>483.668653</ele>
        <time>2023-03-11T13:14:15.597Z</time>
      </trkpt>
      <trkpt lat="47.07307" lon="7.14113">
        <ele>483.472622</ele>
        <time>2023-03-11T13:14:17.592Z</time>
      </trkpt>
      <trkpt lat="47.07316" lon="7.14119">
        <ele>483.270725</ele>
        <time>2023-03-11T13:14:19.566Z</time>
      </trkpt>
      <trkpt lat="47.07325" lon="7.14125">
        <ele>483.08217</ele>
        <time>2023-03-11T13:14:21.590Z</time>
      </trkpt>
      <trkpt lat="47.07334" lon="7.14131">
        <ele>482.899544</ele>
        <time>2023-03-11T13:14:23.581Z</time>
      </trkpt>
      <trkpt lat="47.07342" lon="7.14136">
        <ele>482.718377</ele>
        <time>2023-03-11T13:14:25.582Z</time>
      </trkpt>
      <trkpt lat="47.07352" lon="7.14143">
        <ele>482.525205</ele>
        <time>2023-03-11T13:14:27.591Z</time>
      </trkpt>
      <trkpt lat="47.0736" lon="7.14148">
        <ele>482.352112</ele>
        <time>2023-03-11T13:14:29.591Z</time>
      </trkpt>
      <trkpt lat="47.07368" lon="7.14155">
        <ele>482.173807</ele>
        <time>2023-03-11T13:14:31.588Z</time>
      </trkpt>
      <trkpt lat="47.07377" lon="7.14161">
        <ele>481.976045</ele>
        <time>2023-03-11T13:14:33.590Z</time>
      </trkpt>
      <trkpt lat="47.07386" lon="7.14166">
        <ele>481.792919</ele>
        <time>2023-03-11T13:14:35.586Z</time>
      </trkpt>
      <trkpt lat="47.07395" lon="7.14172">
        <ele>481.612812</ele>
        <time>2023-03-11T13:14:37.583Z</time>
      </trkpt>
      <trkpt lat="47.07403" lon="7.14177">
        <ele>481.434987</ele>
        <time>2023-03-11T13:14:39.583Z</time>
      </trkpt>
      <trkpt lat="47.07412" lon="7.14183">
        <ele>481.254466</ele>
        <time>2023-03-11T13:14:41.584Z</time>
      </trkpt>
      <trkpt lat="47.0742" lon="7.14189">
        <ele>481.072077</ele>
        <time>2023-03-11T13:14:43.582Z</time>
      </trkpt>
      <trkpt lat="47.07429" lon="7.14194">
        <ele>480.905175</ele>
        <time>2023-03-11T13:14:45.591Z</time>
      </trkpt>
      <trkpt lat="47.07438" lon="7.142">
        <ele>481.007715</ele>
        <time>2023-03-11T13:14:47.596Z</time>
      </trkpt>
      <trkpt lat="47.07447" lon="7.14205">
        <ele>481.109427</ele>
        <time>2023-03-11T13:14:49.577Z</time>
      </trkpt>
      <trkpt lat="47.0746" lon="7.14213">
        <ele>481.250756</ele>
        <time>2023-03-11T13:14:52.597Z</time>
      </trkpt>
      <trkpt lat="47.07469" lon="7.14217">
        <ele>481.349837</ele>
        <time>2023-03-11T13:14:54.563Z</time>
      </trkpt>
      <trkpt lat="47.0748" lon="7.14223">
        <ele>481.475412</ele>
        <time>2023-03-11T13:14:57.608Z</time>
      </trkpt>
      <trkpt lat="47.07491" lon="7.14228">
        <ele>481.59487</ele>
        <time>2023-03-11T13:15:00.593Z</time>
      </trkpt>
      <trkpt lat="47.07502" lon="7.14237">
        <ele>481.719632</ele>
        <time>2023-03-11T13:15:03.572Z</time>
      </trkpt>
      <trkpt lat="47.07508" lon="7.14252">
        <ele>481.847436</ele>
        <time>2023-03-11T13:15:06.576Z</time>
      </trkpt>
      <trkpt lat="47.07508" lon="7.1427">
        <ele>481.972443</ele>
        <time>2023-03-11T13:15:09.576Z</time>
      </trkpt>
      <trkpt lat="47.07506" lon="7.14284">
        <ele>482.075967</ele>
        <time>2023-03-11T13:15:14.595Z</time>
      </trkpt>
      <trkpt lat="47.07516" lon="7.14271">
        <ele>482.211014</ele>
        <time>2023-03-11T13:15:20.550Z</time>
      </trkpt>
      <trkpt lat="47.07523" lon="7.14261">
        <ele>482.31273</ele>
        <time>2023-03-11T13:15:22.587Z</time>
      </trkpt>
      <trkpt lat="47.0753" lon="7.1425">
        <ele>482.416674</ele>
        <time>2023-03-11T13:15:24.587Z</time>
      </trkpt>
      <trkpt lat="47.07536" lon="7.14241">
        <ele>482.511482</ele>
        <time>2023-03-11T13:15:26.601Z</time>
      </trkpt>
      <trkpt lat="47.07545" lon="7.14227">
        <ele>482.643345</ele>
        <time>2023-03-11T13:15:29.586Z</time>
      </trkpt>
      <trkpt lat="47.07554" lon="7.14215">
        <ele>482.754152</ele>
        <time>2023-03-11T13:15:32.584Z</time>
      </trkpt>
      <trkpt lat="47.07563" lon="7.14201">
        <ele>482.571552</ele>
        <time>2023-03-11T13:15:35.570Z</time>
      </trkpt>
      <trkpt lat="47.0757" lon="7.14187">
        <ele>482.405819</ele>
        <time>2023-03-11T13:15:38.558Z</time>
      </trkpt>
      <trkpt lat="47.07578" lon="7.14178">
        <ele>482.248351</ele>
        <time>2023-03-11T13:15:42.590Z</time>
      </trkpt>
      <trkpt lat="47.07588" lon="7.14178">
        <ele>482.106859</ele>
        <time>2023-03-11T13:15:45.572Z</time>
      </trkpt>
      <trkpt lat="47.076" lon="7.14178">
        <ele>481.932489</ele>
        <time>2023-03-11T13:15:48.591Z</time>
      </trkpt>
      <trkpt lat="47.0761" lon="7.14176">
        <ele>481.787568</ele>
        <time>2023-03-11T13:15:51.592Z</time>
      </trkpt>
      <trkpt lat="47.07618" lon="7.14168">
        <ele>481.651323</ele>
        <time>2023-03-11T13:15:54.576Z</time>
      </trkpt>
      <trkpt lat="47.07609" lon="7.14175">
        <ele>481.504633</ele>
        <time>2023-03-11T13:20:18.569Z</time>
      </trkpt>
      <trkpt lat="47.076" lon="7.14176">
        <ele>481.370105</ele>
        <time>2023-03-11T13:20:24.571Z</time>
      </trkpt>
      <trkpt lat="47.0759" lon="7.14176">
        <ele>481.23318</ele>
        <time>2023-03-11T13:20:28.566Z</time>
      </trkpt>
      <trkpt lat="47.07581" lon="7.14179">
        <ele>481.102607</ele>
        <time>2023-03-11T13:20:32.579Z</time>
      </trkpt>
      <trkpt lat="47.07573" lon="7.14187">
        <ele>480.955379</ele>
        <time>2023-03-11T13:20:35.565Z</time>
      </trkpt>
      <trkpt lat="47.07564" lon="7.142">
        <ele>480.773791</ele>
        <time>2023-03-11T13:20:38.559Z</time>
      </trkpt>
      <trkpt lat="47.07558" lon="7.14211">
        <ele>480.632909</ele>
        <time>2023-03-11T13:20:41.593Z</time>
      </trkpt>
      <trkpt lat="47.0755" lon="7.14223">
        <ele>480.475941</ele>
        <time>2023-03-11T13:20:45.591Z</time>
      </trkpt>
      <trkpt lat="47.07544" lon="7.14233">
        <ele>480.341245</ele>
        <time>2023-03-11T13:20:49.590Z</time>
      </trkpt>
      <trkpt lat="47.07538" lon="7.14245">
        <ele>480.194873</ele>
        <time>2023-03-11T13:20:53.583Z</time>
      </trkpt>
      <trkpt lat="47.07531" lon="7.14257">
        <ele>480.323599</ele>
        <time>2023-03-11T13:20:57.598Z</time>
      </trkpt>
      <trkpt lat="47.07521" lon="7.14269">
        <ele>480.526988</ele>
        <time>2023-03-11T13:21:01.595Z</time>
      </trkpt>
      <trkpt lat="47.07513" lon="7.1428">
        <ele>480.703613</ele>
        <time>2023-03-11T13:21:05.581Z</time>
      </trkpt>
      <trkpt lat="47.0751" lon="7.14293">
        <ele>480.853577</ele>
        <time>2023-03-11T13:21:11.564Z</time>
      </trkpt>
      <trkpt lat="47.07513" lon="7.14306">
        <ele>481.01258</ele>
        <time>2023-03-11T13:21:15.573Z</time>
      </trkpt>
      <trkpt lat="47.07516" lon="7.14319">
        <ele>481.162717</ele>
        <time>2023-03-11T13:21:18.589Z</time>
      </trkpt>
      <trkpt lat="47.07518" lon="7.14332">
        <ele>481.311865</ele>
        <time>2023-03-11T13:21:21.592Z</time>
      </trkpt>
      <trkpt lat="47.07517" lon="7.14351">
        <ele>481.516341</ele>
        <time>2023-03-11T13:21:25.593Z</time>
      </trkpt>
      <trkpt lat="47.07513" lon="7.14366">
        <ele>481.690953</ele>
        <time>2023-03-11T13:21:28.584Z</time>
      </trkpt>
      <trkpt lat="47.07511" lon="7.1438">
        <ele>481.8481</ele>
        <time>2023-03-11T13:21:31.576Z</time>
      </trkpt>
      <trkpt lat="47.07509" lon="7.14397">
        <ele>482.035862</ele>
        <time>2023-03-11T13:21:34.578Z</time>
      </trkpt>
      <trkpt lat="47.07505" lon="7.14411">
        <ele>482.208581</ele>
        <time>2023-03-11T13:21:37.594Z</time>
      </trkpt>
      <trkpt lat="47.07501" lon="7.14427">
        <ele>482.388846</ele>
        <time>2023-03-11T13:21:40.599Z</time>
      </trkpt>
      <trkpt lat="47.07499" lon="7.14443">
        <ele>482.569838</ele>
        <time>2023-03-11T13:21:43.596Z</time>
      </trkpt>
      <trkpt lat="47.07496" lon="7.14457">
        <ele>482.732281</ele>
        <time>2023-03-11T13:21:46.605Z</time>
      </trkpt>
      <trkpt lat="47.07493" lon="7.14472">
        <ele>482.905286</ele>
        <time>2023-03-11T13:21:49.591Z</time>
      </trkpt>
      <trkpt lat="47.07489" lon="7.14489">
        <ele>483.059045</ele>
        <time>2023-03-11T13:21:52.586Z</time>
      </trkpt>
      <trkpt lat="47.07483" lon="7.14506">
        <ele>482.938185</ele>
        <time>2023-03-11T13:21:55.591Z</time>
      </trkpt>
      <trkpt lat="47.07477" lon="7.14522">
        <ele>482.818886</ele>
        <time>2023-03-11T13:21:58.592Z</time>
      </trkpt>
      <trkpt lat="47.07474" lon="7.14535">
        <ele>482.731291</ele>
        <time>2023-03-11T13:22:00.588Z</time>
      </trkpt>
      <trkpt lat="47.07469" lon="7.14552">
        <ele>482.614534</ele>
        <time>2023-03-11T13:22:03.593Z</time>
      </trkpt>
      <trkpt lat="47.07463" lon="7.14569">
        <ele>482.491181</ele>
        <time>2023-03-11T13:22:06.591Z</time>
      </trkpt>
      <trkpt lat="47.07458" lon="7.14587">
        <ele>482.366666</ele>
        <time>2023-03-11T13:22:09.588Z</time>
      </trkpt>
      <trkpt lat="47.07453" lon="7.14605">
        <ele>482.244383</ele>
        <time>2023-03-11T13:22:12.594Z</time>
      </trkpt>
      <trkpt lat="47.07448" lon="7.14622">
        <ele>482.122265</ele>
        <time>2023-03-11T13:22:15.593Z</time>
      </trkpt>
      <trkpt lat="47.07442" lon="7.1464">
        <ele>481.995136</ele>
        <time>2023-03-11T13:22:18.585Z</time>
      </trkpt>
      <trkpt lat="47.07434" lon="7.1465">
        <ele>481.90021</ele>
        <time>2023-03-11T13:22:20.574Z</time>
      </trkpt>
      <trkpt lat="47.07424" lon="7.14657">
        <ele>481.79328</ele>
        <time>2023-03-11T13:22:23.577Z</time>
      </trkpt>
      <trkpt lat="47.07415" lon="7.14663">
        <ele>481.699584</ele>
        <time>2023-03-11T13:22:26.603Z</time>
      </trkpt>
      <trkpt lat="47.07404" lon="7.14672">
        <ele>481.581641</ele>
        <time>2023-03-11T13:22:29.588Z</time>
      </trkpt>
      <trkpt lat="47.07396" lon="7.14678">
        <ele>481.496632</ele>
        <time>2023-03-11T13:22:31.591Z</time>
      </trkpt>
      <trkpt lat="47.07384" lon="7.14686">
        <ele>481.385805</ele>
        <time>2023-03-11T13:22:34.594Z</time>
      </trkpt>
      <trkpt lat="47.07376" lon="7.14693">
        <ele>481.419493</ele>
        <time>2023-03-11T13:22:36.594Z</time>
      </trkpt>
      <trkpt lat="47.07367" lon="7.14699">
        <ele>481.455167</ele>
        <time>2023-03-11T13:22:38.568Z</time>
      </trkpt>
      <trkpt lat="47.07356" lon="7.14707">
        <ele>481.502478</ele>
        <time>2023-03-11T13:22:41.586Z</time>
      </trkpt>
      <trkpt lat="47.07343" lon="7.14715">
        <ele>481.552589</ele>
        <time>2023-03-11T13:22:44.584Z</time>
      </trkpt>
      <trkpt lat="47.07332" lon="7.14722">
        <ele>481.595998</ele>
        <time>2023-03-11T13:22:47.589Z</time>
      </trkpt>
      <trkpt lat="47.0732" lon="7.14731">
        <ele>481.644193</ele>
        <time>2023-03-11T13:22:50.597Z</time>
      </trkpt>
      <trkpt lat="47.07307" lon="7.14741">
        <ele>481.696534</ele>
        <time>2023-03-11T13:22:53.582Z</time>
      </trkpt>
      <trkpt lat="47.07299" lon="7.14747">
        <ele>481.730255</ele>
        <time>2023-03-11T13:22:55.591Z</time>
      </trkpt>
      <trkpt lat="47.07287" lon="7.14751">
        <ele>481.776934</ele>
        <time>2023-03-11T13:22:58.569Z</time>
      </trkpt>
      <trkpt lat="47.07273" lon="7.14748">
        <ele>481.826857</ele>
        <time>2023-03-11T13:23:01.562Z</time>
      </trkpt>
      <trkpt lat="47.07265" lon="7.14743">
        <ele>481.859759</ele>
        <time>2023-03-11T13:23:03.579Z</time>
      </trkpt>
      <trkpt lat="47.07256" lon="7.14739">
        <ele>481.894135</ele>
        <time>2023-03-11T13:23:05.597Z</time>
      </trkpt>
      <trkpt lat="47.07247" lon="7.14734">
        <ele>481.928307</ele>
        <time>2023-03-11T13:23:07.585Z</time>
      </trkpt>
      <trkpt lat="47.07237" lon="7.14728">
        <ele>481.966686</ele>
        <time>2023-03-11T13:23:09.570Z</time>
      </trkpt>
      <trkpt lat="47.07228" lon="7.14721">
        <ele>482.003306</ele>
        <time>2023-03-11T13:23:11.581Z</time>
      </trkpt>
      <trkpt lat="47.0722" lon="7.14716">
        <ele>482.037068</ele>
        <time>2023-03-11T13:23:13.594Z</time>
      </trkpt>
      <trkpt lat="47.07211" lon="7.1471">
        <ele>482.067627</ele>
        <time>2023-03-11T13:23:15.565Z</time>
      </trkpt>
      <trkpt lat="47.07203" lon="7.14704">
        <ele>482.097415</ele>
        <time>2023-03-11T13:23:17.569Z</time>
      </trkpt>
      <trkpt lat="47.07194" lon="7.14697">
        <ele>482.129012</ele>
        <time>2023-03-11T13:23:19.590Z</time>
      </trkpt>
      <trkpt lat="47.07186" lon="7.1469">
        <ele>482.158221</ele>
        <time>2023-03-11T13:23:21.594Z</time>
      </trkpt>
      <trkpt lat="47.07175" lon="7.1468">
        <ele>482.200457</ele>
        <time>2023-03-11T13:23:24.591Z</time>
      </trkpt>
      <trkpt lat="47.07165" lon="7.1467">
        <ele>482.238367</ele>
        <time>2023-03-11T13:23:27.590Z</time>
      </trkpt>
      <trkpt lat="47.07156" lon="7.1466">
        <ele>482.274954</ele>
        <time>2023-03-11T13:23:30.577Z</time>
      </trkpt>
      <trkpt lat="47.07146" lon="7.14649">
        <ele>482.316715</ele>
        <time>2023-03-11T13:23:33.589Z</time>
      </trkpt>
      <trkpt lat="47.07138" lon="7.14641">
        <ele>482.346972</ele>
        <time>2023-03-11T13:23:35.616Z</time>
      </trkpt>
      <trkpt lat="47.07131" lon="7.14633">
        <ele>482.377097</ele>
        <time>2023-03-11T13:23:37.584Z</time>
      </trkpt>
      <trkpt lat="47.07123" lon="7.14625">
        <ele>482.407512</ele>
        <time>2023-03-11T13:23:39.600Z</time>
      </trkpt>
      <trkpt lat="47.07114" lon="7.14616">
        <ele>482.440485</ele>
        <time>2023-03-11T13:23:41.601Z</time>
      </trkpt>
      <trkpt lat="47.07106" lon="7.14608">
        <ele>482.472186</ele>
        <time>2023-03-11T13:23:43.598Z</time>
      </trkpt>
      <trkpt lat="47.07098" lon="7.146">
        <ele>482.503085</ele>
        <time>2023-03-11T13:23:45.592Z</time>
      </trkpt>
      <trkpt lat="47.0709" lon="7.14592">
        <ele>482.535588</ele>
        <time>2023-03-11T13:23:47.585Z</time>
      </trkpt>
      <trkpt lat="47.07082" lon="7.14583">
        <ele>482.566875</ele>
        <time>2023-03-11T13:23:49.566Z</time>
      </trkpt>
      <trkpt lat="47.07074" lon="7.14576">
        <ele>482.598097</ele>
        <time>2023-03-11T13:23:51.604Z</time>
      </trkpt>
      <trkpt lat="47.07066" lon="7.14568">
        <ele>482.564777</ele>
        <time>2023-03-11T13:23:53.594Z</time>
      </trkpt>
      <trkpt lat="47.07058" lon="7.14559">
        <ele>482.452458</ele>
        <time>2023-03-11T13:23:55.585Z</time>
      </trkpt>
      <trkpt lat="47.07051" lon="7.1455">
        <ele>482.342261</ele>
        <time>2023-03-11T13:23:57.597Z</time>
      </trkpt>
      <trkpt lat="47.07044" lon="7.14539">
        <ele>482.231033</ele>
        <time>2023-03-11T13:23:59.579Z</time>
      </trkpt>
      <trkpt lat="47.07039" lon="7.14529">
        <ele>482.127482</ele>
        <time>2023-03-11T13:24:01.579Z</time>
      </trkpt>
      <trkpt lat="47.07033" lon="7.14518">
        <ele>482.020937</ele>
        <time>2023-03-11T13:24:03.600Z</time>
      </trkpt>
      <trkpt lat="47.07029" lon="7.14506">
        <ele>481.913657</ele>
        <time>2023-03-11T13:24:05.587Z</time>
      </trkpt>
      <trkpt lat="47.07023" lon="7.14495">
        <ele>481.805174</ele>
        <time>2023-03-11T13:24:07.596Z</time>
      </trkpt>
      <trkpt lat="47.07018" lon="7.14483">
        <ele>481.695296</ele>
        <time>2023-03-11T13:24:09.588Z</time>
      </trkpt>
      <trkpt lat="47.07013" lon="7.14472">
        <ele>481.588131</ele>
        <time>2023-03-11T13:24:11.573Z</time>
      </trkpt>
      <trkpt lat="47.07007" lon="7.1446">
        <ele>481.477039</ele>
        <time>2023-03-11T13:24:13.590Z</time>
      </trkpt>
      <trkpt lat="47.07002" lon="7.14448">
        <ele>481.369092</ele>
        <time>2023-03-11T13:24:15.598Z</time>
      </trkpt>
      <trkpt lat="47.06997" lon="7.14437">
        <ele>481.26446</ele>
        <time>2023-03-11T13:24:17.599Z</time>
      </trkpt>
      <trkpt lat="47.06992" lon="7.14426">
        <ele>481.157926</ele>
        <time>2023-03-11T13:24:19.591Z</time>
      </trkpt>
      <trkpt lat="47.06987" lon="7.14415">
        <ele>481.053343</ele>
        <time>2023-03-11T13:24:21.593Z</time>
      </trkpt>
      <trkpt lat="47.06982" lon="7.14403">
        <ele>480.945533</ele>
        <time>2023-03-11T13:24:23.592Z</time>
      </trkpt>
      <trkpt lat="47.06977" lon="7.14391">
        <ele>480.837586</ele>
        <time>2023-03-11T13:24:25.589Z</time>
      </trkpt>
      <trkpt lat="47.06968" lon="7.14376">
        <ele>480.68276</ele>
        <time>2023-03-11T13:24:28.565Z</time>
      </trkpt>
      <trkpt lat="47.06962" lon="7.14366">
        <ele>480.577489</ele>
        <time>2023-03-11T13:24:30.557Z</time>
      </trkpt>
      <trkpt lat="47.06957" lon="7.14355">
        <ele>480.559841</ele>
        <time>2023-03-11T13:24:32.591Z</time>
      </trkpt>
      <trkpt lat="47.06953" lon="7.14342">
        <ele>480.571139</ele>
        <time>2023-03-11T13:24:34.549Z</time>
      </trkpt>
      <trkpt lat="47.06948" lon="7.1433">
        <ele>480.581827</ele>
        <time>2023-03-11T13:24:36.589Z</time>
      </trkpt>
      <trkpt lat="47.06945" lon="7.14317">
        <ele>480.592727</ele>
        <time>2023-03-11T13:24:38.566Z</time>
      </trkpt>
      <trkpt lat="47.06941" lon="7.14305">
        <ele>480.603162</ele>
        <time>2023-03-11T13:24:40.601Z</time>
      </trkpt>
      <trkpt lat="47.06938" lon="7.14292">
        <ele>480.614047</ele>
        <time>2023-03-11T13:24:42.595Z</time>
      </trkpt>
      <trkpt lat="47.06937" lon="7.14278">
        <ele>480.624857</ele>
        <time>2023-03-11T13:24:44.572Z</time>
      </trkpt>
      <trkpt lat="47.06936" lon="7.14265">
        <ele>480.635409</ele>
        <time>2023-03-11T13:24:46.571Z</time>
      </trkpt>
      <trkpt lat="47.06937" lon="7.14252">
        <ele>480.646012</ele>
        <time>2023-03-11T13:24:48.555Z</time>
      </trkpt>
      <trkpt lat="47.0694" lon="7.14234">
        <ele>480.660347</ele>
        <time>2023-03-11T13:24:51.593Z</time>
      </trkpt>
      <trkpt lat="47.06938" lon="7.14216">
        <ele>480.674364</ele>
        <time>2023-03-11T13:24:54.564Z</time>
      </trkpt>
      <trkpt lat="47.06927" lon="7.14205">
        <ele>480.69042</ele>
        <time>2023-03-11T13:24:57.559Z</time>
      </trkpt>
      <trkpt lat="47.06919" lon="7.14197">
        <ele>480.701318</ele>
        <time>2023-03-11T13:24:59.578Z</time>
      </trkpt>
      <trkpt lat="47.06911" lon="7.14182">
        <ele>480.716178</ele>
        <time>2023-03-11T13:25:02.544Z</time>
      </trkpt>
      <trkpt lat="47.06903" lon="7.14168">
        <ele>480.730951</ele>
        <time>2023-03-11T13:25:05.598Z</time>
      </trkpt>
      <trkpt lat="47.06896" lon="7.14153">
        <ele>480.745214</ele>
        <time>2023-03-11T13:25:08.568Z</time>
      </trkpt>
      <trkpt lat="47.0689" lon="7.14143">
        <ele>480.75563</ele>
        <time>2023-03-11T13:25:10.586Z</time>
      </trkpt>
      <trkpt lat="47.06882" lon="7.14128">
        <ele>480.830168</ele>
        <time>2023-03-11T13:25:13.591Z</time>
      </trkpt>
      <trkpt lat="47.06875" lon="7.14113">
        <ele>480.926557</ele>
        <time>2023-03-11T13:25:16.582Z</time>
      </trkpt>
      <trkpt lat="47.06866" lon="7.14098">
        <ele>481.026706</ele>
        <time>2023-03-11T13:25:19.564Z</time>
      </trkpt>
      <trkpt lat="47.06858" lon="7.14083">
        <ele>481.124212</ele>
        <time>2023-03-11T13:25:22.588Z</time>
      </trkpt>
      <trkpt lat="47.06853" lon="7.14072">
        <ele>481.195482</ele>
        <time>2023-03-11T13:25:24.583Z</time>
      </trkpt>
      <trkpt lat="47.06847" lon="7.1406">
        <ele>481.272147</ele>
        <time>2023-03-11T13:25:26.593Z</time>
      </trkpt>
      <trkpt lat="47.06841" lon="7.14047">
        <ele>481.353577</ele>
        <time>2023-03-11T13:25:28.562Z</time>
      </trkpt>
      <trkpt lat="47.06836" lon="7.14034">
        <ele>481.43148</ele>
        <time>2023-03-11T13:25:30.600Z</time>
      </trkpt>
      <trkpt lat="47.06833" lon="7.1402">
        <ele>481.50737</ele>
        <time>2023-03-11T13:25:32.556Z</time>
      </trkpt>
      <trkpt lat="47.06829" lon="7.14006">
        <ele>481.582931</ele>
        <time>2023-03-11T13:25:34.590Z</time>
      </trkpt>
      <trkpt lat="47.06826" lon="7.13993">
        <ele>481.658755</ele>
        <time>2023-03-11T13:25:36.596Z</time>
      </trkpt>
      <trkpt lat="47.06823" lon="7.13978">
        <ele>481.735799</ele>
        <time>2023-03-11T13:25:38.572Z</time>
      </trkpt>
      <trkpt lat="47.06819" lon="7.13963">
        <ele>481.817749</ele>
        <time>2023-03-11T13:25:40.596Z</time>
      </trkpt>
      <trkpt lat="47.06815" lon="7.13947">
        <ele>481.911099</ele>
        <time>2023-03-11T13:25:42.591Z</time>
      </trkpt>
      <trkpt lat="47.06808" lon="7.13932">
        <ele>482.003189</ele>
        <time>2023-03-11T13:25:44.561Z</time>
      </trkpt>
      <trkpt lat="47.068" lon="7.1392">
        <ele>482.087829</ele>
        <time>2023-03-11T13:25:46.558Z</time>
      </trkpt>
      <trkpt lat="47.06793" lon="7.13909">
        <ele>482.140846</ele>
        <time>2023-03-11T13:25:48.590Z</time>
      </trkpt>
      <trkpt lat="47.06787" lon="7.13898">
        <ele>482.162791</ele>
        <time>2023-03-11T13:25:50.570Z</time>
      </trkpt>
      <trkpt lat="47.06783" lon="7.13885">
        <ele>482.184129</ele>
        <time>2023-03-11T13:25:52.578Z</time>
      </trkpt>
      <trkpt lat="47.06783" lon="7.13872">
        <ele>482.205118</ele>
        <time>2023-03-11T13:25:54.575Z</time>
      </trkpt>
      <trkpt lat="47.06783" lon="7.13857">
        <ele>482.227929</ele>
        <time>2023-03-11T13:25:56.577Z</time>
      </trkpt>
      <trkpt lat="47.06785" lon="7.13844">
        <ele>482.249359</ele>
        <time>2023-03-11T13:25:58.561Z</time>
      </trkpt>
      <trkpt lat="47.06788" lon="7.1383">
        <ele>482.271912</ele>
        <time>2023-03-11T13:26:01.593Z</time>
      </trkpt>
      <trkpt lat="47.06786" lon="7.13813">
        <ele>482.299587</ele>
        <time>2023-03-11T13:26:04.573Z</time>
      </trkpt>
      <trkpt lat="47.06779" lon="7.13798">
        <ele>482.328521</ele>
        <time>2023-03-11T13:26:06.562Z</time>
      </trkpt>
      <trkpt lat="47.0677" lon="7.13786">
        <ele>482.356462</ele>
        <time>2023-03-11T13:26:08.584Z</time>
      </trkpt>
      <trkpt lat="47.0676" lon="7.13777">
        <ele>482.383633</ele>
        <time>2023-03-11T13:26:10.562Z</time>
      </trkpt>
      <trkpt lat="47.06747" lon="7.13768">
        <ele>482.415506</ele>
        <time>2023-03-11T13:26:12.579Z</time>
      </trkpt>
      <trkpt lat="47.06735" lon="7.13763">
        <ele>482.444255</ele>
        <time>2023-03-11T13:26:14.579Z</time>
      </trkpt>
      <trkpt lat="47.06722" lon="7.13756">
        <ele>482.475742</ele>
        <time>2023-03-11T13:26:17.575Z</time>
      </trkpt>
      <trkpt lat="47.06712" lon="7.1375">
        <ele>482.500552</ele>
        <time>2023-03-11T13:26:19.597Z</time>
      </trkpt>
      <trkpt lat="47.06702" lon="7.13745">
        <ele>482.525049</ele>
        <time>2023-03-11T13:26:21.582Z</time>
      </trkpt>
      <trkpt lat="47.06691" lon="7.1374">
        <ele>482.544054</ele>
        <time>2023-03-11T13:26:23.592Z</time>
      </trkpt>
      <trkpt lat="47.06681" lon="7.13735">
        <ele>482.55173</ele>
        <time>2023-03-11T13:26:25.594Z</time>
      </trkpt>
      <trkpt lat="47.0667" lon="7.13729">
        <ele>482.559465</ele>
        <time>2023-03-11T13:26:27.595Z</time>
      </trkpt>
      <trkpt lat="47.06659" lon="7.13725">
        <ele>482.567023</ele>
        <time>2023-03-11T13:26:29.591Z</time>
      </trkpt>
      <trkpt lat="47.06648" lon="7.1372">
        <ele>482.575028</ele>
        <time>2023-03-11T13:26:31.582Z</time>
      </trkpt>
      <trkpt lat="47.06638" lon="7.13714">
        <ele>482.582895</ele>
        <time>2023-03-11T13:26:33.593Z</time>
      </trkpt>
      <trkpt lat="47.06629" lon="7.13709">
        <ele>482.589354</ele>
        <time>2023-03-11T13:26:35.596Z</time>
      </trkpt>
      <trkpt lat="47.0662" lon="7.13704">
        <ele>482.595796</ele>
        <time>2023-03-11T13:26:37.575Z</time>
      </trkpt>
      <trkpt lat="47.06612" lon="7.13699">
        <ele>482.602025</ele>
        <time>2023-03-11T13:26:39.593Z</time>
      </trkpt>
      <trkpt lat="47.06599" lon="7.1369">
        <ele>482.611769</ele>
        <time>2023-03-11T13:26:42.605Z</time>
      </trkpt>
      <trkpt lat="47.06589" lon="7.13685">
        <ele>482.619053</ele>
        <time>2023-03-11T13:26:44.598Z</time>
      </trkpt>
      <trkpt lat="47.06579" lon="7.13678">
        <ele>482.62698</ele>
        <time>2023-03-11T13:26:46.598Z</time>
      </trkpt>
      <trkpt lat="47.06569" lon="7.13672">
        <ele>482.633966</ele>
        <time>2023-03-11T13:26:48.602Z</time>
      </trkpt>
      <trkpt lat="47.0656" lon="7.13666">
        <ele>482.641071</ele>
        <time>2023-03-11T13:26:50.594Z</time>
      </trkpt>
      <trkpt lat="47.06551" lon="7.13661">
        <ele>482.647818</ele>
        <time>2023-03-11T13:26:52.586Z</time>
      </trkpt>
      <trkpt lat="47.06541" lon="7.13656">
        <ele>482.654776</ele>
        <time>2023-03-11T13:26:54.587Z</time>
      </trkpt>
      <trkpt lat="47.06531" lon="7.1365">
        <ele>482.662417</ele>
        <time>2023-03-11T13:26:56.591Z</time>
      </trkpt>
      <trkpt lat="47.06521" lon="7.13643">
        <ele>482.606231</ele>
        <time>2023-03-11T13:26:58.573Z</time>
      </trkpt>
      <trkpt lat="47.06513" lon="7.13634">
        <ele>482.52053</ele>
        <time>2023-03-11T13:27:00.593Z</time>
      </trkpt>
      <trkpt lat="47.06505" lon="7.13626">
        <ele>482.440972</ele>
        <time>2023-03-11T13:27:02.580Z</time>
      </trkpt>
      <trkpt lat="47.06496" lon="7.13618">
        <ele>482.354324</ele>
        <time>2023-03-11T13:27:04.598Z</time>
      </trkpt>
      <trkpt lat="47.06488" lon="7.13609">
        <ele>482.271757</ele>
        <time>2023-03-11T13:27:06.595Z</time>
      </trkpt>
      <trkpt lat="47.06481" lon="7.13599">
        <ele>482.188005</ele>
        <time>2023-03-11T13:27:08.567Z</time>
      </trkpt>
      <trkpt lat="47.06473" lon="7.13589">
        <ele>482.104518</ele>
        <time>2023-03-11T13:27:10.593Z</time>
      </trkpt>
      <trkpt lat="47.06466" lon="7.13578">
        <ele>482.016638</ele>
        <time>2023-03-11T13:27:12.585Z</time>
      </trkpt>
      <trkpt lat="47.06459" lon="7.13568">
        <ele>481.937824</ele>
        <time>2023-03-11T13:27:14.593Z</time>
      </trkpt>
      <trkpt lat="47.06452" lon="7.13559">
        <ele>481.857966</ele>
        <time>2023-03-11T13:27:16.592Z</time>
      </trkpt>
      <trkpt lat="47.06445" lon="7.13548">
        <ele>481.769462</ele>
        <time>2023-03-11T13:27:18.600Z</time>
      </trkpt>
      <trkpt lat="47.06438" lon="7.13538">
        <ele>481.6887</ele>
        <time>2023-03-11T13:27:20.615Z</time>
      </trkpt>
      <trkpt lat="47.0643" lon="7.13528">
        <ele>481.600466</ele>
        <time>2023-03-11T13:27:22.594Z</time>
      </trkpt>
      <trkpt lat="47.06421" lon="7.13517">
        <ele>481.508486</ele>
        <time>2023-03-11T13:27:24.593Z</time>
      </trkpt>
      <trkpt lat="47.06414" lon="7.13508">
        <ele>481.425168</ele>
        <time>2023-03-11T13:27:26.586Z</time>
      </trkpt>
      <trkpt lat="47.06406" lon="7.13497">
        <ele>481.336047</ele>
        <time>2023-03-11T13:27:28.594Z</time>
      </trkpt>
      <trkpt lat="47.06398" lon="7.13487">
        <ele>481.246813</ele>
        <time>2023-03-11T13:27:30.600Z</time>
      </trkpt>
      <trkpt lat="47.06389" lon="7.13477">
        <ele>481.183426</ele>
        <time>2023-03-11T13:27:32.608Z</time>
      </trkpt>
      <trkpt lat="47.06381" lon="7.13466">
        <ele>481.317426</ele>
        <time>2023-03-11T13:27:34.590Z</time>
      </trkpt>
      <trkpt lat="47.06373" lon="7.13456">
        <ele>481.454611</ele>
        <time>2023-03-11T13:27:36.605Z</time>
      </trkpt>
      <trkpt lat="47.06365" lon="7.13446">
        <ele>481.580283</ele>
        <time>2023-03-11T13:27:38.566Z</time>
      </trkpt>
      <trkpt lat="47.06357" lon="7.13438">
        <ele>481.695602</ele>
        <time>2023-03-11T13:27:40.588Z</time>
      </trkpt>
      <trkpt lat="47.06348" lon="7.13429">
        <ele>481.825721</ele>
        <time>2023-03-11T13:27:42.601Z</time>
      </trkpt>
      <trkpt lat="47.06339" lon="7.13421">
        <ele>481.958343</ele>
        <time>2023-03-11T13:27:44.591Z</time>
      </trkpt>
      <trkpt lat="47.0633" lon="7.13412">
        <ele>482.092262</ele>
        <time>2023-03-11T13:27:46.599Z</time>
      </trkpt>
      <trkpt lat="47.0632" lon="7.13403">
        <ele>482.2327</ele>
        <time>2023-03-11T13:27:48.602Z</time>
      </trkpt>
      <trkpt lat="47.06313" lon="7.13394">
        <ele>482.356894</ele>
        <time>2023-03-11T13:27:50.590Z</time>
      </trkpt>
      <trkpt lat="47.06305" lon="7.13383">
        <ele>482.486478</ele>
        <time>2023-03-11T13:27:52.574Z</time>
      </trkpt>
      <trkpt lat="47.06297" lon="7.13372">
        <ele>482.618873</ele>
        <time>2023-03-11T13:27:54.596Z</time>
      </trkpt>
      <trkpt lat="47.06289" lon="7.13362">
        <ele>482.748828</ele>
        <time>2023-03-11T13:27:56.563Z</time>
      </trkpt>
      <trkpt lat="47.06281" lon="7.13352">
        <ele>482.880106</ele>
        <time>2023-03-11T13:27:58.575Z</time>
      </trkpt>
      <trkpt lat="47.06272" lon="7.13342">
        <ele>483.01222</ele>
        <time>2023-03-11T13:28:00.593Z</time>
      </trkpt>
      <trkpt lat="47.06263" lon="7.13332">
        <ele>483.153212</ele>
        <time>2023-03-11T13:28:02.597Z</time>
      </trkpt>
      <trkpt lat="47.06254" lon="7.13322">
        <ele>483.293631</ele>
        <time>2023-03-11T13:28:04.605Z</time>
      </trkpt>
      <trkpt lat="47.06245" lon="7.13313">
        <ele>483.343593</ele>
        <time>2023-03-11T13:28:06.575Z</time>
      </trkpt>
      <trkpt lat="47.06236" lon="7.13305">
        <ele>483.260781</ele>
        <time>2023-03-11T13:28:08.567Z</time>
      </trkpt>
      <trkpt lat="47.06225" lon="7.133">
        <ele>483.178287</ele>
        <time>2023-03-11T13:28:10.586Z</time>
      </trkpt>
      <trkpt lat="47.06215" lon="7.13295">
        <ele>483.096556</ele>
        <time>2023-03-11T13:28:12.590Z</time>
      </trkpt>
      <trkpt lat="47.06205" lon="7.13291">
        <ele>483.01493</ele>
        <time>2023-03-11T13:28:14.588Z</time>
      </trkpt>
      <trkpt lat="47.06194" lon="7.13287">
        <ele>482.934934</ele>
        <time>2023-03-11T13:28:16.594Z</time>
      </trkpt>
      <trkpt lat="47.06185" lon="7.13282">
        <ele>482.860376</ele>
        <time>2023-03-11T13:28:18.598Z</time>
      </trkpt>
      <trkpt lat="47.06176" lon="7.13274">
        <ele>482.779268</ele>
        <time>2023-03-11T13:28:20.575Z</time>
      </trkpt>
      <trkpt lat="47.06166" lon="7.13264">
        <ele>482.692193</ele>
        <time>2023-03-11T13:28:22.590Z</time>
      </trkpt>
      <trkpt lat="47.06159" lon="7.13255">
        <ele>482.620807</ele>
        <time>2023-03-11T13:28:24.577Z</time>
      </trkpt>
      <trkpt lat="47.0615" lon="7.1325">
        <ele>482.548578</ele>
        <time>2023-03-11T13:28:26.579Z</time>
      </trkpt>
      <trkpt lat="47.06141" lon="7.1325">
        <ele>482.476325</ele>
        <time>2023-03-11T13:28:28.572Z</time>
      </trkpt>
      <trkpt lat="47.06131" lon="7.13252">
        <ele>482.402236</ele>
        <time>2023-03-11T13:28:30.579Z</time>
      </trkpt>
      <trkpt lat="47.0612" lon="7.13253">
        <ele>482.324447</ele>
        <time>2023-03-11T13:28:32.611Z</time>
      </trkpt>
      <trkpt lat="47.0611" lon="7.13254">
        <ele>482.246108</ele>
        <time>2023-03-11T13:28:34.611Z</time>
      </trkpt>
      <trkpt lat="47.06099" lon="7.13253">
        <ele>482.164828</ele>
        <time>2023-03-11T13:28:36.605Z</time>
      </trkpt>
      <trkpt lat="47.06089" lon="7.13254">
        <ele>482.088621</ele>
        <time>2023-03-11T13:28:38.574Z</time>
      </trkpt>
      <trkpt lat="47.0608" lon="7.13256">
        <ele>482.007002</ele>
        <time>2023-03-11T13:28:40.589Z</time>
      </trkpt>
      <trkpt lat="47.0607" lon="7.13255">
        <ele>481.749694</ele>
        <time>2023-03-11T13:28:42.594Z</time>
      </trkpt>
      <trkpt lat="47.0606" lon="7.13254">
        <ele>481.502746</ele>
        <time>2023-03-11T13:28:44.596Z</time>
      </trkpt>
      <trkpt lat="47.06051" lon="7.1325">
        <ele>481.240012</ele>
        <time>2023-03-11T13:28:46.571Z</time>
      </trkpt>
      <trkpt lat="47.06043" lon="7.1324">
        <ele>480.975206</ele>
        <time>2023-03-11T13:28:48.575Z</time>
      </trkpt>
      <trkpt lat="47.06042" lon="7.13224">
        <ele>480.691705</ele>
        <time>2023-03-11T13:28:50.580Z</time>
      </trkpt>
      <trkpt lat="47.06042" lon="7.1321">
        <ele>480.439885</ele>
        <time>2023-03-11T13:28:52.582Z</time>
      </trkpt>
      <trkpt lat="47.06039" lon="7.13195">
        <ele>480.162369</ele>
        <time>2023-03-11T13:28:54.567Z</time>
      </trkpt>
      <trkpt lat="47.06036" lon="7.1318">
        <ele>479.873216</ele>
        <time>2023-03-11T13:28:56.586Z</time>
      </trkpt>
      <trkpt lat="47.06031" lon="7.13166">
        <ele>479.591718</ele>
        <time>2023-03-11T13:28:58.584Z</time>
      </trkpt>
      <trkpt lat="47.06026" lon="7.13151">
        <ele>479.302205</ele>
        <time>2023-03-11T13:29:00.614Z</time>
      </trkpt>
      <trkpt lat="47.06021" lon="7.13137">
        <ele>479.027833</ele>
        <time>2023-03-11T13:29:02.588Z</time>
      </trkpt>
      <trkpt lat="47.06017" lon="7.13123">
        <ele>478.753574</ele>
        <time>2023-03-11T13:29:04.580Z</time>
      </trkpt>
      <trkpt lat="47.06013" lon="7.1311">
        <ele>478.48419</ele>
        <time>2023-03-11T13:29:06.587Z</time>
      </trkpt>
      <trkpt lat="47.06008" lon="7.13097">
        <ele>478.23924</ele>
        <time>2023-03-11T13:29:08.580Z</time>
      </trkpt>
      <trkpt lat="47.06004" lon="7.13085">
        <ele>477.989181</ele>
        <time>2023-03-11T13:29:10.581Z</time>
      </trkpt>
      <trkpt lat="47.05998" lon="7.13073">
        <ele>477.717507</ele>
        <time>2023-03-11T13:29:12.594Z</time>
      </trkpt>
      <trkpt lat="47.05993" lon="7.13062">
        <ele>477.481345</ele>
        <time>2023-03-11T13:29:14.600Z</time>
      </trkpt>
      <trkpt lat="47.05988" lon="7.13049">
        <ele>477.335596</ele>
        <time>2023-03-11T13:29:16.613Z</time>
      </trkpt>
      <trkpt lat="47.05983" lon="7.13038">
        <ele>477.43129</ele>
        <time>2023-03-11T13:29:18.602Z</time>
      </trkpt>
      <trkpt lat="47.05978" lon="7.13025">
        <ele>477.538864</ele>
        <time>2023-03-11T13:29:20.598Z</time>
      </trkpt>
      <trkpt lat="47.05973" lon="7.13012">
        <ele>477.64318</ele>
        <time>2023-03-11T13:29:22.595Z</time>
      </trkpt>
      <trkpt lat="47.05969" lon="7.13">
        <ele>477.741593</ele>
        <time>2023-03-11T13:29:24.600Z</time>
      </trkpt>
      <trkpt lat="47.05963" lon="7.12988">
        <ele>477.846145</ele>
        <time>2023-03-11T13:29:26.596Z</time>
      </trkpt>
      <trkpt lat="47.05957" lon="7.12976">
        <ele>477.9519</ele>
        <time>2023-03-11T13:29:28.583Z</time>
      </trkpt>
      <trkpt lat="47.05952" lon="7.12964">
        <ele>478.057633</ele>
        <time>2023-03-11T13:29:30.602Z</time>
      </trkpt>
      <trkpt lat="47.05947" lon="7.12952">
        <ele>478.155329</ele>
        <time>2023-03-11T13:29:32.599Z</time>
      </trkpt>
      <trkpt lat="47.0594" lon="7.12935">
        <ele>478.294926</ele>
        <time>2023-03-11T13:29:35.594Z</time>
      </trkpt>
      <trkpt lat="47.05932" lon="7.12918">
        <ele>478.44143</ele>
        <time>2023-03-11T13:29:38.571Z</time>
      </trkpt>
      <trkpt lat="47.05926" lon="7.12906">
        <ele>478.552323</ele>
        <time>2023-03-11T13:29:40.583Z</time>
      </trkpt>
      <trkpt lat="47.05921" lon="7.12894">
        <ele>478.650019</ele>
        <time>2023-03-11T13:29:42.599Z</time>
      </trkpt>
      <trkpt lat="47.05915" lon="7.12879">
        <ele>478.776107</ele>
        <time>2023-03-11T13:29:45.589Z</time>
      </trkpt>
      <trkpt lat="47.05909" lon="7.12867">
        <ele>478.878307</ele>
        <time>2023-03-11T13:29:47.593Z</time>
      </trkpt>
      <trkpt lat="47.05905" lon="7.12856">
        <ele>478.973486</ele>
        <time>2023-03-11T13:29:49.598Z</time>
      </trkpt>
      <trkpt lat="47.059" lon="7.12844">
        <ele>479.074283</ele>
        <time>2023-03-11T13:29:51.615Z</time>
      </trkpt>
      <trkpt lat="47.05894" lon="7.12831">
        <ele>479.185417</ele>
        <time>2023-03-11T13:29:53.600Z</time>
      </trkpt>
      <trkpt lat="47.05888" lon="7.12818">
        <ele>479.186783</ele>
        <time>2023-03-11T13:29:55.597Z</time>
      </trkpt>
      <trkpt lat="47.05882" lon="7.12805">
        <ele>479.181785</ele>
        <time>2023-03-11T13:29:57.613Z</time>
      </trkpt>
      <trkpt lat="47.05876" lon="7.12792">
        <ele>479.177054</ele>
        <time>2023-03-11T13:29:59.590Z</time>
      </trkpt>
      <trkpt lat="47.05871" lon="7.12779">
        <ele>479.172154</ele>
        <time>2023-03-11T13:30:01.588Z</time>
      </trkpt>
      <trkpt lat="47.05865" lon="7.12767">
        <ele>479.16726</ele>
        <time>2023-03-11T13:30:03.615Z</time>
      </trkpt>
      <trkpt lat="47.05859" lon="7.12755">
        <ele>479.162529</ele>
        <time>2023-03-11T13:30:05.594Z</time>
      </trkpt>
      <trkpt lat="47.05854" lon="7.12743">
        <ele>479.157795</ele>
        <time>2023-03-11T13:30:07.581Z</time>
      </trkpt>
      <trkpt lat="47.05849" lon="7.1273">
        <ele>479.15298</ele>
        <time>2023-03-11T13:30:09.596Z</time>
      </trkpt>
      <trkpt lat="47.05844" lon="7.12717">
        <ele>479.148146</ele>
        <time>2023-03-11T13:30:11.598Z</time>
      </trkpt>
      <trkpt lat="47.05838" lon="7.12704">
        <ele>479.143325</ele>
        <time>2023-03-11T13:30:13.601Z</time>
      </trkpt>
      <trkpt lat="47.05833" lon="7.12691">
        <ele>479.138379</ele>
        <time>2023-03-11T13:30:15.577Z</time>
      </trkpt>
      <trkpt lat="47.05827" lon="7.12678">
        <ele>479.133534</ele>
        <time>2023-03-11T13:30:17.601Z</time>
      </trkpt>
      <trkpt lat="47.05821" lon="7.12666">
        <ele>479.128695</ele>
        <time>2023-03-11T13:30:19.567Z</time>
      </trkpt>
      <trkpt lat="47.05816" lon="7.12654">
        <ele>479.124116</ele>
        <time>2023-03-11T13:30:21.614Z</time>
      </trkpt>
      <trkpt lat="47.05811" lon="7.12641">
        <ele>479.119198</ele>
        <time>2023-03-11T13:30:23.599Z</time>
      </trkpt>
      <trkpt lat="47.05804" lon="7.12629">
        <ele>479.114347</ele>
        <time>2023-03-11T13:30:25.591Z</time>
      </trkpt>
      <trkpt lat="47.05799" lon="7.12616">
        <ele>479.109563</ele>
        <time>2023-03-11T13:30:27.590Z</time>
      </trkpt>
      <trkpt lat="47.05794" lon="7.12603">
        <ele>479.121466</ele>
        <time>2023-03-11T13:30:29.581Z</time>
      </trkpt>
      <trkpt lat="47.05788" lon="7.12591">
        <ele>479.158302</ele>
        <time>2023-03-11T13:30:31.578Z</time>
      </trkpt>
      <trkpt lat="47.05783" lon="7.12578">
        <ele>479.195886</ele>
        <time>2023-03-11T13:30:33.592Z</time>
      </trkpt>
      <trkpt lat="47.05777" lon="7.12566">
        <ele>479.232452</ele>
        <time>2023-03-11T13:30:35.592Z</time>
      </trkpt>
      <trkpt lat="47.05771" lon="7.12553">
        <ele>479.270109</ele>
        <time>2023-03-11T13:30:37.592Z</time>
      </trkpt>
      <trkpt lat="47.05765" lon="7.12541">
        <ele>479.307759</ele>
        <time>2023-03-11T13:30:39.599Z</time>
      </trkpt>
      <trkpt lat="47.05759" lon="7.12528">
        <ele>479.346645</ele>
        <time>2023-03-11T13:30:41.604Z</time>
      </trkpt>
      <trkpt lat="47.05753" lon="7.12515">
        <ele>479.38574</ele>
        <time>2023-03-11T13:30:43.599Z</time>
      </trkpt>
      <trkpt lat="47.05747" lon="7.12501">
        <ele>479.424612</ele>
        <time>2023-03-11T13:30:45.604Z</time>
      </trkpt>
      <trkpt lat="47.05741" lon="7.12489">
        <ele>479.461878</ele>
        <time>2023-03-11T13:30:47.596Z</time>
      </trkpt>
      <trkpt lat="47.05735" lon="7.12477">
        <ele>479.498714</ele>
        <time>2023-03-11T13:30:49.583Z</time>
      </trkpt>
      <trkpt lat="47.05729" lon="7.12465">
        <ele>479.535369</ele>
        <time>2023-03-11T13:30:51.605Z</time>
      </trkpt>
      <trkpt lat="47.05724" lon="7.12453">
        <ele>479.572002</ele>
        <time>2023-03-11T13:30:53.599Z</time>
      </trkpt>
      <trkpt lat="47.05718" lon="7.1244">
        <ele>479.609656</ele>
        <time>2023-03-11T13:30:55.599Z</time>
      </trkpt>
      <trkpt lat="47.05712" lon="7.12427">
        <ele>479.648332</ele>
        <time>2023-03-11T13:30:57.592Z</time>
      </trkpt>
      <trkpt lat="47.05706" lon="7.12414">
        <ele>479.686389</ele>
        <time>2023-03-11T13:30:59.601Z</time>
      </trkpt>
      <trkpt lat="47.05699" lon="7.12402">
        <ele>479.724503</ele>
        <time>2023-03-11T13:31:01.609Z</time>
      </trkpt>
      <trkpt lat="47.05693" lon="7.1239">
        <ele>479.757921</ele>
        <time>2023-03-11T13:31:03.609Z</time>
      </trkpt>
      <trkpt lat="47.05687" lon="7.12378">
        <ele>479.764623</ele>
        <time>2023-03-11T13:31:05.604Z</time>
      </trkpt>
      <trkpt lat="47.05681" lon="7.12365">
        <ele>479.771203</ele>
        <time>2023-03-11T13:31:07.587Z</time>
      </trkpt>
      <trkpt lat="47.05674" lon="7.12353">
        <ele>479.777826</ele>
        <time>2023-03-11T13:31:09.600Z</time>
      </trkpt>
      <trkpt lat="47.05668" lon="7.12341">
        <ele>479.784341</ele>
        <time>2023-03-11T13:31:11.604Z</time>
      </trkpt>
      <trkpt lat="47.05663" lon="7.1233">
        <ele>479.790598</ele>
        <time>2023-03-11T13:31:13.605Z</time>
      </trkpt>
      <trkpt lat="47.05658" lon="7.12318">
        <ele>479.796492</ele>
        <time>2023-03-11T13:31:15.592Z</time>
      </trkpt>
      <trkpt lat="47.05652" lon="7.12306">
        <ele>479.802964</ele>
        <time>2023-03-11T13:31:17.599Z</time>
      </trkpt>
      <trkpt lat="47.05646" lon="7.12296">
        <ele>479.808784</ele>
        <time>2023-03-11T13:31:19.599Z</time>
      </trkpt>
      <trkpt lat="47.05639" lon="7.12284">
        <ele>479.815703</ele>
        <time>2023-03-11T13:31:21.600Z</time>
      </trkpt>
      <trkpt lat="47.05633" lon="7.12271">
        <ele>479.822537</ele>
        <time>2023-03-11T13:31:23.583Z</time>
      </trkpt>
      <trkpt lat="47.05627" lon="7.12258">
        <ele>479.82937</ele>
        <time>2023-03-11T13:31:25.596Z</time>
      </trkpt>
      <trkpt lat="47.05621" lon="7.12245">
        <ele>479.836275</ele>
        <time>2023-03-11T13:31:27.598Z</time>
      </trkpt>
      <trkpt lat="47.05615" lon="7.12232">
        <ele>479.843145</ele>
        <time>2023-03-11T13:31:29.598Z</time>
      </trkpt>
      <trkpt lat="47.05609" lon="7.1222">
        <ele>479.84973</ele>
        <time>2023-03-11T13:31:31.596Z</time>
      </trkpt>
      <trkpt lat="47.05603" lon="7.12207">
        <ele>479.856454</ele>
        <time>2023-03-11T13:31:33.612Z</time>
      </trkpt>
      <trkpt lat="47.05598" lon="7.12195">
        <ele>479.862745</ele>
        <time>2023-03-11T13:31:35.596Z</time>
      </trkpt>
      <trkpt lat="47.05591" lon="7.12183">
        <ele>479.869543</ele>
        <time>2023-03-11T13:31:37.601Z</time>
      </trkpt>
      <trkpt lat="47.05585" lon="7.12169">
        <ele>479.854739</ele>
        <time>2023-03-11T13:31:39.608Z</time>
      </trkpt>
      <trkpt lat="47.0558" lon="7.12155">
        <ele>479.826743</ele>
        <time>2023-03-11T13:31:41.578Z</time>
      </trkpt>
      <trkpt lat="47.05574" lon="7.12142">
        <ele>479.798425</ele>
        <time>2023-03-11T13:31:43.605Z</time>
      </trkpt>
      <trkpt lat="47.05568" lon="7.1213">
        <ele>479.772552</ele>
        <time>2023-03-11T13:31:45.574Z</time>
      </trkpt>
      <trkpt lat="47.05562" lon="7.12118">
        <ele>479.746281</ele>
        <time>2023-03-11T13:31:47.612Z</time>
      </trkpt>
      <trkpt lat="47.05556" lon="7.12107">
        <ele>479.720267</ele>
        <time>2023-03-11T13:31:49.598Z</time>
      </trkpt>
      <trkpt lat="47.0555" lon="7.12096">
        <ele>479.695528</ele>
        <time>2023-03-11T13:31:51.600Z</time>
      </trkpt>
      <trkpt lat="47.05544" lon="7.12084">
        <ele>479.669401</ele>
        <time>2023-03-11T13:31:53.601Z</time>
      </trkpt>
      <trkpt lat="47.05538" lon="7.12072">
        <ele>479.641784</ele>
        <time>2023-03-11T13:31:55.610Z</time>
      </trkpt>
      <trkpt lat="47.05531" lon="7.12059">
        <ele>479.613311</ele>
        <time>2023-03-11T13:31:57.615Z</time>
      </trkpt>
      <trkpt lat="47.05526" lon="7.12046">
        <ele>479.587462</ele>
        <time>2023-03-11T13:31:59.593Z</time>
      </trkpt>
      <trkpt lat="47.05521" lon="7.12033">
        <ele>479.560007</ele>
        <time>2023-03-11T13:32:01.603Z</time>
      </trkpt>
      <trkpt lat="47.05514" lon="7.1202">
        <ele>479.531381</ele>
        <time>2023-03-11T13:32:03.614Z</time>
      </trkpt>
      <trkpt lat="47.05509" lon="7.12007">
        <ele>479.504199</ele>
        <time>2023-03-11T13:32:05.595Z</time>
      </trkpt>
      <trkpt lat="47.05503" lon="7.11994">
        <ele>479.476607</ele>
        <time>2023-03-11T13:32:07.602Z</time>
      </trkpt>
      <trkpt lat="47.05497" lon="7.11982">
        <ele>479.449464</ele>
        <time>2023-03-11T13:32:09.598Z</time>
      </trkpt>
      <trkpt lat="47.05491" lon="7.11969">
        <ele>479.421294</ele>
        <time>2023-03-11T13:32:11.592Z</time>
      </trkpt>
      <trkpt lat="47.05485" lon="7.11956">
        <ele>479.38398</ele>
        <time>2023-03-11T13:32:13.605Z</time>
      </trkpt>
      <trkpt lat="47.05478" lon="7.11942">
        <ele>479.329357</ele>
        <time>2023-03-11T13:32:15.596Z</time>
      </trkpt>
      <trkpt lat="47.05473" lon="7.1193">
        <ele>479.278088</ele>
        <time>2023-03-11T13:32:17.600Z</time>
      </trkpt>
      <trkpt lat="47.05467" lon="7.11916">
        <ele>479.222335</ele>
        <time>2023-03-11T13:32:19.600Z</time>
      </trkpt>
      <trkpt lat="47.0546" lon="7.11903">
        <ele>479.167431</ele>
        <time>2023-03-11T13:32:21.614Z</time>
      </trkpt>
      <trkpt lat="47.05454" lon="7.1189">
        <ele>479.112788</ele>
        <time>2023-03-11T13:32:23.604Z</time>
      </trkpt>
      <trkpt lat="47.05448" lon="7.11876">
        <ele>479.057024</ele>
        <time>2023-03-11T13:32:25.605Z</time>
      </trkpt>
      <trkpt lat="47.05442" lon="7.11863">
        <ele>479.003239</ele>
        <time>2023-03-11T13:32:27.608Z</time>
      </trkpt>
      <trkpt lat="47.05435" lon="7.1185">
        <ele>478.946352</ele>
        <time>2023-03-11T13:32:29.601Z</time>
      </trkpt>
      <trkpt lat="47.05428" lon="7.11835">
        <ele>478.885239</ele>
        <time>2023-03-11T13:32:31.593Z</time>
      </trkpt>
      <trkpt lat="47.05422" lon="7.11821">
        <ele>478.829206</ele>
        <time>2023-03-11T13:32:33.604Z</time>
      </trkpt>
      <trkpt lat="47.05415" lon="7.11807">
        <ele>478.770071</ele>
        <time>2023-03-11T13:32:35.602Z</time>
      </trkpt>
      <trkpt lat="47.05408" lon="7.11792">
        <ele>478.708942</ele>
        <time>2023-03-11T13:32:37.598Z</time>
      </trkpt>
      <trkpt lat="47.05402" lon="7.11778">
        <ele>478.650592</ele>
        <time>2023-03-11T13:32:39.608Z</time>
      </trkpt>
      <trkpt lat="47.05396" lon="7.11765">
        <ele>478.59653</ele>
        <time>2023-03-11T13:32:41.589Z</time>
      </trkpt>
      <trkpt lat="47.05389" lon="7.11751">
        <ele>478.538388</ele>
        <time>2023-03-11T13:32:43.599Z</time>
      </trkpt>
      <trkpt lat="47.05383" lon="7.11737">
        <ele>478.521791</ele>
        <time>2023-03-11T13:32:45.594Z</time>
      </trkpt>
      <trkpt lat="47.05376" lon="7.11722">
        <ele>478.567123</ele>
        <time>2023-03-11T13:32:47.595Z</time>
      </trkpt>
      <trkpt lat="47.0537" lon="7.11708">
        <ele>478.610327</ele>
        <time>2023-03-11T13:32:49.603Z</time>
      </trkpt>
      <trkpt lat="47.05363" lon="7.11694">
        <ele>478.654597</ele>
        <time>2023-03-11T13:32:51.604Z</time>
      </trkpt>
      <trkpt lat="47.05356" lon="7.1168">
        <ele>478.700152</ele>
        <time>2023-03-11T13:32:53.606Z</time>
      </trkpt>
      <trkpt lat="47.0535" lon="7.11665">
        <ele>478.744632</ele>
        <time>2023-03-11T13:32:55.603Z</time>
      </trkpt>
      <trkpt lat="47.05343" lon="7.11651">
        <ele>478.789969</ele>
        <time>2023-03-11T13:32:57.604Z</time>
      </trkpt>
      <trkpt lat="47.05336" lon="7.11637">
        <ele>478.832959</ele>
        <time>2023-03-11T13:32:59.611Z</time>
      </trkpt>
      <trkpt lat="47.05329" lon="7.11623">
        <ele>478.877249</ele>
        <time>2023-03-11T13:33:01.600Z</time>
      </trkpt>
      <trkpt lat="47.05322" lon="7.11609">
        <ele>478.922595</ele>
        <time>2023-03-11T13:33:03.602Z</time>
      </trkpt>
      <trkpt lat="47.05316" lon="7.11595">
        <ele>478.966437</ele>
        <time>2023-03-11T13:33:05.601Z</time>
      </trkpt>
      <trkpt lat="47.0531" lon="7.11582">
        <ele>479.007092</ele>
        <time>2023-03-11T13:33:07.604Z</time>
      </trkpt>
      <trkpt lat="47.05304" lon="7.11568">
        <ele>479.050731</ele>
        <time>2023-03-11T13:33:09.599Z</time>
      </trkpt>
      <trkpt lat="47.05297" lon="7.11553">
        <ele>479.094586</ele>
        <time>2023-03-11T13:33:11.600Z</time>
      </trkpt>
      <trkpt lat="47.05291" lon="7.1154">
        <ele>479.135452</ele>
        <time>2023-03-11T13:33:13.598Z</time>
      </trkpt>
      <trkpt lat="47.05285" lon="7.11527">
        <ele>479.178464</ele>
        <time>2023-03-11T13:33:15.602Z</time>
      </trkpt>
      <trkpt lat="47.05278" lon="7.11513">
        <ele>479.155609</ele>
        <time>2023-03-11T13:33:17.605Z</time>
      </trkpt>
      <trkpt lat="47.05271" lon="7.11499">
        <ele>479.122367</ele>
        <time>2023-03-11T13:33:19.608Z</time>
      </trkpt>
      <trkpt lat="47.05265" lon="7.11485">
        <ele>479.090088</ele>
        <time>2023-03-11T13:33:21.604Z</time>
      </trkpt>
      <trkpt lat="47.05259" lon="7.11472">
        <ele>479.058934</ele>
        <time>2023-03-11T13:33:23.597Z</time>
      </trkpt>
      <trkpt lat="47.05253" lon="7.11459">
        <ele>479.028068</ele>
        <time>2023-03-11T13:33:25.603Z</time>
      </trkpt>
      <trkpt lat="47.05247" lon="7.11445">
        <ele>478.996747</ele>
        <time>2023-03-11T13:33:27.603Z</time>
      </trkpt>
      <trkpt lat="47.05241" lon="7.11432">
        <ele>478.965253</ele>
        <time>2023-03-11T13:33:29.607Z</time>
      </trkpt>
      <trkpt lat="47.05235" lon="7.11418">
        <ele>478.934099</ele>
        <time>2023-03-11T13:33:31.606Z</time>
      </trkpt>
      <trkpt lat="47.05228" lon="7.11405">
        <ele>478.902296</ele>
        <time>2023-03-11T13:33:33.602Z</time>
      </trkpt>
      <trkpt lat="47.05222" lon="7.11391">
        <ele>478.870338</ele>
        <time>2023-03-11T13:33:35.610Z</time>
      </trkpt>
      <trkpt lat="47.05216" lon="7.11378">
        <ele>478.839023</ele>
        <time>2023-03-11T13:33:37.608Z</time>
      </trkpt>
      <trkpt lat="47.05209" lon="7.11365">
        <ele>478.807375</ele>
        <time>2023-03-11T13:33:39.610Z</time>
      </trkpt>
      <trkpt lat="47.05203" lon="7.11351">
        <ele>478.775739</ele>
        <time>2023-03-11T13:33:41.609Z</time>
      </trkpt>
      <trkpt lat="47.05196" lon="7.11338">
        <ele>478.742945</ele>
        <time>2023-03-11T13:33:43.606Z</time>
      </trkpt>
      <trkpt lat="47.0519" lon="7.11324">
        <ele>478.710506</ele>
        <time>2023-03-11T13:33:45.601Z</time>
      </trkpt>
      <trkpt lat="47.05183" lon="7.1131">
        <ele>478.678051</ele>
        <time>2023-03-11T13:33:47.607Z</time>
      </trkpt>
      <trkpt lat="47.05176" lon="7.11297">
        <ele>478.655941</ele>
        <time>2023-03-11T13:33:49.606Z</time>
      </trkpt>
      <trkpt lat="47.0517" lon="7.11284">
        <ele>478.63719</ele>
        <time>2023-03-11T13:33:51.595Z</time>
      </trkpt>
      <trkpt lat="47.05164" lon="7.1127">
        <ele>478.617465</ele>
        <time>2023-03-11T13:33:53.621Z</time>
      </trkpt>
      <trkpt lat="47.05158" lon="7.11256">
        <ele>478.598037</ele>
        <time>2023-03-11T13:33:55.605Z</time>
      </trkpt>
      <trkpt lat="47.05153" lon="7.11241">
        <ele>478.578717</ele>
        <time>2023-03-11T13:33:57.598Z</time>
      </trkpt>
      <trkpt lat="47.05149" lon="7.11225">
        <ele>478.559004</ele>
        <time>2023-03-11T13:33:59.584Z</time>
      </trkpt>
      <trkpt lat="47.05145" lon="7.1121">
        <ele>478.539231</ele>
        <time>2023-03-11T13:34:01.582Z</time>
      </trkpt>
      <trkpt lat="47.05139" lon="7.11195">
        <ele>478.519378</ele>
        <time>2023-03-11T13:34:03.591Z</time>
      </trkpt>
      <trkpt lat="47.05132" lon="7.11181">
        <ele>478.49966</ele>
        <time>2023-03-11T13:34:05.606Z</time>
      </trkpt>
      <trkpt lat="47.05125" lon="7.11167">
        <ele>478.479735</ele>
        <time>2023-03-11T13:34:07.622Z</time>
      </trkpt>
      <trkpt lat="47.05119" lon="7.11153">
        <ele>478.460018</ele>
        <time>2023-03-11T13:34:09.610Z</time>
      </trkpt>
      <trkpt lat="47.05113" lon="7.11139">
        <ele>478.440489</ele>
        <time>2023-03-11T13:34:11.597Z</time>
      </trkpt>
      <trkpt lat="47.05106" lon="7.11126">
        <ele>478.420671</ele>
        <time>2023-03-11T13:34:13.611Z</time>
      </trkpt>
      <trkpt lat="47.05099" lon="7.11112">
        <ele>478.401043</ele>
        <time>2023-03-11T13:34:15.602Z</time>
      </trkpt>
      <trkpt lat="47.05093" lon="7.11098">
        <ele>478.381228</ele>
        <time>2023-03-11T13:34:17.597Z</time>
      </trkpt>
      <trkpt lat="47.05086" lon="7.11084">
        <ele>478.368077</ele>
        <time>2023-03-11T13:34:19.607Z</time>
      </trkpt>
      <trkpt lat="47.05079" lon="7.1107">
        <ele>478.445615</ele>
        <time>2023-03-11T13:34:21.606Z</time>
      </trkpt>
      <trkpt lat="47.05073" lon="7.11056">
        <ele>478.520523</ele>
        <time>2023-03-11T13:34:23.600Z</time>
      </trkpt>
      <trkpt lat="47.05068" lon="7.11043">
        <ele>478.592807</ele>
        <time>2023-03-11T13:34:25.598Z</time>
      </trkpt>
      <trkpt lat="47.05061" lon="7.11029">
        <ele>478.669952</ele>
        <time>2023-03-11T13:34:27.611Z</time>
      </trkpt>
      <trkpt lat="47.05054" lon="7.11014">
        <ele>478.753538</ele>
        <time>2023-03-11T13:34:29.609Z</time>
      </trkpt>
      <trkpt lat="47.05047" lon="7.11">
        <ele>478.83145</ele>
        <time>2023-03-11T13:34:31.613Z</time>
      </trkpt>
      <trkpt lat="47.05041" lon="7.10986">
        <ele>478.907481</ele>
        <time>2023-03-11T13:34:33.607Z</time>
      </trkpt>
      <trkpt lat="47.05035" lon="7.10973">
        <ele>478.983112</ele>
        <time>2023-03-11T13:34:35.602Z</time>
      </trkpt>
      <trkpt lat="47.05028" lon="7.10959">
        <ele>479.060256</ele>
        <time>2023-03-11T13:34:37.598Z</time>
      </trkpt>
      <trkpt lat="47.05022" lon="7.10946">
        <ele>479.133254</ele>
        <time>2023-03-11T13:34:39.608Z</time>
      </trkpt>
      <trkpt lat="47.05016" lon="7.10932">
        <ele>479.206644</ele>
        <time>2023-03-11T13:34:41.612Z</time>
      </trkpt>
      <trkpt lat="47.05009" lon="7.10918">
        <ele>479.285691</ele>
        <time>2023-03-11T13:34:43.614Z</time>
      </trkpt>
      <trkpt lat="47.05003" lon="7.10905">
        <ele>479.3617</ele>
        <time>2023-03-11T13:34:45.589Z</time>
      </trkpt>
      <trkpt lat="47.04996" lon="7.10891">
        <ele>479.438087</ele>
        <time>2023-03-11T13:34:47.623Z</time>
      </trkpt>
      <trkpt lat="47.04989" lon="7.10878">
        <ele>479.512835</ele>
        <time>2023-03-11T13:34:49.600Z</time>
      </trkpt>
      <trkpt lat="47.04983" lon="7.10864">
        <ele>479.566003</ele>
        <time>2023-03-11T13:34:51.597Z</time>
      </trkpt>
      <trkpt lat="47.04978" lon="7.1085">
        <ele>479.546557</ele>
        <time>2023-03-11T13:34:53.597Z</time>
      </trkpt>
      <trkpt lat="47.04971" lon="7.10837">
        <ele>479.526842</ele>
        <time>2023-03-11T13:34:55.606Z</time>
      </trkpt>
      <trkpt lat="47.04965" lon="7.10823">
        <ele>479.506746</ele>
        <time>2023-03-11T13:34:57.601Z</time>
      </trkpt>
      <trkpt lat="47.04959" lon="7.10809">
        <ele>479.487312</ele>
        <time>2023-03-11T13:34:59.597Z</time>
      </trkpt>
      <trkpt lat="47.04952" lon="7.10796">
        <ele>479.467683</ele>
        <time>2023-03-11T13:35:01.602Z</time>
      </trkpt>
      <trkpt lat="47.04945" lon="7.10782">
        <ele>479.44749</ele>
        <time>2023-03-11T13:35:03.608Z</time>
      </trkpt>
      <trkpt lat="47.04939" lon="7.10767">
        <ele>479.427772</ele>
        <time>2023-03-11T13:35:05.616Z</time>
      </trkpt>
      <trkpt lat="47.04933" lon="7.10754">
        <ele>479.408238</ele>
        <time>2023-03-11T13:35:07.599Z</time>
      </trkpt>
      <trkpt lat="47.04926" lon="7.1074">
        <ele>479.387947</ele>
        <time>2023-03-11T13:35:09.605Z</time>
      </trkpt>
      <trkpt lat="47.04919" lon="7.10725">
        <ele>479.367065</ele>
        <time>2023-03-11T13:35:11.601Z</time>
      </trkpt>
      <trkpt lat="47.04913" lon="7.10712">
        <ele>479.346966</ele>
        <time>2023-03-11T13:35:13.624Z</time>
      </trkpt>
      <trkpt lat="47.04907" lon="7.10699">
        <ele>479.328341</ele>
        <time>2023-03-11T13:35:15.611Z</time>
      </trkpt>
      <trkpt lat="47.049" lon="7.10685">
        <ele>479.308146</ele>
        <time>2023-03-11T13:35:17.608Z</time>
      </trkpt>
      <trkpt lat="47.04894" lon="7.10671">
        <ele>479.288443</ele>
        <time>2023-03-11T13:35:19.606Z</time>
      </trkpt>
      <trkpt lat="47.04887" lon="7.10657">
        <ele>479.267856</ele>
        <time>2023-03-11T13:35:21.607Z</time>
      </trkpt>
      <trkpt lat="47.0488" lon="7.10642">
        <ele>479.25104</ele>
        <time>2023-03-11T13:35:23.617Z</time>
      </trkpt>
      <trkpt lat="47.04874" lon="7.10628">
        <ele>479.239281</ele>
        <time>2023-03-11T13:35:25.612Z</time>
      </trkpt>
      <trkpt lat="47.04868" lon="7.10615">
        <ele>479.227934</ele>
        <time>2023-03-11T13:35:27.615Z</time>
      </trkpt>
      <trkpt lat="47.04861" lon="7.106">
        <ele>479.215292</ele>
        <time>2023-03-11T13:35:29.607Z</time>
      </trkpt>
      <trkpt lat="47.04854" lon="7.10585">
        <ele>479.20242</ele>
        <time>2023-03-11T13:35:31.610Z</time>
      </trkpt>
      <trkpt lat="47.04846" lon="7.10571">
        <ele>479.189861</ele>
        <time>2023-03-11T13:35:33.607Z</time>
      </trkpt>
      <trkpt lat="47.0484" lon="7.10558">
        <ele>479.178631</ele>
        <time>2023-03-11T13:35:35.604Z</time>
      </trkpt>
      <trkpt lat="47.04834" lon="7.10544">
        <ele>479.166579</ele>
        <time>2023-03-11T13:35:37.599Z</time>
      </trkpt>
      <trkpt lat="47.04827" lon="7.1053">
        <ele>479.154168</ele>
        <time>2023-03-11T13:35:39.606Z</time>
      </trkpt>
      <trkpt lat="47.04821" lon="7.10516">
        <ele>479.142294</ele>
        <time>2023-03-11T13:35:41.605Z</time>
      </trkpt>
      <trkpt lat="47.04815" lon="7.10502">
        <ele>479.130532</ele>
        <time>2023-03-11T13:35:43.605Z</time>
      </trkpt>
      <trkpt lat="47.04808" lon="7.10488">
        <ele>479.11854</ele>
        <time>2023-03-11T13:35:45.602Z</time>
      </trkpt>
      <trkpt lat="47.04802" lon="7.10473">
        <ele>479.106139</ele>
        <time>2023-03-11T13:35:47.610Z</time>
      </trkpt>
      <trkpt lat="47.04795" lon="7.10459">
        <ele>479.094029</ele>
        <time>2023-03-11T13:35:49.586Z</time>
      </trkpt>
      <trkpt lat="47.04789" lon="7.10445">
        <ele>479.082147</ele>
        <time>2023-03-11T13:35:51.602Z</time>
      </trkpt>
      <trkpt lat="47.04783" lon="7.10431">
        <ele>479.070683</ele>
        <time>2023-03-11T13:35:53.602Z</time>
      </trkpt>
      <trkpt lat="47.04776" lon="7.10418">
        <ele>479.077472</ele>
        <time>2023-03-11T13:35:55.594Z</time>
      </trkpt>
      <trkpt lat="47.0477" lon="7.10403">
        <ele>479.08503</ele>
        <time>2023-03-11T13:35:57.607Z</time>
      </trkpt>
      <trkpt lat="47.04764" lon="7.10389">
        <ele>479.092614</ele>
        <time>2023-03-11T13:35:59.604Z</time>
      </trkpt>
      <trkpt lat="47.04757" lon="7.10375">
        <ele>479.100163</ele>
        <time>2023-03-11T13:36:01.603Z</time>
      </trkpt>
      <trkpt lat="47.04751" lon="7.10361">
        <ele>479.107747</ele>
        <time>2023-03-11T13:36:03.616Z</time>
      </trkpt>
      <trkpt lat="47.04744" lon="7.10346">
        <ele>479.11534</ele>
        <time>2023-03-11T13:36:05.614Z</time>
      </trkpt>
      <trkpt lat="47.04738" lon="7.10333">
        <ele>479.122631</ele>
        <time>2023-03-11T13:36:07.615Z</time>
      </trkpt>
      <trkpt lat="47.04733" lon="7.10319">
        <ele>479.129719</ele>
        <time>2023-03-11T13:36:09.606Z</time>
      </trkpt>
      <trkpt lat="47.04727" lon="7.10305">
        <ele>479.137059</ele>
        <time>2023-03-11T13:36:11.605Z</time>
      </trkpt>
      <trkpt lat="47.04721" lon="7.10291">
        <ele>479.14446</ele>
        <time>2023-03-11T13:36:13.603Z</time>
      </trkpt>
      <trkpt lat="47.04715" lon="7.10276">
        <ele>479.152062</ele>
        <time>2023-03-11T13:36:15.600Z</time>
      </trkpt>
      <trkpt lat="47.04708" lon="7.10262">
        <ele>479.159647</ele>
        <time>2023-03-11T13:36:17.600Z</time>
      </trkpt>
      <trkpt lat="47.04702" lon="7.10247">
        <ele>479.167535</ele>
        <time>2023-03-11T13:36:19.599Z</time>
      </trkpt>
      <trkpt lat="47.04695" lon="7.10232">
        <ele>479.175783</ele>
        <time>2023-03-11T13:36:21.612Z</time>
      </trkpt>
      <trkpt lat="47.04689" lon="7.10219">
        <ele>479.182635</ele>
        <time>2023-03-11T13:36:23.619Z</time>
      </trkpt>
      <trkpt lat="47.04682" lon="7.10206">
        <ele>479.18602</ele>
        <time>2023-03-11T13:36:25.609Z</time>
      </trkpt>
      <trkpt lat="47.04677" lon="7.10194">
        <ele>479.181687</ele>
        <time>2023-03-11T13:36:27.604Z</time>
      </trkpt>
      <trkpt lat="47.04672" lon="7.10182">
        <ele>479.177628</ele>
        <time>2023-03-11T13:36:29.588Z</time>
      </trkpt>
      <trkpt lat="47.04667" lon="7.10167">
        <ele>479.172568</ele>
        <time>2023-03-11T13:36:32.587Z</time>
      </trkpt>
      <trkpt lat="47.04659" lon="7.10156">
        <ele>479.167928</ele>
        <time>2023-03-11T13:36:37.592Z</time>
      </trkpt>
      <trkpt lat="47.04653" lon="7.10144">
        <ele>479.163632</ele>
        <time>2023-03-11T13:36:41.619Z</time>
      </trkpt>
      <trkpt lat="47.04645" lon="7.10129">
        <ele>479.15818</ele>
        <time>2023-03-11T13:36:44.608Z</time>
      </trkpt>
      <trkpt lat="47.04638" lon="7.10119">
        <ele>479.153886</ele>
        <time>2023-03-11T13:36:46.614Z</time>
      </trkpt>
      <trkpt lat="47.04632" lon="7.10106">
        <ele>479.149479</ele>
        <time>2023-03-11T13:36:48.607Z</time>
      </trkpt>
      <trkpt lat="47.04627" lon="7.10095">
        <ele>479.145242</ele>
        <time>2023-03-11T13:36:50.590Z</time>
      </trkpt>
      <trkpt lat="47.0462" lon="7.10084">
        <ele>479.14118</ele>
        <time>2023-03-11T13:36:52.579Z</time>
      </trkpt>
      <trkpt lat="47.04616" lon="7.10071">
        <ele>479.136815</ele>
        <time>2023-03-11T13:36:54.587Z</time>
      </trkpt>
      <trkpt lat="47.0461" lon="7.10059">
        <ele>479.132579</ele>
        <time>2023-03-11T13:36:56.584Z</time>
      </trkpt>
      <trkpt lat="47.04604" lon="7.10047">
        <ele>479.128283</ele>
        <time>2023-03-11T13:36:58.580Z</time>
      </trkpt>
      <trkpt lat="47.04598" lon="7.10035">
        <ele>479.123853</ele>
        <time>2023-03-11T13:37:00.620Z</time>
      </trkpt>
      <trkpt lat="47.04592" lon="7.10024">
        <ele>479.119679</ele>
        <time>2023-03-11T13:37:02.593Z</time>
      </trkpt>
      <trkpt lat="47.04587" lon="7.10011">
        <ele>479.115336</ele>
        <time>2023-03-11T13:37:04.612Z</time>
      </trkpt>
      <trkpt lat="47.04581" lon="7.09999">
        <ele>479.110878</ele>
        <time>2023-03-11T13:37:06.603Z</time>
      </trkpt>
      <trkpt lat="47.04574" lon="7.09987">
        <ele>479.107614</ele>
        <time>2023-03-11T13:37:08.579Z</time>
      </trkpt>
      <trkpt lat="47.04569" lon="7.09975">
        <ele>479.104781</ele>
        <time>2023-03-11T13:37:10.609Z</time>
      </trkpt>
      <trkpt lat="47.04563" lon="7.09962">
        <ele>479.101788</ele>
        <time>2023-03-11T13:37:12.605Z</time>
      </trkpt>
      <trkpt lat="47.04557" lon="7.09951">
        <ele>479.099005</ele>
        <time>2023-03-11T13:37:14.620Z</time>
      </trkpt>
      <trkpt lat="47.04552" lon="7.0994">
        <ele>479.096317</ele>
        <time>2023-03-11T13:37:16.599Z</time>
      </trkpt>
      <trkpt lat="47.04546" lon="7.09927">
        <ele>479.093373</ele>
        <time>2023-03-11T13:37:18.614Z</time>
      </trkpt>
      <trkpt lat="47.04541" lon="7.09916">
        <ele>479.090672</ele>
        <time>2023-03-11T13:37:20.611Z</time>
      </trkpt>
      <trkpt lat="47.04533" lon="7.09901">
        <ele>479.086877</ele>
        <time>2023-03-11T13:37:23.597Z</time>
      </trkpt>
      <trkpt lat="47.04525" lon="7.09887">
        <ele>479.083316</ele>
        <time>2023-03-11T13:37:26.594Z</time>
      </trkpt>
      <trkpt lat="47.04518" lon="7.09876">
        <ele>479.080389</ele>
        <time>2023-03-11T13:37:31.605Z</time>
      </trkpt>
      <trkpt lat="47.04509" lon="7.09882">
        <ele>479.077628</ele>
        <time>2023-03-11T13:37:35.585Z</time>
      </trkpt>
      <trkpt lat="47.045" lon="7.09892">
        <ele>479.074245</ele>
        <time>2023-03-11T13:37:38.575Z</time>
      </trkpt>
      <trkpt lat="47.04489" lon="7.09896">
        <ele>479.071227</ele>
        <time>2023-03-11T13:37:40.584Z</time>
      </trkpt>
      <trkpt lat="47.04477" lon="7.09901">
        <ele>479.067642</ele>
        <time>2023-03-11T13:37:42.605Z</time>
      </trkpt>
      <trkpt lat="47.04466" lon="7.09907">
        <ele>479.064251</ele>
        <time>2023-03-11T13:37:44.572Z</time>
      </trkpt>
      <trkpt lat="47.04456" lon="7.09914">
        <ele>479.060922</ele>
        <time>2023-03-11T13:37:46.592Z</time>
      </trkpt>
      <trkpt lat="47.04445" lon="7.09922">
        <ele>479.045308</ele>
        <time>2023-03-11T13:37:48.607Z</time>
      </trkpt>
      <trkpt lat="47.04435" lon="7.09929">
        <ele>479.004714</ele>
        <time>2023-03-11T13:37:50.584Z</time>
      </trkpt>
      <trkpt lat="47.04426" lon="7.09936">
        <ele>478.966593</ele>
        <time>2023-03-11T13:37:52.608Z</time>
      </trkpt>
      <trkpt lat="47.04418" lon="7.09941">
        <ele>478.931944</ele>
        <time>2023-03-11T13:37:54.614Z</time>
      </trkpt>
      <trkpt lat="47.04409" lon="7.09947">
        <ele>478.897084</ele>
        <time>2023-03-11T13:37:56.602Z</time>
      </trkpt>
      <trkpt lat="47.044" lon="7.09952">
        <ele>478.86024</ele>
        <time>2023-03-11T13:37:58.606Z</time>
      </trkpt>
      <trkpt lat="47.04391" lon="7.09959">
        <ele>478.822438</ele>
        <time>2023-03-11T13:38:00.597Z</time>
      </trkpt>
      <trkpt lat="47.04383" lon="7.09967">
        <ele>478.785107</ele>
        <time>2023-03-11T13:38:02.597Z</time>
      </trkpt>
      <trkpt lat="47.04374" lon="7.09974">
        <ele>478.746306</ele>
        <time>2023-03-11T13:38:04.601Z</time>
      </trkpt>
      <trkpt lat="47.04365" lon="7.09981">
        <ele>478.709075</ele>
        <time>2023-03-11T13:38:06.608Z</time>
      </trkpt>
      <trkpt lat="47.04356" lon="7.09987">
        <ele>478.672628</ele>
        <time>2023-03-11T13:38:08.599Z</time>
      </trkpt>
      <trkpt lat="47.04347" lon="7.09994">
        <ele>478.633494</ele>
        <time>2023-03-11T13:38:10.608Z</time>
      </trkpt>
      <trkpt lat="47.04338" lon="7.10001">
        <ele>478.596636</ele>
        <time>2023-03-11T13:38:12.581Z</time>
      </trkpt>
      <trkpt lat="47.04329" lon="7.10008">
        <ele>478.558285</ele>
        <time>2023-03-11T13:38:14.622Z</time>
      </trkpt>
      <trkpt lat="47.04319" lon="7.10014">
        <ele>478.51697</ele>
        <time>2023-03-11T13:38:16.602Z</time>
      </trkpt>
      <trkpt lat="47.0431" lon="7.10022">
        <ele>478.47576</ele>
        <time>2023-03-11T13:38:18.610Z</time>
      </trkpt>
      <trkpt lat="47.04299" lon="7.10027">
        <ele>478.435017</ele>
        <time>2023-03-11T13:38:20.605Z</time>
      </trkpt>
      <trkpt lat="47.04289" lon="7.10032">
        <ele>478.395018</ele>
        <time>2023-03-11T13:38:22.589Z</time>
      </trkpt>
      <trkpt lat="47.04279" lon="7.10037">
        <ele>478.366006</ele>
        <time>2023-03-11T13:38:24.602Z</time>
      </trkpt>
      <trkpt lat="47.0427" lon="7.10043">
        <ele>478.342024</ele>
        <time>2023-03-11T13:38:26.605Z</time>
      </trkpt>
      <trkpt lat="47.0426" lon="7.10048">
        <ele>478.317176</ele>
        <time>2023-03-11T13:38:28.620Z</time>
      </trkpt>
      <trkpt lat="47.04249" lon="7.10054">
        <ele>478.291716</ele>
        <time>2023-03-11T13:38:30.605Z</time>
      </trkpt>
      <trkpt lat="47.04239" lon="7.10061">
        <ele>478.264851</ele>
        <time>2023-03-11T13:38:32.583Z</time>
      </trkpt>
      <trkpt lat="47.04228" lon="7.10067">
        <ele>478.237473</ele>
        <time>2023-03-11T13:38:34.616Z</time>
      </trkpt>
      <trkpt lat="47.04217" lon="7.10075">
        <ele>478.210197</ele>
        <time>2023-03-11T13:38:36.600Z</time>
      </trkpt>
      <trkpt lat="47.04207" lon="7.10082">
        <ele>478.184172</ele>
        <time>2023-03-11T13:38:38.601Z</time>
      </trkpt>
      <trkpt lat="47.04196" lon="7.10089">
        <ele>478.157788</ele>
        <time>2023-03-11T13:38:40.604Z</time>
      </trkpt>
      <trkpt lat="47.04186" lon="7.10096">
        <ele>478.130932</ele>
        <time>2023-03-11T13:38:42.602Z</time>
      </trkpt>
      <trkpt lat="47.04176" lon="7.10103">
        <ele>478.104274</ele>
        <time>2023-03-11T13:38:44.616Z</time>
      </trkpt>
      <trkpt lat="47.04166" lon="7.1011">
        <ele>478.079542</ele>
        <time>2023-03-11T13:38:46.608Z</time>
      </trkpt>
      <trkpt lat="47.04156" lon="7.10116">
        <ele>478.054471</ele>
        <time>2023-03-11T13:38:48.608Z</time>
      </trkpt>
      <trkpt lat="47.04146" lon="7.10123">
        <ele>478.028307</ele>
        <time>2023-03-11T13:38:50.608Z</time>
      </trkpt>
      <trkpt lat="47.04135" lon="7.10131">
        <ele>478.001241</ele>
        <time>2023-03-11T13:38:52.607Z</time>
      </trkpt>
      <trkpt lat="47.04125" lon="7.10139">
        <ele>477.975266</ele>
        <time>2023-03-11T13:38:54.600Z</time>
      </trkpt>
      <trkpt lat="47.04115" lon="7.10146">
        <ele>478.034118</ele>
        <time>2023-03-11T13:38:56.609Z</time>
      </trkpt>
      <trkpt lat="47.04105" lon="7.10153">
        <ele>478.125373</ele>
        <time>2023-03-11T13:38:58.612Z</time>
      </trkpt>
      <trkpt lat="47.04095" lon="7.1016">
        <ele>478.212465</ele>
        <time>2023-03-11T13:39:00.598Z</time>
      </trkpt>
      <trkpt lat="47.04087" lon="7.10168">
        <ele>478.291241</ele>
        <time>2023-03-11T13:39:02.609Z</time>
      </trkpt>
      <trkpt lat="47.04079" lon="7.10174">
        <ele>478.369768</ele>
        <time>2023-03-11T13:39:04.604Z</time>
      </trkpt>
      <trkpt lat="47.04069" lon="7.10181">
        <ele>478.453634</ele>
        <time>2023-03-11T13:39:06.607Z</time>
      </trkpt>
      <trkpt lat="47.0406" lon="7.10189">
        <ele>478.54771</ele>
        <time>2023-03-11T13:39:08.582Z</time>
      </trkpt>
      <trkpt lat="47.0405" lon="7.10199">
        <ele>478.639833</ele>
        <time>2023-03-11T13:39:10.616Z</time>
      </trkpt>
      <trkpt lat="47.04042" lon="7.10208">
        <ele>478.729916</ele>
        <time>2023-03-11T13:39:12.600Z</time>
      </trkpt>
      <trkpt lat="47.04033" lon="7.10218">
        <ele>478.817675</ele>
        <time>2023-03-11T13:39:14.577Z</time>
      </trkpt>
      <trkpt lat="47.04024" lon="7.10227">
        <ele>478.906578</ele>
        <time>2023-03-11T13:39:16.615Z</time>
      </trkpt>
      <trkpt lat="47.04015" lon="7.10235">
        <ele>478.995405</ele>
        <time>2023-03-11T13:39:18.586Z</time>
      </trkpt>
      <trkpt lat="47.04006" lon="7.10244">
        <ele>479.087459</ele>
        <time>2023-03-11T13:39:20.620Z</time>
      </trkpt>
      <trkpt lat="47.03996" lon="7.10255">
        <ele>479.185922</ele>
        <time>2023-03-11T13:39:22.614Z</time>
      </trkpt>
      <trkpt lat="47.03986" lon="7.10266">
        <ele>479.288298</ele>
        <time>2023-03-11T13:39:24.622Z</time>
      </trkpt>
      <trkpt lat="47.03976" lon="7.10276">
        <ele>479.389622</ele>
        <time>2023-03-11T13:39:26.613Z</time>
      </trkpt>
      <trkpt lat="47.03966" lon="7.10286">
        <ele>479.454632</ele>
        <time>2023-03-11T13:39:28.606Z</time>
      </trkpt>
      <trkpt lat="47.03956" lon="7.10297">
        <ele>479.47689</ele>
        <time>2023-03-11T13:39:30.608Z</time>
      </trkpt>
      <trkpt lat="47.03946" lon="7.10307">
        <ele>479.499007</ele>
        <time>2023-03-11T13:39:32.617Z</time>
      </trkpt>
      <trkpt lat="47.03936" lon="7.10317">
        <ele>479.520531</ele>
        <time>2023-03-11T13:39:34.611Z</time>
      </trkpt>
      <trkpt lat="47.03927" lon="7.10328">
        <ele>479.54226</ele>
        <time>2023-03-11T13:39:36.593Z</time>
      </trkpt>
      <trkpt lat="47.03918" lon="7.10339">
        <ele>479.563593</ele>
        <time>2023-03-11T13:39:38.585Z</time>
      </trkpt>
      <trkpt lat="47.0391" lon="7.10352">
        <ele>479.58527</ele>
        <time>2023-03-11T13:39:40.590Z</time>
      </trkpt>
      <trkpt lat="47.03902" lon="7.10365">
        <ele>479.607317</ele>
        <time>2023-03-11T13:39:42.602Z</time>
      </trkpt>
      <trkpt lat="47.03892" lon="7.10376">
        <ele>479.629285</ele>
        <time>2023-03-11T13:39:44.580Z</time>
      </trkpt>
      <trkpt lat="47.03883" lon="7.10386">
        <ele>479.650589</ele>
        <time>2023-03-11T13:39:46.585Z</time>
      </trkpt>
      <trkpt lat="47.03874" lon="7.10398">
        <ele>479.671907</ele>
        <time>2023-03-11T13:39:48.617Z</time>
      </trkpt>
      <trkpt lat="47.03865" lon="7.10409">
        <ele>479.69294</ele>
        <time>2023-03-11T13:39:50.599Z</time>
      </trkpt>
      <trkpt lat="47.03857" lon="7.10421">
        <ele>479.713365</ele>
        <time>2023-03-11T13:39:52.614Z</time>
      </trkpt>
      <trkpt lat="47.0385" lon="7.10433">
        <ele>479.734126</ele>
        <time>2023-03-11T13:39:54.611Z</time>
      </trkpt>
      <trkpt lat="47.03842" lon="7.10446">
        <ele>479.755384</ele>
        <time>2023-03-11T13:39:56.605Z</time>
      </trkpt>
      <trkpt lat="47.03834" lon="7.10458">
        <ele>479.801001</ele>
        <time>2023-03-11T13:39:58.616Z</time>
      </trkpt>
      <trkpt lat="47.03827" lon="7.10472">
        <ele>479.921807</ele>
        <time>2023-03-11T13:40:00.585Z</time>
      </trkpt>
      <trkpt lat="47.03818" lon="7.10484">
        <ele>480.04428</ele>
        <time>2023-03-11T13:40:02.607Z</time>
      </trkpt>
      <trkpt lat="47.03809" lon="7.10494">
        <ele>480.16425</ele>
        <time>2023-03-11T13:40:04.589Z</time>
      </trkpt>
      <trkpt lat="47.03802" lon="7.10508">
        <ele>480.289921</ele>
        <time>2023-03-11T13:40:06.595Z</time>
      </trkpt>
      <trkpt lat="47.03796" lon="7.10522">
        <ele>480.403698</ele>
        <time>2023-03-11T13:40:08.570Z</time>
      </trkpt>
      <trkpt lat="47.0379" lon="7.10535">
        <ele>480.512675</ele>
        <time>2023-03-11T13:40:10.613Z</time>
      </trkpt>
      <trkpt lat="47.03784" lon="7.10547">
        <ele>480.620504</ele>
        <time>2023-03-11T13:40:12.605Z</time>
      </trkpt>
      <trkpt lat="47.03778" lon="7.10561">
        <ele>480.740609</ele>
        <time>2023-03-11T13:40:14.599Z</time>
      </trkpt>
      <trkpt lat="47.03772" lon="7.10576">
        <ele>480.865505</ele>
        <time>2023-03-11T13:40:16.611Z</time>
      </trkpt>
      <trkpt lat="47.03765" lon="7.10591">
        <ele>480.991444</ele>
        <time>2023-03-11T13:40:18.614Z</time>
      </trkpt>
      <trkpt lat="47.03757" lon="7.10605">
        <ele>481.119284</ele>
        <time>2023-03-11T13:40:20.611Z</time>
      </trkpt>
      <trkpt lat="47.0375" lon="7.1062">
        <ele>481.246421</ele>
        <time>2023-03-11T13:40:22.619Z</time>
      </trkpt>
      <trkpt lat="47.03745" lon="7.10636">
        <ele>481.373142</ele>
        <time>2023-03-11T13:40:24.606Z</time>
      </trkpt>
      <trkpt lat="47.03738" lon="7.1065">
        <ele>481.498497</ele>
        <time>2023-03-11T13:40:26.605Z</time>
      </trkpt>
      <trkpt lat="47.03731" lon="7.10666">
        <ele>481.625655</ele>
        <time>2023-03-11T13:40:28.624Z</time>
      </trkpt>
      <trkpt lat="47.03725" lon="7.1068">
        <ele>481.593806</ele>
        <time>2023-03-11T13:40:30.600Z</time>
      </trkpt>
      <trkpt lat="47.03719" lon="7.10695">
        <ele>481.538431</ele>
        <time>2023-03-11T13:40:32.609Z</time>
      </trkpt>
      <trkpt lat="47.03712" lon="7.1071">
        <ele>481.482339</ele>
        <time>2023-03-11T13:40:34.613Z</time>
      </trkpt>
      <trkpt lat="47.03706" lon="7.10725">
        <ele>481.425404</ele>
        <time>2023-03-11T13:40:36.598Z</time>
      </trkpt>
      <trkpt lat="47.037" lon="7.10739">
        <ele>481.375215</ele>
        <time>2023-03-11T13:40:38.591Z</time>
      </trkpt>
      <trkpt lat="47.03694" lon="7.10751">
        <ele>481.328185</ele>
        <time>2023-03-11T13:40:40.595Z</time>
      </trkpt>
      <trkpt lat="47.03688" lon="7.10762">
        <ele>481.283001</ele>
        <time>2023-03-11T13:40:42.615Z</time>
      </trkpt>
      <trkpt lat="47.03682" lon="7.10772">
        <ele>481.240095</ele>
        <time>2023-03-11T13:40:44.610Z</time>
      </trkpt>
      <trkpt lat="47.03676" lon="7.10786">
        <ele>481.187394</ele>
        <time>2023-03-11T13:40:46.627Z</time>
      </trkpt>
      <trkpt lat="47.03669" lon="7.108">
        <ele>481.135718</ele>
        <time>2023-03-11T13:40:48.604Z</time>
      </trkpt>
      <trkpt lat="47.03662" lon="7.10811">
        <ele>481.087777</ele>
        <time>2023-03-11T13:40:50.613Z</time>
      </trkpt>
      <trkpt lat="47.03656" lon="7.10824">
        <ele>481.036884</ele>
        <time>2023-03-11T13:40:52.596Z</time>
      </trkpt>
      <trkpt lat="47.03649" lon="7.10837">
        <ele>480.985406</ele>
        <time>2023-03-11T13:40:54.608Z</time>
      </trkpt>
      <trkpt lat="47.03643" lon="7.10849">
        <ele>480.93706</ele>
        <time>2023-03-11T13:40:56.603Z</time>
      </trkpt>
      <trkpt lat="47.03636" lon="7.10861">
        <ele>480.889119</ele>
        <time>2023-03-11T13:40:58.609Z</time>
      </trkpt>
      <trkpt lat="47.0363" lon="7.10874">
        <ele>480.839489</ele>
        <time>2023-03-11T13:41:00.623Z</time>
      </trkpt>
      <trkpt lat="47.03623" lon="7.10887">
        <ele>480.784755</ele>
        <time>2023-03-11T13:41:02.610Z</time>
      </trkpt>
      <trkpt lat="47.03619" lon="7.10901">
        <ele>480.726378</ele>
        <time>2023-03-11T13:41:04.591Z</time>
      </trkpt>
      <trkpt lat="47.03616" lon="7.10914">
        <ele>480.672655</ele>
        <time>2023-03-11T13:41:06.588Z</time>
      </trkpt>
      <trkpt lat="47.03612" lon="7.10931">
        <ele>480.603784</ele>
        <time>2023-03-11T13:41:09.604Z</time>
      </trkpt>
      <trkpt lat="47.03605" lon="7.10944">
        <ele>480.539434</ele>
        <time>2023-03-11T13:41:12.572Z</time>
      </trkpt>
      <trkpt lat="47.03595" lon="7.10947">
        <ele>480.486217</ele>
        <time>2023-03-11T13:41:14.587Z</time>
      </trkpt>
      <trkpt lat="47.03587" lon="7.10956">
        <ele>480.427861</ele>
        <time>2023-03-11T13:41:18.621Z</time>
      </trkpt>
      <trkpt lat="47.03589" lon="7.10975">
        <ele>480.358411</ele>
        <time>2023-03-11T13:41:22.598Z</time>
      </trkpt>
      <trkpt lat="47.03594" lon="7.10985">
        <ele>480.306981</ele>
        <time>2023-03-11T13:41:24.580Z</time>
      </trkpt>
      <trkpt lat="47.03601" lon="7.10995">
        <ele>480.253691</ele>
        <time>2023-03-11T13:41:26.597Z</time>
      </trkpt>
      <trkpt lat="47.03608" lon="7.11004">
        <ele>480.20251</ele>
        <time>2023-03-11T13:41:28.611Z</time>
      </trkpt>
      <trkpt lat="47.03615" lon="7.11015">
        <ele>480.142749</ele>
        <time>2023-03-11T13:41:30.616Z</time>
      </trkpt>
      <trkpt lat="47.03621" lon="7.1103">
        <ele>480.078709</ele>
        <time>2023-03-11T13:41:32.590Z</time>
      </trkpt>
      <trkpt lat="47.03625" lon="7.11047">
        <ele>480.011066</ele>
        <time>2023-03-11T13:41:34.575Z</time>
      </trkpt>
      <trkpt lat="47.03626" lon="7.11064">
        <ele>479.943654</ele>
        <time>2023-03-11T13:41:36.593Z</time>
      </trkpt>
      <trkpt lat="47.03626" lon="7.11082">
        <ele>479.875772</ele>
        <time>2023-03-11T13:41:38.576Z</time>
      </trkpt>
      <trkpt lat="47.03623" lon="7.11099">
        <ele>479.808635</ele>
        <time>2023-03-11T13:41:40.591Z</time>
      </trkpt>
      <trkpt lat="47.03621" lon="7.11116">
        <ele>479.753316</ele>
        <time>2023-03-11T13:41:42.621Z</time>
      </trkpt>
      <trkpt lat="47.03619" lon="7.11133">
        <ele>479.698749</ele>
        <time>2023-03-11T13:41:44.614Z</time>
      </trkpt>
      <trkpt lat="47.03617" lon="7.11149">
        <ele>479.646453</ele>
        <time>2023-03-11T13:41:46.612Z</time>
      </trkpt>
      <trkpt lat="47.03615" lon="7.11166">
        <ele>479.594158</ele>
        <time>2023-03-11T13:41:48.615Z</time>
      </trkpt>
      <trkpt lat="47.03614" lon="7.11182">
        <ele>479.542476</ele>
        <time>2023-03-11T13:41:50.633Z</time>
      </trkpt>
      <trkpt lat="47.03612" lon="7.11198">
        <ele>479.488929</ele>
        <time>2023-03-11T13:41:52.616Z</time>
      </trkpt>
      <trkpt lat="47.0361" lon="7.11214">
        <ele>479.438592</ele>
        <time>2023-03-11T13:41:54.621Z</time>
      </trkpt>
      <trkpt lat="47.03609" lon="7.1123">
        <ele>479.388409</ele>
        <time>2023-03-11T13:41:56.621Z</time>
      </trkpt>
      <trkpt lat="47.03607" lon="7.11246">
        <ele>479.337169</ele>
        <time>2023-03-11T13:41:58.622Z</time>
      </trkpt>
      <trkpt lat="47.03605" lon="7.11261">
        <ele>479.285724</ele>
        <time>2023-03-11T13:42:00.627Z</time>
      </trkpt>
      <trkpt lat="47.03604" lon="7.11277">
        <ele>479.235366</ele>
        <time>2023-03-11T13:42:02.585Z</time>
      </trkpt>
      <trkpt lat="47.03603" lon="7.11294">
        <ele>479.181123</ele>
        <time>2023-03-11T13:42:04.612Z</time>
      </trkpt>
      <trkpt lat="47.03603" lon="7.11312">
        <ele>479.124898</ele>
        <time>2023-03-11T13:42:06.577Z</time>
      </trkpt>
      <trkpt lat="47.03604" lon="7.11329">
        <ele>479.070023</ele>
        <time>2023-03-11T13:42:08.575Z</time>
      </trkpt>
      <trkpt lat="47.03604" lon="7.11345">
        <ele>479.019166</ele>
        <time>2023-03-11T13:42:10.611Z</time>
      </trkpt>
      <trkpt lat="47.03606" lon="7.11363">
        <ele>478.958954</ele>
        <time>2023-03-11T13:42:12.623Z</time>
      </trkpt>
      <trkpt lat="47.03609" lon="7.11381">
        <ele>478.839993</ele>
        <time>2023-03-11T13:42:14.608Z</time>
      </trkpt>
      <trkpt lat="47.03612" lon="7.11398">
        <ele>478.730772</ele>
        <time>2023-03-11T13:42:16.606Z</time>
      </trkpt>
      <trkpt lat="47.03613" lon="7.11414">
        <ele>478.627601</ele>
        <time>2023-03-11T13:42:18.618Z</time>
      </trkpt>
      <trkpt lat="47.03616" lon="7.11432">
        <ele>478.514948</ele>
        <time>2023-03-11T13:42:20.628Z</time>
      </trkpt>
      <trkpt lat="47.03618" lon="7.11449">
        <ele>478.405894</ele>
        <time>2023-03-11T13:42:22.610Z</time>
      </trkpt>
      <trkpt lat="47.0362" lon="7.11467">
        <ele>478.291573</ele>
        <time>2023-03-11T13:42:24.612Z</time>
      </trkpt>
      <trkpt lat="47.03622" lon="7.11484">
        <ele>478.183137</ele>
        <time>2023-03-11T13:42:26.615Z</time>
      </trkpt>
      <trkpt lat="47.03624" lon="7.11501">
        <ele>478.077492</ele>
        <time>2023-03-11T13:42:28.625Z</time>
      </trkpt>
      <trkpt lat="47.03627" lon="7.11518">
        <ele>477.967935</ele>
        <time>2023-03-11T13:42:30.612Z</time>
      </trkpt>
      <trkpt lat="47.03628" lon="7.11535">
        <ele>477.859958</ele>
        <time>2023-03-11T13:42:32.615Z</time>
      </trkpt>
      <trkpt lat="47.0363" lon="7.11553">
        <ele>477.746112</ele>
        <time>2023-03-11T13:42:34.612Z</time>
      </trkpt>
      <trkpt lat="47.03633" lon="7.1157">
        <ele>477.638125</ele>
        <time>2023-03-11T13:42:36.615Z</time>
      </trkpt>
      <trkpt lat="47.03635" lon="7.11587">
        <ele>477.529231</ele>
        <time>2023-03-11T13:42:38.589Z</time>
      </trkpt>
      <trkpt lat="47.03636" lon="7.11604">
        <ele>477.418631</ele>
        <time>2023-03-11T13:42:40.620Z</time>
      </trkpt>
      <trkpt lat="47.03639" lon="7.11621">
        <ele>477.308922</ele>
        <time>2023-03-11T13:42:42.603Z</time>
      </trkpt>
      <trkpt lat="47.03642" lon="7.11639">
        <ele>477.290017</ele>
        <time>2023-03-11T13:42:44.625Z</time>
      </trkpt>
      <trkpt lat="47.03645" lon="7.11657">
        <ele>477.271701</ele>
        <time>2023-03-11T13:42:46.612Z</time>
      </trkpt>
      <trkpt lat="47.03647" lon="7.11675">
        <ele>477.253778</ele>
        <time>2023-03-11T13:42:48.616Z</time>
      </trkpt>
      <trkpt lat="47.0365" lon="7.11692">
        <ele>477.235947</ele>
        <time>2023-03-11T13:42:50.620Z</time>
      </trkpt>
      <trkpt lat="47.03652" lon="7.1171">
        <ele>477.218071</ele>
        <time>2023-03-11T13:42:52.606Z</time>
      </trkpt>
      <trkpt lat="47.03653" lon="7.11727">
        <ele>477.200913</ele>
        <time>2023-03-11T13:42:54.608Z</time>
      </trkpt>
      <trkpt lat="47.03655" lon="7.11743">
        <ele>477.184125</ele>
        <time>2023-03-11T13:42:56.613Z</time>
      </trkpt>
      <trkpt lat="47.03657" lon="7.1176">
        <ele>477.166427</ele>
        <time>2023-03-11T13:42:58.607Z</time>
      </trkpt>
      <trkpt lat="47.03659" lon="7.11778">
        <ele>477.148892</ele>
        <time>2023-03-11T13:43:00.624Z</time>
      </trkpt>
      <trkpt lat="47.03662" lon="7.11795">
        <ele>477.130539</ele>
        <time>2023-03-11T13:43:02.614Z</time>
      </trkpt>
      <trkpt lat="47.03665" lon="7.11812">
        <ele>477.113096</ele>
        <time>2023-03-11T13:43:04.612Z</time>
      </trkpt>
      <trkpt lat="47.03667" lon="7.11829">
        <ele>477.095769</ele>
        <time>2023-03-11T13:43:06.611Z</time>
      </trkpt>
      <trkpt lat="47.03669" lon="7.11846">
        <ele>477.07889</ele>
        <time>2023-03-11T13:43:08.591Z</time>
      </trkpt>
      <trkpt lat="47.03672" lon="7.11862">
        <ele>477.061519</ele>
        <time>2023-03-11T13:43:10.603Z</time>
      </trkpt>
      <trkpt lat="47.03674" lon="7.1188">
        <ele>477.043941</ele>
        <time>2023-03-11T13:43:12.610Z</time>
      </trkpt>
      <trkpt lat="47.03676" lon="7.11896">
        <ele>477.051647</ele>
        <time>2023-03-11T13:43:14.615Z</time>
      </trkpt>
      <trkpt lat="47.03679" lon="7.11913">
        <ele>477.059821</ele>
        <time>2023-03-11T13:43:16.620Z</time>
      </trkpt>
      <trkpt lat="47.03682" lon="7.1193">
        <ele>477.067904</ele>
        <time>2023-03-11T13:43:18.601Z</time>
      </trkpt>
      <trkpt lat="47.03685" lon="7.11946">
        <ele>477.0759</ele>
        <time>2023-03-11T13:43:20.618Z</time>
      </trkpt>
      <trkpt lat="47.03688" lon="7.11963">
        <ele>477.08396</ele>
        <time>2023-03-11T13:43:22.613Z</time>
      </trkpt>
      <trkpt lat="47.03691" lon="7.1198">
        <ele>477.092229</ele>
        <time>2023-03-11T13:43:24.619Z</time>
      </trkpt>
      <trkpt lat="47.03694" lon="7.11996">
        <ele>477.100298</ele>
        <time>2023-03-11T13:43:26.626Z</time>
      </trkpt>
      <trkpt lat="47.03697" lon="7.12014">
        <ele>477.109042</ele>
        <time>2023-03-11T13:43:28.613Z</time>
      </trkpt>
      <trkpt lat="47.03701" lon="7.12031">
        <ele>477.117384</ele>
        <time>2023-03-11T13:43:30.614Z</time>
      </trkpt>
      <trkpt lat="47.03704" lon="7.12048">
        <ele>477.125762</ele>
        <time>2023-03-11T13:43:32.632Z</time>
      </trkpt>
      <trkpt lat="47.03707" lon="7.12064">
        <ele>477.133667</ele>
        <time>2023-03-11T13:43:34.606Z</time>
      </trkpt>
      <trkpt lat="47.0371" lon="7.12081">
        <ele>477.14203</ele>
        <time>2023-03-11T13:43:36.610Z</time>
      </trkpt>
      <trkpt lat="47.03714" lon="7.121">
        <ele>477.150999</ele>
        <time>2023-03-11T13:43:38.590Z</time>
      </trkpt>
      <trkpt lat="47.03717" lon="7.12116">
        <ele>477.159177</ele>
        <time>2023-03-11T13:43:40.594Z</time>
      </trkpt>
      <trkpt lat="47.03721" lon="7.12133">
        <ele>477.167246</ele>
        <time>2023-03-11T13:43:42.618Z</time>
      </trkpt>
      <trkpt lat="47.03725" lon="7.12149">
        <ele>477.26207</ele>
        <time>2023-03-11T13:43:44.607Z</time>
      </trkpt>
      <trkpt lat="47.0373" lon="7.12165">
        <ele>477.372119</ele>
        <time>2023-03-11T13:43:46.611Z</time>
      </trkpt>
      <trkpt lat="47.03735" lon="7.1218">
        <ele>477.475866</ele>
        <time>2023-03-11T13:43:48.614Z</time>
      </trkpt>
      <trkpt lat="47.03742" lon="7.12195">
        <ele>477.582359</ele>
        <time>2023-03-11T13:43:50.604Z</time>
      </trkpt>
      <trkpt lat="47.03749" lon="7.12209">
        <ele>477.691397</ele>
        <time>2023-03-11T13:43:52.582Z</time>
      </trkpt>
      <trkpt lat="47.03756" lon="7.12224">
        <ele>477.801462</ele>
        <time>2023-03-11T13:43:54.607Z</time>
      </trkpt>
      <trkpt lat="47.03764" lon="7.12237">
        <ele>477.905599</ele>
        <time>2023-03-11T13:43:56.611Z</time>
      </trkpt>
      <trkpt lat="47.0377" lon="7.12251">
        <ele>478.009501</ele>
        <time>2023-03-11T13:43:58.621Z</time>
      </trkpt>
      <trkpt lat="47.03777" lon="7.12265">
        <ele>478.116537</ele>
        <time>2023-03-11T13:44:00.611Z</time>
      </trkpt>
      <trkpt lat="47.03785" lon="7.1228">
        <ele>478.228603</ele>
        <time>2023-03-11T13:44:02.623Z</time>
      </trkpt>
      <trkpt lat="47.03792" lon="7.12295">
        <ele>478.340571</ele>
        <time>2023-03-11T13:44:04.615Z</time>
      </trkpt>
      <trkpt lat="47.038" lon="7.12309">
        <ele>478.449178</ele>
        <time>2023-03-11T13:44:06.616Z</time>
      </trkpt>
      <trkpt lat="47.03807" lon="7.12323">
        <ele>478.557681</ele>
        <time>2023-03-11T13:44:08.606Z</time>
      </trkpt>
      <trkpt lat="47.03814" lon="7.12338">
        <ele>478.667698</ele>
        <time>2023-03-11T13:44:10.618Z</time>
      </trkpt>
      <trkpt lat="47.03821" lon="7.12352">
        <ele>478.777185</ele>
        <time>2023-03-11T13:44:12.638Z</time>
      </trkpt>
      <trkpt lat="47.03828" lon="7.12366">
        <ele>478.832085</ele>
        <time>2023-03-11T13:44:14.616Z</time>
      </trkpt>
      <trkpt lat="47.03835" lon="7.1238">
        <ele>478.885166</ele>
        <time>2023-03-11T13:44:16.622Z</time>
      </trkpt>
      <trkpt lat="47.03842" lon="7.12395">
        <ele>478.938721</ele>
        <time>2023-03-11T13:44:18.608Z</time>
      </trkpt>
      <trkpt lat="47.03849" lon="7.1241">
        <ele>478.993836</ele>
        <time>2023-03-11T13:44:20.616Z</time>
      </trkpt>
      <trkpt lat="47.03855" lon="7.12425">
        <ele>479.047843</ele>
        <time>2023-03-11T13:44:22.614Z</time>
      </trkpt>
      <trkpt lat="47.03861" lon="7.1244">
        <ele>479.101397</ele>
        <time>2023-03-11T13:44:24.629Z</time>
      </trkpt>
      <trkpt lat="47.03868" lon="7.12455">
        <ele>479.154482</ele>
        <time>2023-03-11T13:44:26.610Z</time>
      </trkpt>
      <trkpt lat="47.03873" lon="7.1247">
        <ele>479.208755</ele>
        <time>2023-03-11T13:44:28.603Z</time>
      </trkpt>
      <trkpt lat="47.0388" lon="7.12485">
        <ele>479.261839</ele>
        <time>2023-03-11T13:44:30.616Z</time>
      </trkpt>
      <trkpt lat="47.03885" lon="7.125">
        <ele>479.313428</ele>
        <time>2023-03-11T13:44:32.611Z</time>
      </trkpt>
      <trkpt lat="47.0389" lon="7.12516">
        <ele>479.367429</ele>
        <time>2023-03-11T13:44:34.594Z</time>
      </trkpt>
      <trkpt lat="47.03893" lon="7.12533">
        <ele>479.42029</ele>
        <time>2023-03-11T13:44:36.595Z</time>
      </trkpt>
      <trkpt lat="47.03895" lon="7.12549">
        <ele>479.472048</ele>
        <time>2023-03-11T13:44:38.571Z</time>
      </trkpt>
      <trkpt lat="47.03897" lon="7.12567">
        <ele>479.52615</ele>
        <time>2023-03-11T13:44:40.612Z</time>
      </trkpt>
      <trkpt lat="47.03898" lon="7.12584">
        <ele>479.579309</ele>
        <time>2023-03-11T13:44:42.618Z</time>
      </trkpt>
      <trkpt lat="47.039" lon="7.12602">
        <ele>479.662951</ele>
        <time>2023-03-11T13:44:44.609Z</time>
      </trkpt>
      <trkpt lat="47.03901" lon="7.1262">
        <ele>479.751183</ele>
        <time>2023-03-11T13:44:46.630Z</time>
      </trkpt>
      <trkpt lat="47.03903" lon="7.12638">
        <ele>479.841828</ele>
        <time>2023-03-11T13:44:48.613Z</time>
      </trkpt>
      <trkpt lat="47.03905" lon="7.12656">
        <ele>479.929687</ele>
        <time>2023-03-11T13:44:50.608Z</time>
      </trkpt>
      <trkpt lat="47.03906" lon="7.12674">
        <ele>480.01599</ele>
        <time>2023-03-11T13:44:52.611Z</time>
      </trkpt>
      <trkpt lat="47.03908" lon="7.12692">
        <ele>480.104902</ele>
        <time>2023-03-11T13:44:54.622Z</time>
      </trkpt>
      <trkpt lat="47.0391" lon="7.12709">
        <ele>480.190241</ele>
        <time>2023-03-11T13:44:56.620Z</time>
      </trkpt>
      <trkpt lat="47.03912" lon="7.12727">
        <ele>480.278586</ele>
        <time>2023-03-11T13:44:58.635Z</time>
      </trkpt>
      <trkpt lat="47.03913" lon="7.12745">
        <ele>480.366046</ele>
        <time>2023-03-11T13:45:00.623Z</time>
      </trkpt>
      <trkpt lat="47.03916" lon="7.12762">
        <ele>480.454617</ele>
        <time>2023-03-11T13:45:02.615Z</time>
      </trkpt>
      <trkpt lat="47.03917" lon="7.12781">
        <ele>480.544751</ele>
        <time>2023-03-11T13:45:04.608Z</time>
      </trkpt>
      <trkpt lat="47.03918" lon="7.12797">
        <ele>480.626021</ele>
        <time>2023-03-11T13:45:06.622Z</time>
      </trkpt>
      <trkpt lat="47.0392" lon="7.12814">
        <ele>480.709546</ele>
        <time>2023-03-11T13:45:08.588Z</time>
      </trkpt>
      <trkpt lat="47.03922" lon="7.12832">
        <ele>480.795872</ele>
        <time>2023-03-11T13:45:10.609Z</time>
      </trkpt>
      <trkpt lat="47.03924" lon="7.12848">
        <ele>480.870079</ele>
        <time>2023-03-11T13:45:12.613Z</time>
      </trkpt>
      <trkpt lat="47.03926" lon="7.12865">
        <ele>480.829728</ele>
        <time>2023-03-11T13:45:14.605Z</time>
      </trkpt>
      <trkpt lat="47.03929" lon="7.12881">
        <ele>480.790079</ele>
        <time>2023-03-11T13:45:16.617Z</time>
      </trkpt>
      <trkpt lat="47.03933" lon="7.12898">
        <ele>480.749554</ele>
        <time>2023-03-11T13:45:18.601Z</time>
      </trkpt>
      <trkpt lat="47.03937" lon="7.12913">
        <ele>480.709677</ele>
        <time>2023-03-11T13:45:20.613Z</time>
      </trkpt>
      <trkpt lat="47.03942" lon="7.12928">
        <ele>480.670503</ele>
        <time>2023-03-11T13:45:22.603Z</time>
      </trkpt>
      <trkpt lat="47.03946" lon="7.12944">
        <ele>480.630989</ele>
        <time>2023-03-11T13:45:24.614Z</time>
      </trkpt>
      <trkpt lat="47.03951" lon="7.12959">
        <ele>480.589901</ele>
        <time>2023-03-11T13:45:26.614Z</time>
      </trkpt>
      <trkpt lat="47.03956" lon="7.12976">
        <ele>480.548372</ele>
        <time>2023-03-11T13:45:28.611Z</time>
      </trkpt>
      <trkpt lat="47.03961" lon="7.1299">
        <ele>480.509255</ele>
        <time>2023-03-11T13:45:30.613Z</time>
      </trkpt>
      <trkpt lat="47.03967" lon="7.13006">
        <ele>480.468245</ele>
        <time>2023-03-11T13:45:32.624Z</time>
      </trkpt>
      <trkpt lat="47.03971" lon="7.13021">
        <ele>480.428015</ele>
        <time>2023-03-11T13:45:34.613Z</time>
      </trkpt>
      <trkpt lat="47.03977" lon="7.13036">
        <ele>480.388087</ele>
        <time>2023-03-11T13:45:36.617Z</time>
      </trkpt>
      <trkpt lat="47.03983" lon="7.13053">
        <ele>480.344137</ele>
        <time>2023-03-11T13:45:38.592Z</time>
      </trkpt>
      <trkpt lat="47.03988" lon="7.13068">
        <ele>480.303752</ele>
        <time>2023-03-11T13:45:40.611Z</time>
      </trkpt>
      <trkpt lat="47.03993" lon="7.13084">
        <ele>480.261654</ele>
        <time>2023-03-11T13:45:42.616Z</time>
      </trkpt>
      <trkpt lat="47.03998" lon="7.13101">
        <ele>480.247929</ele>
        <time>2023-03-11T13:45:44.626Z</time>
      </trkpt>
      <trkpt lat="47.04002" lon="7.13116">
        <ele>480.245173</ele>
        <time>2023-03-11T13:45:46.622Z</time>
      </trkpt>
      <trkpt lat="47.04008" lon="7.13131">
        <ele>480.242328</ele>
        <time>2023-03-11T13:45:48.623Z</time>
      </trkpt>
      <trkpt lat="47.04013" lon="7.13147">
        <ele>480.239416</ele>
        <time>2023-03-11T13:45:50.609Z</time>
      </trkpt>
      <trkpt lat="47.04019" lon="7.13164">
        <ele>480.23638</ele>
        <time>2023-03-11T13:45:52.614Z</time>
      </trkpt>
      <trkpt lat="47.04024" lon="7.13181">
        <ele>480.23335</ele>
        <time>2023-03-11T13:45:54.612Z</time>
      </trkpt>
      <trkpt lat="47.04029" lon="7.13197">
        <ele>480.23037</ele>
        <time>2023-03-11T13:45:56.639Z</time>
      </trkpt>
      <trkpt lat="47.04034" lon="7.13214">
        <ele>480.227364</ele>
        <time>2023-03-11T13:45:58.618Z</time>
      </trkpt>
      <trkpt lat="47.04039" lon="7.1323">
        <ele>480.224449</ele>
        <time>2023-03-11T13:46:00.616Z</time>
      </trkpt>
      <trkpt lat="47.04045" lon="7.13246">
        <ele>480.221468</ele>
        <time>2023-03-11T13:46:02.623Z</time>
      </trkpt>
      <trkpt lat="47.0405" lon="7.13262">
        <ele>480.218516</ele>
        <time>2023-03-11T13:46:04.612Z</time>
      </trkpt>
      <trkpt lat="47.04055" lon="7.13278">
        <ele>480.215565</ele>
        <time>2023-03-11T13:46:06.619Z</time>
      </trkpt>
      <trkpt lat="47.04061" lon="7.13294">
        <ele>480.212679</ele>
        <time>2023-03-11T13:46:08.600Z</time>
      </trkpt>
      <trkpt lat="47.04065" lon="7.13311">
        <ele>480.209722</ele>
        <time>2023-03-11T13:46:10.619Z</time>
      </trkpt>
      <trkpt lat="47.04071" lon="7.13326">
        <ele>480.20684</ele>
        <time>2023-03-11T13:46:12.622Z</time>
      </trkpt>
      <trkpt lat="47.04076" lon="7.13343">
        <ele>480.180344</ele>
        <time>2023-03-11T13:46:14.623Z</time>
      </trkpt>
      <trkpt lat="47.04081" lon="7.13359">
        <ele>480.152577</ele>
        <time>2023-03-11T13:46:16.615Z</time>
      </trkpt>
      <trkpt lat="47.04086" lon="7.13375">
        <ele>480.124994</ele>
        <time>2023-03-11T13:46:18.614Z</time>
      </trkpt>
      <trkpt lat="47.04092" lon="7.13391">
        <ele>480.097832</ele>
        <time>2023-03-11T13:46:20.619Z</time>
      </trkpt>
      <trkpt lat="47.04096" lon="7.13406">
        <ele>480.071006</ele>
        <time>2023-03-11T13:46:22.616Z</time>
      </trkpt>
      <trkpt lat="47.04102" lon="7.13422">
        <ele>480.044334</ele>
        <time>2023-03-11T13:46:24.618Z</time>
      </trkpt>
      <trkpt lat="47.04107" lon="7.13437">
        <ele>480.016484</ele>
        <time>2023-03-11T13:46:26.627Z</time>
      </trkpt>
      <trkpt lat="47.04112" lon="7.13454">
        <ele>479.988477</ele>
        <time>2023-03-11T13:46:28.603Z</time>
      </trkpt>
      <trkpt lat="47.04118" lon="7.1347">
        <ele>479.960315</ele>
        <time>2023-03-11T13:46:30.622Z</time>
      </trkpt>
      <trkpt lat="47.04123" lon="7.13486">
        <ele>479.932603</ele>
        <time>2023-03-11T13:46:32.603Z</time>
      </trkpt>
      <trkpt lat="47.04128" lon="7.13503">
        <ele>479.903935</ele>
        <time>2023-03-11T13:46:34.627Z</time>
      </trkpt>
      <trkpt lat="47.04134" lon="7.13518">
        <ele>479.876812</ele>
        <time>2023-03-11T13:46:36.625Z</time>
      </trkpt>
      <trkpt lat="47.04139" lon="7.13534">
        <ele>479.849029</ele>
        <time>2023-03-11T13:46:38.592Z</time>
      </trkpt>
      <trkpt lat="47.04144" lon="7.13551">
        <ele>479.821215</ele>
        <time>2023-03-11T13:46:40.616Z</time>
      </trkpt>
      <trkpt lat="47.04149" lon="7.13567">
        <ele>479.796873</ele>
        <time>2023-03-11T13:46:42.623Z</time>
      </trkpt>
      <trkpt lat="47.04154" lon="7.13583">
        <ele>479.809266</ele>
        <time>2023-03-11T13:46:44.623Z</time>
      </trkpt>
      <trkpt lat="47.0416" lon="7.136">
        <ele>479.821679</ele>
        <time>2023-03-11T13:46:46.616Z</time>
      </trkpt>
      <trkpt lat="47.04164" lon="7.13616">
        <ele>479.833479</ele>
        <time>2023-03-11T13:46:48.621Z</time>
      </trkpt>
      <trkpt lat="47.04169" lon="7.13633">
        <ele>479.845424</ele>
        <time>2023-03-11T13:46:50.623Z</time>
      </trkpt>
      <trkpt lat="47.04175" lon="7.13648">
        <ele>479.857368</ele>
        <time>2023-03-11T13:46:52.616Z</time>
      </trkpt>
      <trkpt lat="47.0418" lon="7.13663">
        <ele>479.868854</ele>
        <time>2023-03-11T13:46:54.600Z</time>
      </trkpt>
      <trkpt lat="47.04185" lon="7.1368">
        <ele>479.88094</ele>
        <time>2023-03-11T13:46:56.613Z</time>
      </trkpt>
      <trkpt lat="47.0419" lon="7.13696">
        <ele>479.892785</ele>
        <time>2023-03-11T13:46:58.620Z</time>
      </trkpt>
      <trkpt lat="47.04195" lon="7.13712">
        <ele>479.904668</ele>
        <time>2023-03-11T13:47:00.617Z</time>
      </trkpt>
      <trkpt lat="47.04201" lon="7.13728">
        <ele>479.91686</ele>
        <time>2023-03-11T13:47:02.622Z</time>
      </trkpt>
      <trkpt lat="47.04207" lon="7.13743">
        <ele>479.928745</ele>
        <time>2023-03-11T13:47:04.627Z</time>
      </trkpt>
      <trkpt lat="47.04213" lon="7.13759">
        <ele>479.941078</ele>
        <time>2023-03-11T13:47:06.618Z</time>
      </trkpt>
      <trkpt lat="47.04218" lon="7.13776">
        <ele>479.953371</ele>
        <time>2023-03-11T13:47:08.594Z</time>
      </trkpt>
      <trkpt lat="47.04223" lon="7.13793">
        <ele>479.965662</ele>
        <time>2023-03-11T13:47:10.620Z</time>
      </trkpt>
      <trkpt lat="47.04229" lon="7.13811">
        <ele>479.949798</ele>
        <time>2023-03-11T13:47:12.608Z</time>
      </trkpt>
      <trkpt lat="47.04235" lon="7.13827">
        <ele>479.896462</ele>
        <time>2023-03-11T13:47:14.618Z</time>
      </trkpt>
      <trkpt lat="47.0424" lon="7.13845">
        <ele>479.841353</ele>
        <time>2023-03-11T13:47:16.624Z</time>
      </trkpt>
      <trkpt lat="47.04245" lon="7.13862">
        <ele>479.786531</ele>
        <time>2023-03-11T13:47:18.616Z</time>
      </trkpt>
      <trkpt lat="47.04251" lon="7.1388">
        <ele>479.732148</ele>
        <time>2023-03-11T13:47:20.627Z</time>
      </trkpt>
      <trkpt lat="47.04257" lon="7.13897">
        <ele>479.677659</ele>
        <time>2023-03-11T13:47:22.616Z</time>
      </trkpt>
      <trkpt lat="47.04262" lon="7.13913">
        <ele>479.624897</ele>
        <time>2023-03-11T13:47:24.624Z</time>
      </trkpt>
      <trkpt lat="47.04267" lon="7.1393">
        <ele>479.57347</ele>
        <time>2023-03-11T13:47:26.622Z</time>
      </trkpt>
      <trkpt lat="47.04272" lon="7.13946">
        <ele>479.522213</ele>
        <time>2023-03-11T13:47:28.613Z</time>
      </trkpt>
      <trkpt lat="47.04278" lon="7.13961">
        <ele>479.472575</ele>
        <time>2023-03-11T13:47:30.612Z</time>
      </trkpt>
      <trkpt lat="47.04283" lon="7.13977">
        <ele>479.421835</ele>
        <time>2023-03-11T13:47:32.621Z</time>
      </trkpt>
      <trkpt lat="47.04288" lon="7.13993">
        <ele>479.370398</ele>
        <time>2023-03-11T13:47:34.624Z</time>
      </trkpt>
      <trkpt lat="47.04294" lon="7.1401">
        <ele>479.318521</ele>
        <time>2023-03-11T13:47:36.619Z</time>
      </trkpt>
      <trkpt lat="47.04299" lon="7.14025">
        <ele>479.269176</ele>
        <time>2023-03-11T13:47:38.612Z</time>
      </trkpt>
      <trkpt lat="47.04303" lon="7.14041">
        <ele>479.218705</ele>
        <time>2023-03-11T13:47:40.622Z</time>
      </trkpt>
      <trkpt lat="47.04309" lon="7.14058">
        <ele>479.163292</ele>
        <time>2023-03-11T13:47:42.625Z</time>
      </trkpt>
      <trkpt lat="47.04314" lon="7.14075">
        <ele>479.10902</ele>
        <time>2023-03-11T13:47:44.624Z</time>
      </trkpt>
      <trkpt lat="47.04319" lon="7.1409">
        <ele>479.057501</ele>
        <time>2023-03-11T13:47:46.612Z</time>
      </trkpt>
      <trkpt lat="47.04325" lon="7.14105">
        <ele>479.006512</ele>
        <time>2023-03-11T13:47:48.619Z</time>
      </trkpt>
      <trkpt lat="47.04329" lon="7.14121">
        <ele>478.956135</ele>
        <time>2023-03-11T13:47:50.618Z</time>
      </trkpt>
      <trkpt lat="47.04334" lon="7.14137">
        <ele>478.903049</ele>
        <time>2023-03-11T13:47:52.617Z</time>
      </trkpt>
      <trkpt lat="47.04339" lon="7.14152">
        <ele>478.852582</ele>
        <time>2023-03-11T13:47:54.634Z</time>
      </trkpt>
      <trkpt lat="47.04345" lon="7.14168">
        <ele>478.798768</ele>
        <time>2023-03-11T13:47:56.621Z</time>
      </trkpt>
      <trkpt lat="47.0435" lon="7.14184">
        <ele>478.746409</ele>
        <time>2023-03-11T13:47:58.626Z</time>
      </trkpt>
      <trkpt lat="47.04355" lon="7.142">
        <ele>478.693626</ele>
        <time>2023-03-11T13:48:00.618Z</time>
      </trkpt>
      <trkpt lat="47.0436" lon="7.14216">
        <ele>478.641352</ele>
        <time>2023-03-11T13:48:02.616Z</time>
      </trkpt>
      <trkpt lat="47.04365" lon="7.14231">
        <ele>478.590533</ele>
        <time>2023-03-11T13:48:04.616Z</time>
      </trkpt>
      <trkpt lat="47.04371" lon="7.14247">
        <ele>478.537548</ele>
        <time>2023-03-11T13:48:06.628Z</time>
      </trkpt>
      <trkpt lat="47.04376" lon="7.14263">
        <ele>478.484893</ele>
        <time>2023-03-11T13:48:08.592Z</time>
      </trkpt>
      <trkpt lat="47.0438" lon="7.14278">
        <ele>478.43369</ele>
        <time>2023-03-11T13:48:10.613Z</time>
      </trkpt>
      <trkpt lat="47.04385" lon="7.14293">
        <ele>478.434564</ele>
        <time>2023-03-11T13:48:12.616Z</time>
      </trkpt>
      <trkpt lat="47.0439" lon="7.14308">
        <ele>478.441213</ele>
        <time>2023-03-11T13:48:14.615Z</time>
      </trkpt>
      <trkpt lat="47.04395" lon="7.14323">
        <ele>478.447417</ele>
        <time>2023-03-11T13:48:16.632Z</time>
      </trkpt>
      <trkpt lat="47.044" lon="7.14339">
        <ele>478.45432</ele>
        <time>2023-03-11T13:48:18.630Z</time>
      </trkpt>
      <trkpt lat="47.04405" lon="7.14355">
        <ele>478.461213</ele>
        <time>2023-03-11T13:48:20.610Z</time>
      </trkpt>
      <trkpt lat="47.04411" lon="7.1437">
        <ele>478.468059</ele>
        <time>2023-03-11T13:48:22.624Z</time>
      </trkpt>
      <trkpt lat="47.04417" lon="7.14386">
        <ele>478.474829</ele>
        <time>2023-03-11T13:48:24.621Z</time>
      </trkpt>
      <trkpt lat="47.04421" lon="7.14401">
        <ele>478.481377</ele>
        <time>2023-03-11T13:48:26.621Z</time>
      </trkpt>
      <trkpt lat="47.04427" lon="7.14416">
        <ele>478.488044</ele>
        <time>2023-03-11T13:48:28.618Z</time>
      </trkpt>
      <trkpt lat="47.04432" lon="7.14432">
        <ele>478.494628</ele>
        <time>2023-03-11T13:48:30.620Z</time>
      </trkpt>
      <trkpt lat="47.04437" lon="7.14447">
        <ele>478.501155</ele>
        <time>2023-03-11T13:48:32.616Z</time>
      </trkpt>
      <trkpt lat="47.04442" lon="7.14461">
        <ele>478.507613</ele>
        <time>2023-03-11T13:48:34.617Z</time>
      </trkpt>
      <trkpt lat="47.04447" lon="7.14476">
        <ele>478.513976</ele>
        <time>2023-03-11T13:48:36.619Z</time>
      </trkpt>
      <trkpt lat="47.04451" lon="7.14491">
        <ele>478.520228</ele>
        <time>2023-03-11T13:48:38.603Z</time>
      </trkpt>
      <trkpt lat="47.04455" lon="7.14504">
        <ele>478.525895</ele>
        <time>2023-03-11T13:48:40.624Z</time>
      </trkpt>
      <trkpt lat="47.04459" lon="7.14517">
        <ele>478.531582</ele>
        <time>2023-03-11T13:48:42.622Z</time>
      </trkpt>
      <trkpt lat="47.04465" lon="7.14531">
        <ele>478.518337</ele>
        <time>2023-03-11T13:48:44.622Z</time>
      </trkpt>
      <trkpt lat="47.04471" lon="7.14546">
        <ele>478.504714</ele>
        <time>2023-03-11T13:48:46.635Z</time>
      </trkpt>
      <trkpt lat="47.04477" lon="7.1456">
        <ele>478.491506</ele>
        <time>2023-03-11T13:48:48.616Z</time>
      </trkpt>
      <trkpt lat="47.04483" lon="7.14573">
        <ele>478.47858</ele>
        <time>2023-03-11T13:48:50.626Z</time>
      </trkpt>
      <trkpt lat="47.04489" lon="7.14587">
        <ele>478.465273</ele>
        <time>2023-03-11T13:48:52.614Z</time>
      </trkpt>
      <trkpt lat="47.04494" lon="7.14602">
        <ele>478.451659</ele>
        <time>2023-03-11T13:48:54.611Z</time>
      </trkpt>
      <trkpt lat="47.045" lon="7.14616">
        <ele>478.438632</ele>
        <time>2023-03-11T13:48:56.623Z</time>
      </trkpt>
      <trkpt lat="47.04506" lon="7.14629">
        <ele>478.425507</ele>
        <time>2023-03-11T13:48:58.625Z</time>
      </trkpt>
      <trkpt lat="47.04512" lon="7.14644">
        <ele>478.412082</ele>
        <time>2023-03-11T13:49:00.619Z</time>
      </trkpt>
      <trkpt lat="47.04518" lon="7.14658">
        <ele>478.398419</ele>
        <time>2023-03-11T13:49:02.624Z</time>
      </trkpt>
      <trkpt lat="47.04524" lon="7.14674">
        <ele>478.383809</ele>
        <time>2023-03-11T13:49:04.625Z</time>
      </trkpt>
      <trkpt lat="47.0453" lon="7.14689">
        <ele>478.369649</ele>
        <time>2023-03-11T13:49:06.618Z</time>
      </trkpt>
      <trkpt lat="47.04535" lon="7.14705">
        <ele>478.355533</ele>
        <time>2023-03-11T13:49:08.590Z</time>
      </trkpt>
      <trkpt lat="47.04542" lon="7.14721">
        <ele>478.340426</ele>
        <time>2023-03-11T13:49:10.611Z</time>
      </trkpt>
      <trkpt lat="47.04549" lon="7.14734">
        <ele>478.326695</ele>
        <time>2023-03-11T13:49:12.602Z</time>
      </trkpt>
      <trkpt lat="47.04555" lon="7.14749">
        <ele>478.359771</ele>
        <time>2023-03-11T13:49:14.624Z</time>
      </trkpt>
      <trkpt lat="47.04561" lon="7.14763">
        <ele>478.452474</ele>
        <time>2023-03-11T13:49:16.604Z</time>
      </trkpt>
      <trkpt lat="47.04567" lon="7.14777">
        <ele>478.54231</ele>
        <time>2023-03-11T13:49:18.621Z</time>
      </trkpt>
      <trkpt lat="47.04574" lon="7.14792">
        <ele>478.637191</ele>
        <time>2023-03-11T13:49:20.629Z</time>
      </trkpt>
      <trkpt lat="47.0458" lon="7.14807">
        <ele>478.733531</ele>
        <time>2023-03-11T13:49:22.618Z</time>
      </trkpt>
      <trkpt lat="47.04585" lon="7.14821">
        <ele>478.822433</ele>
        <time>2023-03-11T13:49:24.600Z</time>
      </trkpt>
      <trkpt lat="47.04591" lon="7.14835">
        <ele>478.908334</ele>
        <time>2023-03-11T13:49:26.620Z</time>
      </trkpt>
      <trkpt lat="47.04597" lon="7.14849">
        <ele>479.00001</ele>
        <time>2023-03-11T13:49:28.620Z</time>
      </trkpt>
      <trkpt lat="47.04602" lon="7.14863">
        <ele>479.087631</ele>
        <time>2023-03-11T13:49:30.605Z</time>
      </trkpt>
      <trkpt lat="47.04608" lon="7.14877">
        <ele>479.177014</ele>
        <time>2023-03-11T13:49:32.595Z</time>
      </trkpt>
      <trkpt lat="47.04613" lon="7.14892">
        <ele>479.268807</ele>
        <time>2023-03-11T13:49:34.613Z</time>
      </trkpt>
      <trkpt lat="47.04619" lon="7.14906">
        <ele>479.357937</ele>
        <time>2023-03-11T13:49:36.609Z</time>
      </trkpt>
      <trkpt lat="47.04625" lon="7.14921">
        <ele>479.45111</ele>
        <time>2023-03-11T13:49:38.600Z</time>
      </trkpt>
      <trkpt lat="47.0463" lon="7.14934">
        <ele>479.538731</ele>
        <time>2023-03-11T13:49:40.622Z</time>
      </trkpt>
      <trkpt lat="47.04636" lon="7.14949">
        <ele>479.629455</ele>
        <time>2023-03-11T13:49:42.619Z</time>
      </trkpt>
      <trkpt lat="47.04639" lon="7.14963">
        <ele>479.712174</ele>
        <time>2023-03-11T13:49:44.599Z</time>
      </trkpt>
      <trkpt lat="47.04642" lon="7.14978">
        <ele>479.782848</ele>
        <time>2023-03-11T13:49:46.618Z</time>
      </trkpt>
      <trkpt lat="47.04643" lon="7.14994">
        <ele>479.836492</ele>
        <time>2023-03-11T13:49:48.602Z</time>
      </trkpt>
      <trkpt lat="47.04646" lon="7.1501">
        <ele>479.892639</ele>
        <time>2023-03-11T13:49:50.616Z</time>
      </trkpt>
      <trkpt lat="47.04651" lon="7.15024">
        <ele>479.9444</ele>
        <time>2023-03-11T13:49:52.598Z</time>
      </trkpt>
      <trkpt lat="47.04657" lon="7.15037">
        <ele>479.997638</ele>
        <time>2023-03-11T13:49:54.619Z</time>
      </trkpt>
      <trkpt lat="47.04664" lon="7.15051">
        <ele>480.053615</ele>
        <time>2023-03-11T13:49:56.621Z</time>
      </trkpt>
      <trkpt lat="47.0467" lon="7.15064">
        <ele>480.107395</ele>
        <time>2023-03-11T13:49:58.635Z</time>
      </trkpt>
      <trkpt lat="47.04675" lon="7.15077">
        <ele>480.15945</ele>
        <time>2023-03-11T13:50:00.620Z</time>
      </trkpt>
      <trkpt lat="47.0468" lon="7.15092">
        <ele>480.215117</ele>
        <time>2023-03-11T13:50:02.600Z</time>
      </trkpt>
      <trkpt lat="47.04682" lon="7.1511">
        <ele>480.274703</ele>
        <time>2023-03-11T13:50:04.597Z</time>
      </trkpt>
      <trkpt lat="47.04683" lon="7.15127">
        <ele>480.332014</ele>
        <time>2023-03-11T13:50:06.612Z</time>
      </trkpt>
      <trkpt lat="47.04681" lon="7.15142">
        <ele>480.383364</ele>
        <time>2023-03-11T13:50:08.607Z</time>
      </trkpt>
      <trkpt lat="47.04676" lon="7.15156">
        <ele>480.437302</ele>
        <time>2023-03-11T13:50:10.613Z</time>
      </trkpt>
      <trkpt lat="47.04673" lon="7.1517">
        <ele>480.485709</ele>
        <time>2023-03-11T13:50:12.629Z</time>
      </trkpt>
      <trkpt lat="47.04675" lon="7.15184">
        <ele>480.534332</ele>
        <time>2023-03-11T13:50:14.606Z</time>
      </trkpt>
      <trkpt lat="47.04681" lon="7.15199">
        <ele>480.590965</ele>
        <time>2023-03-11T13:50:16.600Z</time>
      </trkpt>
      <trkpt lat="47.04682" lon="7.15216">
        <ele>480.638248</ele>
        <time>2023-03-11T13:50:18.615Z</time>
      </trkpt>
      <trkpt lat="47.04676" lon="7.15234">
        <ele>480.504113</ele>
        <time>2023-03-11T13:50:20.606Z</time>
      </trkpt>
      <trkpt lat="47.04671" lon="7.1525">
        <ele>480.386507</ele>
        <time>2023-03-11T13:50:22.593Z</time>
      </trkpt>
      <trkpt lat="47.04667" lon="7.15265">
        <ele>480.27871</ele>
        <time>2023-03-11T13:50:24.622Z</time>
      </trkpt>
      <trkpt lat="47.04664" lon="7.15281">
        <ele>480.169957</ele>
        <time>2023-03-11T13:50:26.627Z</time>
      </trkpt>
      <trkpt lat="47.0466" lon="7.15296">
        <ele>480.065339</ele>
        <time>2023-03-11T13:50:28.627Z</time>
      </trkpt>
      <trkpt lat="47.04657" lon="7.15311">
        <ele>479.961896</ele>
        <time>2023-03-11T13:50:30.610Z</time>
      </trkpt>
      <trkpt lat="47.04654" lon="7.15327">
        <ele>479.848444</ele>
        <time>2023-03-11T13:50:32.623Z</time>
      </trkpt>
      <trkpt lat="47.04652" lon="7.15345">
        <ele>479.726167</ele>
        <time>2023-03-11T13:50:34.613Z</time>
      </trkpt>
      <trkpt lat="47.04647" lon="7.15361">
        <ele>479.607942</ele>
        <time>2023-03-11T13:50:36.621Z</time>
      </trkpt>
      <trkpt lat="47.04644" lon="7.15377">
        <ele>479.496813</ele>
        <time>2023-03-11T13:50:38.602Z</time>
      </trkpt>
      <trkpt lat="47.04641" lon="7.15395">
        <ele>479.377778</ele>
        <time>2023-03-11T13:50:40.626Z</time>
      </trkpt>
      <trkpt lat="47.04638" lon="7.15412">
        <ele>479.259069</ele>
        <time>2023-03-11T13:50:42.622Z</time>
      </trkpt>
      <trkpt lat="47.04636" lon="7.1543">
        <ele>479.137969</ele>
        <time>2023-03-11T13:50:44.606Z</time>
      </trkpt>
      <trkpt lat="47.04635" lon="7.15448">
        <ele>479.013884</ele>
        <time>2023-03-11T13:50:46.619Z</time>
      </trkpt>
      <trkpt lat="47.04635" lon="7.15466">
        <ele>478.895336</ele>
        <time>2023-03-11T13:50:48.609Z</time>
      </trkpt>
      <trkpt lat="47.04636" lon="7.15483">
        <ele>478.953379</ele>
        <time>2023-03-11T13:50:50.627Z</time>
      </trkpt>
      <trkpt lat="47.04637" lon="7.155">
        <ele>479.020898</ele>
        <time>2023-03-11T13:50:52.624Z</time>
      </trkpt>
      <trkpt lat="47.04638" lon="7.15516">
        <ele>479.088456</ele>
        <time>2023-03-11T13:50:54.619Z</time>
      </trkpt>
      <trkpt lat="47.04641" lon="7.15532">
        <ele>479.154815</ele>
        <time>2023-03-11T13:50:56.601Z</time>
      </trkpt>
      <trkpt lat="47.04644" lon="7.15549">
        <ele>479.225699</ele>
        <time>2023-03-11T13:50:58.627Z</time>
      </trkpt>
      <trkpt lat="47.04647" lon="7.15565">
        <ele>479.293443</ele>
        <time>2023-03-11T13:51:00.630Z</time>
      </trkpt>
      <trkpt lat="47.04649" lon="7.1558">
        <ele>479.356332</ele>
        <time>2023-03-11T13:51:02.640Z</time>
      </trkpt>
      <trkpt lat="47.04652" lon="7.15596">
        <ele>479.423759</ele>
        <time>2023-03-11T13:51:04.627Z</time>
      </trkpt>
      <trkpt lat="47.04655" lon="7.15612">
        <ele>479.489381</ele>
        <time>2023-03-11T13:51:06.622Z</time>
      </trkpt>
      <trkpt lat="47.04658" lon="7.15626">
        <ele>479.552265</ele>
        <time>2023-03-11T13:51:08.608Z</time>
      </trkpt>
      <trkpt lat="47.04662" lon="7.15641">
        <ele>479.615115</ele>
        <time>2023-03-11T13:51:10.618Z</time>
      </trkpt>
      <trkpt lat="47.04666" lon="7.15656">
        <ele>479.681489</ele>
        <time>2023-03-11T13:51:12.608Z</time>
      </trkpt>
      <trkpt lat="47.04671" lon="7.1567">
        <ele>479.746132</ele>
        <time>2023-03-11T13:51:14.625Z</time>
      </trkpt>
      <trkpt lat="47.04676" lon="7.15685">
        <ele>479.815132</ele>
        <time>2023-03-11T13:51:16.614Z</time>
      </trkpt>
      <trkpt lat="47.0468" lon="7.15701">
        <ele>479.88314</ele>
        <time>2023-03-11T13:51:18.640Z</time>
      </trkpt>
      <trkpt lat="47.04684" lon="7.15717">
        <ele>479.952145</ele>
        <time>2023-03-11T13:51:20.627Z</time>
      </trkpt>
      <trkpt lat="47.04686" lon="7.15733">
        <ele>479.952348</ele>
        <time>2023-03-11T13:51:22.585Z</time>
      </trkpt>
      <trkpt lat="47.04687" lon="7.1575">
        <ele>479.938891</ele>
        <time>2023-03-11T13:51:24.585Z</time>
      </trkpt>
      <trkpt lat="47.04689" lon="7.15766">
        <ele>479.926301</ele>
        <time>2023-03-11T13:51:26.619Z</time>
      </trkpt>
      <trkpt lat="47.0469" lon="7.15782">
        <ele>479.91335</ele>
        <time>2023-03-11T13:51:28.621Z</time>
      </trkpt>
      <trkpt lat="47.04693" lon="7.15798">
        <ele>479.900389</ele>
        <time>2023-03-11T13:51:30.611Z</time>
      </trkpt>
      <trkpt lat="47.04696" lon="7.15812">
        <ele>479.888623</ele>
        <time>2023-03-11T13:51:32.597Z</time>
      </trkpt>
      <trkpt lat="47.047" lon="7.15827">
        <ele>479.875847</ele>
        <time>2023-03-11T13:51:34.617Z</time>
      </trkpt>
      <trkpt lat="47.04704" lon="7.15842">
        <ele>479.862902</ele>
        <time>2023-03-11T13:51:36.626Z</time>
      </trkpt>
      <trkpt lat="47.04708" lon="7.15857">
        <ele>479.850184</ele>
        <time>2023-03-11T13:51:38.596Z</time>
      </trkpt>
      <trkpt lat="47.04713" lon="7.15872">
        <ele>479.837486</ele>
        <time>2023-03-11T13:51:40.618Z</time>
      </trkpt>
      <trkpt lat="47.04716" lon="7.15886">
        <ele>479.825447</ele>
        <time>2023-03-11T13:51:42.624Z</time>
      </trkpt>
      <trkpt lat="47.0472" lon="7.15901">
        <ele>479.812997</ele>
        <time>2023-03-11T13:51:44.623Z</time>
      </trkpt>
      <trkpt lat="47.04725" lon="7.15915">
        <ele>479.800302</ele>
        <time>2023-03-11T13:51:46.609Z</time>
      </trkpt>
      <trkpt lat="47.04729" lon="7.1593">
        <ele>479.788115</ele>
        <time>2023-03-11T13:51:48.620Z</time>
      </trkpt>
      <trkpt lat="47.04732" lon="7.15945">
        <ele>479.775962</ele>
        <time>2023-03-11T13:51:50.618Z</time>
      </trkpt>
      <trkpt lat="47.04735" lon="7.1596">
        <ele>479.763591</ele>
        <time>2023-03-11T13:51:52.600Z</time>
      </trkpt>
      <trkpt lat="47.04737" lon="7.15976">
        <ele>479.74727</ele>
        <time>2023-03-11T13:51:54.621Z</time>
      </trkpt>
      <trkpt lat="47.0474" lon="7.1599">
        <ele>479.725777</ele>
        <time>2023-03-11T13:51:56.622Z</time>
      </trkpt>
      <trkpt lat="47.04743" lon="7.16005">
        <ele>479.702689</ele>
        <time>2023-03-11T13:51:58.623Z</time>
      </trkpt>
      <trkpt lat="47.04747" lon="7.16022">
        <ele>479.677901</ele>
        <time>2023-03-11T13:52:00.602Z</time>
      </trkpt>
      <trkpt lat="47.0475" lon="7.16037">
        <ele>479.654635</ele>
        <time>2023-03-11T13:52:02.627Z</time>
      </trkpt>
      <trkpt lat="47.04754" lon="7.16052">
        <ele>479.631013</ele>
        <time>2023-03-11T13:52:04.638Z</time>
      </trkpt>
      <trkpt lat="47.04759" lon="7.16066">
        <ele>479.608128</ele>
        <time>2023-03-11T13:52:06.617Z</time>
      </trkpt>
      <trkpt lat="47.04766" lon="7.16081">
        <ele>479.58335</ele>
        <time>2023-03-11T13:52:08.611Z</time>
      </trkpt>
      <trkpt lat="47.04772" lon="7.16095">
        <ele>479.559168</ele>
        <time>2023-03-11T13:52:10.617Z</time>
      </trkpt>
      <trkpt lat="47.04778" lon="7.16107">
        <ele>479.537131</ele>
        <time>2023-03-11T13:52:12.631Z</time>
      </trkpt>
      <trkpt lat="47.04785" lon="7.16121">
        <ele>479.512113</ele>
        <time>2023-03-11T13:52:14.647Z</time>
      </trkpt>
      <trkpt lat="47.04791" lon="7.16136">
        <ele>479.487924</ele>
        <time>2023-03-11T13:52:16.616Z</time>
      </trkpt>
      <trkpt lat="47.04796" lon="7.16148">
        <ele>479.46719</ele>
        <time>2023-03-11T13:52:18.619Z</time>
      </trkpt>
      <trkpt lat="47.04802" lon="7.1616">
        <ele>479.44515</ele>
        <time>2023-03-11T13:52:20.618Z</time>
      </trkpt>
      <trkpt lat="47.04807" lon="7.16175">
        <ele>479.421261</ele>
        <time>2023-03-11T13:52:22.625Z</time>
      </trkpt>
      <trkpt lat="47.04812" lon="7.16189">
        <ele>479.398782</ele>
        <time>2023-03-11T13:52:24.620Z</time>
      </trkpt>
      <trkpt lat="47.04818" lon="7.16202">
        <ele>479.376504</ele>
        <time>2023-03-11T13:52:26.621Z</time>
      </trkpt>
      <trkpt lat="47.04824" lon="7.16215">
        <ele>479.2663</ele>
        <time>2023-03-11T13:52:28.604Z</time>
      </trkpt>
      <trkpt lat="47.04833" lon="7.16226">
        <ele>479.145005</ele>
        <time>2023-03-11T13:52:30.583Z</time>
      </trkpt>
      <trkpt lat="47.04842" lon="7.16234">
        <ele>479.02637</ele>
        <time>2023-03-11T13:52:32.599Z</time>
      </trkpt>
      <trkpt lat="47.04852" lon="7.1624">
        <ele>478.904063</ele>
        <time>2023-03-11T13:52:34.606Z</time>
      </trkpt>
      <trkpt lat="47.04862" lon="7.16244">
        <ele>478.791648</ele>
        <time>2023-03-11T13:52:36.602Z</time>
      </trkpt>
      <trkpt lat="47.04873" lon="7.16249">
        <ele>478.667429</ele>
        <time>2023-03-11T13:52:38.597Z</time>
      </trkpt>
      <trkpt lat="47.04883" lon="7.16258">
        <ele>478.536897</ele>
        <time>2023-03-11T13:52:40.606Z</time>
      </trkpt>
      <trkpt lat="47.04893" lon="7.16267">
        <ele>478.409871</ele>
        <time>2023-03-11T13:52:42.606Z</time>
      </trkpt>
      <trkpt lat="47.04901" lon="7.16281">
        <ele>478.278561</ele>
        <time>2023-03-11T13:52:44.603Z</time>
      </trkpt>
      <trkpt lat="47.04907" lon="7.16294">
        <ele>478.159094</ele>
        <time>2023-03-11T13:52:46.608Z</time>
      </trkpt>
      <trkpt lat="47.04912" lon="7.16308">
        <ele>478.04013</ele>
        <time>2023-03-11T13:52:48.615Z</time>
      </trkpt>
      <trkpt lat="47.04918" lon="7.16322">
        <ele>477.920802</ele>
        <time>2023-03-11T13:52:50.625Z</time>
      </trkpt>
      <trkpt lat="47.04923" lon="7.16337">
        <ele>477.795045</ele>
        <time>2023-03-11T13:52:52.626Z</time>
      </trkpt>
      <trkpt lat="47.04927" lon="7.16353">
        <ele>477.671938</ele>
        <time>2023-03-11T13:52:54.605Z</time>
      </trkpt>
      <trkpt lat="47.04929" lon="7.16368">
        <ele>477.552281</ele>
        <time>2023-03-11T13:52:56.613Z</time>
      </trkpt>
      <trkpt lat="47.04931" lon="7.16384">
        <ele>477.435047</ele>
        <time>2023-03-11T13:52:58.592Z</time>
      </trkpt>
      <trkpt lat="47.0493" lon="7.164">
        <ele>477.440141</ele>
        <time>2023-03-11T13:53:00.597Z</time>
      </trkpt>
      <trkpt lat="47.04931" lon="7.16416">
        <ele>477.484184</ele>
        <time>2023-03-11T13:53:02.620Z</time>
      </trkpt>
      <trkpt lat="47.04934" lon="7.16431">
        <ele>477.526944</ele>
        <time>2023-03-11T13:53:04.609Z</time>
      </trkpt>
      <trkpt lat="47.04939" lon="7.16445">
        <ele>477.570153</ele>
        <time>2023-03-11T13:53:06.614Z</time>
      </trkpt>
      <trkpt lat="47.04946" lon="7.16459">
        <ele>477.616478</ele>
        <time>2023-03-11T13:53:08.596Z</time>
      </trkpt>
      <trkpt lat="47.04954" lon="7.16471">
        <ele>477.6604</ele>
        <time>2023-03-11T13:53:10.599Z</time>
      </trkpt>
      <trkpt lat="47.04962" lon="7.16483">
        <ele>477.706106</ele>
        <time>2023-03-11T13:53:12.598Z</time>
      </trkpt>
      <trkpt lat="47.0497" lon="7.16495">
        <ele>477.752098</ele>
        <time>2023-03-11T13:53:14.620Z</time>
      </trkpt>
      <trkpt lat="47.04978" lon="7.16507">
        <ele>477.79812</ele>
        <time>2023-03-11T13:53:16.625Z</time>
      </trkpt>
      <trkpt lat="47.04987" lon="7.16518">
        <ele>477.843082</ele>
        <time>2023-03-11T13:53:18.621Z</time>
      </trkpt>
      <trkpt lat="47.04995" lon="7.1653">
        <ele>477.888414</ele>
        <time>2023-03-11T13:53:20.639Z</time>
      </trkpt>
      <trkpt lat="47.05002" lon="7.16542">
        <ele>477.931954</ele>
        <time>2023-03-11T13:53:22.624Z</time>
      </trkpt>
      <trkpt lat="47.05011" lon="7.16552">
        <ele>477.974599</ele>
        <time>2023-03-11T13:53:24.625Z</time>
      </trkpt>
      <trkpt lat="47.05019" lon="7.16562">
        <ele>478.016292</ele>
        <time>2023-03-11T13:53:26.614Z</time>
      </trkpt>
      <trkpt lat="47.05027" lon="7.16571">
        <ele>478.057206</ele>
        <time>2023-03-11T13:53:28.623Z</time>
      </trkpt>
      <trkpt lat="47.05036" lon="7.16582">
        <ele>478.102017</ele>
        <time>2023-03-11T13:53:30.626Z</time>
      </trkpt>
      <trkpt lat="47.05045" lon="7.16592">
        <ele>478.113524</ele>
        <time>2023-03-11T13:53:32.622Z</time>
      </trkpt>
      <trkpt lat="47.05054" lon="7.16602">
        <ele>478.105534</ele>
        <time>2023-03-11T13:53:34.619Z</time>
      </trkpt>
      <trkpt lat="47.05063" lon="7.16612">
        <ele>478.097344</ele>
        <time>2023-03-11T13:53:36.624Z</time>
      </trkpt>
      <trkpt lat="47.05073" lon="7.16622">
        <ele>478.089038</ele>
        <time>2023-03-11T13:53:38.621Z</time>
      </trkpt>
      <trkpt lat="47.05081" lon="7.16631">
        <ele>478.081566</ele>
        <time>2023-03-11T13:53:40.625Z</time>
      </trkpt>
      <trkpt lat="47.05089" lon="7.16641">
        <ele>478.074002</ele>
        <time>2023-03-11T13:53:42.616Z</time>
      </trkpt>
      <trkpt lat="47.05098" lon="7.16653">
        <ele>478.06576</ele>
        <time>2023-03-11T13:53:44.634Z</time>
      </trkpt>
      <trkpt lat="47.05106" lon="7.16664">
        <ele>478.057893</ele>
        <time>2023-03-11T13:53:46.626Z</time>
      </trkpt>
      <trkpt lat="47.05114" lon="7.16675">
        <ele>478.050114</ele>
        <time>2023-03-11T13:53:48.618Z</time>
      </trkpt>
      <trkpt lat="47.05122" lon="7.16687">
        <ele>478.041987</ele>
        <time>2023-03-11T13:53:50.631Z</time>
      </trkpt>
      <trkpt lat="47.0513" lon="7.16699">
        <ele>478.033834</ele>
        <time>2023-03-11T13:53:52.625Z</time>
      </trkpt>
      <trkpt lat="47.05138" lon="7.1671">
        <ele>478.02573</ele>
        <time>2023-03-11T13:53:54.618Z</time>
      </trkpt>
      <trkpt lat="47.05147" lon="7.16721">
        <ele>478.017565</ele>
        <time>2023-03-11T13:53:56.619Z</time>
      </trkpt>
      <trkpt lat="47.05155" lon="7.16731">
        <ele>478.009738</ele>
        <time>2023-03-11T13:53:58.632Z</time>
      </trkpt>
      <trkpt lat="47.05164" lon="7.16741">
        <ele>478.001862</ele>
        <time>2023-03-11T13:54:00.620Z</time>
      </trkpt>
      <trkpt lat="47.05172" lon="7.16751">
        <ele>477.994415</ele>
        <time>2023-03-11T13:54:02.608Z</time>
      </trkpt>
      <trkpt lat="47.05178" lon="7.16764">
        <ele>477.993927</ele>
        <time>2023-03-11T13:54:04.610Z</time>
      </trkpt>
      <trkpt lat="47.05183" lon="7.16778">
        <ele>478.000145</ele>
        <time>2023-03-11T13:54:06.614Z</time>
      </trkpt>
      <trkpt lat="47.05188" lon="7.16792">
        <ele>478.006447</ele>
        <time>2023-03-11T13:54:08.595Z</time>
      </trkpt>
      <trkpt lat="47.05192" lon="7.16806">
        <ele>478.012727</ele>
        <time>2023-03-11T13:54:10.625Z</time>
      </trkpt>
      <trkpt lat="47.05197" lon="7.16821">
        <ele>478.019101</ele>
        <time>2023-03-11T13:54:12.634Z</time>
      </trkpt>
      <trkpt lat="47.05202" lon="7.16835">
        <ele>478.025467</ele>
        <time>2023-03-11T13:54:14.634Z</time>
      </trkpt>
      <trkpt lat="47.05209" lon="7.16847">
        <ele>478.031985</ele>
        <time>2023-03-11T13:54:16.612Z</time>
      </trkpt>
      <trkpt lat="47.05217" lon="7.16858">
        <ele>478.038448</ele>
        <time>2023-03-11T13:54:18.601Z</time>
      </trkpt>
      <trkpt lat="47.05224" lon="7.16869">
        <ele>478.044394</ele>
        <time>2023-03-11T13:54:20.615Z</time>
      </trkpt>
      <trkpt lat="47.05232" lon="7.16879">
        <ele>478.050353</ele>
        <time>2023-03-11T13:54:22.620Z</time>
      </trkpt>
      <trkpt lat="47.05239" lon="7.16889">
        <ele>478.056286</ele>
        <time>2023-03-11T13:54:24.620Z</time>
      </trkpt>
      <trkpt lat="47.05248" lon="7.169">
        <ele>478.062842</ele>
        <time>2023-03-11T13:54:26.619Z</time>
      </trkpt>
      <trkpt lat="47.05255" lon="7.1691">
        <ele>478.069026</ele>
        <time>2023-03-11T13:54:28.624Z</time>
      </trkpt>
      <trkpt lat="47.05263" lon="7.16921">
        <ele>478.075284</ele>
        <time>2023-03-11T13:54:30.622Z</time>
      </trkpt>
      <trkpt lat="47.05271" lon="7.16932">
        <ele>478.08144</ele>
        <time>2023-03-11T13:54:32.634Z</time>
      </trkpt>
      <trkpt lat="47.05279" lon="7.16941">
        <ele>478.087411</ele>
        <time>2023-03-11T13:54:34.616Z</time>
      </trkpt>
      <trkpt lat="47.05286" lon="7.16952">
        <ele>478.093665</ele>
        <time>2023-03-11T13:54:36.626Z</time>
      </trkpt>
      <trkpt lat="47.05293" lon="7.16964">
        <ele>478.109468</ele>
        <time>2023-03-11T13:54:38.613Z</time>
      </trkpt>
      <trkpt lat="47.053" lon="7.16975">
        <ele>478.13182</ele>
        <time>2023-03-11T13:54:40.640Z</time>
      </trkpt>
      <trkpt lat="47.05307" lon="7.16987">
        <ele>478.154114</ele>
        <time>2023-03-11T13:54:42.623Z</time>
      </trkpt>
      <trkpt lat="47.05313" lon="7.17">
        <ele>478.17696</ele>
        <time>2023-03-11T13:54:44.623Z</time>
      </trkpt>
      <trkpt lat="47.0532" lon="7.17012">
        <ele>478.199882</ele>
        <time>2023-03-11T13:54:46.637Z</time>
      </trkpt>
      <trkpt lat="47.05327" lon="7.17025">
        <ele>478.224391</ele>
        <time>2023-03-11T13:54:48.637Z</time>
      </trkpt>
      <trkpt lat="47.05334" lon="7.17037">
        <ele>478.247427</ele>
        <time>2023-03-11T13:54:50.627Z</time>
      </trkpt>
      <trkpt lat="47.05341" lon="7.17049">
        <ele>478.269385</ele>
        <time>2023-03-11T13:54:52.630Z</time>
      </trkpt>
      <trkpt lat="47.05347" lon="7.17062">
        <ele>478.291905</ele>
        <time>2023-03-11T13:54:54.617Z</time>
      </trkpt>
      <trkpt lat="47.05354" lon="7.17074">
        <ele>478.314474</ele>
        <time>2023-03-11T13:54:56.609Z</time>
      </trkpt>
      <trkpt lat="47.05359" lon="7.17087">
        <ele>478.337382</ele>
        <time>2023-03-11T13:54:58.632Z</time>
      </trkpt>
      <trkpt lat="47.05365" lon="7.171">
        <ele>478.360505</ele>
        <time>2023-03-11T13:55:00.627Z</time>
      </trkpt>
      <trkpt lat="47.05373" lon="7.17113">
        <ele>478.384289</ele>
        <time>2023-03-11T13:55:02.634Z</time>
      </trkpt>
      <trkpt lat="47.0538" lon="7.17124">
        <ele>478.406858</ele>
        <time>2023-03-11T13:55:04.615Z</time>
      </trkpt>
      <trkpt lat="47.05387" lon="7.17137">
        <ele>478.430533</ele>
        <time>2023-03-11T13:55:06.646Z</time>
      </trkpt>
      <trkpt lat="47.05394" lon="7.17149">
        <ele>478.454258</ele>
        <time>2023-03-11T13:55:08.606Z</time>
      </trkpt>
      <trkpt lat="47.05401" lon="7.17161">
        <ele>478.476562</ele>
        <time>2023-03-11T13:55:10.625Z</time>
      </trkpt>
      <trkpt lat="47.05407" lon="7.17174">
        <ele>478.541396</ele>
        <time>2023-03-11T13:55:12.620Z</time>
      </trkpt>
      <trkpt lat="47.05414" lon="7.17186">
        <ele>478.611767</ele>
        <time>2023-03-11T13:55:14.627Z</time>
      </trkpt>
      <trkpt lat="47.0542" lon="7.17199">
        <ele>478.682483</ele>
        <time>2023-03-11T13:55:16.613Z</time>
      </trkpt>
      <trkpt lat="47.05427" lon="7.17212">
        <ele>478.7563</ele>
        <time>2023-03-11T13:55:18.620Z</time>
      </trkpt>
      <trkpt lat="47.05434" lon="7.17224">
        <ele>478.826216</ele>
        <time>2023-03-11T13:55:20.621Z</time>
      </trkpt>
      <trkpt lat="47.05439" lon="7.17238">
        <ele>478.896675</ele>
        <time>2023-03-11T13:55:22.593Z</time>
      </trkpt>
      <trkpt lat="47.05445" lon="7.1725">
        <ele>478.964586</ele>
        <time>2023-03-11T13:55:24.622Z</time>
      </trkpt>
      <trkpt lat="47.05451" lon="7.17262">
        <ele>479.031623</ele>
        <time>2023-03-11T13:55:26.628Z</time>
      </trkpt>
      <trkpt lat="47.05459" lon="7.17274">
        <ele>479.103836</ele>
        <time>2023-03-11T13:55:28.622Z</time>
      </trkpt>
      <trkpt lat="47.05466" lon="7.17286">
        <ele>479.175029</ele>
        <time>2023-03-11T13:55:30.625Z</time>
      </trkpt>
      <trkpt lat="47.05472" lon="7.17297">
        <ele>479.2417</ele>
        <time>2023-03-11T13:55:32.639Z</time>
      </trkpt>
      <trkpt lat="47.05479" lon="7.17309">
        <ele>479.308712</ele>
        <time>2023-03-11T13:55:34.605Z</time>
      </trkpt>
      <trkpt lat="47.05484" lon="7.1732">
        <ele>479.369863</ele>
        <time>2023-03-11T13:55:36.617Z</time>
      </trkpt>
      <trkpt lat="47.05491" lon="7.1733">
        <ele>479.432424</ele>
        <time>2023-03-11T13:55:38.613Z</time>
      </trkpt>
      <trkpt lat="47.05497" lon="7.17341">
        <ele>479.496111</ele>
        <time>2023-03-11T13:55:40.629Z</time>
      </trkpt>
      <trkpt lat="47.05503" lon="7.17352">
        <ele>479.560284</ele>
        <time>2023-03-11T13:55:42.635Z</time>
      </trkpt>
      <trkpt lat="47.05512" lon="7.17367">
        <ele>479.647416</ele>
        <time>2023-03-11T13:55:45.627Z</time>
      </trkpt>
      <trkpt lat="47.05517" lon="7.17378">
        <ele>479.622281</ele>
        <time>2023-03-11T13:55:47.618Z</time>
      </trkpt>
      <trkpt lat="47.05523" lon="7.1739">
        <ele>479.563916</ele>
        <time>2023-03-11T13:55:49.636Z</time>
      </trkpt>
      <trkpt lat="47.05529" lon="7.17403">
        <ele>479.505199</ele>
        <time>2023-03-11T13:55:51.622Z</time>
      </trkpt>
      <trkpt lat="47.05536" lon="7.17414">
        <ele>479.448122</ele>
        <time>2023-03-11T13:55:53.630Z</time>
      </trkpt>
      <trkpt lat="47.05542" lon="7.17425">
        <ele>479.395452</ele>
        <time>2023-03-11T13:55:55.625Z</time>
      </trkpt>
      <trkpt lat="47.05548" lon="7.17436">
        <ele>479.340806</ele>
        <time>2023-03-11T13:55:57.626Z</time>
      </trkpt>
      <trkpt lat="47.05555" lon="7.17449">
        <ele>479.27831</ele>
        <time>2023-03-11T13:55:59.620Z</time>
      </trkpt>
      <trkpt lat="47.05563" lon="7.1746">
        <ele>479.219899</ele>
        <time>2023-03-11T13:56:01.617Z</time>
      </trkpt>
      <trkpt lat="47.0557" lon="7.1747">
        <ele>479.164931</ele>
        <time>2023-03-11T13:56:03.625Z</time>
      </trkpt>
      <trkpt lat="47.05578" lon="7.17482">
        <ele>479.10246</ele>
        <time>2023-03-11T13:56:05.619Z</time>
      </trkpt>
      <trkpt lat="47.05586" lon="7.17494">
        <ele>479.034997</ele>
        <time>2023-03-11T13:56:07.624Z</time>
      </trkpt>
      <trkpt lat="47.05594" lon="7.17505">
        <ele>478.974787</ele>
        <time>2023-03-11T13:56:09.628Z</time>
      </trkpt>
      <trkpt lat="47.05602" lon="7.17515">
        <ele>478.915407</ele>
        <time>2023-03-11T13:56:11.625Z</time>
      </trkpt>
      <trkpt lat="47.05611" lon="7.17523">
        <ele>478.85813</ele>
        <time>2023-03-11T13:56:13.604Z</time>
      </trkpt>
      <trkpt lat="47.05619" lon="7.17533">
        <ele>478.798581</ele>
        <time>2023-03-11T13:56:15.614Z</time>
      </trkpt>
      <trkpt lat="47.05628" lon="7.17541">
        <ele>478.74195</ele>
        <time>2023-03-11T13:56:17.635Z</time>
      </trkpt>
      <trkpt lat="47.05637" lon="7.1755">
        <ele>478.681381</ele>
        <time>2023-03-11T13:56:19.629Z</time>
      </trkpt>
      <trkpt lat="47.05646" lon="7.17558">
        <ele>478.70048</ele>
        <time>2023-03-11T13:56:21.621Z</time>
      </trkpt>
      <trkpt lat="47.05654" lon="7.17566">
        <ele>478.763153</ele>
        <time>2023-03-11T13:56:23.622Z</time>
      </trkpt>
      <trkpt lat="47.05662" lon="7.17575">
        <ele>478.82634</ele>
        <time>2023-03-11T13:56:25.628Z</time>
      </trkpt>
      <trkpt lat="47.05669" lon="7.17583">
        <ele>478.887741</ele>
        <time>2023-03-11T13:56:27.619Z</time>
      </trkpt>
      <trkpt lat="47.05677" lon="7.17593">
        <ele>478.951736</ele>
        <time>2023-03-11T13:56:29.635Z</time>
      </trkpt>
      <trkpt lat="47.05686" lon="7.17602">
        <ele>479.021058</ele>
        <time>2023-03-11T13:56:31.623Z</time>
      </trkpt>
      <trkpt lat="47.05694" lon="7.17611">
        <ele>479.085021</ele>
        <time>2023-03-11T13:56:33.638Z</time>
      </trkpt>
      <trkpt lat="47.05702" lon="7.1762">
        <ele>479.146007</ele>
        <time>2023-03-11T13:56:35.620Z</time>
      </trkpt>
      <trkpt lat="47.05709" lon="7.17629">
        <ele>479.203935</ele>
        <time>2023-03-11T13:56:37.626Z</time>
      </trkpt>
      <trkpt lat="47.05718" lon="7.17641">
        <ele>479.284323</ele>
        <time>2023-03-11T13:56:40.637Z</time>
      </trkpt>
      <trkpt lat="47.05726" lon="7.17653">
        <ele>479.356893</ele>
        <time>2023-03-11T13:56:43.621Z</time>
      </trkpt>
      <trkpt lat="47.05736" lon="7.17664">
        <ele>479.438046</ele>
        <time>2023-03-11T13:56:46.631Z</time>
      </trkpt>
      <trkpt lat="47.05743" lon="7.17673">
        <ele>479.495575</ele>
        <time>2023-03-11T13:56:48.621Z</time>
      </trkpt>
      <trkpt lat="47.0575" lon="7.17683">
        <ele>479.555962</ele>
        <time>2023-03-11T13:56:50.626Z</time>
      </trkpt>
      <trkpt lat="47.05758" lon="7.17692">
        <ele>479.619683</ele>
        <time>2023-03-11T13:56:52.625Z</time>
      </trkpt>
      <trkpt lat="47.05765" lon="7.17702">
        <ele>479.679422</ele>
        <time>2023-03-11T13:56:54.626Z</time>
      </trkpt>
      <trkpt lat="47.05771" lon="7.17712">
        <ele>479.740554</ele>
        <time>2023-03-11T13:56:56.626Z</time>
      </trkpt>
      <trkpt lat="47.05777" lon="7.17724">
        <ele>479.792232</ele>
        <time>2023-03-11T13:56:58.630Z</time>
      </trkpt>
      <trkpt lat="47.05785" lon="7.17734">
        <ele>479.672366</ele>
        <time>2023-03-11T13:57:00.600Z</time>
      </trkpt>
      <trkpt lat="47.05791" lon="7.17745">
        <ele>479.555869</ele>
        <time>2023-03-11T13:57:02.623Z</time>
      </trkpt>
      <trkpt lat="47.05798" lon="7.17754">
        <ele>479.448099</ele>
        <time>2023-03-11T13:57:04.631Z</time>
      </trkpt>
      <trkpt lat="47.05806" lon="7.1776">
        <ele>479.336013</ele>
        <time>2023-03-11T13:57:07.611Z</time>
      </trkpt>
      <trkpt lat="47.05811" lon="7.17743">
        <ele>479.19202</ele>
        <time>2023-03-11T13:57:10.601Z</time>
      </trkpt>
      <trkpt lat="47.0581" lon="7.17729">
        <ele>479.077074</ele>
        <time>2023-03-11T13:57:12.620Z</time>
      </trkpt>
      <trkpt lat="47.0581" lon="7.17715">
        <ele>478.96309</ele>
        <time>2023-03-11T13:57:14.640Z</time>
      </trkpt>
      <trkpt lat="47.0581" lon="7.17699">
        <ele>478.8394</ele>
        <time>2023-03-11T13:57:16.642Z</time>
      </trkpt>
      <trkpt lat="47.05811" lon="7.17685">
        <ele>478.722087</ele>
        <time>2023-03-11T13:57:18.629Z</time>
      </trkpt>
      <trkpt lat="47.0581" lon="7.17671">
        <ele>478.611311</ele>
        <time>2023-03-11T13:57:20.629Z</time>
      </trkpt>
      <trkpt lat="47.0581" lon="7.17653">
        <ele>478.462264</ele>
        <time>2023-03-11T13:57:23.631Z</time>
      </trkpt>
      <trkpt lat="47.05812" lon="7.17639">
        <ele>478.348478</ele>
        <time>2023-03-11T13:57:26.617Z</time>
      </trkpt>
      <trkpt lat="47.05813" lon="7.17624">
        <ele>478.22208</ele>
        <time>2023-03-11T13:57:29.617Z</time>
      </trkpt>
      <trkpt lat="47.05823" lon="7.17614">
        <ele>478.089003</ele>
        <time>2023-03-11T13:57:32.612Z</time>
      </trkpt>
      <trkpt lat="47.05832" lon="7.17619">
        <ele>477.965284</ele>
        <time>2023-03-11T13:57:34.619Z</time>
      </trkpt>
      <trkpt lat="47.05839" lon="7.17631">
        <ele>477.844344</ele>
        <time>2023-03-11T13:57:36.616Z</time>
      </trkpt>
      <trkpt lat="47.05844" lon="7.17642">
        <ele>477.734105</ele>
        <time>2023-03-11T13:57:38.595Z</time>
      </trkpt>
      <trkpt lat="47.0585" lon="7.17653">
        <ele>477.743781</ele>
        <time>2023-03-11T13:57:40.623Z</time>
      </trkpt>
      <trkpt lat="47.05857" lon="7.17663">
        <ele>477.96892</ele>
        <time>2023-03-11T13:57:42.615Z</time>
      </trkpt>
      <trkpt lat="47.05864" lon="7.17674">
        <ele>478.187458</ele>
        <time>2023-03-11T13:57:44.634Z</time>
      </trkpt>
      <trkpt lat="47.0587" lon="7.17686">
        <ele>478.390255</ele>
        <time>2023-03-11T13:57:46.610Z</time>
      </trkpt>
      <trkpt lat="47.05877" lon="7.17693">
        <ele>478.585719</ele>
        <time>2023-03-11T13:57:48.621Z</time>
      </trkpt>
      <trkpt lat="47.05886" lon="7.17689">
        <ele>478.802735</ele>
        <time>2023-03-11T13:57:50.604Z</time>
      </trkpt>
      <trkpt lat="47.05895" lon="7.1768">
        <ele>479.026005</ele>
        <time>2023-03-11T13:57:52.603Z</time>
      </trkpt>
      <trkpt lat="47.05903" lon="7.17672">
        <ele>479.236836</ele>
        <time>2023-03-11T13:57:54.618Z</time>
      </trkpt>
      <trkpt lat="47.05912" lon="7.17666">
        <ele>479.443548</ele>
        <time>2023-03-11T13:57:56.625Z</time>
      </trkpt>
      <trkpt lat="47.0592" lon="7.1766">
        <ele>479.645385</ele>
        <time>2023-03-11T13:57:58.627Z</time>
      </trkpt>
      <trkpt lat="47.05928" lon="7.17652">
        <ele>479.847153</ele>
        <time>2023-03-11T13:58:00.595Z</time>
      </trkpt>
      <trkpt lat="47.05936" lon="7.17647">
        <ele>480.04479</ele>
        <time>2023-03-11T13:58:02.634Z</time>
      </trkpt>
      <trkpt lat="47.05947" lon="7.17639">
        <ele>480.300974</ele>
        <time>2023-03-11T13:58:05.630Z</time>
      </trkpt>
      <trkpt lat="47.05956" lon="7.17635">
        <ele>480.50033</ele>
        <time>2023-03-11T13:58:08.630Z</time>
      </trkpt>
      <trkpt lat="47.05964" lon="7.17628">
        <ele>480.700739</ele>
        <time>2023-03-11T13:58:11.623Z</time>
      </trkpt>
      <trkpt lat="47.05973" lon="7.1762">
        <ele>480.93455</ele>
        <time>2023-03-11T13:58:15.613Z</time>
      </trkpt>
      <trkpt lat="47.05983" lon="7.17621">
        <ele>481.148238</ele>
        <time>2023-03-11T13:58:19.619Z</time>
      </trkpt>
      <trkpt lat="47.0598" lon="7.17633">
        <ele>481.345618</ele>
        <time>2023-03-11T13:58:23.612Z</time>
      </trkpt>
      <trkpt lat="47.05971" lon="7.17643">
        <ele>481.59188</ele>
        <time>2023-03-11T13:58:27.630Z</time>
      </trkpt>
      <trkpt lat="47.05965" lon="7.17655">
        <ele>481.786881</ele>
        <time>2023-03-11T13:58:30.607Z</time>
      </trkpt>
      <trkpt lat="47.05961" lon="7.17668">
        <ele>481.980797</ele>
        <time>2023-03-11T13:58:33.608Z</time>
      </trkpt>
      <trkpt lat="47.05963" lon="7.17682">
        <ele>482.174975</ele>
        <time>2023-03-11T13:58:37.617Z</time>
      </trkpt>
      <trkpt lat="47.05971" lon="7.17704">
        <ele>482.522947</ele>
        <time>2023-03-11T14:03:50.610Z</time>
      </trkpt>
      <trkpt lat="47.05979" lon="7.17711">
        <ele>482.710877</ele>
        <time>2023-03-11T14:03:54.617Z</time>
      </trkpt>
      <trkpt lat="47.05984" lon="7.17722">
        <ele>482.897886</ele>
        <time>2023-03-11T14:03:58.614Z</time>
      </trkpt>
      <trkpt lat="47.05991" lon="7.17732">
        <ele>483.091385</ele>
        <time>2023-03-11T14:04:03.629Z</time>
      </trkpt>
      <trkpt lat="47.05999" lon="7.17742">
        <ele>483.303982</ele>
        <time>2023-03-11T14:04:09.608Z</time>
      </trkpt>
      <trkpt lat="47.06005" lon="7.17753">
        <ele>483.50016</ele>
        <time>2023-03-11T14:04:13.644Z</time>
      </trkpt>
      <trkpt lat="47.06014" lon="7.17761">
        <ele>483.701025</ele>
        <time>2023-03-11T14:04:17.637Z</time>
      </trkpt>
      <trkpt lat="47.06022" lon="7.17773">
        <ele>483.934607</ele>
        <time>2023-03-11T14:04:21.638Z</time>
      </trkpt>
      <trkpt lat="47.06028" lon="7.17783">
        <ele>484.125287</ele>
        <time>2023-03-11T14:04:25.623Z</time>
      </trkpt>
      <trkpt lat="47.06036" lon="7.17794">
        <ele>484.348691</ele>
        <time>2023-03-11T14:04:29.615Z</time>
      </trkpt>
      <trkpt lat="47.06042" lon="7.17805">
        <ele>484.535957</ele>
        <time>2023-03-11T14:04:32.634Z</time>
      </trkpt>
      <trkpt lat="47.06044" lon="7.17819">
        <ele>484.739368</ele>
        <time>2023-03-11T14:04:36.616Z</time>
      </trkpt>
      <trkpt lat="47.06036" lon="7.17829">
        <ele>484.951549</ele>
        <time>2023-03-11T14:04:40.621Z</time>
      </trkpt>
      <trkpt lat="47.06027" lon="7.17829">
        <ele>485.150112</ele>
        <time>2023-03-11T14:04:44.615Z</time>
      </trkpt>
      <trkpt lat="47.06017" lon="7.17828">
        <ele>485.448556</ele>
        <time>2023-03-11T14:04:54.612Z</time>
      </trkpt>
      <trkpt lat="47.05994" lon="7.17844">
        <ele>486.320806</ele>
        <time>2023-03-11T14:05:23.625Z</time>
      </trkpt>
      <trkpt lat="47.05985" lon="7.17851">
        <ele>486.658053</ele>
        <time>2023-03-11T14:05:26.644Z</time>
      </trkpt>
      <trkpt lat="47.05975" lon="7.17859">
        <ele>487.037785</ele>
        <time>2023-03-11T14:05:30.646Z</time>
      </trkpt>
      <trkpt lat="47.05969" lon="7.17869">
        <ele>487.354318</ele>
        <time>2023-03-11T14:05:33.624Z</time>
      </trkpt>
      <trkpt lat="47.0596" lon="7.1788">
        <ele>487.753255</ele>
        <time>2023-03-11T14:05:37.622Z</time>
      </trkpt>
      <trkpt lat="47.05953" lon="7.17889">
        <ele>488.06103</ele>
        <time>2023-03-11T14:05:40.632Z</time>
      </trkpt>
      <trkpt lat="47.05946" lon="7.17899">
        <ele>488.36548</ele>
        <time>2023-03-11T14:05:43.635Z</time>
      </trkpt>
      <trkpt lat="47.0594" lon="7.17908">
        <ele>488.684393</ele>
        <time>2023-03-11T14:05:46.645Z</time>
      </trkpt>
      <trkpt lat="47.05933" lon="7.17918">
        <ele>488.997765</ele>
        <time>2023-03-11T14:05:49.641Z</time>
      </trkpt>
      <trkpt lat="47.05925" lon="7.17931">
        <ele>489.398464</ele>
        <time>2023-03-11T14:05:53.647Z</time>
      </trkpt>
      <trkpt lat="47.05929" lon="7.17945">
        <ele>489.753544</ele>
        <time>2023-03-11T14:05:59.625Z</time>
      </trkpt>
      <trkpt lat="47.05938" lon="7.17949">
        <ele>490.081622</ele>
        <time>2023-03-11T14:06:04.623Z</time>
      </trkpt>
      <trkpt lat="47.0595" lon="7.17947">
        <ele>490.47469</ele>
        <time>2023-03-11T14:06:09.637Z</time>
      </trkpt>
      <trkpt lat="47.05961" lon="7.17949">
        <ele>490.853506</ele>
        <time>2023-03-11T14:06:13.631Z</time>
      </trkpt>
      <trkpt lat="47.05971" lon="7.17952">
        <ele>491.1986</ele>
        <time>2023-03-11T14:06:17.629Z</time>
      </trkpt>
      <trkpt lat="47.0598" lon="7.17956">
        <ele>491.029817</ele>
        <time>2023-03-11T14:06:21.623Z</time>
      </trkpt>
      <trkpt lat="47.05993" lon="7.17952">
        <ele>490.687535</ele>
        <time>2023-03-11T14:06:25.622Z</time>
      </trkpt>
      <trkpt lat="47.06002" lon="7.17952">
        <ele>490.420028</ele>
        <time>2023-03-11T14:06:27.640Z</time>
      </trkpt>
      <trkpt lat="47.06013" lon="7.17956">
        <ele>490.127788</ele>
        <time>2023-03-11T14:06:29.626Z</time>
      </trkpt>
      <trkpt lat="47.06024" lon="7.17957">
        <ele>489.812868</ele>
        <time>2023-03-11T14:06:31.623Z</time>
      </trkpt>
      <trkpt lat="47.06036" lon="7.17958">
        <ele>489.503923</ele>
        <time>2023-03-11T14:06:33.641Z</time>
      </trkpt>
      <trkpt lat="47.06048" lon="7.1796">
        <ele>489.15572</ele>
        <time>2023-03-11T14:06:36.639Z</time>
      </trkpt>
      <trkpt lat="47.06059" lon="7.17962">
        <ele>488.859291</ele>
        <time>2023-03-11T14:06:38.627Z</time>
      </trkpt>
      <trkpt lat="47.06063" lon="7.1798">
        <ele>488.498523</ele>
        <time>2023-03-11T14:06:41.604Z</time>
      </trkpt>
      <trkpt lat="47.06056" lon="7.17993">
        <ele>488.184995</ele>
        <time>2023-03-11T14:06:43.617Z</time>
      </trkpt>
      <trkpt lat="47.06052" lon="7.18007">
        <ele>487.91238</ele>
        <time>2023-03-11T14:06:45.631Z</time>
      </trkpt>
      <trkpt lat="47.06053" lon="7.18025">
        <ele>487.573626</ele>
        <time>2023-03-11T14:06:48.624Z</time>
      </trkpt>
      <trkpt lat="47.06054" lon="7.18044">
        <ele>487.205944</ele>
        <time>2023-03-11T14:06:51.644Z</time>
      </trkpt>
      <trkpt lat="47.06056" lon="7.18058">
        <ele>486.958518</ele>
        <time>2023-03-11T14:06:53.629Z</time>
      </trkpt>
      <trkpt lat="47.0606" lon="7.18076">
        <ele>486.607196</ele>
        <time>2023-03-11T14:06:56.616Z</time>
      </trkpt>
      <trkpt lat="47.06064" lon="7.18088">
        <ele>486.354725</ele>
        <time>2023-03-11T14:06:58.617Z</time>
      </trkpt>
      <trkpt lat="47.06069" lon="7.18099">
        <ele>485.893875</ele>
        <time>2023-03-11T14:07:00.639Z</time>
      </trkpt>
      <trkpt lat="47.06075" lon="7.1811">
        <ele>485.375356</ele>
        <time>2023-03-11T14:07:04.631Z</time>
      </trkpt>
      <trkpt lat="47.06082" lon="7.18121">
        <ele>484.84164</ele>
        <time>2023-03-11T14:07:07.619Z</time>
      </trkpt>
      <trkpt lat="47.06091" lon="7.18137">
        <ele>484.128493</ele>
        <time>2023-03-11T14:07:09.654Z</time>
      </trkpt>
      <trkpt lat="47.06102" lon="7.18153">
        <ele>483.332548</ele>
        <time>2023-03-11T14:07:11.646Z</time>
      </trkpt>
      <trkpt lat="47.06112" lon="7.18165">
        <ele>482.643304</ele>
        <time>2023-03-11T14:07:13.615Z</time>
      </trkpt>
      <trkpt lat="47.06124" lon="7.18174">
        <ele>481.955294</ele>
        <time>2023-03-11T14:07:15.617Z</time>
      </trkpt>
      <trkpt lat="47.06136" lon="7.18186">
        <ele>481.220039</ele>
        <time>2023-03-11T14:07:17.634Z</time>
      </trkpt>
      <trkpt lat="47.06146" lon="7.18194">
        <ele>480.606901</ele>
        <time>2023-03-11T14:07:19.634Z</time>
      </trkpt>
      <trkpt lat="47.06157" lon="7.18201">
        <ele>479.991755</ele>
        <time>2023-03-11T14:07:21.618Z</time>
      </trkpt>
      <trkpt lat="47.06168" lon="7.18208">
        <ele>479.359013</ele>
        <time>2023-03-11T14:07:23.628Z</time>
      </trkpt>
      <trkpt lat="47.06179" lon="7.18217">
        <ele>478.736755</ele>
        <time>2023-03-11T14:07:25.647Z</time>
      </trkpt>
      <trkpt lat="47.06189" lon="7.18225">
        <ele>478.15022</ele>
        <time>2023-03-11T14:07:27.642Z</time>
      </trkpt>
      <trkpt lat="47.06199" lon="7.18232">
        <ele>477.549955</ele>
        <time>2023-03-11T14:07:29.645Z</time>
      </trkpt>
      <trkpt lat="47.06209" lon="7.18241">
        <ele>477.035268</ele>
        <time>2023-03-11T14:07:31.623Z</time>
      </trkpt>
      <trkpt lat="47.06219" lon="7.18249">
        <ele>477.110301</ele>
        <time>2023-03-11T14:07:33.633Z</time>
      </trkpt>
      <trkpt lat="47.06229" lon="7.18256">
        <ele>477.184048</ele>
        <time>2023-03-11T14:07:35.629Z</time>
      </trkpt>
      <trkpt lat="47.06239" lon="7.18263">
        <ele>477.25662</ele>
        <time>2023-03-11T14:07:37.636Z</time>
      </trkpt>
      <trkpt lat="47.06248" lon="7.18271">
        <ele>477.326666</ele>
        <time>2023-03-11T14:07:39.636Z</time>
      </trkpt>
      <trkpt lat="47.06259" lon="7.1828">
        <ele>477.407889</ele>
        <time>2023-03-11T14:07:42.646Z</time>
      </trkpt>
      <trkpt lat="47.06268" lon="7.18287">
        <ele>477.472526</ele>
        <time>2023-03-11T14:07:45.633Z</time>
      </trkpt>
      <trkpt lat="47.06277" lon="7.18293">
        <ele>477.539027</ele>
        <time>2023-03-11T14:07:48.618Z</time>
      </trkpt>
      <trkpt lat="47.06284" lon="7.18303">
        <ele>477.600383</ele>
        <time>2023-03-11T14:07:50.622Z</time>
      </trkpt>
      <trkpt lat="47.06284" lon="7.1832">
        <ele>477.673708</ele>
        <time>2023-03-11T14:07:52.624Z</time>
      </trkpt>
      <trkpt lat="47.06277" lon="7.18334">
        <ele>477.751905</ele>
        <time>2023-03-11T14:07:54.617Z</time>
      </trkpt>
      <trkpt lat="47.06268" lon="7.18344">
        <ele>477.829833</ele>
        <time>2023-03-11T14:07:56.639Z</time>
      </trkpt>
      <trkpt lat="47.06259" lon="7.18354">
        <ele>477.902972</ele>
        <time>2023-03-11T14:07:58.639Z</time>
      </trkpt>
      <trkpt lat="47.06252" lon="7.18365">
        <ele>477.971022</ele>
        <time>2023-03-11T14:08:00.619Z</time>
      </trkpt>
      <trkpt lat="47.06244" lon="7.18374">
        <ele>478.03414</ele>
        <time>2023-03-11T14:08:02.638Z</time>
      </trkpt>
      <trkpt lat="47.06239" lon="7.18387">
        <ele>478.100528</ele>
        <time>2023-03-11T14:08:04.625Z</time>
      </trkpt>
      <trkpt lat="47.06239" lon="7.184">
        <ele>478.160783</ele>
        <time>2023-03-11T14:08:06.620Z</time>
      </trkpt>
      <trkpt lat="47.06245" lon="7.18412">
        <ele>478.227742</ele>
        <time>2023-03-11T14:08:08.613Z</time>
      </trkpt>
      <trkpt lat="47.06253" lon="7.1842">
        <ele>478.290184</ele>
        <time>2023-03-11T14:08:10.617Z</time>
      </trkpt>
      <trkpt lat="47.06262" lon="7.18429">
        <ele>478.359211</ele>
        <time>2023-03-11T14:08:12.616Z</time>
      </trkpt>
      <trkpt lat="47.06271" lon="7.18439">
        <ele>478.432945</ele>
        <time>2023-03-11T14:08:14.643Z</time>
      </trkpt>
      <trkpt lat="47.06279" lon="7.18449">
        <ele>478.503087</ele>
        <time>2023-03-11T14:08:16.661Z</time>
      </trkpt>
      <trkpt lat="47.06286" lon="7.18458">
        <ele>478.566934</ele>
        <time>2023-03-11T14:08:18.638Z</time>
      </trkpt>
      <trkpt lat="47.06294" lon="7.18468">
        <ele>478.630957</ele>
        <time>2023-03-11T14:08:20.643Z</time>
      </trkpt>
      <trkpt lat="47.06303" lon="7.18481">
        <ele>478.71724</ele>
        <time>2023-03-11T14:08:23.633Z</time>
      </trkpt>
      <trkpt lat="47.06311" lon="7.18489">
        <ele>478.776253</ele>
        <time>2023-03-11T14:08:25.638Z</time>
      </trkpt>
      <trkpt lat="47.06318" lon="7.18497">
        <ele>478.834973</ele>
        <time>2023-03-11T14:08:27.645Z</time>
      </trkpt>
      <trkpt lat="47.06326" lon="7.18506">
        <ele>478.902157</ele>
        <time>2023-03-11T14:08:29.635Z</time>
      </trkpt>
      <trkpt lat="47.06335" lon="7.18516">
        <ele>478.976432</ele>
        <time>2023-03-11T14:08:31.639Z</time>
      </trkpt>
      <trkpt lat="47.06343" lon="7.18525">
        <ele>479.039864</ele>
        <time>2023-03-11T14:08:33.627Z</time>
      </trkpt>
      <trkpt lat="47.06349" lon="7.18535">
        <ele>479.101963</ele>
        <time>2023-03-11T14:08:35.646Z</time>
      </trkpt>
      <trkpt lat="47.06356" lon="7.18545">
        <ele>479.165016</ele>
        <time>2023-03-11T14:08:37.636Z</time>
      </trkpt>
      <trkpt lat="47.06362" lon="7.18556">
        <ele>479.225928</ele>
        <time>2023-03-11T14:08:39.619Z</time>
      </trkpt>
      <trkpt lat="47.06368" lon="7.18567">
        <ele>479.291157</ele>
        <time>2023-03-11T14:08:41.631Z</time>
      </trkpt>
      <trkpt lat="47.06375" lon="7.18579">
        <ele>479.361797</ele>
        <time>2023-03-11T14:08:43.650Z</time>
      </trkpt>
      <trkpt lat="47.06382" lon="7.18592">
        <ele>479.33995</ele>
        <time>2023-03-11T14:08:45.642Z</time>
      </trkpt>
      <trkpt lat="47.0639" lon="7.18605">
        <ele>479.288374</ele>
        <time>2023-03-11T14:08:47.647Z</time>
      </trkpt>
      <trkpt lat="47.06397" lon="7.18618">
        <ele>479.238581</ele>
        <time>2023-03-11T14:08:49.639Z</time>
      </trkpt>
      <trkpt lat="47.06404" lon="7.18629">
        <ele>479.191202</ele>
        <time>2023-03-11T14:08:51.642Z</time>
      </trkpt>
      <trkpt lat="47.06413" lon="7.18641">
        <ele>479.137715</ele>
        <time>2023-03-11T14:08:53.628Z</time>
      </trkpt>
      <trkpt lat="47.06422" lon="7.18653">
        <ele>479.084895</ele>
        <time>2023-03-11T14:08:55.644Z</time>
      </trkpt>
      <trkpt lat="47.0643" lon="7.18662">
        <ele>479.037543</ele>
        <time>2023-03-11T14:08:57.639Z</time>
      </trkpt>
      <trkpt lat="47.06438" lon="7.18671">
        <ele>478.995284</ele>
        <time>2023-03-11T14:08:59.643Z</time>
      </trkpt>
      <trkpt lat="47.06446" lon="7.18681">
        <ele>478.94729</ele>
        <time>2023-03-11T14:09:01.633Z</time>
      </trkpt>
      <trkpt lat="47.06455" lon="7.18691">
        <ele>478.897852</ele>
        <time>2023-03-11T14:09:03.653Z</time>
      </trkpt>
      <trkpt lat="47.06462" lon="7.187">
        <ele>478.852688</ele>
        <time>2023-03-11T14:09:05.634Z</time>
      </trkpt>
      <trkpt lat="47.0647" lon="7.1871">
        <ele>478.808308</ele>
        <time>2023-03-11T14:09:07.654Z</time>
      </trkpt>
      <trkpt lat="47.06477" lon="7.18721">
        <ele>478.762614</ele>
        <time>2023-03-11T14:09:09.619Z</time>
      </trkpt>
      <trkpt lat="47.06485" lon="7.18731">
        <ele>478.715017</ele>
        <time>2023-03-11T14:09:11.623Z</time>
      </trkpt>
      <trkpt lat="47.06494" lon="7.1874">
        <ele>478.668992</ele>
        <time>2023-03-11T14:09:13.631Z</time>
      </trkpt>
      <trkpt lat="47.06502" lon="7.18749">
        <ele>478.621528</ele>
        <time>2023-03-11T14:09:15.648Z</time>
      </trkpt>
      <trkpt lat="47.06511" lon="7.18757">
        <ele>478.576377</ele>
        <time>2023-03-11T14:09:17.613Z</time>
      </trkpt>
      <trkpt lat="47.06519" lon="7.18765">
        <ele>478.57129</ele>
        <time>2023-03-11T14:09:19.638Z</time>
      </trkpt>
      <trkpt lat="47.06528" lon="7.18771">
        <ele>478.566415</ele>
        <time>2023-03-11T14:09:21.644Z</time>
      </trkpt>
      <trkpt lat="47.06536" lon="7.18779">
        <ele>478.561682</ele>
        <time>2023-03-11T14:09:23.627Z</time>
      </trkpt>
      <trkpt lat="47.06543" lon="7.18788">
        <ele>478.556811</ele>
        <time>2023-03-11T14:09:25.639Z</time>
      </trkpt>
      <trkpt lat="47.0655" lon="7.18797">
        <ele>478.551744</ele>
        <time>2023-03-11T14:09:27.636Z</time>
      </trkpt>
      <trkpt lat="47.06557" lon="7.18808">
        <ele>478.546828</ele>
        <time>2023-03-11T14:09:29.621Z</time>
      </trkpt>
      <trkpt lat="47.06563" lon="7.18819">
        <ele>478.541779</ele>
        <time>2023-03-11T14:09:31.642Z</time>
      </trkpt>
      <trkpt lat="47.06569" lon="7.1883">
        <ele>478.536888</ele>
        <time>2023-03-11T14:09:33.648Z</time>
      </trkpt>
      <trkpt lat="47.06575" lon="7.1884">
        <ele>478.532273</ele>
        <time>2023-03-11T14:09:35.648Z</time>
      </trkpt>
      <trkpt lat="47.06584" lon="7.18853">
        <ele>478.525805</ele>
        <time>2023-03-11T14:09:38.637Z</time>
      </trkpt>
      <trkpt lat="47.06591" lon="7.18862">
        <ele>478.5211</ele>
        <time>2023-03-11T14:09:40.642Z</time>
      </trkpt>
      <trkpt lat="47.06599" lon="7.1887">
        <ele>478.516348</ele>
        <time>2023-03-11T14:09:42.625Z</time>
      </trkpt>
      <trkpt lat="47.0661" lon="7.18881">
        <ele>478.509233</ele>
        <time>2023-03-11T14:09:45.615Z</time>
      </trkpt>
      <trkpt lat="47.06618" lon="7.18888">
        <ele>478.504542</ele>
        <time>2023-03-11T14:09:47.649Z</time>
      </trkpt>
      <trkpt lat="47.0663" lon="7.18898">
        <ele>478.49764</ele>
        <time>2023-03-11T14:09:50.653Z</time>
      </trkpt>
      <trkpt lat="47.06638" lon="7.18904">
        <ele>478.492887</ele>
        <time>2023-03-11T14:09:52.645Z</time>
      </trkpt>
      <trkpt lat="47.06647" lon="7.1891">
        <ele>478.487769</ele>
        <time>2023-03-11T14:09:54.620Z</time>
      </trkpt>
      <trkpt lat="47.06657" lon="7.18918">
        <ele>478.485943</ele>
        <time>2023-03-11T14:09:56.637Z</time>
      </trkpt>
      <trkpt lat="47.06666" lon="7.18923">
        <ele>478.488557</ele>
        <time>2023-03-11T14:09:58.638Z</time>
      </trkpt>
      <trkpt lat="47.06675" lon="7.1893">
        <ele>478.491081</ele>
        <time>2023-03-11T14:10:00.657Z</time>
      </trkpt>
      <trkpt lat="47.06684" lon="7.18934">
        <ele>478.493684</ele>
        <time>2023-03-11T14:10:02.640Z</time>
      </trkpt>
      <trkpt lat="47.06694" lon="7.18939">
        <ele>478.496294</ele>
        <time>2023-03-11T14:10:04.653Z</time>
      </trkpt>
      <trkpt lat="47.06704" lon="7.18945">
        <ele>478.499094</ele>
        <time>2023-03-11T14:10:06.639Z</time>
      </trkpt>
      <trkpt lat="47.06713" lon="7.1895">
        <ele>478.501771</ele>
        <time>2023-03-11T14:10:08.624Z</time>
      </trkpt>
      <trkpt lat="47.06723" lon="7.18955">
        <ele>478.504528</ele>
        <time>2023-03-11T14:10:10.640Z</time>
      </trkpt>
      <trkpt lat="47.06732" lon="7.1896">
        <ele>478.506891</ele>
        <time>2023-03-11T14:10:12.642Z</time>
      </trkpt>
      <trkpt lat="47.0674" lon="7.18965">
        <ele>478.509316</ele>
        <time>2023-03-11T14:10:14.650Z</time>
      </trkpt>
      <trkpt lat="47.06754" lon="7.1897">
        <ele>478.512895</ele>
        <time>2023-03-11T14:10:17.622Z</time>
      </trkpt>
      <trkpt lat="47.06763" lon="7.18973">
        <ele>478.515534</ele>
        <time>2023-03-11T14:10:19.641Z</time>
      </trkpt>
      <trkpt lat="47.06773" lon="7.18976">
        <ele>478.518198</ele>
        <time>2023-03-11T14:10:21.636Z</time>
      </trkpt>
      <trkpt lat="47.06784" lon="7.1898">
        <ele>478.521046</ele>
        <time>2023-03-11T14:10:23.643Z</time>
      </trkpt>
      <trkpt lat="47.06795" lon="7.18985">
        <ele>478.523936</ele>
        <time>2023-03-11T14:10:25.643Z</time>
      </trkpt>
      <trkpt lat="47.06804" lon="7.1899">
        <ele>478.526601</ele>
        <time>2023-03-11T14:10:27.640Z</time>
      </trkpt>
      <trkpt lat="47.06814" lon="7.18996">
        <ele>478.529322</ele>
        <time>2023-03-11T14:10:29.598Z</time>
      </trkpt>
      <trkpt lat="47.06822" lon="7.19004">
        <ele>478.529839</ele>
        <time>2023-03-11T14:10:31.620Z</time>
      </trkpt>
      <trkpt lat="47.0683" lon="7.19014">
        <ele>478.506481</ele>
        <time>2023-03-11T14:10:33.617Z</time>
      </trkpt>
      <trkpt lat="47.06839" lon="7.19028">
        <ele>478.475629</ele>
        <time>2023-03-11T14:10:36.640Z</time>
      </trkpt>
      <trkpt lat="47.06847" lon="7.19038">
        <ele>478.452576</ele>
        <time>2023-03-11T14:10:38.642Z</time>
      </trkpt>
      <trkpt lat="47.06856" lon="7.19046">
        <ele>478.426938</ele>
        <time>2023-03-11T14:10:40.624Z</time>
      </trkpt>
      <trkpt lat="47.06866" lon="7.19058">
        <ele>478.398568</ele>
        <time>2023-03-11T14:10:42.632Z</time>
      </trkpt>
      <trkpt lat="47.06875" lon="7.19068">
        <ele>478.37242</ele>
        <time>2023-03-11T14:10:44.645Z</time>
      </trkpt>
      <trkpt lat="47.06883" lon="7.19075">
        <ele>478.349804</ele>
        <time>2023-03-11T14:10:46.620Z</time>
      </trkpt>
      <trkpt lat="47.06892" lon="7.19083">
        <ele>478.327493</ele>
        <time>2023-03-11T14:10:48.639Z</time>
      </trkpt>
      <trkpt lat="47.069" lon="7.19091">
        <ele>478.30385</ele>
        <time>2023-03-11T14:10:50.644Z</time>
      </trkpt>
      <trkpt lat="47.0691" lon="7.19098">
        <ele>478.279824</ele>
        <time>2023-03-11T14:10:52.650Z</time>
      </trkpt>
      <trkpt lat="47.06919" lon="7.19106">
        <ele>478.256181</ele>
        <time>2023-03-11T14:10:54.648Z</time>
      </trkpt>
      <trkpt lat="47.06927" lon="7.19114">
        <ele>478.232418</ele>
        <time>2023-03-11T14:10:56.642Z</time>
      </trkpt>
      <trkpt lat="47.06936" lon="7.1912">
        <ele>478.210733</ele>
        <time>2023-03-11T14:10:58.617Z</time>
      </trkpt>
      <trkpt lat="47.06944" lon="7.19125">
        <ele>478.189531</ele>
        <time>2023-03-11T14:11:00.639Z</time>
      </trkpt>
      <trkpt lat="47.06953" lon="7.19131">
        <ele>478.168271</ele>
        <time>2023-03-11T14:11:02.638Z</time>
      </trkpt>
      <trkpt lat="47.06962" lon="7.19136">
        <ele>478.146621</ele>
        <time>2023-03-11T14:11:04.644Z</time>
      </trkpt>
      <trkpt lat="47.0697" lon="7.19141">
        <ele>478.124723</ele>
        <time>2023-03-11T14:11:06.641Z</time>
      </trkpt>
      <trkpt lat="47.06979" lon="7.19146">
        <ele>478.112303</ele>
        <time>2023-03-11T14:11:08.628Z</time>
      </trkpt>
      <trkpt lat="47.06991" lon="7.1915">
        <ele>478.100596</ele>
        <time>2023-03-11T14:11:11.622Z</time>
      </trkpt>
      <trkpt lat="47.07" lon="7.19158">
        <ele>478.089497</ele>
        <time>2023-03-11T14:11:15.620Z</time>
      </trkpt>
      <trkpt lat="47.07025" lon="7.19165">
        <ele>478.06439</ele>
        <time>2023-03-11T14:11:39.623Z</time>
      </trkpt>
      <trkpt lat="47.07035" lon="7.19172">
        <ele>478.052635</ele>
        <time>2023-03-11T14:11:42.644Z</time>
      </trkpt>
      <trkpt lat="47.07046" lon="7.1918">
        <ele>478.040731</ele>
        <time>2023-03-11T14:11:45.655Z</time>
      </trkpt>
      <trkpt lat="47.07056" lon="7.19188">
        <ele>478.029061</ele>
        <time>2023-03-11T14:11:48.648Z</time>
      </trkpt>
      <trkpt lat="47.07066" lon="7.19198">
        <ele>478.016914</ele>
        <time>2023-03-11T14:11:51.638Z</time>
      </trkpt>
      <trkpt lat="47.07076" lon="7.19208">
        <ele>478.005009</ele>
        <time>2023-03-11T14:11:54.645Z</time>
      </trkpt>
      <trkpt lat="47.07084" lon="7.19214">
        <ele>477.995901</ele>
        <time>2023-03-11T14:11:56.624Z</time>
      </trkpt>
      <trkpt lat="47.07092" lon="7.19221">
        <ele>477.986601</ele>
        <time>2023-03-11T14:11:58.648Z</time>
      </trkpt>
      <trkpt lat="47.07101" lon="7.19227">
        <ele>477.976549</ele>
        <time>2023-03-11T14:12:00.651Z</time>
      </trkpt>
      <trkpt lat="47.0711" lon="7.19232">
        <ele>477.966864</ele>
        <time>2023-03-11T14:12:02.636Z</time>
      </trkpt>
      <trkpt lat="47.07119" lon="7.19237">
        <ele>477.957103</ele>
        <time>2023-03-11T14:12:04.651Z</time>
      </trkpt>
      <trkpt lat="47.07129" lon="7.19243">
        <ele>477.946853</ele>
        <time>2023-03-11T14:12:06.648Z</time>
      </trkpt>
      <trkpt lat="47.07138" lon="7.19248">
        <ele>477.935234</ele>
        <time>2023-03-11T14:12:08.638Z</time>
      </trkpt>
      <trkpt lat="47.07147" lon="7.19253">
        <ele>477.916269</ele>
        <time>2023-03-11T14:12:10.653Z</time>
      </trkpt>
      <trkpt lat="47.07156" lon="7.19258">
        <ele>477.898346</ele>
        <time>2023-03-11T14:12:12.638Z</time>
      </trkpt>
      <trkpt lat="47.07165" lon="7.19262">
        <ele>477.880282</ele>
        <time>2023-03-11T14:12:14.653Z</time>
      </trkpt>
      <trkpt lat="47.07174" lon="7.19265">
        <ele>477.863248</ele>
        <time>2023-03-11T14:12:16.648Z</time>
      </trkpt>
      <trkpt lat="47.07184" lon="7.19268">
        <ele>477.844385</ele>
        <time>2023-03-11T14:12:18.650Z</time>
      </trkpt>
      <trkpt lat="47.07194" lon="7.19272">
        <ele>477.824266</ele>
        <time>2023-03-11T14:12:20.665Z</time>
      </trkpt>
      <trkpt lat="47.07205" lon="7.19277">
        <ele>477.804181</ele>
        <time>2023-03-11T14:12:22.647Z</time>
      </trkpt>
      <trkpt lat="47.07214" lon="7.19281">
        <ele>477.785682</ele>
        <time>2023-03-11T14:12:24.642Z</time>
      </trkpt>
      <trkpt lat="47.07223" lon="7.19285">
        <ele>477.767617</ele>
        <time>2023-03-11T14:12:26.654Z</time>
      </trkpt>
      <trkpt lat="47.07232" lon="7.19288">
        <ele>477.749823</ele>
        <time>2023-03-11T14:12:28.660Z</time>
      </trkpt>
      <trkpt lat="47.07242" lon="7.19291">
        <ele>477.731382</ele>
        <time>2023-03-11T14:12:30.662Z</time>
      </trkpt>
      <trkpt lat="47.07252" lon="7.19295">
        <ele>477.711364</ele>
        <time>2023-03-11T14:12:32.656Z</time>
      </trkpt>
      <trkpt lat="47.07263" lon="7.19299">
        <ele>477.69174</ele>
        <time>2023-03-11T14:12:34.658Z</time>
      </trkpt>
      <trkpt lat="47.07273" lon="7.19301">
        <ele>477.672451</ele>
        <time>2023-03-11T14:12:36.655Z</time>
      </trkpt>
      <trkpt lat="47.07283" lon="7.19304">
        <ele>477.653274</ele>
        <time>2023-03-11T14:12:38.638Z</time>
      </trkpt>
      <trkpt lat="47.07295" lon="7.19308">
        <ele>477.62973</ele>
        <time>2023-03-11T14:12:41.644Z</time>
      </trkpt>
      <trkpt lat="47.07306" lon="7.19311">
        <ele>477.608524</ele>
        <time>2023-03-11T14:12:44.618Z</time>
      </trkpt>
      <trkpt lat="47.07315" lon="7.19315">
        <ele>477.578656</ele>
        <time>2023-03-11T14:12:47.639Z</time>
      </trkpt>
      <trkpt lat="47.07331" lon="7.19322">
        <ele>477.499942</ele>
        <time>2023-03-11T14:14:29.633Z</time>
      </trkpt>
      <trkpt lat="47.07343" lon="7.19326">
        <ele>477.448141</ele>
        <time>2023-03-11T14:14:33.649Z</time>
      </trkpt>
      <trkpt lat="47.07354" lon="7.19334">
        <ele>477.393967</ele>
        <time>2023-03-11T14:14:36.652Z</time>
      </trkpt>
      <trkpt lat="47.07363" lon="7.19341">
        <ele>477.344512</ele>
        <time>2023-03-11T14:14:39.636Z</time>
      </trkpt>
      <trkpt lat="47.07374" lon="7.19349">
        <ele>477.292362</ele>
        <time>2023-03-11T14:14:42.653Z</time>
      </trkpt>
      <trkpt lat="47.07384" lon="7.19355">
        <ele>477.243071</ele>
        <time>2023-03-11T14:14:45.630Z</time>
      </trkpt>
      <trkpt lat="47.07396" lon="7.19363">
        <ele>477.182875</ele>
        <time>2023-03-11T14:14:48.658Z</time>
      </trkpt>
      <trkpt lat="47.07408" lon="7.19372">
        <ele>477.125635</ele>
        <time>2023-03-11T14:14:51.644Z</time>
      </trkpt>
      <trkpt lat="47.07419" lon="7.1938">
        <ele>477.067454</ele>
        <time>2023-03-11T14:14:54.655Z</time>
      </trkpt>
      <trkpt lat="47.07427" lon="7.19386">
        <ele>477.026333</ele>
        <time>2023-03-11T14:14:56.650Z</time>
      </trkpt>
      <trkpt lat="47.07436" lon="7.19391">
        <ele>476.985181</ele>
        <time>2023-03-11T14:14:58.652Z</time>
      </trkpt>
      <trkpt lat="47.07447" lon="7.19399">
        <ele>476.927536</ele>
        <time>2023-03-11T14:15:01.640Z</time>
      </trkpt>
      <trkpt lat="47.0746" lon="7.19407">
        <ele>476.868829</ele>
        <time>2023-03-11T14:15:04.652Z</time>
      </trkpt>
      <trkpt lat="47.07472" lon="7.19415">
        <ele>476.808894</ele>
        <time>2023-03-11T14:15:07.660Z</time>
      </trkpt>
      <trkpt lat="47.07483" lon="7.19424">
        <ele>476.809273</ele>
        <time>2023-03-11T14:15:10.650Z</time>
      </trkpt>
      <trkpt lat="47.07492" lon="7.19428">
        <ele>476.823446</ele>
        <time>2023-03-11T14:15:12.628Z</time>
      </trkpt>
      <trkpt lat="47.07504" lon="7.1942">
        <ele>476.844432</ele>
        <time>2023-03-11T14:15:15.645Z</time>
      </trkpt>
      <trkpt lat="47.07509" lon="7.19405">
        <ele>476.862452</ele>
        <time>2023-03-11T14:15:17.639Z</time>
      </trkpt>
      <trkpt lat="47.07512" lon="7.1939">
        <ele>476.878584</ele>
        <time>2023-03-11T14:15:19.645Z</time>
      </trkpt>
      <trkpt lat="47.07517" lon="7.19376">
        <ele>476.895043</ele>
        <time>2023-03-11T14:15:21.614Z</time>
      </trkpt>
      <trkpt lat="47.07524" lon="7.19366">
        <ele>476.9114</ele>
        <time>2023-03-11T14:15:23.628Z</time>
      </trkpt>
      <trkpt lat="47.07534" lon="7.19359">
        <ele>476.927778</ele>
        <time>2023-03-11T14:15:25.634Z</time>
      </trkpt>
      <trkpt lat="47.07544" lon="7.19359">
        <ele>476.944241</ele>
        <time>2023-03-11T14:15:27.640Z</time>
      </trkpt>
      <trkpt lat="47.07553" lon="7.19367">
        <ele>476.960787</ele>
        <time>2023-03-11T14:15:29.626Z</time>
      </trkpt>
      <trkpt lat="47.07561" lon="7.19378">
        <ele>476.977926</ele>
        <time>2023-03-11T14:15:31.615Z</time>
      </trkpt>
      <trkpt lat="47.07569" lon="7.19389">
        <ele>476.994888</ele>
        <time>2023-03-11T14:15:33.651Z</time>
      </trkpt>
      <trkpt lat="47.07577" lon="7.19398">
        <ele>477.010948</ele>
        <time>2023-03-11T14:15:35.660Z</time>
      </trkpt>
      <trkpt lat="47.07585" lon="7.19407">
        <ele>477.026999</ele>
        <time>2023-03-11T14:15:37.639Z</time>
      </trkpt>
      <trkpt lat="47.07596" lon="7.1942">
        <ele>477.048233</ele>
        <time>2023-03-11T14:15:40.653Z</time>
      </trkpt>
      <trkpt lat="47.07606" lon="7.1943">
        <ele>477.068844</ele>
        <time>2023-03-11T14:15:43.642Z</time>
      </trkpt>
      <trkpt lat="47.07614" lon="7.19438">
        <ele>477.073242</ele>
        <time>2023-03-11T14:15:45.663Z</time>
      </trkpt>
      <trkpt lat="47.07622" lon="7.19446">
        <ele>477.068785</ele>
        <time>2023-03-11T14:15:47.655Z</time>
      </trkpt>
      <trkpt lat="47.0763" lon="7.19454">
        <ele>477.064534</ele>
        <time>2023-03-11T14:15:49.666Z</time>
      </trkpt>
      <trkpt lat="47.07637" lon="7.19462">
        <ele>477.060302</ele>
        <time>2023-03-11T14:15:51.654Z</time>
      </trkpt>
      <trkpt lat="47.07645" lon="7.19471">
        <ele>477.055901</ele>
        <time>2023-03-11T14:15:53.662Z</time>
      </trkpt>
      <trkpt lat="47.07652" lon="7.19481">
        <ele>477.051401</ele>
        <time>2023-03-11T14:15:55.638Z</time>
      </trkpt>
      <trkpt lat="47.0766" lon="7.19491">
        <ele>477.046626</ele>
        <time>2023-03-11T14:15:57.653Z</time>
      </trkpt>
      <trkpt lat="47.07666" lon="7.19501">
        <ele>477.042206</ele>
        <time>2023-03-11T14:15:59.662Z</time>
      </trkpt>
      <trkpt lat="47.07674" lon="7.19512">
        <ele>477.037303</ele>
        <time>2023-03-11T14:16:01.653Z</time>
      </trkpt>
      <trkpt lat="47.07682" lon="7.19523">
        <ele>477.032367</ele>
        <time>2023-03-11T14:16:03.659Z</time>
      </trkpt>
      <trkpt lat="47.07689" lon="7.19531">
        <ele>477.028234</ele>
        <time>2023-03-11T14:16:05.633Z</time>
      </trkpt>
      <trkpt lat="47.07696" lon="7.19543">
        <ele>477.022995</ele>
        <time>2023-03-11T14:16:08.633Z</time>
      </trkpt>
      <trkpt lat="47.07691" lon="7.19561">
        <ele>477.016951</ele>
        <time>2023-03-11T14:16:11.635Z</time>
      </trkpt>
      <trkpt lat="47.07685" lon="7.19573">
        <ele>477.01231</ele>
        <time>2023-03-11T14:16:13.644Z</time>
      </trkpt>
      <trkpt lat="47.07688" lon="7.19591">
        <ele>477.006733</ele>
        <time>2023-03-11T14:16:16.640Z</time>
      </trkpt>
      <trkpt lat="47.07697" lon="7.19597">
        <ele>477.002001</ele>
        <time>2023-03-11T14:16:18.620Z</time>
      </trkpt>
      <trkpt lat="47.07707" lon="7.19601">
        <ele>476.997398</ele>
        <time>2023-03-11T14:16:20.633Z</time>
      </trkpt>
      <trkpt lat="47.07715" lon="7.19608">
        <ele>476.992859</ele>
        <time>2023-03-11T14:16:22.645Z</time>
      </trkpt>
      <trkpt lat="47.07724" lon="7.19615">
        <ele>476.955094</ele>
        <time>2023-03-11T14:16:24.639Z</time>
      </trkpt>
      <trkpt lat="47.07732" lon="7.19624">
        <ele>476.916568</ele>
        <time>2023-03-11T14:16:26.642Z</time>
      </trkpt>
      <trkpt lat="47.07739" lon="7.19634">
        <ele>476.879633</ele>
        <time>2023-03-11T14:16:28.655Z</time>
      </trkpt>
      <trkpt lat="47.07748" lon="7.19643">
        <ele>476.841423</ele>
        <time>2023-03-11T14:16:30.676Z</time>
      </trkpt>
      <trkpt lat="47.07756" lon="7.19652">
        <ele>476.804122</ele>
        <time>2023-03-11T14:16:32.659Z</time>
      </trkpt>
      <trkpt lat="47.07764" lon="7.1966">
        <ele>476.765608</ele>
        <time>2023-03-11T14:16:34.669Z</time>
      </trkpt>
      <trkpt lat="47.07772" lon="7.1967">
        <ele>476.725264</ele>
        <time>2023-03-11T14:16:36.656Z</time>
      </trkpt>
      <trkpt lat="47.07781" lon="7.1968">
        <ele>476.685196</ele>
        <time>2023-03-11T14:16:38.652Z</time>
      </trkpt>
      <trkpt lat="47.07789" lon="7.19689">
        <ele>476.646059</ele>
        <time>2023-03-11T14:16:40.655Z</time>
      </trkpt>
      <trkpt lat="47.07798" lon="7.19698">
        <ele>476.604494</ele>
        <time>2023-03-11T14:16:42.660Z</time>
      </trkpt>
      <trkpt lat="47.07806" lon="7.19708">
        <ele>476.564879</ele>
        <time>2023-03-11T14:16:44.662Z</time>
      </trkpt>
      <trkpt lat="47.07814" lon="7.19718">
        <ele>476.526172</ele>
        <time>2023-03-11T14:16:46.665Z</time>
      </trkpt>
      <trkpt lat="47.07822" lon="7.19727">
        <ele>476.488335</ele>
        <time>2023-03-11T14:16:48.674Z</time>
      </trkpt>
      <trkpt lat="47.0783" lon="7.19738">
        <ele>476.446551</ele>
        <time>2023-03-11T14:16:50.672Z</time>
      </trkpt>
      <trkpt lat="47.07839" lon="7.19749">
        <ele>476.402871</ele>
        <time>2023-03-11T14:16:52.652Z</time>
      </trkpt>
      <trkpt lat="47.07848" lon="7.19758">
        <ele>476.360716</ele>
        <time>2023-03-11T14:16:54.626Z</time>
      </trkpt>
      <trkpt lat="47.07857" lon="7.19767">
        <ele>476.319606</ele>
        <time>2023-03-11T14:16:56.658Z</time>
      </trkpt>
      <trkpt lat="47.07866" lon="7.19778">
        <ele>476.300553</ele>
        <time>2023-03-11T14:16:58.677Z</time>
      </trkpt>
      <trkpt lat="47.07874" lon="7.19787">
        <ele>476.28395</ele>
        <time>2023-03-11T14:17:00.648Z</time>
      </trkpt>
      <trkpt lat="47.07883" lon="7.19797">
        <ele>476.267227</ele>
        <time>2023-03-11T14:17:02.665Z</time>
      </trkpt>
      <trkpt lat="47.07892" lon="7.19808">
        <ele>476.250094</ele>
        <time>2023-03-11T14:17:04.663Z</time>
      </trkpt>
      <trkpt lat="47.079" lon="7.19818">
        <ele>476.232926</ele>
        <time>2023-03-11T14:17:06.654Z</time>
      </trkpt>
      <trkpt lat="47.07909" lon="7.19829">
        <ele>476.215424</ele>
        <time>2023-03-11T14:17:08.641Z</time>
      </trkpt>
      <trkpt lat="47.07917" lon="7.1984">
        <ele>476.198681</ele>
        <time>2023-03-11T14:17:10.655Z</time>
      </trkpt>
      <trkpt lat="47.07926" lon="7.1985">
        <ele>476.181719</ele>
        <time>2023-03-11T14:17:12.679Z</time>
      </trkpt>
      <trkpt lat="47.07935" lon="7.1986">
        <ele>476.164202</ele>
        <time>2023-03-11T14:17:14.655Z</time>
      </trkpt>
      <trkpt lat="47.07944" lon="7.1987">
        <ele>476.147165</ele>
        <time>2023-03-11T14:17:16.659Z</time>
      </trkpt>
      <trkpt lat="47.07953" lon="7.1988">
        <ele>476.129694</ele>
        <time>2023-03-11T14:17:18.671Z</time>
      </trkpt>
      <trkpt lat="47.07962" lon="7.19891">
        <ele>476.111538</ele>
        <time>2023-03-11T14:17:20.663Z</time>
      </trkpt>
      <trkpt lat="47.07971" lon="7.19901">
        <ele>476.093959</ele>
        <time>2023-03-11T14:17:22.652Z</time>
      </trkpt>
      <trkpt lat="47.0798" lon="7.19912">
        <ele>476.076433</ele>
        <time>2023-03-11T14:17:24.669Z</time>
      </trkpt>
      <trkpt lat="47.07989" lon="7.19922">
        <ele>476.058786</ele>
        <time>2023-03-11T14:17:26.665Z</time>
      </trkpt>
      <trkpt lat="47.07998" lon="7.19933">
        <ele>476.041184</ele>
        <time>2023-03-11T14:17:28.662Z</time>
      </trkpt>
      <trkpt lat="47.08007" lon="7.19943">
        <ele>476.122675</ele>
        <time>2023-03-11T14:17:30.656Z</time>
      </trkpt>
      <trkpt lat="47.08016" lon="7.19953">
        <ele>476.205107</ele>
        <time>2023-03-11T14:17:32.651Z</time>
      </trkpt>
      <trkpt lat="47.08025" lon="7.19963">
        <ele>476.288122</ele>
        <time>2023-03-11T14:17:34.667Z</time>
      </trkpt>
      <trkpt lat="47.08033" lon="7.19973">
        <ele>476.368463</ele>
        <time>2023-03-11T14:17:36.659Z</time>
      </trkpt>
      <trkpt lat="47.08042" lon="7.19983">
        <ele>476.44802</ele>
        <time>2023-03-11T14:17:38.652Z</time>
      </trkpt>
      <trkpt lat="47.08051" lon="7.19993">
        <ele>476.52863</ele>
        <time>2023-03-11T14:17:40.652Z</time>
      </trkpt>
      <trkpt lat="47.08059" lon="7.20003">
        <ele>476.609329</ele>
        <time>2023-03-11T14:17:42.649Z</time>
      </trkpt>
      <trkpt lat="47.08068" lon="7.20013">
        <ele>476.690664</ele>
        <time>2023-03-11T14:17:44.648Z</time>
      </trkpt>
      <trkpt lat="47.08076" lon="7.20024">
        <ele>476.774349</ele>
        <time>2023-03-11T14:17:46.669Z</time>
      </trkpt>
      <trkpt lat="47.08084" lon="7.20035">
        <ele>476.855579</ele>
        <time>2023-03-11T14:17:48.661Z</time>
      </trkpt>
      <trkpt lat="47.08093" lon="7.20045">
        <ele>476.935875</ele>
        <time>2023-03-11T14:17:50.656Z</time>
      </trkpt>
      <trkpt lat="47.08101" lon="7.20055">
        <ele>477.017727</ele>
        <time>2023-03-11T14:17:52.661Z</time>
      </trkpt>
      <trkpt lat="47.0811" lon="7.20067">
        <ele>477.103449</ele>
        <time>2023-03-11T14:17:54.677Z</time>
      </trkpt>
      <trkpt lat="47.08118" lon="7.20077">
        <ele>477.184303</ele>
        <time>2023-03-11T14:17:56.652Z</time>
      </trkpt>
      <trkpt lat="47.08126" lon="7.20085">
        <ele>477.256596</ele>
        <time>2023-03-11T14:17:58.642Z</time>
      </trkpt>
      <trkpt lat="47.08139" lon="7.20094">
        <ele>477.361575</ele>
        <time>2023-03-11T14:18:01.642Z</time>
      </trkpt>
      <trkpt lat="47.08149" lon="7.20102">
        <ele>477.376345</ele>
        <time>2023-03-11T14:18:03.652Z</time>
      </trkpt>
      <trkpt lat="47.08159" lon="7.20112">
        <ele>477.385506</ele>
        <time>2023-03-11T14:18:05.653Z</time>
      </trkpt>
      <trkpt lat="47.0817" lon="7.20123">
        <ele>477.395801</ele>
        <time>2023-03-11T14:18:07.665Z</time>
      </trkpt>
      <trkpt lat="47.0818" lon="7.20131">
        <ele>477.404522</ele>
        <time>2023-03-11T14:18:09.668Z</time>
      </trkpt>
      <trkpt lat="47.08188" lon="7.20139">
        <ele>477.412375</ele>
        <time>2023-03-11T14:18:11.663Z</time>
      </trkpt>
      <trkpt lat="47.08198" lon="7.20147">
        <ele>477.420816</ele>
        <time>2023-03-11T14:18:13.654Z</time>
      </trkpt>
      <trkpt lat="47.08208" lon="7.20157">
        <ele>477.430293</ele>
        <time>2023-03-11T14:18:15.676Z</time>
      </trkpt>
      <trkpt lat="47.08219" lon="7.20167">
        <ele>477.440538</ele>
        <time>2023-03-11T14:18:17.655Z</time>
      </trkpt>
      <trkpt lat="47.0823" lon="7.20176">
        <ele>477.449845</ele>
        <time>2023-03-11T14:18:19.659Z</time>
      </trkpt>
      <trkpt lat="47.08239" lon="7.20185">
        <ele>477.458485</ele>
        <time>2023-03-11T14:18:21.658Z</time>
      </trkpt>
      <trkpt lat="47.08248" lon="7.20193">
        <ele>477.46674</ele>
        <time>2023-03-11T14:18:23.659Z</time>
      </trkpt>
      <trkpt lat="47.08257" lon="7.20202">
        <ele>477.475033</ele>
        <time>2023-03-11T14:18:25.663Z</time>
      </trkpt>
      <trkpt lat="47.08266" lon="7.2021">
        <ele>477.483091</ele>
        <time>2023-03-11T14:18:27.660Z</time>
      </trkpt>
      <trkpt lat="47.08275" lon="7.20218">
        <ele>477.491291</ele>
        <time>2023-03-11T14:18:29.665Z</time>
      </trkpt>
      <trkpt lat="47.08285" lon="7.20226">
        <ele>477.499904</ele>
        <time>2023-03-11T14:18:31.651Z</time>
      </trkpt>
      <trkpt lat="47.08293" lon="7.20235">
        <ele>477.535762</ele>
        <time>2023-03-11T14:18:33.658Z</time>
      </trkpt>
      <trkpt lat="47.08301" lon="7.20243">
        <ele>477.879474</ele>
        <time>2023-03-11T14:18:35.655Z</time>
      </trkpt>
      <trkpt lat="47.08309" lon="7.2025">
        <ele>478.205555</ele>
        <time>2023-03-11T14:18:37.661Z</time>
      </trkpt>
      <trkpt lat="47.08318" lon="7.20258">
        <ele>478.553102</ele>
        <time>2023-03-11T14:18:39.644Z</time>
      </trkpt>
      <trkpt lat="47.08326" lon="7.20265">
        <ele>478.878388</ele>
        <time>2023-03-11T14:18:41.656Z</time>
      </trkpt>
      <trkpt lat="47.08334" lon="7.20272">
        <ele>479.211038</ele>
        <time>2023-03-11T14:18:43.656Z</time>
      </trkpt>
      <trkpt lat="47.08342" lon="7.2028">
        <ele>479.554658</ele>
        <time>2023-03-11T14:18:45.653Z</time>
      </trkpt>
      <trkpt lat="47.0835" lon="7.20288">
        <ele>479.871055</ele>
        <time>2023-03-11T14:18:47.656Z</time>
      </trkpt>
      <trkpt lat="47.08358" lon="7.20295">
        <ele>480.194611</ele>
        <time>2023-03-11T14:18:49.662Z</time>
      </trkpt>
      <trkpt lat="47.08366" lon="7.20302">
        <ele>480.524568</ele>
        <time>2023-03-11T14:18:51.643Z</time>
      </trkpt>
      <trkpt lat="47.08374" lon="7.20312">
        <ele>480.899058</ele>
        <time>2023-03-11T14:18:53.643Z</time>
      </trkpt>
      <trkpt lat="47.08382" lon="7.20321">
        <ele>481.244113</ele>
        <time>2023-03-11T14:18:55.635Z</time>
      </trkpt>
      <trkpt lat="47.0839" lon="7.20328">
        <ele>481.565649</ele>
        <time>2023-03-11T14:18:57.668Z</time>
      </trkpt>
      <trkpt lat="47.08397" lon="7.20338">
        <ele>481.891565</ele>
        <time>2023-03-11T14:18:59.653Z</time>
      </trkpt>
      <trkpt lat="47.08403" lon="7.20349">
        <ele>482.236326</ele>
        <time>2023-03-11T14:19:01.632Z</time>
      </trkpt>
      <trkpt lat="47.08406" lon="7.20362">
        <ele>482.560114</ele>
        <time>2023-03-11T14:19:03.648Z</time>
      </trkpt>
      <trkpt lat="47.08409" lon="7.20375">
        <ele>482.876409</ele>
        <time>2023-03-11T14:19:05.615Z</time>
      </trkpt>
      <trkpt lat="47.08411" lon="7.20388">
        <ele>483.208421</ele>
        <time>2023-03-11T14:19:07.616Z</time>
      </trkpt>
      <trkpt lat="47.08412" lon="7.20406">
        <ele>483.617474</ele>
        <time>2023-03-11T14:19:10.634Z</time>
      </trkpt>
      <trkpt lat="47.0841" lon="7.20419">
        <ele>484.294973</ele>
        <time>2023-03-11T14:19:14.639Z</time>
      </trkpt>
      <trkpt lat="47.08407" lon="7.20434">
        <ele>485.307714</ele>
        <time>2023-03-11T14:19:19.660Z</time>
      </trkpt>
      <trkpt lat="47.08404" lon="7.20446">
        <ele>486.217577</ele>
        <time>2023-03-11T14:19:24.621Z</time>
      </trkpt>
      <trkpt lat="47.08398" lon="7.20459">
        <ele>487.260875</ele>
        <time>2023-03-11T14:19:29.668Z</time>
      </trkpt>
      <trkpt lat="47.08392" lon="7.20469">
        <ele>488.157834</ele>
        <time>2023-03-11T14:19:35.628Z</time>
      </trkpt>
      <trkpt lat="47.08386" lon="7.20482">
        <ele>489.22956</ele>
        <time>2023-03-11T14:19:41.630Z</time>
      </trkpt>
      <trkpt lat="47.0838" lon="7.20496">
        <ele>490.362231</ele>
        <time>2023-03-11T14:19:46.636Z</time>
      </trkpt>
      <trkpt lat="47.08371" lon="7.20506">
        <ele>491.448872</ele>
        <time>2023-03-11T14:19:51.664Z</time>
      </trkpt>
      <trkpt lat="47.08364" lon="7.20514">
        <ele>492.351756</ele>
        <time>2023-03-11T14:19:55.657Z</time>
      </trkpt>
      <trkpt lat="47.08354" lon="7.2052">
        <ele>493.410824</ele>
        <time>2023-03-11T14:20:00.656Z</time>
      </trkpt>
      <trkpt lat="47.08344" lon="7.20526">
        <ele>494.49212</ele>
        <time>2023-03-11T14:20:05.675Z</time>
      </trkpt>
      <trkpt lat="47.08334" lon="7.20532">
        <ele>495.545953</ele>
        <time>2023-03-11T14:20:11.640Z</time>
      </trkpt>
      <trkpt lat="47.08325" lon="7.20536">
        <ele>496.478043</ele>
        <time>2023-03-11T14:20:15.657Z</time>
      </trkpt>
      <trkpt lat="47.08315" lon="7.2054">
        <ele>497.505318</ele>
        <time>2023-03-11T14:20:20.644Z</time>
      </trkpt>
      <trkpt lat="47.08307" lon="7.20547">
        <ele>498.440382</ele>
        <time>2023-03-11T14:20:25.619Z</time>
      </trkpt>
      <trkpt lat="47.08313" lon="7.20561">
        <ele>499.567441</ele>
        <time>2023-03-11T14:20:30.636Z</time>
      </trkpt>
      <trkpt lat="47.08321" lon="7.2057">
        <ele>500.518495</ele>
        <time>2023-03-11T14:20:34.665Z</time>
      </trkpt>
      <trkpt lat="47.0833" lon="7.20578">
        <ele>501.566291</ele>
        <time>2023-03-11T14:20:38.639Z</time>
      </trkpt>
      <trkpt lat="47.08338" lon="7.20589">
        <ele>501.552986</ele>
        <time>2023-03-11T14:20:42.640Z</time>
      </trkpt>
      <trkpt lat="47.08347" lon="7.20598">
        <ele>501.509907</ele>
        <time>2023-03-11T14:20:46.675Z</time>
      </trkpt>
      <trkpt lat="47.08353" lon="7.20607">
        <ele>501.474173</ele>
        <time>2023-03-11T14:20:49.642Z</time>
      </trkpt>
      <trkpt lat="47.08361" lon="7.20616">
        <ele>501.435095</ele>
        <time>2023-03-11T14:20:52.616Z</time>
      </trkpt>
      <trkpt lat="47.08369" lon="7.20625">
        <ele>501.394906</ele>
        <time>2023-03-11T14:20:55.659Z</time>
      </trkpt>
      <trkpt lat="47.08377" lon="7.20634">
        <ele>501.353917</ele>
        <time>2023-03-11T14:20:58.674Z</time>
      </trkpt>
      <trkpt lat="47.08384" lon="7.20644">
        <ele>501.315019</ele>
        <time>2023-03-11T14:21:01.669Z</time>
      </trkpt>
      <trkpt lat="47.08392" lon="7.20653">
        <ele>501.27447</ele>
        <time>2023-03-11T14:21:04.657Z</time>
      </trkpt>
      <trkpt lat="47.084" lon="7.20665">
        <ele>501.2284</ele>
        <time>2023-03-11T14:21:07.627Z</time>
      </trkpt>
      <trkpt lat="47.08408" lon="7.20673">
        <ele>501.192546</ele>
        <time>2023-03-11T14:21:09.654Z</time>
      </trkpt>
      <trkpt lat="47.08416" lon="7.20682">
        <ele>501.152356</ele>
        <time>2023-03-11T14:21:11.635Z</time>
      </trkpt>
      <trkpt lat="47.08424" lon="7.20693">
        <ele>501.108541</ele>
        <time>2023-03-11T14:21:13.661Z</time>
      </trkpt>
      <trkpt lat="47.08432" lon="7.20705">
        <ele>501.061323</ele>
        <time>2023-03-11T14:21:15.632Z</time>
      </trkpt>
      <trkpt lat="47.0844" lon="7.20718">
        <ele>501.015348</ele>
        <time>2023-03-11T14:21:17.639Z</time>
      </trkpt>
      <trkpt lat="47.0845" lon="7.20722">
        <ele>500.972549</ele>
        <time>2023-03-11T14:21:20.644Z</time>
      </trkpt>
      <trkpt lat="47.0846" lon="7.20715">
        <ele>500.929756</ele>
        <time>2023-03-11T14:21:23.645Z</time>
      </trkpt>
      <trkpt lat="47.08446" lon="7.20718">
        <ele>500.877018</ele>
        <time>2023-03-11T14:21:47.628Z</time>
      </trkpt>
      <trkpt lat="47.08438" lon="7.20726">
        <ele>500.861299</ele>
        <time>2023-03-11T14:21:53.629Z</time>
      </trkpt>
      <trkpt lat="47.08442" lon="7.20738">
        <ele>500.84626</ele>
        <time>2023-03-11T14:21:58.636Z</time>
      </trkpt>
      <trkpt lat="47.08445" lon="7.20751">
        <ele>500.831418</ele>
        <time>2023-03-11T14:22:03.640Z</time>
      </trkpt>
      <trkpt lat="47.0845" lon="7.20764">
        <ele>500.815132</ele>
        <time>2023-03-11T14:22:08.662Z</time>
      </trkpt>
      <trkpt lat="47.08454" lon="7.20777">
        <ele>500.800645</ele>
        <time>2023-03-11T14:22:12.628Z</time>
      </trkpt>
      <trkpt lat="47.08457" lon="7.20791">
        <ele>500.784529</ele>
        <time>2023-03-11T14:22:16.628Z</time>
      </trkpt>
      <trkpt lat="47.08461" lon="7.20805">
        <ele>500.768216</ele>
        <time>2023-03-11T14:22:21.662Z</time>
      </trkpt>
      <trkpt lat="47.0847" lon="7.20807">
        <ele>500.752908</ele>
        <time>2023-03-11T14:22:24.630Z</time>
      </trkpt>
      <trkpt lat="47.0848" lon="7.20811">
        <ele>500.737303</ele>
        <time>2023-03-11T14:22:28.656Z</time>
      </trkpt>
      <trkpt lat="47.08489" lon="7.2082">
        <ele>500.719422</ele>
        <time>2023-03-11T14:22:32.659Z</time>
      </trkpt>
      <trkpt lat="47.085" lon="7.2083">
        <ele>500.700027</ele>
        <time>2023-03-11T14:22:35.655Z</time>
      </trkpt>
      <trkpt lat="47.08508" lon="7.20837">
        <ele>500.68478</ele>
        <time>2023-03-11T14:22:37.661Z</time>
      </trkpt>
      <trkpt lat="47.08517" lon="7.20844">
        <ele>500.668911</ele>
        <time>2023-03-11T14:22:39.644Z</time>
      </trkpt>
      <trkpt lat="47.08525" lon="7.20851">
        <ele>500.653337</ele>
        <time>2023-03-11T14:22:41.672Z</time>
      </trkpt>
      <trkpt lat="47.08533" lon="7.20858">
        <ele>500.638914</ele>
        <time>2023-03-11T14:22:43.666Z</time>
      </trkpt>
      <trkpt lat="47.08542" lon="7.20867">
        <ele>500.621205</ele>
        <time>2023-03-11T14:22:46.665Z</time>
      </trkpt>
      <trkpt lat="47.08551" lon="7.20882">
        <ele>500.599673</ele>
        <time>2023-03-11T14:22:49.637Z</time>
      </trkpt>
      <trkpt lat="47.08559" lon="7.20892">
        <ele>500.37419</ele>
        <time>2023-03-11T14:22:51.662Z</time>
      </trkpt>
      <trkpt lat="47.08566" lon="7.20903">
        <ele>500.03878</ele>
        <time>2023-03-11T14:22:53.668Z</time>
      </trkpt>
      <trkpt lat="47.08574" lon="7.2091">
        <ele>499.735495</ele>
        <time>2023-03-11T14:22:55.631Z</time>
      </trkpt>
      <trkpt lat="47.08585" lon="7.20905">
        <ele>499.373365</ele>
        <time>2023-03-11T14:22:57.640Z</time>
      </trkpt>
      <trkpt lat="47.08594" lon="7.20892">
        <ele>498.94088</ele>
        <time>2023-03-11T14:22:59.637Z</time>
      </trkpt>
      <trkpt lat="47.08603" lon="7.20877">
        <ele>498.501322</ele>
        <time>2023-03-11T14:23:01.623Z</time>
      </trkpt>
      <trkpt lat="47.08613" lon="7.20862">
        <ele>498.024069</ele>
        <time>2023-03-11T14:23:03.654Z</time>
      </trkpt>
      <trkpt lat="47.08623" lon="7.20845">
        <ele>497.517648</ele>
        <time>2023-03-11T14:23:05.658Z</time>
      </trkpt>
      <trkpt lat="47.08631" lon="7.20826">
        <ele>496.998656</ele>
        <time>2023-03-11T14:23:07.646Z</time>
      </trkpt>
      <trkpt lat="47.08639" lon="7.20807">
        <ele>496.499771</ele>
        <time>2023-03-11T14:23:09.651Z</time>
      </trkpt>
      <trkpt lat="47.08648" lon="7.20789">
        <ele>496.008667</ele>
        <time>2023-03-11T14:23:11.673Z</time>
      </trkpt>
      <trkpt lat="47.08657" lon="7.20771">
        <ele>495.504703</ele>
        <time>2023-03-11T14:23:13.648Z</time>
      </trkpt>
      <trkpt lat="47.08669" lon="7.20756">
        <ele>494.978032</ele>
        <time>2023-03-11T14:23:15.647Z</time>
      </trkpt>
      <trkpt lat="47.08683" lon="7.20743">
        <ele>494.276227</ele>
        <time>2023-03-11T14:23:17.632Z</time>
      </trkpt>
      <trkpt lat="47.08692" lon="7.20739">
        <ele>493.767557</ele>
        <time>2023-03-11T14:23:18.629Z</time>
      </trkpt>
      <trkpt lat="47.08709" lon="7.20733">
        <ele>492.794336</ele>
        <time>2023-03-11T14:23:20.615Z</time>
      </trkpt>
      <trkpt lat="47.08726" lon="7.20733">
        <ele>491.840164</ele>
        <time>2023-03-11T14:23:22.627Z</time>
      </trkpt>
      <trkpt lat="47.08742" lon="7.20738">
        <ele>490.924362</ele>
        <time>2023-03-11T14:23:24.641Z</time>
      </trkpt>
      <trkpt lat="47.08757" lon="7.20741">
        <ele>490.071913</ele>
        <time>2023-03-11T14:23:26.672Z</time>
      </trkpt>
      <trkpt lat="47.08771" lon="7.20739">
        <ele>489.273838</ele>
        <time>2023-03-11T14:23:28.637Z</time>
      </trkpt>
      <trkpt lat="47.08781" lon="7.20727">
        <ele>488.553869</ele>
        <time>2023-03-11T14:23:30.641Z</time>
      </trkpt>
      <trkpt lat="47.08787" lon="7.20708">
        <ele>487.765119</ele>
        <time>2023-03-11T14:23:32.615Z</time>
      </trkpt>
      <trkpt lat="47.08794" lon="7.2069">
        <ele>486.995119</ele>
        <time>2023-03-11T14:23:34.662Z</time>
      </trkpt>
      <trkpt lat="47.08802" lon="7.20674">
        <ele>486.21467</ele>
        <time>2023-03-11T14:23:36.644Z</time>
      </trkpt>
      <trkpt lat="47.08808" lon="7.20658">
        <ele>485.496852</ele>
        <time>2023-03-11T14:23:38.654Z</time>
      </trkpt>
      <trkpt lat="47.08814" lon="7.20641">
        <ele>484.759126</ele>
        <time>2023-03-11T14:23:40.661Z</time>
      </trkpt>
      <trkpt lat="47.08817" lon="7.20625">
        <ele>484.300461</ele>
        <time>2023-03-11T14:23:42.636Z</time>
      </trkpt>
      <trkpt lat="47.08817" lon="7.20611">
        <ele>483.973581</ele>
        <time>2023-03-11T14:23:44.643Z</time>
      </trkpt>
      <trkpt lat="47.08827" lon="7.20597">
        <ele>483.509542</ele>
        <time>2023-03-11T14:23:47.634Z</time>
      </trkpt>
      <trkpt lat="47.08838" lon="7.20594">
        <ele>483.108246</ele>
        <time>2023-03-11T14:23:49.641Z</time>
      </trkpt>
      <trkpt lat="47.0885" lon="7.20591">
        <ele>482.703327</ele>
        <time>2023-03-11T14:23:51.648Z</time>
      </trkpt>
      <trkpt lat="47.0886" lon="7.20587">
        <ele>482.327523</ele>
        <time>2023-03-11T14:23:53.662Z</time>
      </trkpt>
      <trkpt lat="47.08869" lon="7.20582">
        <ele>481.996644</ele>
        <time>2023-03-11T14:23:55.652Z</time>
      </trkpt>
      <trkpt lat="47.08878" lon="7.20577">
        <ele>481.658657</ele>
        <time>2023-03-11T14:23:57.672Z</time>
      </trkpt>
      <trkpt lat="47.08888" lon="7.20574">
        <ele>481.320161</ele>
        <time>2023-03-11T14:23:59.643Z</time>
      </trkpt>
      <trkpt lat="47.08898" lon="7.20572">
        <ele>480.977405</ele>
        <time>2023-03-11T14:24:01.664Z</time>
      </trkpt>
      <trkpt lat="47.0891" lon="7.20566">
        <ele>480.525939</ele>
        <time>2023-03-11T14:24:04.660Z</time>
      </trkpt>
      <trkpt lat="47.08922" lon="7.20561">
        <ele>480.085785</ele>
        <time>2023-03-11T14:24:07.646Z</time>
      </trkpt>
      <trkpt lat="47.08931" lon="7.20554">
        <ele>479.738334</ele>
        <time>2023-03-11T14:24:10.659Z</time>
      </trkpt>
      <trkpt lat="47.08944" lon="7.20555">
        <ele>479.302533</ele>
        <time>2023-03-11T14:24:14.643Z</time>
      </trkpt>
      <trkpt lat="47.08954" lon="7.20555">
        <ele>478.956651</ele>
        <time>2023-03-11T14:24:16.642Z</time>
      </trkpt>
      <trkpt lat="47.08965" lon="7.20553">
        <ele>478.582401</ele>
        <time>2023-03-11T14:24:18.678Z</time>
      </trkpt>
      <trkpt lat="47.08975" lon="7.20553">
        <ele>478.342383</ele>
        <time>2023-03-11T14:24:20.666Z</time>
      </trkpt>
      <trkpt lat="47.08985" lon="7.20553">
        <ele>478.341904</ele>
        <time>2023-03-11T14:24:22.663Z</time>
      </trkpt>
      <trkpt lat="47.08995" lon="7.20551">
        <ele>478.341432</ele>
        <time>2023-03-11T14:24:24.655Z</time>
      </trkpt>
      <trkpt lat="47.09006" lon="7.20547">
        <ele>478.340928</ele>
        <time>2023-03-11T14:24:26.636Z</time>
      </trkpt>
      <trkpt lat="47.09016" lon="7.20541">
        <ele>478.340435</ele>
        <time>2023-03-11T14:24:28.650Z</time>
      </trkpt>
      <trkpt lat="47.09026" lon="7.20533">
        <ele>478.339921</ele>
        <time>2023-03-11T14:24:30.635Z</time>
      </trkpt>
      <trkpt lat="47.09036" lon="7.20526">
        <ele>478.339397</ele>
        <time>2023-03-11T14:24:32.679Z</time>
      </trkpt>
      <trkpt lat="47.09046" lon="7.20518">
        <ele>478.338847</ele>
        <time>2023-03-11T14:24:34.665Z</time>
      </trkpt>
      <trkpt lat="47.09056" lon="7.20508">
        <ele>478.338303</ele>
        <time>2023-03-11T14:24:36.637Z</time>
      </trkpt>
      <trkpt lat="47.09065" lon="7.20497">
        <ele>478.33776</ele>
        <time>2023-03-11T14:24:38.641Z</time>
      </trkpt>
      <trkpt lat="47.09074" lon="7.20486">
        <ele>478.337232</ele>
        <time>2023-03-11T14:24:40.656Z</time>
      </trkpt>
      <trkpt lat="47.09082" lon="7.20475">
        <ele>478.336741</ele>
        <time>2023-03-11T14:24:42.681Z</time>
      </trkpt>
      <trkpt lat="47.0909" lon="7.20467">
        <ele>478.336256</ele>
        <time>2023-03-11T14:24:44.629Z</time>
      </trkpt>
      <trkpt lat="47.09098" lon="7.2046">
        <ele>478.33583</ele>
        <time>2023-03-11T14:24:46.637Z</time>
      </trkpt>
      <trkpt lat="47.09108" lon="7.20454">
        <ele>478.335362</ele>
        <time>2023-03-11T14:24:48.680Z</time>
      </trkpt>
      <trkpt lat="47.09117" lon="7.20449">
        <ele>478.334896</ele>
        <time>2023-03-11T14:24:50.683Z</time>
      </trkpt>
      <trkpt lat="47.09127" lon="7.20444">
        <ele>478.334428</ele>
        <time>2023-03-11T14:24:52.640Z</time>
      </trkpt>
      <trkpt lat="47.09137" lon="7.20442">
        <ele>478.345917</ele>
        <time>2023-03-11T14:24:54.639Z</time>
      </trkpt>
      <trkpt lat="47.09148" lon="7.20444">
        <ele>478.36711</ele>
        <time>2023-03-11T14:24:56.641Z</time>
      </trkpt>
      <trkpt lat="47.09159" lon="7.20444">
        <ele>478.388578</ele>
        <time>2023-03-11T14:24:58.669Z</time>
      </trkpt>
      <trkpt lat="47.09169" lon="7.20445">
        <ele>478.409256</ele>
        <time>2023-03-11T14:25:00.662Z</time>
      </trkpt>
      <trkpt lat="47.0918" lon="7.20445">
        <ele>478.429729</ele>
        <time>2023-03-11T14:25:02.667Z</time>
      </trkpt>
      <trkpt lat="47.09191" lon="7.20444">
        <ele>478.451982</ele>
        <time>2023-03-11T14:25:04.669Z</time>
      </trkpt>
      <trkpt lat="47.09202" lon="7.20444">
        <ele>478.472466</ele>
        <time>2023-03-11T14:25:06.653Z</time>
      </trkpt>
      <trkpt lat="47.09212" lon="7.20445">
        <ele>478.492744</ele>
        <time>2023-03-11T14:25:08.672Z</time>
      </trkpt>
      <trkpt lat="47.09224" lon="7.20445">
        <ele>478.515363</ele>
        <time>2023-03-11T14:25:10.659Z</time>
      </trkpt>
      <trkpt lat="47.09234" lon="7.20444">
        <ele>478.536233</ele>
        <time>2023-03-11T14:25:12.664Z</time>
      </trkpt>
      <trkpt lat="47.09245" lon="7.20447">
        <ele>478.557017</ele>
        <time>2023-03-11T14:25:14.665Z</time>
      </trkpt>
      <trkpt lat="47.09256" lon="7.20452">
        <ele>478.578992</ele>
        <time>2023-03-11T14:25:16.624Z</time>
      </trkpt>
      <trkpt lat="47.09265" lon="7.20458">
        <ele>478.599694</ele>
        <time>2023-03-11T14:25:18.647Z</time>
      </trkpt>
      <trkpt lat="47.09276" lon="7.20464">
        <ele>478.621385</ele>
        <time>2023-03-11T14:25:20.674Z</time>
      </trkpt>
      <trkpt lat="47.09286" lon="7.20468">
        <ele>478.642827</ele>
        <time>2023-03-11T14:25:22.684Z</time>
      </trkpt>
      <trkpt lat="47.09297" lon="7.20472">
        <ele>478.664456</ele>
        <time>2023-03-11T14:25:24.665Z</time>
      </trkpt>
      <trkpt lat="47.09308" lon="7.20477">
        <ele>478.68421</ele>
        <time>2023-03-11T14:25:26.672Z</time>
      </trkpt>
      <trkpt lat="47.09319" lon="7.20482">
        <ele>478.671766</ele>
        <time>2023-03-11T14:25:28.679Z</time>
      </trkpt>
      <trkpt lat="47.0933" lon="7.20486">
        <ele>478.65914</ele>
        <time>2023-03-11T14:25:30.661Z</time>
      </trkpt>
      <trkpt lat="47.0934" lon="7.2049">
        <ele>478.646835</ele>
        <time>2023-03-11T14:25:32.666Z</time>
      </trkpt>
      <trkpt lat="47.09351" lon="7.20494">
        <ele>478.634707</ele>
        <time>2023-03-11T14:25:34.672Z</time>
      </trkpt>
      <trkpt lat="47.09363" lon="7.20497">
        <ele>478.621464</ele>
        <time>2023-03-11T14:25:36.667Z</time>
      </trkpt>
      <trkpt lat="47.09375" lon="7.20502">
        <ele>478.607172</ele>
        <time>2023-03-11T14:25:38.671Z</time>
      </trkpt>
      <trkpt lat="47.09387" lon="7.20507">
        <ele>478.593625</ele>
        <time>2023-03-11T14:25:40.672Z</time>
      </trkpt>
      <trkpt lat="47.09398" lon="7.20511">
        <ele>478.580975</ele>
        <time>2023-03-11T14:25:42.679Z</time>
      </trkpt>
      <trkpt lat="47.0941" lon="7.20514">
        <ele>478.568078</ele>
        <time>2023-03-11T14:25:44.668Z</time>
      </trkpt>
      <trkpt lat="47.09421" lon="7.20519">
        <ele>478.555503</ele>
        <time>2023-03-11T14:25:46.676Z</time>
      </trkpt>
      <trkpt lat="47.09432" lon="7.20523">
        <ele>478.543015</ele>
        <time>2023-03-11T14:25:48.644Z</time>
      </trkpt>
      <trkpt lat="47.09443" lon="7.20527">
        <ele>478.530527</ele>
        <time>2023-03-11T14:25:50.672Z</time>
      </trkpt>
      <trkpt lat="47.09453" lon="7.20531">
        <ele>478.518262</ele>
        <time>2023-03-11T14:25:52.662Z</time>
      </trkpt>
      <trkpt lat="47.09464" lon="7.20535">
        <ele>478.505754</ele>
        <time>2023-03-11T14:25:54.676Z</time>
      </trkpt>
      <trkpt lat="47.09475" lon="7.20543">
        <ele>478.492755</ele>
        <time>2023-03-11T14:25:56.640Z</time>
      </trkpt>
      <trkpt lat="47.09484" lon="7.20553">
        <ele>478.574619</ele>
        <time>2023-03-11T14:25:58.641Z</time>
      </trkpt>
      <trkpt lat="47.09493" lon="7.20562">
        <ele>478.74719</ele>
        <time>2023-03-11T14:26:00.662Z</time>
      </trkpt>
      <trkpt lat="47.09503" lon="7.20571">
        <ele>478.928674</ele>
        <time>2023-03-11T14:26:02.671Z</time>
      </trkpt>
      <trkpt lat="47.09512" lon="7.20582">
        <ele>479.108037</ele>
        <time>2023-03-11T14:26:04.665Z</time>
      </trkpt>
      <trkpt lat="47.09521" lon="7.20592">
        <ele>479.279268</ele>
        <time>2023-03-11T14:26:06.647Z</time>
      </trkpt>
      <trkpt lat="47.09529" lon="7.20604">
        <ele>479.459169</ele>
        <time>2023-03-11T14:26:08.662Z</time>
      </trkpt>
      <trkpt lat="47.09537" lon="7.20616">
        <ele>479.636141</ele>
        <time>2023-03-11T14:26:10.660Z</time>
      </trkpt>
      <trkpt lat="47.09545" lon="7.20628">
        <ele>479.808249</ele>
        <time>2023-03-11T14:26:12.678Z</time>
      </trkpt>
      <trkpt lat="47.09553" lon="7.20639">
        <ele>479.98088</ele>
        <time>2023-03-11T14:26:14.668Z</time>
      </trkpt>
      <trkpt lat="47.09561" lon="7.2065">
        <ele>480.150518</ele>
        <time>2023-03-11T14:26:16.655Z</time>
      </trkpt>
      <trkpt lat="47.09569" lon="7.20662">
        <ele>480.322974</ele>
        <time>2023-03-11T14:26:18.675Z</time>
      </trkpt>
      <trkpt lat="47.09576" lon="7.20673">
        <ele>480.490998</ele>
        <time>2023-03-11T14:26:20.665Z</time>
      </trkpt>
      <trkpt lat="47.09583" lon="7.20684">
        <ele>480.64941</ele>
        <time>2023-03-11T14:26:22.670Z</time>
      </trkpt>
      <trkpt lat="47.0959" lon="7.20695">
        <ele>480.801577</ele>
        <time>2023-03-11T14:26:24.652Z</time>
      </trkpt>
      <trkpt lat="47.09596" lon="7.20706">
        <ele>480.946925</ele>
        <time>2023-03-11T14:26:26.658Z</time>
      </trkpt>
      <trkpt lat="47.09601" lon="7.20717">
        <ele>481.08916</ele>
        <time>2023-03-11T14:26:28.680Z</time>
      </trkpt>
      <trkpt lat="47.09606" lon="7.20732">
        <ele>481.272015</ele>
        <time>2023-03-11T14:26:31.639Z</time>
      </trkpt>
      <trkpt lat="47.09609" lon="7.20747">
        <ele>482.124799</ele>
        <time>2023-03-11T14:26:34.642Z</time>
      </trkpt>
      <trkpt lat="47.09609" lon="7.20764">
        <ele>483.07729</ele>
        <time>2023-03-11T14:26:37.647Z</time>
      </trkpt>
      <trkpt lat="47.0961" lon="7.20782">
        <ele>484.110494</ele>
        <time>2023-03-11T14:26:40.674Z</time>
      </trkpt>
      <trkpt lat="47.09611" lon="7.20799">
        <ele>485.076999</ele>
        <time>2023-03-11T14:26:43.661Z</time>
      </trkpt>
      <trkpt lat="47.0961" lon="7.20813">
        <ele>485.908842</ele>
        <time>2023-03-11T14:26:46.667Z</time>
      </trkpt>
      <trkpt lat="47.09609" lon="7.20827">
        <ele>486.683094</ele>
        <time>2023-03-11T14:26:49.662Z</time>
      </trkpt>
      <trkpt lat="47.0961" lon="7.20843">
        <ele>487.651884</ele>
        <time>2023-03-11T14:26:53.665Z</time>
      </trkpt>
      <trkpt lat="47.09612" lon="7.2086">
        <ele>488.606643</ele>
        <time>2023-03-11T14:26:57.668Z</time>
      </trkpt>
      <trkpt lat="47.09608" lon="7.20876">
        <ele>489.57284</ele>
        <time>2023-03-11T14:27:01.681Z</time>
      </trkpt>
      <trkpt lat="47.09605" lon="7.2089">
        <ele>490.375079</ele>
        <time>2023-03-11T14:27:04.671Z</time>
      </trkpt>
      <trkpt lat="47.09607" lon="7.20903">
        <ele>491.159413</ele>
        <time>2023-03-11T14:27:08.661Z</time>
      </trkpt>
      <trkpt lat="47.09617" lon="7.2091">
        <ele>492.057341</ele>
        <time>2023-03-11T14:27:12.658Z</time>
      </trkpt>
      <trkpt lat="47.09627" lon="7.20917">
        <ele>492.966401</ele>
        <time>2023-03-11T14:27:16.645Z</time>
      </trkpt>
      <trkpt lat="47.09637" lon="7.20922">
        <ele>493.856762</ele>
        <time>2023-03-11T14:27:20.651Z</time>
      </trkpt>
      <trkpt lat="47.09646" lon="7.20928">
        <ele>494.716888</ele>
        <time>2023-03-11T14:27:24.659Z</time>
      </trkpt>
      <trkpt lat="47.09655" lon="7.20935">
        <ele>495.559361</ele>
        <time>2023-03-11T14:27:28.666Z</time>
      </trkpt>
      <trkpt lat="47.09664" lon="7.2094">
        <ele>496.361411</ele>
        <time>2023-03-11T14:27:32.628Z</time>
      </trkpt>
      <trkpt lat="47.09673" lon="7.20948">
        <ele>496.714943</ele>
        <time>2023-03-11T14:27:36.661Z</time>
      </trkpt>
      <trkpt lat="47.09681" lon="7.20956">
        <ele>497.030795</ele>
        <time>2023-03-11T14:27:40.665Z</time>
      </trkpt>
      <trkpt lat="47.09689" lon="7.20966">
        <ele>497.3967</ele>
        <time>2023-03-11T14:27:44.660Z</time>
      </trkpt>
      <trkpt lat="47.09696" lon="7.20977">
        <ele>497.714614</ele>
        <time>2023-03-11T14:27:48.668Z</time>
      </trkpt>
      <trkpt lat="47.09703" lon="7.20987">
        <ele>498.042696</ele>
        <time>2023-03-11T14:27:52.665Z</time>
      </trkpt>
      <trkpt lat="47.09711" lon="7.20996">
        <ele>498.378607</ele>
        <time>2023-03-11T14:27:56.664Z</time>
      </trkpt>
      <trkpt lat="47.09719" lon="7.21004">
        <ele>498.736297</ele>
        <time>2023-03-11T14:28:00.625Z</time>
      </trkpt>
      <trkpt lat="47.09728" lon="7.21013">
        <ele>499.085635</ele>
        <time>2023-03-11T14:28:04.642Z</time>
      </trkpt>
      <trkpt lat="47.09736" lon="7.21023">
        <ele>499.435331</ele>
        <time>2023-03-11T14:28:08.655Z</time>
      </trkpt>
      <trkpt lat="47.09743" lon="7.21032">
        <ele>499.743861</ele>
        <time>2023-03-11T14:28:11.655Z</time>
      </trkpt>
      <trkpt lat="47.09753" lon="7.21042">
        <ele>500.146261</ele>
        <time>2023-03-11T14:28:15.632Z</time>
      </trkpt>
      <trkpt lat="47.09761" lon="7.21051">
        <ele>500.488828</ele>
        <time>2023-03-11T14:28:18.659Z</time>
      </trkpt>
      <trkpt lat="47.09771" lon="7.21061">
        <ele>500.908993</ele>
        <time>2023-03-11T14:28:21.667Z</time>
      </trkpt>
      <trkpt lat="47.09783" lon="7.21072">
        <ele>501.386061</ele>
        <time>2023-03-11T14:28:24.676Z</time>
      </trkpt>
      <trkpt lat="47.09793" lon="7.21081">
        <ele>501.762682</ele>
        <time>2023-03-11T14:28:26.661Z</time>
      </trkpt>
      <trkpt lat="47.09803" lon="7.21091">
        <ele>502.162525</ele>
        <time>2023-03-11T14:28:28.663Z</time>
      </trkpt>
      <trkpt lat="47.09812" lon="7.21101">
        <ele>502.175153</ele>
        <time>2023-03-11T14:28:30.663Z</time>
      </trkpt>
      <trkpt lat="47.09821" lon="7.21109">
        <ele>501.732388</ele>
        <time>2023-03-11T14:28:32.671Z</time>
      </trkpt>
      <trkpt lat="47.09831" lon="7.21117">
        <ele>501.272911</ele>
        <time>2023-03-11T14:28:34.674Z</time>
      </trkpt>
      <trkpt lat="47.09841" lon="7.21126">
        <ele>500.80021</ele>
        <time>2023-03-11T14:28:36.677Z</time>
      </trkpt>
      <trkpt lat="47.09851" lon="7.21135">
        <ele>500.346721</ele>
        <time>2023-03-11T14:28:38.658Z</time>
      </trkpt>
      <trkpt lat="47.09863" lon="7.21144">
        <ele>499.812044</ele>
        <time>2023-03-11T14:28:40.654Z</time>
      </trkpt>
      <trkpt lat="47.09876" lon="7.21153">
        <ele>499.204845</ele>
        <time>2023-03-11T14:28:42.665Z</time>
      </trkpt>
      <trkpt lat="47.0989" lon="7.21162">
        <ele>498.610613</ele>
        <time>2023-03-11T14:28:44.674Z</time>
      </trkpt>
      <trkpt lat="47.09904" lon="7.21171">
        <ele>497.989823</ele>
        <time>2023-03-11T14:28:46.679Z</time>
      </trkpt>
      <trkpt lat="47.09919" lon="7.21182">
        <ele>497.310428</ele>
        <time>2023-03-11T14:28:48.661Z</time>
      </trkpt>
      <trkpt lat="47.09934" lon="7.21193">
        <ele>496.650349</ele>
        <time>2023-03-11T14:28:50.664Z</time>
      </trkpt>
      <trkpt lat="47.09948" lon="7.21203">
        <ele>496.018024</ele>
        <time>2023-03-11T14:28:52.671Z</time>
      </trkpt>
      <trkpt lat="47.0996" lon="7.2121">
        <ele>495.482558</ele>
        <time>2023-03-11T14:28:54.658Z</time>
      </trkpt>
      <trkpt lat="47.09971" lon="7.21219">
        <ele>494.992064</ele>
        <time>2023-03-11T14:28:56.657Z</time>
      </trkpt>
      <trkpt lat="47.09983" lon="7.21231">
        <ele>494.534195</ele>
        <time>2023-03-11T14:28:58.642Z</time>
      </trkpt>
      <trkpt lat="47.09994" lon="7.21241">
        <ele>494.078455</ele>
        <time>2023-03-11T14:29:00.665Z</time>
      </trkpt>
      <trkpt lat="47.10007" lon="7.21251">
        <ele>493.60717</ele>
        <time>2023-03-11T14:29:02.667Z</time>
      </trkpt>
      <trkpt lat="47.10018" lon="7.21261">
        <ele>493.158293</ele>
        <time>2023-03-11T14:29:04.670Z</time>
      </trkpt>
      <trkpt lat="47.1003" lon="7.21271">
        <ele>492.692613</ele>
        <time>2023-03-11T14:29:06.669Z</time>
      </trkpt>
      <trkpt lat="47.10043" lon="7.21281">
        <ele>492.213265</ele>
        <time>2023-03-11T14:29:08.650Z</time>
      </trkpt>
      <trkpt lat="47.10054" lon="7.21292">
        <ele>491.764425</ele>
        <time>2023-03-11T14:29:10.664Z</time>
      </trkpt>
      <trkpt lat="47.10067" lon="7.21302">
        <ele>491.268749</ele>
        <time>2023-03-11T14:29:12.666Z</time>
      </trkpt>
      <trkpt lat="47.10081" lon="7.21313">
        <ele>490.744578</ele>
        <time>2023-03-11T14:29:14.656Z</time>
      </trkpt>
      <trkpt lat="47.10095" lon="7.21322">
        <ele>490.230011</ele>
        <time>2023-03-11T14:29:16.669Z</time>
      </trkpt>
      <trkpt lat="47.10109" lon="7.21332">
        <ele>489.710872</ele>
        <time>2023-03-11T14:29:18.657Z</time>
      </trkpt>
      <trkpt lat="47.10123" lon="7.21344">
        <ele>489.19385</ele>
        <time>2023-03-11T14:29:20.645Z</time>
      </trkpt>
      <trkpt lat="47.10135" lon="7.21356">
        <ele>488.870644</ele>
        <time>2023-03-11T14:29:22.652Z</time>
      </trkpt>
      <trkpt lat="47.10145" lon="7.21366">
        <ele>488.617672</ele>
        <time>2023-03-11T14:29:24.670Z</time>
      </trkpt>
      <trkpt lat="47.10154" lon="7.21375">
        <ele>488.398406</ele>
        <time>2023-03-11T14:29:26.676Z</time>
      </trkpt>
      <trkpt lat="47.10163" lon="7.21383">
        <ele>488.20301</ele>
        <time>2023-03-11T14:29:29.620Z</time>
      </trkpt>
      <trkpt lat="47.10171" lon="7.21392">
        <ele>488.003282</ele>
        <time>2023-03-11T14:29:35.649Z</time>
      </trkpt>
      <trkpt lat="47.10179" lon="7.214">
        <ele>487.801611</ele>
        <time>2023-03-11T14:29:39.653Z</time>
      </trkpt>
      <trkpt lat="47.1019" lon="7.21407">
        <ele>487.562454</ele>
        <time>2023-03-11T14:29:43.650Z</time>
      </trkpt>
      <trkpt lat="47.10201" lon="7.21415">
        <ele>487.327015</ele>
        <time>2023-03-11T14:29:46.659Z</time>
      </trkpt>
      <trkpt lat="47.10209" lon="7.21422">
        <ele>487.146057</ele>
        <time>2023-03-11T14:29:48.666Z</time>
      </trkpt>
      <trkpt lat="47.10216" lon="7.21429">
        <ele>486.965099</ele>
        <time>2023-03-11T14:29:50.662Z</time>
      </trkpt>
      <trkpt lat="47.10225" lon="7.21437">
        <ele>486.758815</ele>
        <time>2023-03-11T14:29:52.661Z</time>
      </trkpt>
      <trkpt lat="47.10234" lon="7.21445">
        <ele>486.54898</ele>
        <time>2023-03-11T14:29:54.671Z</time>
      </trkpt>
      <trkpt lat="47.10243" lon="7.21454">
        <ele>486.33238</ele>
        <time>2023-03-11T14:29:56.675Z</time>
      </trkpt>
      <trkpt lat="47.10253" lon="7.21462">
        <ele>486.11605</ele>
        <time>2023-03-11T14:29:58.674Z</time>
      </trkpt>
      <trkpt lat="47.10262" lon="7.21472">
        <ele>485.886535</ele>
        <time>2023-03-11T14:30:00.670Z</time>
      </trkpt>
      <trkpt lat="47.10272" lon="7.21482">
        <ele>485.648155</ele>
        <time>2023-03-11T14:30:02.683Z</time>
      </trkpt>
      <trkpt lat="47.10282" lon="7.2149">
        <ele>485.653592</ele>
        <time>2023-03-11T14:30:04.641Z</time>
      </trkpt>
      <trkpt lat="47.10292" lon="7.21501">
        <ele>485.867851</ele>
        <time>2023-03-11T14:30:06.661Z</time>
      </trkpt>
      <trkpt lat="47.10301" lon="7.21512">
        <ele>486.069416</ele>
        <time>2023-03-11T14:30:08.676Z</time>
      </trkpt>
      <trkpt lat="47.1031" lon="7.21524">
        <ele>486.271172</ele>
        <time>2023-03-11T14:30:10.658Z</time>
      </trkpt>
      <trkpt lat="47.10318" lon="7.21535">
        <ele>486.457936</ele>
        <time>2023-03-11T14:30:12.635Z</time>
      </trkpt>
      <trkpt lat="47.10326" lon="7.21548">
        <ele>486.658658</ele>
        <time>2023-03-11T14:30:14.650Z</time>
      </trkpt>
      <trkpt lat="47.10333" lon="7.2156">
        <ele>486.845733</ele>
        <time>2023-03-11T14:30:16.653Z</time>
      </trkpt>
      <trkpt lat="47.10339" lon="7.21574">
        <ele>487.037577</ele>
        <time>2023-03-11T14:30:18.628Z</time>
      </trkpt>
      <trkpt lat="47.10346" lon="7.21586">
        <ele>487.213406</ele>
        <time>2023-03-11T14:30:20.671Z</time>
      </trkpt>
      <trkpt lat="47.10352" lon="7.21598">
        <ele>487.397723</ele>
        <time>2023-03-11T14:30:22.662Z</time>
      </trkpt>
      <trkpt lat="47.10357" lon="7.21613">
        <ele>487.588255</ele>
        <time>2023-03-11T14:30:24.652Z</time>
      </trkpt>
      <trkpt lat="47.10361" lon="7.21627">
        <ele>487.760833</ele>
        <time>2023-03-11T14:30:26.668Z</time>
      </trkpt>
      <trkpt lat="47.10367" lon="7.21644">
        <ele>487.981934</ele>
        <time>2023-03-11T14:30:29.668Z</time>
      </trkpt>
      <trkpt lat="47.10375" lon="7.21654">
        <ele>488.164289</ele>
        <time>2023-03-11T14:30:32.649Z</time>
      </trkpt>
      <trkpt lat="47.10384" lon="7.2166">
        <ele>488.31989</ele>
        <time>2023-03-11T14:30:35.665Z</time>
      </trkpt>
      <trkpt lat="47.10394" lon="7.21664">
        <ele>488.505039</ele>
        <time>2023-03-11T14:30:38.655Z</time>
      </trkpt>
      <trkpt lat="47.10404" lon="7.21671">
        <ele>488.444643</ele>
        <time>2023-03-11T14:30:41.650Z</time>
      </trkpt>
      <trkpt lat="47.10413" lon="7.21678">
        <ele>488.05408</ele>
        <time>2023-03-11T14:30:44.676Z</time>
      </trkpt>
      <trkpt lat="47.10424" lon="7.21685">
        <ele>487.629711</ele>
        <time>2023-03-11T14:30:47.670Z</time>
      </trkpt>
      <trkpt lat="47.10436" lon="7.21695">
        <ele>487.135178</ele>
        <time>2023-03-11T14:30:50.666Z</time>
      </trkpt>
      <trkpt lat="47.10445" lon="7.21702">
        <ele>486.756714</ele>
        <time>2023-03-11T14:30:52.668Z</time>
      </trkpt>
      <trkpt lat="47.10456" lon="7.2171">
        <ele>486.301478</ele>
        <time>2023-03-11T14:30:54.657Z</time>
      </trkpt>
      <trkpt lat="47.1047" lon="7.21714">
        <ele>485.790335</ele>
        <time>2023-03-11T14:30:56.646Z</time>
      </trkpt>
      <trkpt lat="47.10486" lon="7.21713">
        <ele>485.212017</ele>
        <time>2023-03-11T14:30:58.650Z</time>
      </trkpt>
      <trkpt lat="47.10497" lon="7.21712">
        <ele>484.822806</ele>
        <time>2023-03-11T14:30:59.650Z</time>
      </trkpt>
      <trkpt lat="47.10507" lon="7.21711">
        <ele>484.458879</ele>
        <time>2023-03-11T14:31:00.674Z</time>
      </trkpt>
      <trkpt lat="47.10517" lon="7.21711">
        <ele>484.062662</ele>
        <time>2023-03-11T14:31:01.671Z</time>
      </trkpt>
      <trkpt lat="47.10527" lon="7.21711">
        <ele>483.724385</ele>
        <time>2023-03-11T14:31:02.668Z</time>
      </trkpt>
      <trkpt lat="47.10536" lon="7.21713">
        <ele>483.377892</ele>
        <time>2023-03-11T14:31:03.672Z</time>
      </trkpt>
      <trkpt lat="47.10546" lon="7.21715">
        <ele>483.018352</ele>
        <time>2023-03-11T14:31:04.667Z</time>
      </trkpt>
      <trkpt lat="47.10556" lon="7.21716">
        <ele>482.655853</ele>
        <time>2023-03-11T14:31:05.667Z</time>
      </trkpt>
      <trkpt lat="47.10566" lon="7.21719">
        <ele>482.301985</ele>
        <time>2023-03-11T14:31:06.655Z</time>
      </trkpt>
      <trkpt lat="47.10583" lon="7.21725">
        <ele>481.914752</ele>
        <time>2023-03-11T14:31:08.673Z</time>
      </trkpt>
      <trkpt lat="47.106" lon="7.21733">
        <ele>481.690796</ele>
        <time>2023-03-11T14:31:10.637Z</time>
      </trkpt>
      <trkpt lat="47.10614" lon="7.21741">
        <ele>481.49175</ele>
        <time>2023-03-11T14:31:12.653Z</time>
      </trkpt>
      <trkpt lat="47.10627" lon="7.21749">
        <ele>481.300147</ele>
        <time>2023-03-11T14:31:14.662Z</time>
      </trkpt>
      <trkpt lat="47.10641" lon="7.21756">
        <ele>481.11469</ele>
        <time>2023-03-11T14:31:16.684Z</time>
      </trkpt>
      <trkpt lat="47.10653" lon="7.21765">
        <ele>480.937371</ele>
        <time>2023-03-11T14:31:18.638Z</time>
      </trkpt>
      <trkpt lat="47.10664" lon="7.21775">
        <ele>480.768332</ele>
        <time>2023-03-11T14:31:20.650Z</time>
      </trkpt>
      <trkpt lat="47.10674" lon="7.21784">
        <ele>480.613245</ele>
        <time>2023-03-11T14:31:22.654Z</time>
      </trkpt>
      <trkpt lat="47.10684" lon="7.21794">
        <ele>480.454637</ele>
        <time>2023-03-11T14:31:24.663Z</time>
      </trkpt>
      <trkpt lat="47.10693" lon="7.21805">
        <ele>480.301652</ele>
        <time>2023-03-11T14:31:26.643Z</time>
      </trkpt>
      <trkpt lat="47.107" lon="7.21822">
        <ele>480.125337</ele>
        <time>2023-03-11T14:31:28.657Z</time>
      </trkpt>
      <trkpt lat="47.10706" lon="7.21839">
        <ele>479.950502</ele>
        <time>2023-03-11T14:31:30.648Z</time>
      </trkpt>
      <trkpt lat="47.10712" lon="7.21855">
        <ele>479.79092</ele>
        <time>2023-03-11T14:31:32.665Z</time>
      </trkpt>
      <trkpt lat="47.1072" lon="7.21868">
        <ele>479.712372</ele>
        <time>2023-03-11T14:31:34.628Z</time>
      </trkpt>
      <trkpt lat="47.1073" lon="7.21879">
        <ele>479.707693</ele>
        <time>2023-03-11T14:31:36.654Z</time>
      </trkpt>
      <trkpt lat="47.10742" lon="7.21886">
        <ele>479.703045</ele>
        <time>2023-03-11T14:31:38.652Z</time>
      </trkpt>
      <trkpt lat="47.10754" lon="7.21889">
        <ele>479.698544</ele>
        <time>2023-03-11T14:31:40.649Z</time>
      </trkpt>
      <trkpt lat="47.10765" lon="7.21889">
        <ele>479.694401</ele>
        <time>2023-03-11T14:31:42.653Z</time>
      </trkpt>
      <trkpt lat="47.10776" lon="7.21889">
        <ele>479.690221</ele>
        <time>2023-03-11T14:31:44.681Z</time>
      </trkpt>
      <trkpt lat="47.10788" lon="7.2189">
        <ele>479.685816</ele>
        <time>2023-03-11T14:31:46.664Z</time>
      </trkpt>
      <trkpt lat="47.10799" lon="7.21891">
        <ele>479.681801</ele>
        <time>2023-03-11T14:31:48.670Z</time>
      </trkpt>
      <trkpt lat="47.10811" lon="7.21892">
        <ele>479.677394</ele>
        <time>2023-03-11T14:31:50.668Z</time>
      </trkpt>
      <trkpt lat="47.10822" lon="7.21895">
        <ele>479.673359</ele>
        <time>2023-03-11T14:31:52.664Z</time>
      </trkpt>
      <trkpt lat="47.10833" lon="7.21898">
        <ele>479.669196</ele>
        <time>2023-03-11T14:31:54.626Z</time>
      </trkpt>
      <trkpt lat="47.10843" lon="7.21905">
        <ele>479.664973</ele>
        <time>2023-03-11T14:31:56.666Z</time>
      </trkpt>
      <trkpt lat="47.10854" lon="7.2191">
        <ele>479.660764</ele>
        <time>2023-03-11T14:31:58.667Z</time>
      </trkpt>
      <trkpt lat="47.10865" lon="7.21917">
        <ele>479.656447</ele>
        <time>2023-03-11T14:32:00.669Z</time>
      </trkpt>
      <trkpt lat="47.10876" lon="7.21923">
        <ele>479.652003</ele>
        <time>2023-03-11T14:32:02.652Z</time>
      </trkpt>
      <trkpt lat="47.10887" lon="7.21929">
        <ele>479.646706</ele>
        <time>2023-03-11T14:32:04.673Z</time>
      </trkpt>
      <trkpt lat="47.10897" lon="7.21935">
        <ele>479.6321</ele>
        <time>2023-03-11T14:32:06.663Z</time>
      </trkpt>
      <trkpt lat="47.10909" lon="7.21941">
        <ele>479.61665</ele>
        <time>2023-03-11T14:32:08.671Z</time>
      </trkpt>
      <trkpt lat="47.10919" lon="7.21946">
        <ele>479.602022</ele>
        <time>2023-03-11T14:32:10.675Z</time>
      </trkpt>
      <trkpt lat="47.1093" lon="7.21951">
        <ele>479.587151</ele>
        <time>2023-03-11T14:32:12.667Z</time>
      </trkpt>
      <trkpt lat="47.10941" lon="7.21957">
        <ele>479.571751</ele>
        <time>2023-03-11T14:32:14.675Z</time>
      </trkpt>
      <trkpt lat="47.10953" lon="7.21961">
        <ele>479.556453</ele>
        <time>2023-03-11T14:32:16.674Z</time>
      </trkpt>
      <trkpt lat="47.10963" lon="7.21965">
        <ele>479.542373</ele>
        <time>2023-03-11T14:32:18.666Z</time>
      </trkpt>
      <trkpt lat="47.10974" lon="7.2197">
        <ele>479.527397</ele>
        <time>2023-03-11T14:32:20.652Z</time>
      </trkpt>
      <trkpt lat="47.10985" lon="7.21977">
        <ele>479.512653</ele>
        <time>2023-03-11T14:32:22.652Z</time>
      </trkpt>
      <trkpt lat="47.10993" lon="7.21987">
        <ele>479.499127</ele>
        <time>2023-03-11T14:32:24.653Z</time>
      </trkpt>
      <trkpt lat="47.11002" lon="7.21998">
        <ele>479.48367</ele>
        <time>2023-03-11T14:32:26.654Z</time>
      </trkpt>
      <trkpt lat="47.11012" lon="7.22006">
        <ele>479.469346</ele>
        <time>2023-03-11T14:32:28.657Z</time>
      </trkpt>
      <trkpt lat="47.11021" lon="7.22013">
        <ele>479.456107</ele>
        <time>2023-03-11T14:32:30.666Z</time>
      </trkpt>
      <trkpt lat="47.1103" lon="7.2202">
        <ele>479.442605</ele>
        <time>2023-03-11T14:32:32.650Z</time>
      </trkpt>
      <trkpt lat="47.11039" lon="7.22029">
        <ele>479.428457</ele>
        <time>2023-03-11T14:32:34.637Z</time>
      </trkpt>
      <trkpt lat="47.11049" lon="7.22038">
        <ele>479.417548</ele>
        <time>2023-03-11T14:32:36.660Z</time>
      </trkpt>
      <trkpt lat="47.11058" lon="7.22048">
        <ele>479.441467</ele>
        <time>2023-03-11T14:32:38.661Z</time>
      </trkpt>
      <trkpt lat="47.11066" lon="7.22059">
        <ele>479.465418</ele>
        <time>2023-03-11T14:32:40.673Z</time>
      </trkpt>
      <trkpt lat="47.11075" lon="7.22069">
        <ele>479.490629</ele>
        <time>2023-03-11T14:32:42.667Z</time>
      </trkpt>
      <trkpt lat="47.11084" lon="7.2208">
        <ele>479.515155</ele>
        <time>2023-03-11T14:32:44.668Z</time>
      </trkpt>
      <trkpt lat="47.11093" lon="7.22091">
        <ele>479.539902</ele>
        <time>2023-03-11T14:32:46.665Z</time>
      </trkpt>
      <trkpt lat="47.11103" lon="7.221">
        <ele>479.564247</ele>
        <time>2023-03-11T14:32:48.672Z</time>
      </trkpt>
      <trkpt lat="47.11112" lon="7.2211">
        <ele>479.589316</ele>
        <time>2023-03-11T14:32:50.647Z</time>
      </trkpt>
      <trkpt lat="47.11123" lon="7.22118">
        <ele>479.614736</ele>
        <time>2023-03-11T14:32:52.665Z</time>
      </trkpt>
      <trkpt lat="47.11134" lon="7.22125">
        <ele>479.640471</ele>
        <time>2023-03-11T14:32:54.648Z</time>
      </trkpt>
      <trkpt lat="47.11145" lon="7.22133">
        <ele>479.667031</ele>
        <time>2023-03-11T14:32:56.686Z</time>
      </trkpt>
      <trkpt lat="47.11156" lon="7.22139">
        <ele>479.692825</ele>
        <time>2023-03-11T14:32:58.663Z</time>
      </trkpt>
      <trkpt lat="47.11167" lon="7.22147">
        <ele>479.718412</ele>
        <time>2023-03-11T14:33:00.671Z</time>
      </trkpt>
      <trkpt lat="47.11178" lon="7.22155">
        <ele>479.744794</ele>
        <time>2023-03-11T14:33:02.675Z</time>
      </trkpt>
      <trkpt lat="47.11188" lon="7.22165">
        <ele>479.771237</ele>
        <time>2023-03-11T14:33:04.665Z</time>
      </trkpt>
      <trkpt lat="47.11198" lon="7.22175">
        <ele>479.796535</ele>
        <time>2023-03-11T14:33:06.667Z</time>
      </trkpt>
      <trkpt lat="47.11209" lon="7.22181">
        <ele>479.675505</ele>
        <time>2023-03-11T14:33:08.651Z</time>
      </trkpt>
      <trkpt lat="47.11222" lon="7.2218">
        <ele>479.518131</ele>
        <time>2023-03-11T14:33:10.647Z</time>
      </trkpt>
      <trkpt lat="47.11234" lon="7.2217">
        <ele>479.348988</ele>
        <time>2023-03-11T14:33:12.645Z</time>
      </trkpt>
      <trkpt lat="47.11243" lon="7.22157">
        <ele>479.192794</ele>
        <time>2023-03-11T14:33:14.658Z</time>
      </trkpt>
      <trkpt lat="47.11251" lon="7.22144">
        <ele>479.039588</ele>
        <time>2023-03-11T14:33:16.653Z</time>
      </trkpt>
      <trkpt lat="47.1126" lon="7.22132">
        <ele>478.89058</ele>
        <time>2023-03-11T14:33:18.662Z</time>
      </trkpt>
      <trkpt lat="47.11271" lon="7.22124">
        <ele>478.746842</ele>
        <time>2023-03-11T14:33:20.653Z</time>
      </trkpt>
      <trkpt lat="47.11282" lon="7.22121">
        <ele>478.612197</ele>
        <time>2023-03-11T14:33:22.654Z</time>
      </trkpt>
      <trkpt lat="47.11293" lon="7.22124">
        <ele>478.469215</ele>
        <time>2023-03-11T14:33:24.642Z</time>
      </trkpt>
      <trkpt lat="47.11305" lon="7.22132">
        <ele>478.310066</ele>
        <time>2023-03-11T14:33:26.659Z</time>
      </trkpt>
      <trkpt lat="47.11317" lon="7.22139">
        <ele>478.15255</ele>
        <time>2023-03-11T14:33:28.665Z</time>
      </trkpt>
      <trkpt lat="47.11328" lon="7.22145">
        <ele>478.006473</ele>
        <time>2023-03-11T14:33:30.669Z</time>
      </trkpt>
      <trkpt lat="47.11339" lon="7.2215">
        <ele>477.864176</ele>
        <time>2023-03-11T14:33:32.679Z</time>
      </trkpt>
      <trkpt lat="47.1135" lon="7.22156">
        <ele>477.716943</ele>
        <time>2023-03-11T14:33:34.645Z</time>
      </trkpt>
      <trkpt lat="47.1136" lon="7.2216">
        <ele>477.592715</ele>
        <time>2023-03-11T14:33:36.667Z</time>
      </trkpt>
      <trkpt lat="47.11369" lon="7.2215">
        <ele>477.629381</ele>
        <time>2023-03-11T14:33:39.653Z</time>
      </trkpt>
      <trkpt lat="47.11373" lon="7.22133">
        <ele>477.670137</ele>
        <time>2023-03-11T14:33:42.647Z</time>
      </trkpt>
      <trkpt lat="47.1138" lon="7.22117">
        <ele>477.715749</ele>
        <time>2023-03-11T14:33:45.651Z</time>
      </trkpt>
      <trkpt lat="47.11386" lon="7.22104">
        <ele>477.751156</ele>
        <time>2023-03-11T14:33:47.671Z</time>
      </trkpt>
      <trkpt lat="47.11392" lon="7.22091">
        <ele>477.787543</ele>
        <time>2023-03-11T14:33:49.664Z</time>
      </trkpt>
      <trkpt lat="47.11397" lon="7.22078">
        <ele>477.820073</ele>
        <time>2023-03-11T14:33:51.651Z</time>
      </trkpt>
      <trkpt lat="47.11401" lon="7.22065">
        <ele>477.854378</ele>
        <time>2023-03-11T14:33:53.668Z</time>
      </trkpt>
      <trkpt lat="47.11406" lon="7.22051">
        <ele>477.889855</ele>
        <time>2023-03-11T14:33:55.668Z</time>
      </trkpt>
      <trkpt lat="47.11411" lon="7.22038">
        <ele>477.92364</ele>
        <time>2023-03-11T14:33:57.670Z</time>
      </trkpt>
      <trkpt lat="47.1142" lon="7.22026">
        <ele>477.964827</ele>
        <time>2023-03-11T14:34:00.664Z</time>
      </trkpt>
      <trkpt lat="47.1143" lon="7.22027">
        <ele>477.998527</ele>
        <time>2023-03-11T14:34:02.644Z</time>
      </trkpt>
      <trkpt lat="47.11441" lon="7.2203">
        <ele>478.035671</ele>
        <time>2023-03-11T14:34:04.653Z</time>
      </trkpt>
      <trkpt lat="47.11454" lon="7.2203">
        <ele>478.080754</ele>
        <time>2023-03-11T14:34:07.673Z</time>
      </trkpt>
      <trkpt lat="47.11465" lon="7.22032">
        <ele>478.116262</ele>
        <time>2023-03-11T14:34:09.675Z</time>
      </trkpt>
      <trkpt lat="47.11474" lon="7.22033">
        <ele>478.147373</ele>
        <time>2023-03-11T14:34:11.669Z</time>
      </trkpt>
      <trkpt lat="47.11486" lon="7.22036">
        <ele>478.187508</ele>
        <time>2023-03-11T14:34:14.680Z</time>
      </trkpt>
      <trkpt lat="47.11495" lon="7.22039">
        <ele>478.1998</ele>
        <time>2023-03-11T14:34:16.646Z</time>
      </trkpt>
      <trkpt lat="47.11504" lon="7.22042">
        <ele>478.203947</ele>
        <time>2023-03-11T14:34:18.663Z</time>
      </trkpt>
      <trkpt lat="47.11514" lon="7.22046">
        <ele>478.208166</ele>
        <time>2023-03-11T14:34:20.672Z</time>
      </trkpt>
      <trkpt lat="47.11524" lon="7.22049">
        <ele>478.212841</ele>
        <time>2023-03-11T14:34:22.673Z</time>
      </trkpt>
      <trkpt lat="47.11534" lon="7.22055">
        <ele>478.217308</ele>
        <time>2023-03-11T14:34:24.671Z</time>
      </trkpt>
      <trkpt lat="47.11542" lon="7.2206">
        <ele>478.221325</ele>
        <time>2023-03-11T14:34:26.668Z</time>
      </trkpt>
      <trkpt lat="47.11551" lon="7.22065">
        <ele>478.225421</ele>
        <time>2023-03-11T14:34:28.662Z</time>
      </trkpt>
      <trkpt lat="47.11563" lon="7.22072">
        <ele>478.230945</ele>
        <time>2023-03-11T14:34:31.660Z</time>
      </trkpt>
      <trkpt lat="47.11572" lon="7.22077">
        <ele>478.235145</ele>
        <time>2023-03-11T14:34:33.658Z</time>
      </trkpt>
      <trkpt lat="47.11581" lon="7.22081">
        <ele>478.239159</ele>
        <time>2023-03-11T14:34:35.658Z</time>
      </trkpt>
      <trkpt lat="47.1159" lon="7.22088">
        <ele>478.243323</ele>
        <time>2023-03-11T14:34:37.652Z</time>
      </trkpt>
      <trkpt lat="47.11598" lon="7.22098">
        <ele>478.248134</ele>
        <time>2023-03-11T14:34:39.655Z</time>
      </trkpt>
      <trkpt lat="47.11607" lon="7.22108">
        <ele>478.252921</ele>
        <time>2023-03-11T14:34:41.660Z</time>
      </trkpt>
      <trkpt lat="47.11616" lon="7.22115">
        <ele>478.25733</ele>
        <time>2023-03-11T14:34:43.672Z</time>
      </trkpt>
      <trkpt lat="47.11624" lon="7.22123">
        <ele>478.261681</ele>
        <time>2023-03-11T14:34:45.665Z</time>
      </trkpt>
      <trkpt lat="47.11634" lon="7.22132">
        <ele>478.266375</ele>
        <time>2023-03-11T14:34:47.666Z</time>
      </trkpt>
      <trkpt lat="47.11642" lon="7.2214">
        <ele>478.270588</ele>
        <time>2023-03-11T14:34:49.675Z</time>
      </trkpt>
      <trkpt lat="47.11648" lon="7.22149">
        <ele>478.274549</ele>
        <time>2023-03-11T14:34:51.676Z</time>
      </trkpt>
      <trkpt lat="47.11657" lon="7.22159">
        <ele>478.270515</ele>
        <time>2023-03-11T14:34:53.663Z</time>
      </trkpt>
      <trkpt lat="47.11666" lon="7.22169">
        <ele>478.26607</ele>
        <time>2023-03-11T14:34:55.677Z</time>
      </trkpt>
      <trkpt lat="47.11673" lon="7.22178">
        <ele>478.262235</ele>
        <time>2023-03-11T14:34:57.664Z</time>
      </trkpt>
      <trkpt lat="47.11681" lon="7.22188">
        <ele>478.257956</ele>
        <time>2023-03-11T14:34:59.673Z</time>
      </trkpt>
      <trkpt lat="47.1169" lon="7.22198">
        <ele>478.253544</ele>
        <time>2023-03-11T14:35:01.676Z</time>
      </trkpt>
      <trkpt lat="47.11698" lon="7.22207">
        <ele>478.249407</ele>
        <time>2023-03-11T14:35:03.664Z</time>
      </trkpt>
      <trkpt lat="47.11706" lon="7.22217">
        <ele>478.245278</ele>
        <time>2023-03-11T14:35:05.679Z</time>
      </trkpt>
      <trkpt lat="47.11714" lon="7.22228">
        <ele>478.241009</ele>
        <time>2023-03-11T14:35:07.668Z</time>
      </trkpt>
      <trkpt lat="47.11722" lon="7.22241">
        <ele>478.235949</ele>
        <time>2023-03-11T14:35:09.661Z</time>
      </trkpt>
      <trkpt lat="47.1173" lon="7.22254">
        <ele>478.23132</ele>
        <time>2023-03-11T14:35:11.682Z</time>
      </trkpt>
      <trkpt lat="47.11737" lon="7.22265">
        <ele>478.227008</ele>
        <time>2023-03-11T14:35:13.667Z</time>
      </trkpt>
      <trkpt lat="47.11744" lon="7.22277">
        <ele>478.22277</ele>
        <time>2023-03-11T14:35:15.678Z</time>
      </trkpt>
      <trkpt lat="47.11751" lon="7.22286">
        <ele>478.219129</ele>
        <time>2023-03-11T14:35:17.648Z</time>
      </trkpt>
      <trkpt lat="47.11757" lon="7.22297">
        <ele>478.215288</ele>
        <time>2023-03-11T14:35:19.657Z</time>
      </trkpt>
      <trkpt lat="47.11765" lon="7.22308">
        <ele>478.210908</ele>
        <time>2023-03-11T14:35:21.668Z</time>
      </trkpt>
      <trkpt lat="47.11772" lon="7.22319">
        <ele>478.206825</ele>
        <time>2023-03-11T14:35:23.680Z</time>
      </trkpt>
      <trkpt lat="47.11779" lon="7.22333">
        <ele>478.201645</ele>
        <time>2023-03-11T14:35:26.664Z</time>
      </trkpt>
      <trkpt lat="47.11784" lon="7.22348">
        <ele>478.190812</ele>
        <time>2023-03-11T14:35:29.641Z</time>
      </trkpt>
      <trkpt lat="47.11794" lon="7.22354">
        <ele>478.180327</ele>
        <time>2023-03-11T14:35:32.648Z</time>
      </trkpt>
      <trkpt lat="47.11803" lon="7.2236">
        <ele>478.171326</ele>
        <time>2023-03-11T14:35:35.633Z</time>
      </trkpt>
      <trkpt lat="47.11808" lon="7.22375">
        <ele>478.160003</ele>
        <time>2023-03-11T14:35:38.640Z</time>
      </trkpt>
      <trkpt lat="47.11818" lon="7.22388">
        <ele>478.147481</ele>
        <time>2023-03-11T14:35:41.654Z</time>
      </trkpt>
      <trkpt lat="47.11826" lon="7.22395">
        <ele>478.138811</ele>
        <time>2023-03-11T14:35:43.652Z</time>
      </trkpt>
      <trkpt lat="47.11837" lon="7.22405">
        <ele>478.126894</ele>
        <time>2023-03-11T14:35:46.665Z</time>
      </trkpt>
      <trkpt lat="47.11848" lon="7.22417">
        <ele>478.11417</ele>
        <time>2023-03-11T14:35:49.689Z</time>
      </trkpt>
      <trkpt lat="47.11856" lon="7.22424">
        <ele>478.105339</ele>
        <time>2023-03-11T14:35:51.683Z</time>
      </trkpt>
      <trkpt lat="47.11864" lon="7.22432">
        <ele>478.096131</ele>
        <time>2023-03-11T14:35:53.671Z</time>
      </trkpt>
      <trkpt lat="47.11873" lon="7.22442">
        <ele>478.085368</ele>
        <time>2023-03-11T14:35:56.674Z</time>
      </trkpt>
      <trkpt lat="47.11883" lon="7.2244">
        <ele>478.076412</ele>
        <time>2023-03-11T14:35:59.653Z</time>
      </trkpt>
      <trkpt lat="47.1189" lon="7.22425">
        <ele>478.065024</ele>
        <time>2023-03-11T14:36:02.634Z</time>
      </trkpt>
      <trkpt lat="47.11895" lon="7.22414">
        <ele>478.056458</ele>
        <time>2023-03-11T14:36:04.666Z</time>
      </trkpt>
      <trkpt lat="47.11903" lon="7.22403">
        <ele>478.046343</ele>
        <time>2023-03-11T14:36:07.631Z</time>
      </trkpt>
      <trkpt lat="47.11912" lon="7.22397">
        <ele>478.036984</ele>
        <time>2023-03-11T14:36:12.643Z</time>
      </trkpt>
      <trkpt lat="47.11919" lon="7.22407">
        <ele>478.069493</ele>
        <time>2023-03-11T14:36:15.655Z</time>
      </trkpt>
      <trkpt lat="47.11928" lon="7.22416">
        <ele>478.141435</ele>
        <time>2023-03-11T14:36:18.663Z</time>
      </trkpt>
      <trkpt lat="47.11936" lon="7.22427">
        <ele>478.210942</ele>
        <time>2023-03-11T14:36:21.655Z</time>
      </trkpt>
      <trkpt lat="47.11945" lon="7.22438">
        <ele>478.285722</ele>
        <time>2023-03-11T14:36:24.672Z</time>
      </trkpt>
      <trkpt lat="47.11954" lon="7.22449">
        <ele>478.360004</ele>
        <time>2023-03-11T14:36:27.681Z</time>
      </trkpt>
      <trkpt lat="47.11963" lon="7.2246">
        <ele>478.435553</ele>
        <time>2023-03-11T14:36:30.656Z</time>
      </trkpt>
      <trkpt lat="47.11972" lon="7.22471">
        <ele>478.509469</ele>
        <time>2023-03-11T14:36:33.673Z</time>
      </trkpt>
      <trkpt lat="47.1198" lon="7.22481">
        <ele>478.576209</ele>
        <time>2023-03-11T14:36:37.675Z</time>
      </trkpt>
      <trkpt lat="47.11973" lon="7.22469">
        <ele>478.646876</ele>
        <time>2023-03-11T14:37:18.636Z</time>
      </trkpt>
      <trkpt lat="47.11965" lon="7.22459">
        <ele>478.71189</ele>
        <time>2023-03-11T14:37:22.671Z</time>
      </trkpt>
      <trkpt lat="47.11956" lon="7.22448">
        <ele>478.783891</ele>
        <time>2023-03-11T14:37:25.678Z</time>
      </trkpt>
      <trkpt lat="47.11946" lon="7.22437">
        <ele>478.863523</ele>
        <time>2023-03-11T14:37:28.670Z</time>
      </trkpt>
      <trkpt lat="47.11939" lon="7.22428">
        <ele>478.923197</ele>
        <time>2023-03-11T14:37:30.673Z</time>
      </trkpt>
      <trkpt lat="47.11929" lon="7.22416">
        <ele>479.007433</ele>
        <time>2023-03-11T14:37:33.671Z</time>
      </trkpt>
      <trkpt lat="47.11921" lon="7.22408">
        <ele>479.067031</ele>
        <time>2023-03-11T14:37:35.657Z</time>
      </trkpt>
      <trkpt lat="47.11913" lon="7.22398">
        <ele>479.136394</ele>
        <time>2023-03-11T14:37:38.656Z</time>
      </trkpt>
      <trkpt lat="47.11904" lon="7.22406">
        <ele>479.133531</ele>
        <time>2023-03-11T14:37:42.653Z</time>
      </trkpt>
      <trkpt lat="47.11897" lon="7.22416">
        <ele>479.022413</ele>
        <time>2023-03-11T14:37:44.658Z</time>
      </trkpt>
      <trkpt lat="47.11891" lon="7.22427">
        <ele>478.901335</ele>
        <time>2023-03-11T14:37:46.656Z</time>
      </trkpt>
      <trkpt lat="47.11885" lon="7.22438">
        <ele>478.788959</ele>
        <time>2023-03-11T14:37:48.666Z</time>
      </trkpt>
      <trkpt lat="47.11873" lon="7.22443">
        <ele>478.642387</ele>
        <time>2023-03-11T14:37:51.650Z</time>
      </trkpt>
      <trkpt lat="47.11864" lon="7.22436">
        <ele>478.517683</ele>
        <time>2023-03-11T14:37:53.662Z</time>
      </trkpt>
      <trkpt lat="47.11857" lon="7.22425">
        <ele>478.399179</ele>
        <time>2023-03-11T14:37:55.667Z</time>
      </trkpt>
      <trkpt lat="47.11849" lon="7.22416">
        <ele>478.282687</ele>
        <time>2023-03-11T14:37:57.676Z</time>
      </trkpt>
      <trkpt lat="47.11841" lon="7.22409">
        <ele>478.167655</ele>
        <time>2023-03-11T14:37:59.687Z</time>
      </trkpt>
      <trkpt lat="47.11833" lon="7.224">
        <ele>478.044025</ele>
        <time>2023-03-11T14:38:01.673Z</time>
      </trkpt>
      <trkpt lat="47.11825" lon="7.22392">
        <ele>477.926632</ele>
        <time>2023-03-11T14:38:03.677Z</time>
      </trkpt>
      <trkpt lat="47.11815" lon="7.22384">
        <ele>477.798804</ele>
        <time>2023-03-11T14:38:05.686Z</time>
      </trkpt>
      <trkpt lat="47.11807" lon="7.22374">
        <ele>477.667999</ele>
        <time>2023-03-11T14:38:07.683Z</time>
      </trkpt>
      <trkpt lat="47.11802" lon="7.22362">
        <ele>477.548835</ele>
        <time>2023-03-11T14:38:09.655Z</time>
      </trkpt>
      <trkpt lat="47.11797" lon="7.22349">
        <ele>477.429993</ele>
        <time>2023-03-11T14:38:11.635Z</time>
      </trkpt>
      <trkpt lat="47.11789" lon="7.2234">
        <ele>477.314427</ele>
        <time>2023-03-11T14:38:13.664Z</time>
      </trkpt>
      <trkpt lat="47.11778" lon="7.2233">
        <ele>477.162964</ele>
        <time>2023-03-11T14:38:16.650Z</time>
      </trkpt>
      <trkpt lat="47.1177" lon="7.22333">
        <ele>477.054503</ele>
        <time>2023-03-11T14:38:20.664Z</time>
      </trkpt>
      <trkpt lat="47.11766" lon="7.22348">
        <ele>477.127548</ele>
        <time>2023-03-11T14:38:23.663Z</time>
      </trkpt>
      <trkpt lat="47.11761" lon="7.22361">
        <ele>477.229256</ele>
        <time>2023-03-11T14:38:25.683Z</time>
      </trkpt>
      <trkpt lat="47.11754" lon="7.22376">
        <ele>477.362478</ele>
        <time>2023-03-11T14:38:27.664Z</time>
      </trkpt>
      <trkpt lat="47.11746" lon="7.22389">
        <ele>477.48709</ele>
        <time>2023-03-11T14:38:29.680Z</time>
      </trkpt>
      <trkpt lat="47.11741" lon="7.22404">
        <ele>477.604651</ele>
        <time>2023-03-11T14:38:31.656Z</time>
      </trkpt>
      <trkpt lat="47.11734" lon="7.22417">
        <ele>477.721668</ele>
        <time>2023-03-11T14:38:33.680Z</time>
      </trkpt>
      <trkpt lat="47.11729" lon="7.22431">
        <ele>477.836642</ele>
        <time>2023-03-11T14:38:35.673Z</time>
      </trkpt>
      <trkpt lat="47.11723" lon="7.22445">
        <ele>477.952607</ele>
        <time>2023-03-11T14:38:37.678Z</time>
      </trkpt>
      <trkpt lat="47.11717" lon="7.22459">
        <ele>478.066121</ele>
        <time>2023-03-11T14:38:39.678Z</time>
      </trkpt>
      <trkpt lat="47.11712" lon="7.22473">
        <ele>478.181711</ele>
        <time>2023-03-11T14:38:41.679Z</time>
      </trkpt>
      <trkpt lat="47.11704" lon="7.22486">
        <ele>478.304349</ele>
        <time>2023-03-11T14:38:43.673Z</time>
      </trkpt>
      <trkpt lat="47.11699" lon="7.22498">
        <ele>478.404907</ele>
        <time>2023-03-11T14:38:45.654Z</time>
      </trkpt>
      <trkpt lat="47.11695" lon="7.22514">
        <ele>478.527836</ele>
        <time>2023-03-11T14:38:48.651Z</time>
      </trkpt>
      <trkpt lat="47.11707" lon="7.22521">
        <ele>478.668158</ele>
        <time>2023-03-11T14:38:51.648Z</time>
      </trkpt>
      <trkpt lat="47.11717" lon="7.22526">
        <ele>478.771416</ele>
        <time>2023-03-11T14:38:53.660Z</time>
      </trkpt>
      <trkpt lat="47.11725" lon="7.22535">
        <ele>478.879343</ele>
        <time>2023-03-11T14:38:55.664Z</time>
      </trkpt>
      <trkpt lat="47.11735" lon="7.22542">
        <ele>478.930571</ele>
        <time>2023-03-11T14:38:57.676Z</time>
      </trkpt>
      <trkpt lat="47.11745" lon="7.22549">
        <ele>478.957598</ele>
        <time>2023-03-11T14:38:59.678Z</time>
      </trkpt>
      <trkpt lat="47.11754" lon="7.22558">
        <ele>478.983776</ele>
        <time>2023-03-11T14:39:01.688Z</time>
      </trkpt>
      <trkpt lat="47.11763" lon="7.22565">
        <ele>479.00811</ele>
        <time>2023-03-11T14:39:03.674Z</time>
      </trkpt>
      <trkpt lat="47.11772" lon="7.22574">
        <ele>479.03327</ele>
        <time>2023-03-11T14:39:05.674Z</time>
      </trkpt>
      <trkpt lat="47.11781" lon="7.22581">
        <ele>479.058792</ele>
        <time>2023-03-11T14:39:07.686Z</time>
      </trkpt>
      <trkpt lat="47.1179" lon="7.2259">
        <ele>479.084388</ele>
        <time>2023-03-11T14:39:09.688Z</time>
      </trkpt>
      <trkpt lat="47.118" lon="7.22599">
        <ele>479.110782</ele>
        <time>2023-03-11T14:39:11.675Z</time>
      </trkpt>
      <trkpt lat="47.1181" lon="7.22607">
        <ele>479.138356</ele>
        <time>2023-03-11T14:39:13.683Z</time>
      </trkpt>
      <trkpt lat="47.11819" lon="7.22615">
        <ele>479.163878</ele>
        <time>2023-03-11T14:39:15.693Z</time>
      </trkpt>
      <trkpt lat="47.11829" lon="7.22622">
        <ele>479.188777</ele>
        <time>2023-03-11T14:39:17.690Z</time>
      </trkpt>
      <trkpt lat="47.11838" lon="7.22631">
        <ele>479.216033</ele>
        <time>2023-03-11T14:39:19.664Z</time>
      </trkpt>
      <trkpt lat="47.11848" lon="7.2264">
        <ele>479.243404</ele>
        <time>2023-03-11T14:39:21.644Z</time>
      </trkpt>
      <trkpt lat="47.11858" lon="7.22648">
        <ele>479.270279</ele>
        <time>2023-03-11T14:39:23.680Z</time>
      </trkpt>
      <trkpt lat="47.11868" lon="7.22654">
        <ele>479.296912</ele>
        <time>2023-03-11T14:39:25.679Z</time>
      </trkpt>
      <trkpt lat="47.11878" lon="7.22661">
        <ele>479.322809</ele>
        <time>2023-03-11T14:39:27.665Z</time>
      </trkpt>
      <trkpt lat="47.11887" lon="7.22669">
        <ele>479.35116</ele>
        <time>2023-03-11T14:39:29.686Z</time>
      </trkpt>
      <trkpt lat="47.11896" lon="7.22677">
        <ele>479.386279</ele>
        <time>2023-03-11T14:39:31.692Z</time>
      </trkpt>
      <trkpt lat="47.11904" lon="7.22685">
        <ele>479.419493</ele>
        <time>2023-03-11T14:39:33.662Z</time>
      </trkpt>
      <trkpt lat="47.11911" lon="7.22696">
        <ele>479.454126</ele>
        <time>2023-03-11T14:39:35.660Z</time>
      </trkpt>
      <trkpt lat="47.11918" lon="7.22709">
        <ele>479.4917</ele>
        <time>2023-03-11T14:39:37.678Z</time>
      </trkpt>
      <trkpt lat="47.11923" lon="7.22723">
        <ele>479.528534</ele>
        <time>2023-03-11T14:39:39.660Z</time>
      </trkpt>
      <trkpt lat="47.11929" lon="7.22737">
        <ele>479.567944</ele>
        <time>2023-03-11T14:39:41.682Z</time>
      </trkpt>
      <trkpt lat="47.11935" lon="7.2275">
        <ele>479.602387</ele>
        <time>2023-03-11T14:39:43.688Z</time>
      </trkpt>
      <trkpt lat="47.11941" lon="7.22764">
        <ele>479.641412</ele>
        <time>2023-03-11T14:39:45.674Z</time>
      </trkpt>
      <trkpt lat="47.11948" lon="7.22778">
        <ele>479.681424</ele>
        <time>2023-03-11T14:39:47.682Z</time>
      </trkpt>
      <trkpt lat="47.11954" lon="7.22791">
        <ele>479.718743</ele>
        <time>2023-03-11T14:39:49.688Z</time>
      </trkpt>
      <trkpt lat="47.11961" lon="7.22805">
        <ele>479.759718</ele>
        <time>2023-03-11T14:39:51.680Z</time>
      </trkpt>
      <trkpt lat="47.11969" lon="7.22819">
        <ele>479.800832</ele>
        <time>2023-03-11T14:39:53.675Z</time>
      </trkpt>
      <trkpt lat="47.11977" lon="7.22831">
        <ele>479.84051</ele>
        <time>2023-03-11T14:39:55.644Z</time>
      </trkpt>
      <trkpt lat="47.11986" lon="7.22844">
        <ele>479.882301</ele>
        <time>2023-03-11T14:39:57.675Z</time>
      </trkpt>
      <trkpt lat="47.11994" lon="7.22853">
        <ele>479.917864</ele>
        <time>2023-03-11T14:39:59.674Z</time>
      </trkpt>
      <trkpt lat="47.12002" lon="7.22862">
        <ele>479.95075</ele>
        <time>2023-03-11T14:40:01.687Z</time>
      </trkpt>
      <trkpt lat="47.1201" lon="7.22869">
        <ele>479.974795</ele>
        <time>2023-03-11T14:40:03.656Z</time>
      </trkpt>
      <trkpt lat="47.1202" lon="7.22873">
        <ele>480.000362</ele>
        <time>2023-03-11T14:40:05.660Z</time>
      </trkpt>
      <trkpt lat="47.12029" lon="7.2287">
        <ele>480.025912</ele>
        <time>2023-03-11T14:40:07.667Z</time>
      </trkpt>
      <trkpt lat="47.12039" lon="7.22868">
        <ele>480.050795</ele>
        <time>2023-03-11T14:40:09.682Z</time>
      </trkpt>
      <trkpt lat="47.12049" lon="7.22866">
        <ele>480.07749</ele>
        <time>2023-03-11T14:40:11.676Z</time>
      </trkpt>
      <trkpt lat="47.1206" lon="7.22864">
        <ele>480.105644</ele>
        <time>2023-03-11T14:40:13.678Z</time>
      </trkpt>
      <trkpt lat="47.12071" lon="7.22863">
        <ele>480.133525</ele>
        <time>2023-03-11T14:40:15.675Z</time>
      </trkpt>
      <trkpt lat="47.12082" lon="7.22863">
        <ele>480.16156</ele>
        <time>2023-03-11T14:40:17.679Z</time>
      </trkpt>
      <trkpt lat="47.12092" lon="7.22866">
        <ele>480.18937</ele>
        <time>2023-03-11T14:40:19.658Z</time>
      </trkpt>
      <trkpt lat="47.12103" lon="7.2287">
        <ele>480.217496</ele>
        <time>2023-03-11T14:40:21.662Z</time>
      </trkpt>
      <trkpt lat="47.12113" lon="7.22878">
        <ele>480.247002</ele>
        <time>2023-03-11T14:40:23.660Z</time>
      </trkpt>
      <trkpt lat="47.12121" lon="7.2289">
        <ele>480.275721</ele>
        <time>2023-03-11T14:40:25.660Z</time>
      </trkpt>
      <trkpt lat="47.12127" lon="7.22902">
        <ele>480.302506</ele>
        <time>2023-03-11T14:40:27.665Z</time>
      </trkpt>
      <trkpt lat="47.12135" lon="7.22914">
        <ele>480.330586</ele>
        <time>2023-03-11T14:40:29.678Z</time>
      </trkpt>
      <trkpt lat="47.12143" lon="7.22925">
        <ele>480.360297</ele>
        <time>2023-03-11T14:40:31.674Z</time>
      </trkpt>
      <trkpt lat="47.12152" lon="7.22938">
        <ele>480.393015</ele>
        <time>2023-03-11T14:40:33.680Z</time>
      </trkpt>
      <trkpt lat="47.1216" lon="7.22952">
        <ele>480.422209</ele>
        <time>2023-03-11T14:40:35.671Z</time>
      </trkpt>
      <trkpt lat="47.12168" lon="7.22965">
        <ele>480.445101</ele>
        <time>2023-03-11T14:40:37.657Z</time>
      </trkpt>
      <trkpt lat="47.12175" lon="7.22979">
        <ele>480.467873</ele>
        <time>2023-03-11T14:40:39.665Z</time>
      </trkpt>
      <trkpt lat="47.12182" lon="7.22992">
        <ele>480.490317</ele>
        <time>2023-03-11T14:40:41.653Z</time>
      </trkpt>
      <trkpt lat="47.12189" lon="7.23005">
        <ele>480.512146</ele>
        <time>2023-03-11T14:40:43.667Z</time>
      </trkpt>
      <trkpt lat="47.12198" lon="7.23016">
        <ele>480.533516</ele>
        <time>2023-03-11T14:40:45.664Z</time>
      </trkpt>
      <trkpt lat="47.12207" lon="7.23024">
        <ele>480.554496</ele>
        <time>2023-03-11T14:40:47.660Z</time>
      </trkpt>
      <trkpt lat="47.12217" lon="7.23033">
        <ele>480.577117</ele>
        <time>2023-03-11T14:40:49.661Z</time>
      </trkpt>
      <trkpt lat="47.12226" lon="7.23043">
        <ele>480.600273</ele>
        <time>2023-03-11T14:40:51.683Z</time>
      </trkpt>
      <trkpt lat="47.12236" lon="7.23051">
        <ele>480.621265</ele>
        <time>2023-03-11T14:40:53.676Z</time>
      </trkpt>
      <trkpt lat="47.12245" lon="7.23059">
        <ele>480.642245</ele>
        <time>2023-03-11T14:40:55.672Z</time>
      </trkpt>
      <trkpt lat="47.12256" lon="7.23068">
        <ele>480.66568</ele>
        <time>2023-03-11T14:40:57.680Z</time>
      </trkpt>
      <trkpt lat="47.12266" lon="7.23076">
        <ele>480.687904</ele>
        <time>2023-03-11T14:40:59.688Z</time>
      </trkpt>
      <trkpt lat="47.12276" lon="7.23085">
        <ele>480.712197</ele>
        <time>2023-03-11T14:41:01.681Z</time>
      </trkpt>
      <trkpt lat="47.12289" lon="7.23096">
        <ele>480.741113</ele>
        <time>2023-03-11T14:41:03.675Z</time>
      </trkpt>
      <trkpt lat="47.123" lon="7.23106">
        <ele>480.759494</ele>
        <time>2023-03-11T14:41:05.680Z</time>
      </trkpt>
      <trkpt lat="47.1231" lon="7.23115">
        <ele>480.717595</ele>
        <time>2023-03-11T14:41:07.682Z</time>
      </trkpt>
      <trkpt lat="47.1232" lon="7.23126">
        <ele>480.675133</ele>
        <time>2023-03-11T14:41:10.664Z</time>
      </trkpt>
      <trkpt lat="47.12323" lon="7.23141">
        <ele>480.639201</ele>
        <time>2023-03-11T14:41:12.665Z</time>
      </trkpt>
      <trkpt lat="47.1232" lon="7.23157">
        <ele>480.598477</ele>
        <time>2023-03-11T14:41:14.654Z</time>
      </trkpt>
      <trkpt lat="47.12317" lon="7.23172">
        <ele>480.561764</ele>
        <time>2023-03-11T14:41:16.660Z</time>
      </trkpt>
      <trkpt lat="47.12312" lon="7.23187">
        <ele>480.52262</ele>
        <time>2023-03-11T14:41:18.671Z</time>
      </trkpt>
      <trkpt lat="47.12309" lon="7.23201">
        <ele>480.486345</ele>
        <time>2023-03-11T14:41:20.676Z</time>
      </trkpt>
      <trkpt lat="47.12305" lon="7.23216">
        <ele>480.447372</ele>
        <time>2023-03-11T14:41:22.680Z</time>
      </trkpt>
      <trkpt lat="47.12301" lon="7.23232">
        <ele>480.409305</ele>
        <time>2023-03-11T14:41:24.681Z</time>
      </trkpt>
      <trkpt lat="47.12299" lon="7.23247">
        <ele>480.370548</ele>
        <time>2023-03-11T14:41:26.683Z</time>
      </trkpt>
      <trkpt lat="47.12298" lon="7.23263">
        <ele>480.332662</ele>
        <time>2023-03-11T14:41:28.674Z</time>
      </trkpt>
      <trkpt lat="47.12295" lon="7.23279">
        <ele>480.294187</ele>
        <time>2023-03-11T14:41:30.683Z</time>
      </trkpt>
      <trkpt lat="47.12292" lon="7.23296">
        <ele>480.251703</ele>
        <time>2023-03-11T14:41:32.657Z</time>
      </trkpt>
      <trkpt lat="47.12289" lon="7.23312">
        <ele>480.211937</ele>
        <time>2023-03-11T14:41:34.692Z</time>
      </trkpt>
      <trkpt lat="47.12286" lon="7.23328">
        <ele>480.173922</ele>
        <time>2023-03-11T14:41:36.674Z</time>
      </trkpt>
      <trkpt lat="47.12283" lon="7.23344">
        <ele>480.130818</ele>
        <time>2023-03-11T14:41:38.691Z</time>
      </trkpt>
      <trkpt lat="47.1228" lon="7.23361">
        <ele>479.988409</ele>
        <time>2023-03-11T14:41:40.702Z</time>
      </trkpt>
      <trkpt lat="47.12277" lon="7.23378">
        <ele>479.84309</ele>
        <time>2023-03-11T14:41:42.681Z</time>
      </trkpt>
      <trkpt lat="47.12274" lon="7.23395">
        <ele>479.698168</ele>
        <time>2023-03-11T14:41:44.656Z</time>
      </trkpt>
      <trkpt lat="47.1227" lon="7.23412">
        <ele>479.552641</ele>
        <time>2023-03-11T14:41:46.688Z</time>
      </trkpt>
      <trkpt lat="47.12267" lon="7.23429">
        <ele>479.411568</ele>
        <time>2023-03-11T14:41:48.690Z</time>
      </trkpt>
      <trkpt lat="47.12264" lon="7.23446">
        <ele>479.267497</ele>
        <time>2023-03-11T14:41:50.684Z</time>
      </trkpt>
      <trkpt lat="47.12251" lon="7.23454">
        <ele>479.103743</ele>
        <time>2023-03-11T14:41:53.662Z</time>
      </trkpt>
      <trkpt lat="47.12238" lon="7.23449">
        <ele>478.94216</ele>
        <time>2023-03-11T14:41:55.661Z</time>
      </trkpt>
      <trkpt lat="47.12229" lon="7.23441">
        <ele>478.816182</ele>
        <time>2023-03-11T14:41:57.669Z</time>
      </trkpt>
      <trkpt lat="47.1222" lon="7.23435">
        <ele>478.692234</ele>
        <time>2023-03-11T14:41:59.664Z</time>
      </trkpt>
      <trkpt lat="47.12208" lon="7.23435">
        <ele>478.558089</ele>
        <time>2023-03-11T14:42:01.665Z</time>
      </trkpt>
      <trkpt lat="47.12197" lon="7.2344">
        <ele>478.420832</ele>
        <time>2023-03-11T14:42:03.661Z</time>
      </trkpt>
      <trkpt lat="47.12187" lon="7.23451">
        <ele>478.268181</ele>
        <time>2023-03-11T14:42:05.647Z</time>
      </trkpt>
      <trkpt lat="47.12177" lon="7.23463">
        <ele>478.115639</ele>
        <time>2023-03-11T14:42:07.678Z</time>
      </trkpt>
      <trkpt lat="47.12168" lon="7.23475">
        <ele>477.989317</ele>
        <time>2023-03-11T14:42:09.663Z</time>
      </trkpt>
      <trkpt lat="47.12161" lon="7.23488">
        <ele>478.09831</ele>
        <time>2023-03-11T14:42:11.683Z</time>
      </trkpt>
      <trkpt lat="47.12153" lon="7.235">
        <ele>478.205252</ele>
        <time>2023-03-11T14:42:13.675Z</time>
      </trkpt>
      <trkpt lat="47.12146" lon="7.23513">
        <ele>478.312116</ele>
        <time>2023-03-11T14:42:15.679Z</time>
      </trkpt>
      <trkpt lat="47.12139" lon="7.23526">
        <ele>478.416411</ele>
        <time>2023-03-11T14:42:17.673Z</time>
      </trkpt>
      <trkpt lat="47.12132" lon="7.23539">
        <ele>478.520151</ele>
        <time>2023-03-11T14:42:19.681Z</time>
      </trkpt>
      <trkpt lat="47.12125" lon="7.23552">
        <ele>478.625321</ele>
        <time>2023-03-11T14:42:21.676Z</time>
      </trkpt>
      <trkpt lat="47.12118" lon="7.23564">
        <ele>478.728944</ele>
        <time>2023-03-11T14:42:23.684Z</time>
      </trkpt>
      <trkpt lat="47.12111" lon="7.23577">
        <ele>478.834831</ele>
        <time>2023-03-11T14:42:25.686Z</time>
      </trkpt>
      <trkpt lat="47.12104" lon="7.23589">
        <ele>478.933975</ele>
        <time>2023-03-11T14:42:27.682Z</time>
      </trkpt>
      <trkpt lat="47.12099" lon="7.236">
        <ele>479.021367</ele>
        <time>2023-03-11T14:42:29.690Z</time>
      </trkpt>
      <trkpt lat="47.12092" lon="7.23613">
        <ele>479.1219</ele>
        <time>2023-03-11T14:42:32.694Z</time>
      </trkpt>
      <trkpt lat="47.12088" lon="7.23625">
        <ele>479.212721</ele>
        <time>2023-03-11T14:42:35.660Z</time>
      </trkpt>
      <trkpt lat="47.12094" lon="7.23639">
        <ele>479.321715</ele>
        <time>2023-03-11T14:42:38.667Z</time>
      </trkpt>
      <trkpt lat="47.12104" lon="7.23646">
        <ele>479.423357</ele>
        <time>2023-03-11T14:42:40.663Z</time>
      </trkpt>
      <trkpt lat="47.12115" lon="7.23653">
        <ele>479.534019</ele>
        <time>2023-03-11T14:42:42.655Z</time>
      </trkpt>
      <trkpt lat="47.12123" lon="7.2366">
        <ele>479.62781</ele>
        <time>2023-03-11T14:42:44.683Z</time>
      </trkpt>
      <trkpt lat="47.12133" lon="7.23669">
        <ele>479.743997</ele>
        <time>2023-03-11T14:42:46.687Z</time>
      </trkpt>
      <trkpt lat="47.12141" lon="7.23677">
        <ele>479.854717</ele>
        <time>2023-03-11T14:42:48.697Z</time>
      </trkpt>
      <trkpt lat="47.12149" lon="7.23683">
        <ele>479.966035</ele>
        <time>2023-03-11T14:42:50.647Z</time>
      </trkpt>
      <trkpt lat="47.12158" lon="7.23692">
        <ele>480.088257</ele>
        <time>2023-03-11T14:42:52.673Z</time>
      </trkpt>
      <trkpt lat="47.12167" lon="7.23699">
        <ele>480.198977</ele>
        <time>2023-03-11T14:42:54.696Z</time>
      </trkpt>
      <trkpt lat="47.12175" lon="7.23705">
        <ele>480.303032</ele>
        <time>2023-03-11T14:42:56.667Z</time>
      </trkpt>
      <trkpt lat="47.12184" lon="7.2371">
        <ele>480.411712</ele>
        <time>2023-03-11T14:42:58.641Z</time>
      </trkpt>
      <trkpt lat="47.12196" lon="7.23714">
        <ele>480.558706</ele>
        <time>2023-03-11T14:43:01.673Z</time>
      </trkpt>
      <trkpt lat="47.12209" lon="7.23717">
        <ele>480.710815</ele>
        <time>2023-03-11T14:43:04.681Z</time>
      </trkpt>
      <trkpt lat="47.12219" lon="7.23719">
        <ele>480.819931</ele>
        <time>2023-03-11T14:43:06.669Z</time>
      </trkpt>
      <trkpt lat="47.12228" lon="7.2372">
        <ele>480.929382</ele>
        <time>2023-03-11T14:43:08.671Z</time>
      </trkpt>
      <trkpt lat="47.12237" lon="7.23722">
        <ele>481.034541</ele>
        <time>2023-03-11T14:43:10.686Z</time>
      </trkpt>
      <trkpt lat="47.12247" lon="7.23723">
        <ele>481.141293</ele>
        <time>2023-03-11T14:43:12.674Z</time>
      </trkpt>
      <trkpt lat="47.12256" lon="7.23723">
        <ele>481.252515</ele>
        <time>2023-03-11T14:43:14.684Z</time>
      </trkpt>
      <trkpt lat="47.12267" lon="7.23724">
        <ele>481.369572</ele>
        <time>2023-03-11T14:43:16.678Z</time>
      </trkpt>
      <trkpt lat="47.12277" lon="7.23724">
        <ele>481.489941</ele>
        <time>2023-03-11T14:43:18.682Z</time>
      </trkpt>
      <trkpt lat="47.12288" lon="7.23723">
        <ele>481.61285</ele>
        <time>2023-03-11T14:43:20.690Z</time>
      </trkpt>
      <trkpt lat="47.12299" lon="7.23722">
        <ele>481.709288</ele>
        <time>2023-03-11T14:43:22.688Z</time>
      </trkpt>
      <trkpt lat="47.1231" lon="7.23723">
        <ele>481.484744</ele>
        <time>2023-03-11T14:43:24.680Z</time>
      </trkpt>
      <trkpt lat="47.12323" lon="7.2372">
        <ele>481.204964</ele>
        <time>2023-03-11T14:43:26.657Z</time>
      </trkpt>
      <trkpt lat="47.12339" lon="7.23717">
        <ele>480.866967</ele>
        <time>2023-03-11T14:43:28.685Z</time>
      </trkpt>
      <trkpt lat="47.12356" lon="7.23715">
        <ele>480.497204</ele>
        <time>2023-03-11T14:43:30.671Z</time>
      </trkpt>
      <trkpt lat="47.12374" lon="7.23712">
        <ele>480.127726</ele>
        <time>2023-03-11T14:43:32.687Z</time>
      </trkpt>
      <trkpt lat="47.1239" lon="7.23707">
        <ele>479.771203</ele>
        <time>2023-03-11T14:43:34.679Z</time>
      </trkpt>
      <trkpt lat="47.12408" lon="7.23703">
        <ele>479.398634</ele>
        <time>2023-03-11T14:43:36.674Z</time>
      </trkpt>
      <trkpt lat="47.12422" lon="7.237">
        <ele>479.086204</ele>
        <time>2023-03-11T14:43:38.680Z</time>
      </trkpt>
      <trkpt lat="47.12435" lon="7.23697">
        <ele>478.80727</ele>
        <time>2023-03-11T14:43:40.677Z</time>
      </trkpt>
      <trkpt lat="47.12448" lon="7.23694">
        <ele>478.541563</ele>
        <time>2023-03-11T14:43:42.662Z</time>
      </trkpt>
      <trkpt lat="47.12459" lon="7.23693">
        <ele>478.301504</ele>
        <time>2023-03-11T14:43:44.677Z</time>
      </trkpt>
      <trkpt lat="47.12469" lon="7.2369">
        <ele>478.091855</ele>
        <time>2023-03-11T14:43:46.679Z</time>
      </trkpt>
      <trkpt lat="47.12479" lon="7.23687">
        <ele>477.933877</ele>
        <time>2023-03-11T14:43:48.683Z</time>
      </trkpt>
      <trkpt lat="47.12491" lon="7.23686">
        <ele>477.971048</ele>
        <time>2023-03-11T14:43:50.675Z</time>
      </trkpt>
      <trkpt lat="47.12503" lon="7.23683">
        <ele>478.00804</ele>
        <time>2023-03-11T14:43:52.684Z</time>
      </trkpt>
      <trkpt lat="47.12515" lon="7.2368">
        <ele>478.046617</ele>
        <time>2023-03-11T14:43:54.668Z</time>
      </trkpt>
      <trkpt lat="47.12527" lon="7.23679">
        <ele>478.084686</ele>
        <time>2023-03-11T14:43:56.684Z</time>
      </trkpt>
      <trkpt lat="47.12537" lon="7.23678">
        <ele>478.117438</ele>
        <time>2023-03-11T14:43:58.660Z</time>
      </trkpt>
      <trkpt lat="47.1255" lon="7.23678">
        <ele>478.157411</ele>
        <time>2023-03-11T14:44:00.655Z</time>
      </trkpt>
      <trkpt lat="47.12562" lon="7.23674">
        <ele>478.197028</ele>
        <time>2023-03-11T14:44:02.680Z</time>
      </trkpt>
      <trkpt lat="47.12573" lon="7.23671">
        <ele>478.230389</ele>
        <time>2023-03-11T14:44:04.683Z</time>
      </trkpt>
      <trkpt lat="47.12585" lon="7.23667">
        <ele>478.270492</ele>
        <time>2023-03-11T14:44:06.682Z</time>
      </trkpt>
      <trkpt lat="47.12597" lon="7.23663">
        <ele>478.307328</ele>
        <time>2023-03-11T14:44:08.682Z</time>
      </trkpt>
      <trkpt lat="47.1261" lon="7.23663">
        <ele>478.348199</ele>
        <time>2023-03-11T14:44:10.679Z</time>
      </trkpt>
      <trkpt lat="47.12621" lon="7.23662">
        <ele>478.383817</ele>
        <time>2023-03-11T14:44:12.698Z</time>
      </trkpt>
      <trkpt lat="47.12633" lon="7.23661">
        <ele>478.420426</ele>
        <time>2023-03-11T14:44:14.675Z</time>
      </trkpt>
      <trkpt lat="47.12643" lon="7.23659">
        <ele>478.452945</ele>
        <time>2023-03-11T14:44:16.697Z</time>
      </trkpt>
      <trkpt lat="47.12653" lon="7.2366">
        <ele>478.483467</ele>
        <time>2023-03-11T14:44:18.673Z</time>
      </trkpt>
      <trkpt lat="47.12664" lon="7.23663">
        <ele>478.512282</ele>
        <time>2023-03-11T14:44:20.657Z</time>
      </trkpt>
      <trkpt lat="47.12677" lon="7.23669">
        <ele>478.542885</ele>
        <time>2023-03-11T14:44:22.639Z</time>
      </trkpt>
      <trkpt lat="47.12688" lon="7.23677">
        <ele>478.570425</ele>
        <time>2023-03-11T14:44:24.658Z</time>
      </trkpt>
      <trkpt lat="47.12697" lon="7.23688">
        <ele>478.598531</ele>
        <time>2023-03-11T14:44:26.634Z</time>
      </trkpt>
      <trkpt lat="47.12705" lon="7.23699">
        <ele>478.622892</ele>
        <time>2023-03-11T14:44:28.665Z</time>
      </trkpt>
      <trkpt lat="47.12712" lon="7.2371">
        <ele>478.64686</ele>
        <time>2023-03-11T14:44:30.661Z</time>
      </trkpt>
      <trkpt lat="47.12721" lon="7.23722">
        <ele>478.673739</ele>
        <time>2023-03-11T14:44:32.690Z</time>
      </trkpt>
      <trkpt lat="47.12729" lon="7.23733">
        <ele>478.700137</ele>
        <time>2023-03-11T14:44:34.679Z</time>
      </trkpt>
      <trkpt lat="47.12737" lon="7.23744">
        <ele>478.725436</ele>
        <time>2023-03-11T14:44:36.691Z</time>
      </trkpt>
      <trkpt lat="47.12746" lon="7.23755">
        <ele>478.752004</ele>
        <time>2023-03-11T14:44:38.649Z</time>
      </trkpt>
      <trkpt lat="47.12755" lon="7.23767">
        <ele>478.778782</ele>
        <time>2023-03-11T14:44:40.698Z</time>
      </trkpt>
      <trkpt lat="47.12764" lon="7.23781">
        <ele>478.808938</ele>
        <time>2023-03-11T14:44:42.670Z</time>
      </trkpt>
      <trkpt lat="47.12773" lon="7.23793">
        <ele>478.838293</ele>
        <time>2023-03-11T14:44:44.688Z</time>
      </trkpt>
      <trkpt lat="47.12783" lon="7.23805">
        <ele>478.867713</ele>
        <time>2023-03-11T14:44:46.686Z</time>
      </trkpt>
      <trkpt lat="47.12793" lon="7.23817">
        <ele>478.896246</ele>
        <time>2023-03-11T14:44:48.670Z</time>
      </trkpt>
      <trkpt lat="47.128" lon="7.23826">
        <ele>478.94003</ele>
        <time>2023-03-11T14:44:50.677Z</time>
      </trkpt>
      <trkpt lat="47.12809" lon="7.23836">
        <ele>478.995763</ele>
        <time>2023-03-11T14:44:53.656Z</time>
      </trkpt>
      <trkpt lat="47.12819" lon="7.23842">
        <ele>479.05362</ele>
        <time>2023-03-11T14:44:56.668Z</time>
      </trkpt>
      <trkpt lat="47.12833" lon="7.23844">
        <ele>479.121368</ele>
        <time>2023-03-11T14:44:59.660Z</time>
      </trkpt>
      <trkpt lat="47.1284" lon="7.23834">
        <ele>479.173257</ele>
        <time>2023-03-11T14:45:01.669Z</time>
      </trkpt>
      <trkpt lat="47.12846" lon="7.2382">
        <ele>479.230747</ele>
        <time>2023-03-11T14:45:03.657Z</time>
      </trkpt>
      <trkpt lat="47.12852" lon="7.23809">
        <ele>479.282198</ele>
        <time>2023-03-11T14:45:05.679Z</time>
      </trkpt>
      <trkpt lat="47.1286" lon="7.23796">
        <ele>479.341014</ele>
        <time>2023-03-11T14:45:07.675Z</time>
      </trkpt>
      <trkpt lat="47.12866" lon="7.23783">
        <ele>479.397217</ele>
        <time>2023-03-11T14:45:09.685Z</time>
      </trkpt>
      <trkpt lat="47.12873" lon="7.23771">
        <ele>479.452746</ele>
        <time>2023-03-11T14:45:11.687Z</time>
      </trkpt>
      <trkpt lat="47.1288" lon="7.23758">
        <ele>479.512601</ele>
        <time>2023-03-11T14:45:13.687Z</time>
      </trkpt>
      <trkpt lat="47.12888" lon="7.23745">
        <ele>479.571467</ele>
        <time>2023-03-11T14:45:15.687Z</time>
      </trkpt>
      <trkpt lat="47.12895" lon="7.23734">
        <ele>479.624067</ele>
        <time>2023-03-11T14:45:17.686Z</time>
      </trkpt>
      <trkpt lat="47.12902" lon="7.23723">
        <ele>479.678029</ele>
        <time>2023-03-11T14:45:19.682Z</time>
      </trkpt>
      <trkpt lat="47.1291" lon="7.23713">
        <ele>479.731387</ele>
        <time>2023-03-11T14:45:21.689Z</time>
      </trkpt>
      <trkpt lat="47.12917" lon="7.23702">
        <ele>479.78367</ele>
        <time>2023-03-11T14:45:23.682Z</time>
      </trkpt>
      <trkpt lat="47.12923" lon="7.23691">
        <ele>479.825408</ele>
        <time>2023-03-11T14:45:25.667Z</time>
      </trkpt>
      <trkpt lat="47.1293" lon="7.23681">
        <ele>479.766865</ele>
        <time>2023-03-11T14:45:27.681Z</time>
      </trkpt>
      <trkpt lat="47.1294" lon="7.23668">
        <ele>479.687664</ele>
        <time>2023-03-11T14:45:30.681Z</time>
      </trkpt>
      <trkpt lat="47.12946" lon="7.23654">
        <ele>479.615743</ele>
        <time>2023-03-11T14:45:33.670Z</time>
      </trkpt>
      <trkpt lat="47.12953" lon="7.23645">
        <ele>479.558322</ele>
        <time>2023-03-11T14:45:35.673Z</time>
      </trkpt>
      <trkpt lat="47.12961" lon="7.23636">
        <ele>479.496209</ele>
        <time>2023-03-11T14:45:37.653Z</time>
      </trkpt>
      <trkpt lat="47.12971" lon="7.23623">
        <ele>479.418695</ele>
        <time>2023-03-11T14:45:40.683Z</time>
      </trkpt>
      <trkpt lat="47.12982" lon="7.23617">
        <ele>479.348664</ele>
        <time>2023-03-11T14:45:43.657Z</time>
      </trkpt>
      <trkpt lat="47.1299" lon="7.23624">
        <ele>479.292032</ele>
        <time>2023-03-11T14:45:45.655Z</time>
      </trkpt>
      <trkpt lat="47.13" lon="7.23634">
        <ele>479.218027</ele>
        <time>2023-03-11T14:45:48.664Z</time>
      </trkpt>
      <trkpt lat="47.13009" lon="7.23639">
        <ele>479.155591</ele>
        <time>2023-03-11T14:45:50.678Z</time>
      </trkpt>
      <trkpt lat="47.1302" lon="7.23645">
        <ele>479.084933</ele>
        <time>2023-03-11T14:45:53.682Z</time>
      </trkpt>
      <trkpt lat="47.13033" lon="7.23646">
        <ele>479.006872</ele>
        <time>2023-03-11T14:45:57.656Z</time>
      </trkpt>
      <trkpt lat="47.13044" lon="7.23647">
        <ele>478.939479</ele>
        <time>2023-03-11T14:45:59.674Z</time>
      </trkpt>
      <trkpt lat="47.13056" lon="7.23645">
        <ele>478.865245</ele>
        <time>2023-03-11T14:46:01.653Z</time>
      </trkpt>
      <trkpt lat="47.13067" lon="7.2364">
        <ele>478.797296</ele>
        <time>2023-03-11T14:46:03.672Z</time>
      </trkpt>
      <trkpt lat="47.13076" lon="7.23632">
        <ele>478.731532</ele>
        <time>2023-03-11T14:46:05.663Z</time>
      </trkpt>
      <trkpt lat="47.13086" lon="7.23624">
        <ele>478.751838</ele>
        <time>2023-03-11T14:46:07.697Z</time>
      </trkpt>
      <trkpt lat="47.13097" lon="7.2362">
        <ele>478.772253</ele>
        <time>2023-03-11T14:46:09.663Z</time>
      </trkpt>
      <trkpt lat="47.13109" lon="7.23611">
        <ele>478.796787</ele>
        <time>2023-03-11T14:46:12.689Z</time>
      </trkpt>
      <trkpt lat="47.13119" lon="7.23602">
        <ele>478.820307</ele>
        <time>2023-03-11T14:46:15.687Z</time>
      </trkpt>
      <trkpt lat="47.13131" lon="7.23591">
        <ele>478.844785</ele>
        <time>2023-03-11T14:46:18.683Z</time>
      </trkpt>
      <trkpt lat="47.13138" lon="7.23582">
        <ele>478.862232</ele>
        <time>2023-03-11T14:46:20.673Z</time>
      </trkpt>
      <trkpt lat="47.13147" lon="7.23569">
        <ele>478.885275</ele>
        <time>2023-03-11T14:46:23.698Z</time>
      </trkpt>
      <trkpt lat="47.13154" lon="7.23561">
        <ele>478.902466</ele>
        <time>2023-03-11T14:46:25.654Z</time>
      </trkpt>
      <trkpt lat="47.13161" lon="7.23553">
        <ele>478.919425</ele>
        <time>2023-03-11T14:46:27.681Z</time>
      </trkpt>
      <trkpt lat="47.1317" lon="7.23545">
        <ele>478.938682</ele>
        <time>2023-03-11T14:46:29.702Z</time>
      </trkpt>
      <trkpt lat="47.13178" lon="7.23536">
        <ele>478.957056</ele>
        <time>2023-03-11T14:46:31.694Z</time>
      </trkpt>
      <trkpt lat="47.13184" lon="7.23525">
        <ele>478.975189</ele>
        <time>2023-03-11T14:46:33.668Z</time>
      </trkpt>
      <trkpt lat="47.13188" lon="7.23512">
        <ele>478.992344</ele>
        <time>2023-03-11T14:46:35.662Z</time>
      </trkpt>
      <trkpt lat="47.13193" lon="7.23501">
        <ele>479.009516</ele>
        <time>2023-03-11T14:46:37.702Z</time>
      </trkpt>
      <trkpt lat="47.13201" lon="7.23493">
        <ele>479.027147</ele>
        <time>2023-03-11T14:46:40.668Z</time>
      </trkpt>
      <trkpt lat="47.13209" lon="7.23483">
        <ele>479.046754</ele>
        <time>2023-03-11T14:46:45.647Z</time>
      </trkpt>
      <trkpt lat="47.13209" lon="7.23468">
        <ele>479.05655</ele>
        <time>2023-03-11T14:46:48.664Z</time>
      </trkpt>
      <trkpt lat="47.13206" lon="7.23452">
        <ele>479.009752</ele>
        <time>2023-03-11T14:46:51.659Z</time>
      </trkpt>
      <trkpt lat="47.13207" lon="7.23436">
        <ele>478.967627</ele>
        <time>2023-03-11T14:46:54.674Z</time>
      </trkpt>
      <trkpt lat="47.13217" lon="7.23433">
        <ele>478.924528</ele>
        <time>2023-03-11T14:46:58.660Z</time>
      </trkpt>
      <trkpt lat="47.13227" lon="7.23428">
        <ele>478.881716</ele>
        <time>2023-03-11T14:47:02.667Z</time>
      </trkpt>
      <trkpt lat="47.13233" lon="7.23414">
        <ele>478.836041</ele>
        <time>2023-03-11T14:47:06.698Z</time>
      </trkpt>
      <trkpt lat="47.13235" lon="7.234">
        <ele>478.797319</ele>
        <time>2023-03-11T14:47:09.687Z</time>
      </trkpt>
      <trkpt lat="47.13235" lon="7.23385">
        <ele>478.754484</ele>
        <time>2023-03-11T14:47:12.654Z</time>
      </trkpt>
      <trkpt lat="47.13235" lon="7.2337">
        <ele>478.71497</ele>
        <time>2023-03-11T14:47:15.673Z</time>
      </trkpt>
      <trkpt lat="47.13236" lon="7.23354">
        <ele>478.668437</ele>
        <time>2023-03-11T14:47:19.681Z</time>
      </trkpt>
      <trkpt lat="47.13242" lon="7.23343">
        <ele>478.630229</ele>
        <time>2023-03-11T14:47:22.673Z</time>
      </trkpt>
      <trkpt lat="47.13251" lon="7.23335">
        <ele>478.584914</ele>
        <time>2023-03-11T14:47:26.687Z</time>
      </trkpt>
      <trkpt lat="47.13269" lon="7.23312">
        <ele>478.490359</ele>
        <time>2023-03-11T14:48:24.665Z</time>
      </trkpt>
      <trkpt lat="47.13276" lon="7.23301">
        <ele>478.448814</ele>
        <time>2023-03-11T14:48:27.662Z</time>
      </trkpt>
      <trkpt lat="47.13285" lon="7.23292">
        <ele>478.404421</ele>
        <time>2023-03-11T14:48:30.671Z</time>
      </trkpt>
      <trkpt lat="47.13295" lon="7.23281">
        <ele>478.35107</ele>
        <time>2023-03-11T14:48:33.684Z</time>
      </trkpt>
      <trkpt lat="47.13302" lon="7.23267">
        <ele>478.745772</ele>
        <time>2023-03-11T14:48:36.667Z</time>
      </trkpt>
      <trkpt lat="47.13309" lon="7.23253">
        <ele>479.455493</ele>
        <time>2023-03-11T14:48:39.689Z</time>
      </trkpt>
      <trkpt lat="47.13319" lon="7.23243">
        <ele>480.204388</ele>
        <time>2023-03-11T14:48:42.665Z</time>
      </trkpt>
      <trkpt lat="47.13333" lon="7.23244">
        <ele>481.056459</ele>
        <time>2023-03-11T14:48:45.678Z</time>
      </trkpt>
      <trkpt lat="47.13341" lon="7.23251">
        <ele>481.61115</ele>
        <time>2023-03-11T14:48:47.673Z</time>
      </trkpt>
      <trkpt lat="47.13352" lon="7.23259">
        <ele>482.36259</ele>
        <time>2023-03-11T14:48:50.666Z</time>
      </trkpt>
      <trkpt lat="47.13363" lon="7.23267">
        <ele>483.101921</ele>
        <time>2023-03-11T14:48:53.685Z</time>
      </trkpt>
      <trkpt lat="47.1337" lon="7.23279">
        <ele>483.757649</ele>
        <time>2023-03-11T14:48:56.669Z</time>
      </trkpt>
      <trkpt lat="47.1337" lon="7.23294">
        <ele>484.369361</ele>
        <time>2023-03-11T14:48:59.662Z</time>
      </trkpt>
      <trkpt lat="47.13378" lon="7.23305">
        <ele>484.997214</ele>
        <time>2023-03-11T14:59:46.264Z</time>
      </trkpt>
      <trkpt lat="47.1337" lon="7.23296">
        <ele>485.574813</ele>
        <time>2023-03-11T15:16:27.754Z</time>
      </trkpt>
      <trkpt lat="47.13374" lon="7.23282">
        <ele>486.189248</ele>
        <time>2023-03-11T15:17:04.754Z</time>
      </trkpt>
      <trkpt lat="47.13372" lon="7.23269">
        <ele>486.735947</ele>
        <time>2023-03-11T15:17:12.705Z</time>
      </trkpt>
      <trkpt lat="47.13362" lon="7.23269">
        <ele>487.31017</ele>
        <time>2023-03-11T15:17:20.712Z</time>
      </trkpt>
      <trkpt lat="47.13354" lon="7.23259">
        <ele>487.935014</ele>
        <time>2023-03-11T15:17:28.712Z</time>
      </trkpt>
      <trkpt lat="47.13345" lon="7.23254">
        <ele>488.547078</ele>
        <time>2023-03-11T15:17:32.710Z</time>
      </trkpt>
      <trkpt lat="47.13334" lon="7.23245">
        <ele>489.110532</ele>
        <time>2023-03-11T15:17:35.696Z</time>
      </trkpt>
      <trkpt lat="47.13327" lon="7.23233">
        <ele>488.472035</ele>
        <time>2023-03-11T15:17:38.708Z</time>
      </trkpt>
      <trkpt lat="47.13329" lon="7.23216">
        <ele>487.814783</ele>
        <time>2023-03-11T15:17:41.726Z</time>
      </trkpt>
      <trkpt lat="47.13338" lon="7.23204">
        <ele>487.125572</ele>
        <time>2023-03-11T15:17:44.688Z</time>
      </trkpt>
      <trkpt lat="47.13341" lon="7.23189">
        <ele>486.485268</ele>
        <time>2023-03-11T15:17:47.706Z</time>
      </trkpt>
      <trkpt lat="47.13345" lon="7.23171">
        <ele>485.782927</ele>
        <time>2023-03-11T15:17:50.709Z</time>
      </trkpt>
      <trkpt lat="47.1335" lon="7.23159">
        <ele>485.264932</ele>
        <time>2023-03-11T15:17:53.709Z</time>
      </trkpt>
      <trkpt lat="47.13356" lon="7.23145">
        <ele>484.61313</ele>
        <time>2023-03-11T15:17:56.731Z</time>
      </trkpt>
      <trkpt lat="47.13361" lon="7.2313">
        <ele>483.948626</ele>
        <time>2023-03-11T15:17:59.725Z</time>
      </trkpt>
      <trkpt lat="47.13368" lon="7.23117">
        <ele>483.316075</ele>
        <time>2023-03-11T15:18:02.719Z</time>
      </trkpt>
      <trkpt lat="47.13372" lon="7.23104">
        <ele>482.779124</ele>
        <time>2023-03-11T15:18:06.710Z</time>
      </trkpt>
      <trkpt lat="47.13375" lon="7.2309">
        <ele>482.193531</ele>
        <time>2023-03-11T15:18:10.691Z</time>
      </trkpt>
      <trkpt lat="47.13379" lon="7.23077">
        <ele>481.630385</ele>
        <time>2023-03-11T15:18:13.703Z</time>
      </trkpt>
      <trkpt lat="47.13384" lon="7.23063">
        <ele>481.038151</ele>
        <time>2023-03-11T15:18:16.727Z</time>
      </trkpt>
      <trkpt lat="47.13392" lon="7.23053">
        <ele>480.432193</ele>
        <time>2023-03-11T15:18:19.712Z</time>
      </trkpt>
      <trkpt lat="47.13403" lon="7.2305">
        <ele>479.785593</ele>
        <time>2023-03-11T15:18:22.702Z</time>
      </trkpt>
      <trkpt lat="47.13413" lon="7.23057">
        <ele>479.189951</ele>
        <time>2023-03-11T15:18:24.699Z</time>
      </trkpt>
      <trkpt lat="47.1342" lon="7.23066">
        <ele>479.010943</ele>
        <time>2023-03-11T15:18:26.706Z</time>
      </trkpt>
      <trkpt lat="47.13432" lon="7.23068">
        <ele>479.106232</ele>
        <time>2023-03-11T15:18:29.690Z</time>
      </trkpt>
      <trkpt lat="47.1344" lon="7.23058">
        <ele>479.182668</ele>
        <time>2023-03-11T15:18:31.690Z</time>
      </trkpt>
      <trkpt lat="47.1345" lon="7.23047">
        <ele>479.279366</ele>
        <time>2023-03-11T15:18:34.724Z</time>
      </trkpt>
      <trkpt lat="47.13458" lon="7.23039">
        <ele>479.355512</ele>
        <time>2023-03-11T15:18:36.725Z</time>
      </trkpt>
      <trkpt lat="47.13468" lon="7.23032">
        <ele>479.438802</ele>
        <time>2023-03-11T15:18:39.711Z</time>
      </trkpt>
      <trkpt lat="47.13477" lon="7.23029">
        <ele>479.513231</ele>
        <time>2023-03-11T15:18:46.702Z</time>
      </trkpt>
      <trkpt lat="47.13481" lon="7.23014">
        <ele>479.595961</ele>
        <time>2023-03-11T15:18:53.708Z</time>
      </trkpt>
      <trkpt lat="47.13479" lon="7.22997">
        <ele>479.684127</ele>
        <time>2023-03-11T15:18:56.713Z</time>
      </trkpt>
      <trkpt lat="47.13477" lon="7.22983">
        <ele>479.76182</ele>
        <time>2023-03-11T15:18:58.731Z</time>
      </trkpt>
      <trkpt lat="47.13474" lon="7.22967">
        <ele>479.846763</ele>
        <time>2023-03-11T15:19:00.731Z</time>
      </trkpt>
      <trkpt lat="47.1347" lon="7.22954">
        <ele>479.919742</ele>
        <time>2023-03-11T15:19:02.716Z</time>
      </trkpt>
      <trkpt lat="47.13464" lon="7.22936">
        <ele>480.022228</ele>
        <time>2023-03-11T15:19:05.703Z</time>
      </trkpt>
      <trkpt lat="47.1346" lon="7.22924">
        <ele>480.095127</ele>
        <time>2023-03-11T15:19:07.701Z</time>
      </trkpt>
      <trkpt lat="47.13454" lon="7.22913">
        <ele>480.171016</ele>
        <time>2023-03-11T15:19:09.697Z</time>
      </trkpt>
      <trkpt lat="47.13447" lon="7.22901">
        <ele>480.249419</ele>
        <time>2023-03-11T15:19:11.727Z</time>
      </trkpt>
      <trkpt lat="47.13441" lon="7.22888">
        <ele>480.331107</ele>
        <time>2023-03-11T15:19:13.703Z</time>
      </trkpt>
      <trkpt lat="47.13436" lon="7.22874">
        <ele>480.341801</ele>
        <time>2023-03-11T15:19:15.724Z</time>
      </trkpt>
      <trkpt lat="47.1343" lon="7.22859">
        <ele>480.337283</ele>
        <time>2023-03-11T15:19:17.730Z</time>
      </trkpt>
      <trkpt lat="47.13425" lon="7.22846">
        <ele>480.332965</ele>
        <time>2023-03-11T15:19:19.730Z</time>
      </trkpt>
      <trkpt lat="47.13419" lon="7.22833">
        <ele>480.32872</ele>
        <time>2023-03-11T15:19:21.726Z</time>
      </trkpt>
      <trkpt lat="47.13415" lon="7.22818">
        <ele>480.324482</ele>
        <time>2023-03-11T15:19:23.710Z</time>
      </trkpt>
      <trkpt lat="47.13411" lon="7.22803">
        <ele>480.319997</ele>
        <time>2023-03-11T15:19:25.705Z</time>
      </trkpt>
      <trkpt lat="47.13406" lon="7.22788">
        <ele>480.315461</ele>
        <time>2023-03-11T15:19:27.733Z</time>
      </trkpt>
      <trkpt lat="47.134" lon="7.22773">
        <ele>480.310746</ele>
        <time>2023-03-11T15:19:29.723Z</time>
      </trkpt>
      <trkpt lat="47.13394" lon="7.22759">
        <ele>480.306141</ele>
        <time>2023-03-11T15:19:31.731Z</time>
      </trkpt>
      <trkpt lat="47.13388" lon="7.22743">
        <ele>480.301193</ele>
        <time>2023-03-11T15:19:33.720Z</time>
      </trkpt>
      <trkpt lat="47.13381" lon="7.2273">
        <ele>480.296585</ele>
        <time>2023-03-11T15:19:35.722Z</time>
      </trkpt>
      <trkpt lat="47.13374" lon="7.22716">
        <ele>480.291979</ele>
        <time>2023-03-11T15:19:37.719Z</time>
      </trkpt>
      <trkpt lat="47.13369" lon="7.22702">
        <ele>480.2876</ele>
        <time>2023-03-11T15:19:39.731Z</time>
      </trkpt>
      <trkpt lat="47.13363" lon="7.22688">
        <ele>480.28308</ele>
        <time>2023-03-11T15:19:41.728Z</time>
      </trkpt>
      <trkpt lat="47.13358" lon="7.22674">
        <ele>480.278786</ele>
        <time>2023-03-11T15:19:43.730Z</time>
      </trkpt>
      <trkpt lat="47.13352" lon="7.2266">
        <ele>480.274348</ele>
        <time>2023-03-11T15:19:45.738Z</time>
      </trkpt>
      <trkpt lat="47.13347" lon="7.22646">
        <ele>480.384342</ele>
        <time>2023-03-11T15:19:47.739Z</time>
      </trkpt>
      <trkpt lat="47.13341" lon="7.22629">
        <ele>480.546087</ele>
        <time>2023-03-11T15:19:49.727Z</time>
      </trkpt>
      <trkpt lat="47.13336" lon="7.22615">
        <ele>480.691532</ele>
        <time>2023-03-11T15:19:51.724Z</time>
      </trkpt>
      <trkpt lat="47.13329" lon="7.22601">
        <ele>480.843875</ele>
        <time>2023-03-11T15:19:53.732Z</time>
      </trkpt>
      <trkpt lat="47.13324" lon="7.22586">
        <ele>480.992578</ele>
        <time>2023-03-11T15:19:55.729Z</time>
      </trkpt>
      <trkpt lat="47.13319" lon="7.22573">
        <ele>481.133636</ele>
        <time>2023-03-11T15:19:57.733Z</time>
      </trkpt>
      <trkpt lat="47.13313" lon="7.22557">
        <ele>481.284281</ele>
        <time>2023-03-11T15:19:59.733Z</time>
      </trkpt>
      <trkpt lat="47.13307" lon="7.22542">
        <ele>481.439279</ele>
        <time>2023-03-11T15:20:01.726Z</time>
      </trkpt>
      <trkpt lat="47.13301" lon="7.22527">
        <ele>481.596949</ele>
        <time>2023-03-11T15:20:03.738Z</time>
      </trkpt>
      <trkpt lat="47.13296" lon="7.22512">
        <ele>481.74964</ele>
        <time>2023-03-11T15:20:05.735Z</time>
      </trkpt>
      <trkpt lat="47.13292" lon="7.22494">
        <ele>481.920792</ele>
        <time>2023-03-11T15:20:07.735Z</time>
      </trkpt>
      <trkpt lat="47.13287" lon="7.22476">
        <ele>482.087595</ele>
        <time>2023-03-11T15:20:09.724Z</time>
      </trkpt>
      <trkpt lat="47.13282" lon="7.22461">
        <ele>482.238118</ele>
        <time>2023-03-11T15:20:11.730Z</time>
      </trkpt>
      <trkpt lat="47.13276" lon="7.22446">
        <ele>482.391738</ele>
        <time>2023-03-11T15:20:13.726Z</time>
      </trkpt>
      <trkpt lat="47.13271" lon="7.22432">
        <ele>482.534003</ele>
        <time>2023-03-11T15:20:15.725Z</time>
      </trkpt>
      <trkpt lat="47.13266" lon="7.22419">
        <ele>482.666677</ele>
        <time>2023-03-11T15:20:17.727Z</time>
      </trkpt>
      <trkpt lat="47.1326" lon="7.22407">
        <ele>482.79804</ele>
        <time>2023-03-11T15:20:19.739Z</time>
      </trkpt>
      <trkpt lat="47.13254" lon="7.22393">
        <ele>482.943108</ele>
        <time>2023-03-11T15:20:21.724Z</time>
      </trkpt>
      <trkpt lat="47.13247" lon="7.22379">
        <ele>483.093211</ele>
        <time>2023-03-11T15:20:23.730Z</time>
      </trkpt>
      <trkpt lat="47.13241" lon="7.22365">
        <ele>483.23189</ele>
        <time>2023-03-11T15:20:25.705Z</time>
      </trkpt>
      <trkpt lat="47.13235" lon="7.22351">
        <ele>483.375531</ele>
        <time>2023-03-11T15:20:27.724Z</time>
      </trkpt>
      <trkpt lat="47.1323" lon="7.22337">
        <ele>483.518003</ele>
        <time>2023-03-11T15:20:29.737Z</time>
      </trkpt>
      <trkpt lat="47.13225" lon="7.22323">
        <ele>483.657842</ele>
        <time>2023-03-11T15:20:31.726Z</time>
      </trkpt>
      <trkpt lat="47.1322" lon="7.22308">
        <ele>483.80109</ele>
        <time>2023-03-11T15:20:33.743Z</time>
      </trkpt>
      <trkpt lat="47.13214" lon="7.22294">
        <ele>483.946299</ele>
        <time>2023-03-11T15:20:35.735Z</time>
      </trkpt>
      <trkpt lat="47.13209" lon="7.22279">
        <ele>484.093443</ele>
        <time>2023-03-11T15:20:37.730Z</time>
      </trkpt>
      <trkpt lat="47.13203" lon="7.22265">
        <ele>484.237787</ele>
        <time>2023-03-11T15:20:39.732Z</time>
      </trkpt>
      <trkpt lat="47.13197" lon="7.2225">
        <ele>484.3832</ele>
        <time>2023-03-11T15:20:41.720Z</time>
      </trkpt>
      <trkpt lat="47.13192" lon="7.22236">
        <ele>484.524306</ele>
        <time>2023-03-11T15:20:43.736Z</time>
      </trkpt>
      <trkpt lat="47.13187" lon="7.22223">
        <ele>484.660772</ele>
        <time>2023-03-11T15:20:45.742Z</time>
      </trkpt>
      <trkpt lat="47.13182" lon="7.22209">
        <ele>484.796641</ele>
        <time>2023-03-11T15:20:47.730Z</time>
      </trkpt>
      <trkpt lat="47.13176" lon="7.22196">
        <ele>484.928043</ele>
        <time>2023-03-11T15:20:49.739Z</time>
      </trkpt>
      <trkpt lat="47.13171" lon="7.22183">
        <ele>485.868417</ele>
        <time>2023-03-11T15:20:51.734Z</time>
      </trkpt>
      <trkpt lat="47.13166" lon="7.2217">
        <ele>486.814316</ele>
        <time>2023-03-11T15:20:53.728Z</time>
      </trkpt>
      <trkpt lat="47.1316" lon="7.22155">
        <ele>487.941151</ele>
        <time>2023-03-11T15:20:55.722Z</time>
      </trkpt>
      <trkpt lat="47.13154" lon="7.2214">
        <ele>489.034813</ele>
        <time>2023-03-11T15:20:57.731Z</time>
      </trkpt>
      <trkpt lat="47.13154" lon="7.22126">
        <ele>489.910394</ele>
        <time>2023-03-11T15:20:59.711Z</time>
      </trkpt>
      <trkpt lat="47.13157" lon="7.22111">
        <ele>490.901785</ele>
        <time>2023-03-11T15:21:02.707Z</time>
      </trkpt>
      <trkpt lat="47.13157" lon="7.22094">
        <ele>492.027503</ele>
        <time>2023-03-11T15:21:07.727Z</time>
      </trkpt>
      <trkpt lat="47.13153" lon="7.2208">
        <ele>492.994747</ele>
        <time>2023-03-11T15:21:12.701Z</time>
      </trkpt>
      <trkpt lat="47.13149" lon="7.22067">
        <ele>493.882569</ele>
        <time>2023-03-11T15:21:17.731Z</time>
      </trkpt>
      <trkpt lat="47.13148" lon="7.22053">
        <ele>494.800469</ele>
        <time>2023-03-11T15:21:21.691Z</time>
      </trkpt>
      <trkpt lat="47.13149" lon="7.22039">
        <ele>495.670128</ele>
        <time>2023-03-11T15:21:26.699Z</time>
      </trkpt>
      <trkpt lat="47.13148" lon="7.22025">
        <ele>496.578578</ele>
        <time>2023-03-11T15:21:32.708Z</time>
      </trkpt>
      <trkpt lat="47.13144" lon="7.2201">
        <ele>497.577658</ele>
        <time>2023-03-11T15:21:39.697Z</time>
      </trkpt>
      <trkpt lat="47.1314" lon="7.21997">
        <ele>498.503325</ele>
        <time>2023-03-11T15:21:44.715Z</time>
      </trkpt>
      <trkpt lat="47.13134" lon="7.21984">
        <ele>499.522239</ele>
        <time>2023-03-11T15:21:49.728Z</time>
      </trkpt>
      <trkpt lat="47.13127" lon="7.21973">
        <ele>500.480852</ele>
        <time>2023-03-11T15:21:54.737Z</time>
      </trkpt>
      <trkpt lat="47.1312" lon="7.21963">
        <ele>501.367987</ele>
        <time>2023-03-11T15:21:58.715Z</time>
      </trkpt>
      <trkpt lat="47.13115" lon="7.21952">
        <ele>502.12592</ele>
        <time>2023-03-11T15:22:02.726Z</time>
      </trkpt>
      <trkpt lat="47.13108" lon="7.21941">
        <ele>502.824547</ele>
        <time>2023-03-11T15:22:06.713Z</time>
      </trkpt>
      <trkpt lat="47.13102" lon="7.21931">
        <ele>503.505865</ele>
        <time>2023-03-11T15:22:10.729Z</time>
      </trkpt>
      <trkpt lat="47.13096" lon="7.21919">
        <ele>504.189874</ele>
        <time>2023-03-11T15:22:14.722Z</time>
      </trkpt>
      <trkpt lat="47.13092" lon="7.21906">
        <ele>504.878253</ele>
        <time>2023-03-11T15:22:18.713Z</time>
      </trkpt>
      <trkpt lat="47.13086" lon="7.21893">
        <ele>505.654366</ele>
        <time>2023-03-11T15:22:22.705Z</time>
      </trkpt>
      <trkpt lat="47.1308" lon="7.21882">
        <ele>506.312764</ele>
        <time>2023-03-11T15:22:25.710Z</time>
      </trkpt>
      <trkpt lat="47.13073" lon="7.2187">
        <ele>507.071192</ele>
        <time>2023-03-11T15:22:29.738Z</time>
      </trkpt>
      <trkpt lat="47.13063" lon="7.21862">
        <ele>507.869501</ele>
        <time>2023-03-11T15:22:33.732Z</time>
      </trkpt>
      <trkpt lat="47.13053" lon="7.21853">
        <ele>508.684598</ele>
        <time>2023-03-11T15:22:37.744Z</time>
      </trkpt>
      <trkpt lat="47.13045" lon="7.21843">
        <ele>509.459975</ele>
        <time>2023-03-11T15:22:41.731Z</time>
      </trkpt>
      <trkpt lat="47.1304" lon="7.21828">
        <ele>510.271635</ele>
        <time>2023-03-11T15:22:45.716Z</time>
      </trkpt>
      <trkpt lat="47.13036" lon="7.21814">
        <ele>510.98834</ele>
        <time>2023-03-11T15:22:49.740Z</time>
      </trkpt>
      <trkpt lat="47.13031" lon="7.21801">
        <ele>511.678381</ele>
        <time>2023-03-11T15:22:53.694Z</time>
      </trkpt>
      <trkpt lat="47.13025" lon="7.21789">
        <ele>512.426242</ele>
        <time>2023-03-11T15:22:58.726Z</time>
      </trkpt>
      <trkpt lat="47.13017" lon="7.2178">
        <ele>513.13252</ele>
        <time>2023-03-11T15:23:02.717Z</time>
      </trkpt>
      <trkpt lat="47.13009" lon="7.21772">
        <ele>513.787334</ele>
        <time>2023-03-11T15:23:06.737Z</time>
      </trkpt>
      <trkpt lat="47.13003" lon="7.2176">
        <ele>514.493407</ele>
        <time>2023-03-11T15:23:10.724Z</time>
      </trkpt>
      <trkpt lat="47.12997" lon="7.21749">
        <ele>515.286426</ele>
        <time>2023-03-11T15:23:14.733Z</time>
      </trkpt>
      <trkpt lat="47.12993" lon="7.21734">
        <ele>516.173381</ele>
        <time>2023-03-11T15:23:18.738Z</time>
      </trkpt>
      <trkpt lat="47.12988" lon="7.21719">
        <ele>517.035996</ele>
        <time>2023-03-11T15:23:22.738Z</time>
      </trkpt>
      <trkpt lat="47.12984" lon="7.21704">
        <ele>517.90844</ele>
        <time>2023-03-11T15:23:26.744Z</time>
      </trkpt>
      <trkpt lat="47.12977" lon="7.21692">
        <ele>518.763196</ele>
        <time>2023-03-11T15:23:30.740Z</time>
      </trkpt>
      <trkpt lat="47.12969" lon="7.21679">
        <ele>519.672936</ele>
        <time>2023-03-11T15:23:34.737Z</time>
      </trkpt>
      <trkpt lat="47.12962" lon="7.21669">
        <ele>520.519945</ele>
        <time>2023-03-11T15:23:38.730Z</time>
      </trkpt>
      <trkpt lat="47.12954" lon="7.21659">
        <ele>521.294501</ele>
        <time>2023-03-11T15:23:42.732Z</time>
      </trkpt>
      <trkpt lat="47.12946" lon="7.21648">
        <ele>522.158322</ele>
        <time>2023-03-11T15:23:46.708Z</time>
      </trkpt>
      <trkpt lat="47.1294" lon="7.21639">
        <ele>522.874479</ele>
        <time>2023-03-11T15:23:50.704Z</time>
      </trkpt>
      <trkpt lat="47.12934" lon="7.21628">
        <ele>523.637219</ele>
        <time>2023-03-11T15:23:54.723Z</time>
      </trkpt>
      <trkpt lat="47.12927" lon="7.21619">
        <ele>524.376811</ele>
        <time>2023-03-11T15:23:58.732Z</time>
      </trkpt>
      <trkpt lat="47.12921" lon="7.21608">
        <ele>525.137238</ele>
        <time>2023-03-11T15:24:02.730Z</time>
      </trkpt>
      <trkpt lat="47.12915" lon="7.21596">
        <ele>525.947336</ele>
        <time>2023-03-11T15:24:07.737Z</time>
      </trkpt>
      <trkpt lat="47.12909" lon="7.21584">
        <ele>526.725762</ele>
        <time>2023-03-11T15:24:12.726Z</time>
      </trkpt>
      <trkpt lat="47.12904" lon="7.21573">
        <ele>527.450477</ele>
        <time>2023-03-11T15:24:17.708Z</time>
      </trkpt>
      <trkpt lat="47.129" lon="7.21561">
        <ele>528.18061</ele>
        <time>2023-03-11T15:24:22.707Z</time>
      </trkpt>
      <trkpt lat="47.12897" lon="7.21547">
        <ele>529.085695</ele>
        <time>2023-03-11T15:24:28.710Z</time>
      </trkpt>
      <trkpt lat="47.12893" lon="7.21533">
        <ele>530.275906</ele>
        <time>2023-03-11T15:24:35.699Z</time>
      </trkpt>
      <trkpt lat="47.12889" lon="7.21519">
        <ele>531.473738</ele>
        <time>2023-03-11T15:24:41.706Z</time>
      </trkpt>
      <trkpt lat="47.12884" lon="7.21505">
        <ele>532.727712</ele>
        <time>2023-03-11T15:24:47.694Z</time>
      </trkpt>
      <trkpt lat="47.12879" lon="7.21493">
        <ele>533.780573</ele>
        <time>2023-03-11T15:24:52.717Z</time>
      </trkpt>
      <trkpt lat="47.12875" lon="7.21481">
        <ele>534.882812</ele>
        <time>2023-03-11T15:24:58.716Z</time>
      </trkpt>
      <trkpt lat="47.1287" lon="7.2147">
        <ele>535.93126</ele>
        <time>2023-03-11T15:25:03.705Z</time>
      </trkpt>
      <trkpt lat="47.12865" lon="7.21457">
        <ele>537.116985</ele>
        <time>2023-03-11T15:25:10.712Z</time>
      </trkpt>
      <trkpt lat="47.12864" lon="7.21443">
        <ele>538.172906</ele>
        <time>2023-03-11T15:25:16.706Z</time>
      </trkpt>
      <trkpt lat="47.12862" lon="7.21429">
        <ele>539.342942</ele>
        <time>2023-03-11T15:25:22.715Z</time>
      </trkpt>
      <trkpt lat="47.12861" lon="7.21414">
        <ele>540.520078</ele>
        <time>2023-03-11T15:25:28.705Z</time>
      </trkpt>
      <trkpt lat="47.12859" lon="7.21399">
        <ele>541.726004</ele>
        <time>2023-03-11T15:25:34.716Z</time>
      </trkpt>
      <trkpt lat="47.12855" lon="7.21386">
        <ele>542.833117</ele>
        <time>2023-03-11T15:25:40.734Z</time>
      </trkpt>
      <trkpt lat="47.1285" lon="7.21372">
        <ele>544.060663</ele>
        <time>2023-03-11T15:25:46.730Z</time>
      </trkpt>
      <trkpt lat="47.12844" lon="7.21361">
        <ele>545.212597</ele>
        <time>2023-03-11T15:25:51.757Z</time>
      </trkpt>
      <trkpt lat="47.12835" lon="7.21352">
        <ele>546.425621</ele>
        <time>2023-03-11T15:25:56.723Z</time>
      </trkpt>
      <trkpt lat="47.12826" lon="7.21347">
        <ele>547.555822</ele>
        <time>2023-03-11T15:26:00.750Z</time>
      </trkpt>
      <trkpt lat="47.12817" lon="7.21342">
        <ele>548.648908</ele>
        <time>2023-03-11T15:26:05.715Z</time>
      </trkpt>
      <trkpt lat="47.12808" lon="7.21338">
        <ele>549.681056</ele>
        <time>2023-03-11T15:26:10.741Z</time>
      </trkpt>
      <trkpt lat="47.12803" lon="7.21327">
        <ele>550.032804</ele>
        <time>2023-03-11T15:26:15.709Z</time>
      </trkpt>
      <trkpt lat="47.12797" lon="7.21316">
        <ele>550.387481</ele>
        <time>2023-03-11T15:26:20.724Z</time>
      </trkpt>
      <trkpt lat="47.12792" lon="7.21304">
        <ele>550.750163</ele>
        <time>2023-03-11T15:26:25.710Z</time>
      </trkpt>
      <trkpt lat="47.12789" lon="7.2129">
        <ele>551.137662</ele>
        <time>2023-03-11T15:26:29.733Z</time>
      </trkpt>
      <trkpt lat="47.12784" lon="7.21277">
        <ele>551.524144</ele>
        <time>2023-03-11T15:26:34.720Z</time>
      </trkpt>
      <trkpt lat="47.12776" lon="7.21269">
        <ele>551.896438</ele>
        <time>2023-03-11T15:26:39.734Z</time>
      </trkpt>
      <trkpt lat="47.12768" lon="7.2126">
        <ele>552.301204</ele>
        <time>2023-03-11T15:26:44.719Z</time>
      </trkpt>
      <trkpt lat="47.1276" lon="7.2125">
        <ele>552.703676</ele>
        <time>2023-03-11T15:26:49.745Z</time>
      </trkpt>
      <trkpt lat="47.12753" lon="7.21241">
        <ele>553.055967</ele>
        <time>2023-03-11T15:26:53.736Z</time>
      </trkpt>
      <trkpt lat="47.12746" lon="7.21231">
        <ele>553.432829</ele>
        <time>2023-03-11T15:26:57.740Z</time>
      </trkpt>
      <trkpt lat="47.12738" lon="7.21221">
        <ele>553.81068</ele>
        <time>2023-03-11T15:27:01.743Z</time>
      </trkpt>
      <trkpt lat="47.1273" lon="7.2121">
        <ele>554.251668</ele>
        <time>2023-03-11T15:27:05.743Z</time>
      </trkpt>
      <trkpt lat="47.12722" lon="7.212">
        <ele>554.642847</ele>
        <time>2023-03-11T15:27:09.740Z</time>
      </trkpt>
      <trkpt lat="47.12715" lon="7.2119">
        <ele>555.036221</ele>
        <time>2023-03-11T15:27:13.739Z</time>
      </trkpt>
      <trkpt lat="47.12708" lon="7.2118">
        <ele>555.409423</ele>
        <time>2023-03-11T15:27:17.741Z</time>
      </trkpt>
      <trkpt lat="47.127" lon="7.21169">
        <ele>555.82459</ele>
        <time>2023-03-11T15:27:21.742Z</time>
      </trkpt>
      <trkpt lat="47.12691" lon="7.21161">
        <ele>556.228307</ele>
        <time>2023-03-11T15:27:25.726Z</time>
      </trkpt>
      <trkpt lat="47.12681" lon="7.21153">
        <ele>556.614555</ele>
        <time>2023-03-11T15:27:29.733Z</time>
      </trkpt>
      <trkpt lat="47.12671" lon="7.21145">
        <ele>556.925098</ele>
        <time>2023-03-11T15:27:33.747Z</time>
      </trkpt>
      <trkpt lat="47.12662" lon="7.21137">
        <ele>557.186765</ele>
        <time>2023-03-11T15:27:36.749Z</time>
      </trkpt>
      <trkpt lat="47.12654" lon="7.21128">
        <ele>557.460174</ele>
        <time>2023-03-11T15:27:39.735Z</time>
      </trkpt>
      <trkpt lat="47.12644" lon="7.21119">
        <ele>557.743547</ele>
        <time>2023-03-11T15:27:42.708Z</time>
      </trkpt>
      <trkpt lat="47.12636" lon="7.2111">
        <ele>558.002521</ele>
        <time>2023-03-11T15:27:45.732Z</time>
      </trkpt>
      <trkpt lat="47.12629" lon="7.21102">
        <ele>558.250134</ele>
        <time>2023-03-11T15:27:48.738Z</time>
      </trkpt>
      <trkpt lat="47.12621" lon="7.21091">
        <ele>558.532311</ele>
        <time>2023-03-11T15:27:51.739Z</time>
      </trkpt>
      <trkpt lat="47.12613" lon="7.2108">
        <ele>558.804785</ele>
        <time>2023-03-11T15:27:54.733Z</time>
      </trkpt>
      <trkpt lat="47.12605" lon="7.2107">
        <ele>559.072036</ele>
        <time>2023-03-11T15:27:57.730Z</time>
      </trkpt>
      <trkpt lat="47.12598" lon="7.2106">
        <ele>559.336879</ele>
        <time>2023-03-11T15:28:00.746Z</time>
      </trkpt>
      <trkpt lat="47.1259" lon="7.21049">
        <ele>559.604719</ele>
        <time>2023-03-11T15:28:03.740Z</time>
      </trkpt>
      <trkpt lat="47.12583" lon="7.21038">
        <ele>559.87753</ele>
        <time>2023-03-11T15:28:06.747Z</time>
      </trkpt>
      <trkpt lat="47.12576" lon="7.21028">
        <ele>560.125913</ele>
        <time>2023-03-11T15:28:09.740Z</time>
      </trkpt>
      <trkpt lat="47.12569" lon="7.21017">
        <ele>560.382718</ele>
        <time>2023-03-11T15:28:12.742Z</time>
      </trkpt>
      <trkpt lat="47.12562" lon="7.21008">
        <ele>560.635078</ele>
        <time>2023-03-11T15:28:15.737Z</time>
      </trkpt>
      <trkpt lat="47.12555" lon="7.20999">
        <ele>560.881635</ele>
        <time>2023-03-11T15:28:18.730Z</time>
      </trkpt>
      <trkpt lat="47.12547" lon="7.20989">
        <ele>561.13321</ele>
        <time>2023-03-11T15:28:21.740Z</time>
      </trkpt>
      <trkpt lat="47.1254" lon="7.2098">
        <ele>561.495338</ele>
        <time>2023-03-11T15:28:24.753Z</time>
      </trkpt>
      <trkpt lat="47.12533" lon="7.20971">
        <ele>561.893078</ele>
        <time>2023-03-11T15:28:27.748Z</time>
      </trkpt>
      <trkpt lat="47.12526" lon="7.20962">
        <ele>562.306006</ele>
        <time>2023-03-11T15:28:30.742Z</time>
      </trkpt>
      <trkpt lat="47.12517" lon="7.20951">
        <ele>562.775021</ele>
        <time>2023-03-11T15:28:34.744Z</time>
      </trkpt>
      <trkpt lat="47.12507" lon="7.20942">
        <ele>563.27103</ele>
        <time>2023-03-11T15:28:38.749Z</time>
      </trkpt>
      <trkpt lat="47.125" lon="7.20933">
        <ele>563.674787</ele>
        <time>2023-03-11T15:28:41.752Z</time>
      </trkpt>
      <trkpt lat="47.12494" lon="7.20923">
        <ele>564.06976</ele>
        <time>2023-03-11T15:28:44.749Z</time>
      </trkpt>
      <trkpt lat="47.12486" lon="7.20911">
        <ele>564.54801</ele>
        <time>2023-03-11T15:28:48.743Z</time>
      </trkpt>
      <trkpt lat="47.12479" lon="7.20899">
        <ele>565.007072</ele>
        <time>2023-03-11T15:28:51.725Z</time>
      </trkpt>
      <trkpt lat="47.12471" lon="7.20889">
        <ele>565.446987</ele>
        <time>2023-03-11T15:28:54.718Z</time>
      </trkpt>
      <trkpt lat="47.12463" lon="7.20881">
        <ele>565.859332</ele>
        <time>2023-03-11T15:28:57.732Z</time>
      </trkpt>
      <trkpt lat="47.12456" lon="7.2087">
        <ele>566.286847</ele>
        <time>2023-03-11T15:29:00.724Z</time>
      </trkpt>
      <trkpt lat="47.1245" lon="7.2086">
        <ele>566.682436</ele>
        <time>2023-03-11T15:29:03.756Z</time>
      </trkpt>
      <trkpt lat="47.12444" lon="7.20849">
        <ele>567.071943</ele>
        <time>2023-03-11T15:29:06.730Z</time>
      </trkpt>
      <trkpt lat="47.12438" lon="7.20838">
        <ele>567.474075</ele>
        <time>2023-03-11T15:29:09.758Z</time>
      </trkpt>
      <trkpt lat="47.12432" lon="7.20829">
        <ele>567.857817</ele>
        <time>2023-03-11T15:29:12.740Z</time>
      </trkpt>
      <trkpt lat="47.12426" lon="7.20818">
        <ele>568.256231</ele>
        <time>2023-03-11T15:29:15.721Z</time>
      </trkpt>
      <trkpt lat="47.1242" lon="7.20806">
        <ele>568.665357</ele>
        <time>2023-03-11T15:29:18.728Z</time>
      </trkpt>
      <trkpt lat="47.12415" lon="7.20795">
        <ele>568.977681</ele>
        <time>2023-03-11T15:29:21.736Z</time>
      </trkpt>
      <trkpt lat="47.12409" lon="7.20781">
        <ele>569.314475</ele>
        <time>2023-03-11T15:29:25.746Z</time>
      </trkpt>
      <trkpt lat="47.12403" lon="7.2077">
        <ele>569.588141</ele>
        <time>2023-03-11T15:29:28.736Z</time>
      </trkpt>
      <trkpt lat="47.12394" lon="7.20759">
        <ele>569.926468</ele>
        <time>2023-03-11T15:29:32.745Z</time>
      </trkpt>
      <trkpt lat="47.12387" lon="7.2075">
        <ele>570.195604</ele>
        <time>2023-03-11T15:29:35.731Z</time>
      </trkpt>
      <trkpt lat="47.1238" lon="7.20739">
        <ele>570.478192</ele>
        <time>2023-03-11T15:29:38.751Z</time>
      </trkpt>
      <trkpt lat="47.12374" lon="7.20728">
        <ele>570.77548</ele>
        <time>2023-03-11T15:29:41.738Z</time>
      </trkpt>
      <trkpt lat="47.12365" lon="7.20717">
        <ele>571.122563</ele>
        <time>2023-03-11T15:29:45.749Z</time>
      </trkpt>
      <trkpt lat="47.12356" lon="7.20708">
        <ele>571.427461</ele>
        <time>2023-03-11T15:29:48.743Z</time>
      </trkpt>
      <trkpt lat="47.12348" lon="7.20697">
        <ele>571.756222</ele>
        <time>2023-03-11T15:29:52.748Z</time>
      </trkpt>
      <trkpt lat="47.12338" lon="7.20688">
        <ele>572.082314</ele>
        <time>2023-03-11T15:29:56.757Z</time>
      </trkpt>
      <trkpt lat="47.1233" lon="7.20679">
        <ele>572.391779</ele>
        <time>2023-03-11T15:30:00.742Z</time>
      </trkpt>
      <trkpt lat="47.12324" lon="7.20666">
        <ele>572.690918</ele>
        <time>2023-03-11T15:30:03.722Z</time>
      </trkpt>
      <trkpt lat="47.12317" lon="7.20656">
        <ele>572.993417</ele>
        <time>2023-03-11T15:30:06.720Z</time>
      </trkpt>
      <trkpt lat="47.1231" lon="7.20648">
        <ele>573.256991</ele>
        <time>2023-03-11T15:30:09.734Z</time>
      </trkpt>
      <trkpt lat="47.12302" lon="7.20636">
        <ele>573.573894</ele>
        <time>2023-03-11T15:30:13.732Z</time>
      </trkpt>
      <trkpt lat="47.12292" lon="7.20626">
        <ele>573.917838</ele>
        <time>2023-03-11T15:30:17.731Z</time>
      </trkpt>
      <trkpt lat="47.12284" lon="7.20619">
        <ele>574.076207</ele>
        <time>2023-03-11T15:30:20.761Z</time>
      </trkpt>
      <trkpt lat="47.12276" lon="7.20606">
        <ele>574.147393</ele>
        <time>2023-03-11T15:30:24.730Z</time>
      </trkpt>
      <trkpt lat="47.12271" lon="7.20595">
        <ele>574.204735</ele>
        <time>2023-03-11T15:30:27.706Z</time>
      </trkpt>
      <trkpt lat="47.12265" lon="7.20581">
        <ele>574.276363</ele>
        <time>2023-03-11T15:30:31.744Z</time>
      </trkpt>
      <trkpt lat="47.12257" lon="7.20569">
        <ele>574.345084</ele>
        <time>2023-03-11T15:30:35.743Z</time>
      </trkpt>
      <trkpt lat="47.12249" lon="7.20559">
        <ele>574.408561</ele>
        <time>2023-03-11T15:30:39.761Z</time>
      </trkpt>
      <trkpt lat="47.12241" lon="7.2055">
        <ele>574.472635</ele>
        <time>2023-03-11T15:30:42.725Z</time>
      </trkpt>
      <trkpt lat="47.12231" lon="7.20543">
        <ele>574.542025</ele>
        <time>2023-03-11T15:30:46.742Z</time>
      </trkpt>
      <trkpt lat="47.12221" lon="7.20535">
        <ele>574.61212</ele>
        <time>2023-03-11T15:30:50.741Z</time>
      </trkpt>
      <trkpt lat="47.12211" lon="7.20525">
        <ele>574.684361</ele>
        <time>2023-03-11T15:30:54.749Z</time>
      </trkpt>
      <trkpt lat="47.12204" lon="7.20516">
        <ele>574.742557</ele>
        <time>2023-03-11T15:30:57.763Z</time>
      </trkpt>
      <trkpt lat="47.12196" lon="7.20507">
        <ele>574.807582</ele>
        <time>2023-03-11T15:31:01.720Z</time>
      </trkpt>
      <trkpt lat="47.12187" lon="7.20497">
        <ele>574.874786</ele>
        <time>2023-03-11T15:31:05.722Z</time>
      </trkpt>
      <trkpt lat="47.12178" lon="7.20487">
        <ele>574.945724</ele>
        <time>2023-03-11T15:31:09.768Z</time>
      </trkpt>
      <trkpt lat="47.1217" lon="7.20475">
        <ele>575.015052</ele>
        <time>2023-03-11T15:31:13.736Z</time>
      </trkpt>
      <trkpt lat="47.12165" lon="7.20462">
        <ele>575.078187</ele>
        <time>2023-03-11T15:31:16.745Z</time>
      </trkpt>
      <trkpt lat="47.12158" lon="7.20451">
        <ele>575.14394</ele>
        <time>2023-03-11T15:31:20.734Z</time>
      </trkpt>
      <trkpt lat="47.1215" lon="7.20441">
        <ele>574.839903</ele>
        <time>2023-03-11T15:31:23.731Z</time>
      </trkpt>
      <trkpt lat="47.12142" lon="7.2043">
        <ele>574.410613</ele>
        <time>2023-03-11T15:31:27.735Z</time>
      </trkpt>
      <trkpt lat="47.12138" lon="7.20413">
        <ele>573.972212</ele>
        <time>2023-03-11T15:31:31.728Z</time>
      </trkpt>
      <trkpt lat="47.1214" lon="7.20397">
        <ele>573.568843</ele>
        <time>2023-03-11T15:31:34.725Z</time>
      </trkpt>
      <trkpt lat="47.12145" lon="7.20384">
        <ele>573.185833</ele>
        <time>2023-03-11T15:31:37.727Z</time>
      </trkpt>
      <trkpt lat="47.1214" lon="7.20353">
        <ele>572.401912</ele>
        <time>2023-03-11T15:32:43.725Z</time>
      </trkpt>
      <trkpt lat="47.12136" lon="7.2034">
        <ele>572.044221</ele>
        <time>2023-03-11T15:32:47.751Z</time>
      </trkpt>
      <trkpt lat="47.12132" lon="7.20327">
        <ele>571.680901</ele>
        <time>2023-03-11T15:32:51.732Z</time>
      </trkpt>
      <trkpt lat="47.12128" lon="7.20314">
        <ele>571.334895</ele>
        <time>2023-03-11T15:32:54.736Z</time>
      </trkpt>
      <trkpt lat="47.1212" lon="7.20304">
        <ele>570.952908</ele>
        <time>2023-03-11T15:32:57.721Z</time>
      </trkpt>
      <trkpt lat="47.12111" lon="7.20292">
        <ele>570.51208</ele>
        <time>2023-03-11T15:33:00.756Z</time>
      </trkpt>
      <trkpt lat="47.12105" lon="7.20283">
        <ele>570.182729</ele>
        <time>2023-03-11T15:33:02.727Z</time>
      </trkpt>
      <trkpt lat="47.12096" lon="7.20268">
        <ele>569.693902</ele>
        <time>2023-03-11T15:33:05.738Z</time>
      </trkpt>
      <trkpt lat="47.12091" lon="7.20257">
        <ele>569.359332</ele>
        <time>2023-03-11T15:33:07.742Z</time>
      </trkpt>
      <trkpt lat="47.12082" lon="7.20242">
        <ele>568.87244</ele>
        <time>2023-03-11T15:33:10.749Z</time>
      </trkpt>
      <trkpt lat="47.12077" lon="7.20232">
        <ele>568.550063</ele>
        <time>2023-03-11T15:33:12.743Z</time>
      </trkpt>
      <trkpt lat="47.12069" lon="7.20216">
        <ele>568.432805</ele>
        <time>2023-03-11T15:33:15.730Z</time>
      </trkpt>
      <trkpt lat="47.12064" lon="7.20206">
        <ele>568.350335</ele>
        <time>2023-03-11T15:33:17.748Z</time>
      </trkpt>
      <trkpt lat="47.12056" lon="7.20191">
        <ele>568.232761</ele>
        <time>2023-03-11T15:33:20.749Z</time>
      </trkpt>
      <trkpt lat="47.12048" lon="7.20175">
        <ele>568.111884</ele>
        <time>2023-03-11T15:33:23.747Z</time>
      </trkpt>
      <trkpt lat="47.12042" lon="7.20164">
        <ele>568.027326</ele>
        <time>2023-03-11T15:33:25.758Z</time>
      </trkpt>
      <trkpt lat="47.12033" lon="7.2015">
        <ele>567.908269</ele>
        <time>2023-03-11T15:33:28.717Z</time>
      </trkpt>
      <trkpt lat="47.12022" lon="7.2014">
        <ele>567.791671</ele>
        <time>2023-03-11T15:33:31.724Z</time>
      </trkpt>
      <trkpt lat="47.12014" lon="7.20132">
        <ele>567.705717</ele>
        <time>2023-03-11T15:33:33.749Z</time>
      </trkpt>
      <trkpt lat="47.12006" lon="7.20124">
        <ele>567.61591</ele>
        <time>2023-03-11T15:33:35.743Z</time>
      </trkpt>
      <trkpt lat="47.11999" lon="7.20115">
        <ele>567.533337</ele>
        <time>2023-03-11T15:33:37.730Z</time>
      </trkpt>
      <trkpt lat="47.11989" lon="7.20101">
        <ele>567.410017</ele>
        <time>2023-03-11T15:33:40.752Z</time>
      </trkpt>
      <trkpt lat="47.11982" lon="7.20092">
        <ele>567.327444</ele>
        <time>2023-03-11T15:33:42.748Z</time>
      </trkpt>
      <trkpt lat="47.11975" lon="7.20083">
        <ele>567.242965</ele>
        <time>2023-03-11T15:33:44.746Z</time>
      </trkpt>
      <trkpt lat="47.11968" lon="7.20073">
        <ele>567.1589</ele>
        <time>2023-03-11T15:33:46.758Z</time>
      </trkpt>
      <trkpt lat="47.11962" lon="7.20064">
        <ele>567.075083</ele>
        <time>2023-03-11T15:33:48.745Z</time>
      </trkpt>
      <trkpt lat="47.11952" lon="7.20051">
        <ele>566.953461</ele>
        <time>2023-03-11T15:33:51.746Z</time>
      </trkpt>
      <trkpt lat="47.11946" lon="7.20041">
        <ele>566.732075</ele>
        <time>2023-03-11T15:33:53.747Z</time>
      </trkpt>
      <trkpt lat="47.11939" lon="7.20031">
        <ele>566.455173</ele>
        <time>2023-03-11T15:33:55.727Z</time>
      </trkpt>
      <trkpt lat="47.1193" lon="7.20017">
        <ele>566.052923</ele>
        <time>2023-03-11T15:33:58.751Z</time>
      </trkpt>
      <trkpt lat="47.11921" lon="7.20003">
        <ele>565.640418</ele>
        <time>2023-03-11T15:34:01.749Z</time>
      </trkpt>
      <trkpt lat="47.11914" lon="7.19993">
        <ele>565.35861</ele>
        <time>2023-03-11T15:34:03.752Z</time>
      </trkpt>
      <trkpt lat="47.11908" lon="7.19984">
        <ele>565.080453</ele>
        <time>2023-03-11T15:34:05.744Z</time>
      </trkpt>
      <trkpt lat="47.11901" lon="7.19974">
        <ele>564.788163</ele>
        <time>2023-03-11T15:34:07.745Z</time>
      </trkpt>
      <trkpt lat="47.11894" lon="7.19963">
        <ele>564.468539</ele>
        <time>2023-03-11T15:34:09.740Z</time>
      </trkpt>
      <trkpt lat="47.11887" lon="7.19952">
        <ele>564.153535</ele>
        <time>2023-03-11T15:34:11.744Z</time>
      </trkpt>
      <trkpt lat="47.1188" lon="7.19941">
        <ele>563.831689</ele>
        <time>2023-03-11T15:34:13.745Z</time>
      </trkpt>
      <trkpt lat="47.11871" lon="7.1993">
        <ele>563.482109</ele>
        <time>2023-03-11T15:34:15.724Z</time>
      </trkpt>
      <trkpt lat="47.11862" lon="7.19918">
        <ele>563.1031</ele>
        <time>2023-03-11T15:34:17.745Z</time>
      </trkpt>
      <trkpt lat="47.11852" lon="7.19907">
        <ele>562.735931</ele>
        <time>2023-03-11T15:34:19.741Z</time>
      </trkpt>
      <trkpt lat="47.11842" lon="7.19895">
        <ele>562.347407</ele>
        <time>2023-03-11T15:34:21.743Z</time>
      </trkpt>
      <trkpt lat="47.11831" lon="7.19883">
        <ele>561.916188</ele>
        <time>2023-03-11T15:34:23.742Z</time>
      </trkpt>
      <trkpt lat="47.11819" lon="7.19869">
        <ele>561.450076</ele>
        <time>2023-03-11T15:34:25.747Z</time>
      </trkpt>
      <trkpt lat="47.11807" lon="7.19855">
        <ele>560.868665</ele>
        <time>2023-03-11T15:34:27.745Z</time>
      </trkpt>
      <trkpt lat="47.11795" lon="7.19839">
        <ele>560.258256</ele>
        <time>2023-03-11T15:34:29.743Z</time>
      </trkpt>
      <trkpt lat="47.11784" lon="7.19824">
        <ele>559.652529</ele>
        <time>2023-03-11T15:34:31.743Z</time>
      </trkpt>
      <trkpt lat="47.11772" lon="7.1981">
        <ele>559.074261</ele>
        <time>2023-03-11T15:34:33.726Z</time>
      </trkpt>
      <trkpt lat="47.1176" lon="7.19794">
        <ele>558.472677</ele>
        <time>2023-03-11T15:34:35.738Z</time>
      </trkpt>
      <trkpt lat="47.11748" lon="7.19776">
        <ele>557.811439</ele>
        <time>2023-03-11T15:34:37.740Z</time>
      </trkpt>
      <trkpt lat="47.11736" lon="7.19759">
        <ele>557.158618</ele>
        <time>2023-03-11T15:34:39.742Z</time>
      </trkpt>
      <trkpt lat="47.11725" lon="7.19742">
        <ele>556.54059</ele>
        <time>2023-03-11T15:34:41.758Z</time>
      </trkpt>
      <trkpt lat="47.11713" lon="7.19727">
        <ele>555.938777</ele>
        <time>2023-03-11T15:34:43.743Z</time>
      </trkpt>
      <trkpt lat="47.11699" lon="7.19714">
        <ele>555.29028</ele>
        <time>2023-03-11T15:34:45.715Z</time>
      </trkpt>
      <trkpt lat="47.11684" lon="7.19702">
        <ele>554.643664</ele>
        <time>2023-03-11T15:34:47.725Z</time>
      </trkpt>
      <trkpt lat="47.11674" lon="7.19692">
        <ele>555.586908</ele>
        <time>2023-03-11T15:34:49.738Z</time>
      </trkpt>
      <trkpt lat="47.11665" lon="7.19682">
        <ele>556.923236</ele>
        <time>2023-03-11T15:34:52.754Z</time>
      </trkpt>
      <trkpt lat="47.11661" lon="7.19669">
        <ele>558.107754</ele>
        <time>2023-03-11T15:34:56.729Z</time>
      </trkpt>
      <trkpt lat="47.11658" lon="7.19656">
        <ele>559.245178</ele>
        <time>2023-03-11T15:35:01.730Z</time>
      </trkpt>
      <trkpt lat="47.11655" lon="7.19642">
        <ele>560.413667</ele>
        <time>2023-03-11T15:35:06.751Z</time>
      </trkpt>
      <trkpt lat="47.11652" lon="7.19627">
        <ele>561.671347</ele>
        <time>2023-03-11T15:35:12.715Z</time>
      </trkpt>
      <trkpt lat="47.11649" lon="7.19614">
        <ele>562.816531</ele>
        <time>2023-03-11T15:35:17.727Z</time>
      </trkpt>
      <trkpt lat="47.11647" lon="7.19599">
        <ele>564.07106</ele>
        <time>2023-03-11T15:35:23.706Z</time>
      </trkpt>
      <trkpt lat="47.11642" lon="7.19586">
        <ele>565.224803</ele>
        <time>2023-03-11T15:35:28.722Z</time>
      </trkpt>
      <trkpt lat="47.1164" lon="7.19573">
        <ele>566.334116</ele>
        <time>2023-03-11T15:35:33.719Z</time>
      </trkpt>
      <trkpt lat="47.11636" lon="7.19561">
        <ele>567.454893</ele>
        <time>2023-03-11T15:35:39.716Z</time>
      </trkpt>
      <trkpt lat="47.11629" lon="7.19551">
        <ele>568.594766</ele>
        <time>2023-03-11T15:35:46.724Z</time>
      </trkpt>
      <trkpt lat="47.11625" lon="7.19537">
        <ele>569.858859</ele>
        <time>2023-03-11T15:35:53.721Z</time>
      </trkpt>
      <trkpt lat="47.1162" lon="7.19525">
        <ele>570.992498</ele>
        <time>2023-03-11T15:35:59.716Z</time>
      </trkpt>
      <trkpt lat="47.11615" lon="7.19514">
        <ele>572.097072</ele>
        <time>2023-03-11T15:36:06.721Z</time>
      </trkpt>
      <trkpt lat="47.11611" lon="7.195">
        <ele>573.270371</ele>
        <time>2023-03-11T15:36:13.705Z</time>
      </trkpt>
      <trkpt lat="47.11606" lon="7.19488">
        <ele>574.47051</ele>
        <time>2023-03-11T15:36:20.733Z</time>
      </trkpt>
      <trkpt lat="47.116" lon="7.19476">
        <ele>575.623238</ele>
        <time>2023-03-11T15:36:26.726Z</time>
      </trkpt>
      <trkpt lat="47.11594" lon="7.19464">
        <ele>576.779905</ele>
        <time>2023-03-11T15:36:32.729Z</time>
      </trkpt>
      <trkpt lat="47.11587" lon="7.19453">
        <ele>577.85931</ele>
        <time>2023-03-11T15:36:38.707Z</time>
      </trkpt>
      <trkpt lat="47.11579" lon="7.19444">
        <ele>578.951179</ele>
        <time>2023-03-11T15:36:44.727Z</time>
      </trkpt>
      <trkpt lat="47.11572" lon="7.19435">
        <ele>579.915302</ele>
        <time>2023-03-11T15:36:50.712Z</time>
      </trkpt>
      <trkpt lat="47.11569" lon="7.19422">
        <ele>580.922349</ele>
        <time>2023-03-11T15:36:57.718Z</time>
      </trkpt>
      <trkpt lat="47.11563" lon="7.19409">
        <ele>582.019935</ele>
        <time>2023-03-11T15:37:05.723Z</time>
      </trkpt>
      <trkpt lat="47.11558" lon="7.19396">
        <ele>583.086232</ele>
        <time>2023-03-11T15:37:12.708Z</time>
      </trkpt>
      <trkpt lat="47.11556" lon="7.19382">
        <ele>584.061335</ele>
        <time>2023-03-11T15:37:18.710Z</time>
      </trkpt>
      <trkpt lat="47.11553" lon="7.1937">
        <ele>585.043462</ele>
        <time>2023-03-11T15:37:24.724Z</time>
      </trkpt>
      <trkpt lat="47.11553" lon="7.19355">
        <ele>586.11995</ele>
        <time>2023-03-11T15:37:31.719Z</time>
      </trkpt>
      <trkpt lat="47.11554" lon="7.1934">
        <ele>587.158547</ele>
        <time>2023-03-11T15:37:37.723Z</time>
      </trkpt>
      <trkpt lat="47.11558" lon="7.19327">
        <ele>588.188781</ele>
        <time>2023-03-11T15:37:43.717Z</time>
      </trkpt>
      <trkpt lat="47.11559" lon="7.19313">
        <ele>589.200302</ele>
        <time>2023-03-11T15:37:50.725Z</time>
      </trkpt>
      <trkpt lat="47.11561" lon="7.193">
        <ele>590.150204</ele>
        <time>2023-03-11T15:37:56.735Z</time>
      </trkpt>
      <trkpt lat="47.11561" lon="7.19287">
        <ele>591.121665</ele>
        <time>2023-03-11T15:38:03.728Z</time>
      </trkpt>
      <trkpt lat="47.11556" lon="7.19274">
        <ele>592.180989</ele>
        <time>2023-03-11T15:38:10.723Z</time>
      </trkpt>
      <trkpt lat="47.11552" lon="7.19261">
        <ele>593.222766</ele>
        <time>2023-03-11T15:38:17.723Z</time>
      </trkpt>
      <trkpt lat="47.11544" lon="7.19253">
        <ele>594.226277</ele>
        <time>2023-03-11T15:38:23.721Z</time>
      </trkpt>
      <trkpt lat="47.11538" lon="7.19241">
        <ele>595.31783</ele>
        <time>2023-03-11T15:38:30.735Z</time>
      </trkpt>
      <trkpt lat="47.11533" lon="7.19227">
        <ele>596.520481</ele>
        <time>2023-03-11T15:38:37.712Z</time>
      </trkpt>
      <trkpt lat="47.11529" lon="7.19215">
        <ele>597.644626</ele>
        <time>2023-03-11T15:38:43.712Z</time>
      </trkpt>
      <trkpt lat="47.11528" lon="7.192">
        <ele>598.786352</ele>
        <time>2023-03-11T15:38:48.721Z</time>
      </trkpt>
      <trkpt lat="47.11527" lon="7.19186">
        <ele>599.932357</ele>
        <time>2023-03-11T15:38:54.727Z</time>
      </trkpt>
      <trkpt lat="47.11524" lon="7.19171">
        <ele>601.136374</ele>
        <time>2023-03-11T15:39:00.710Z</time>
      </trkpt>
      <trkpt lat="47.11523" lon="7.19157">
        <ele>602.226622</ele>
        <time>2023-03-11T15:39:06.720Z</time>
      </trkpt>
      <trkpt lat="47.11521" lon="7.19141">
        <ele>603.490049</ele>
        <time>2023-03-11T15:39:12.731Z</time>
      </trkpt>
      <trkpt lat="47.11517" lon="7.19127">
        <ele>604.632978</ele>
        <time>2023-03-11T15:39:17.726Z</time>
      </trkpt>
      <trkpt lat="47.11514" lon="7.19113">
        <ele>605.772152</ele>
        <time>2023-03-11T15:39:22.735Z</time>
      </trkpt>
      <trkpt lat="47.1151" lon="7.19101">
        <ele>606.863337</ele>
        <time>2023-03-11T15:39:27.732Z</time>
      </trkpt>
      <trkpt lat="47.11506" lon="7.19087">
        <ele>608.022119</ele>
        <time>2023-03-11T15:39:34.724Z</time>
      </trkpt>
      <trkpt lat="47.11501" lon="7.19073">
        <ele>609.265181</ele>
        <time>2023-03-11T15:39:40.737Z</time>
      </trkpt>
      <trkpt lat="47.11497" lon="7.1906">
        <ele>610.374235</ele>
        <time>2023-03-11T15:39:46.724Z</time>
      </trkpt>
      <trkpt lat="47.11493" lon="7.19046">
        <ele>611.607059</ele>
        <time>2023-03-11T15:39:52.719Z</time>
      </trkpt>
      <trkpt lat="47.11489" lon="7.19031">
        <ele>612.827611</ele>
        <time>2023-03-11T15:39:59.718Z</time>
      </trkpt>
      <trkpt lat="47.11485" lon="7.19018">
        <ele>613.934201</ele>
        <time>2023-03-11T15:40:05.715Z</time>
      </trkpt>
      <trkpt lat="47.11481" lon="7.19006">
        <ele>615.026911</ele>
        <time>2023-03-11T15:40:12.729Z</time>
      </trkpt>
      <trkpt lat="47.11479" lon="7.18992">
        <ele>616.063591</ele>
        <time>2023-03-11T15:40:17.710Z</time>
      </trkpt>
      <trkpt lat="47.11475" lon="7.18979">
        <ele>617.076444</ele>
        <time>2023-03-11T15:40:24.733Z</time>
      </trkpt>
      <trkpt lat="47.11476" lon="7.18965">
        <ele>618.070391</ele>
        <time>2023-03-11T15:40:31.730Z</time>
      </trkpt>
      <trkpt lat="47.11474" lon="7.18951">
        <ele>619.039027</ele>
        <time>2023-03-11T15:40:37.733Z</time>
      </trkpt>
      <trkpt lat="47.11473" lon="7.18936">
        <ele>620.092601</ele>
        <time>2023-03-11T15:40:43.719Z</time>
      </trkpt>
      <trkpt lat="47.11472" lon="7.18921">
        <ele>621.15128</ele>
        <time>2023-03-11T15:40:49.724Z</time>
      </trkpt>
      <trkpt lat="47.1147" lon="7.18907">
        <ele>622.149346</ele>
        <time>2023-03-11T15:40:55.731Z</time>
      </trkpt>
      <trkpt lat="47.11467" lon="7.18895">
        <ele>623.086661</ele>
        <time>2023-03-11T15:41:00.732Z</time>
      </trkpt>
      <trkpt lat="47.11465" lon="7.18881">
        <ele>624.090014</ele>
        <time>2023-03-11T15:41:06.718Z</time>
      </trkpt>
      <trkpt lat="47.11462" lon="7.18868">
        <ele>625.091904</ele>
        <time>2023-03-11T15:41:11.728Z</time>
      </trkpt>
      <trkpt lat="47.11457" lon="7.18856">
        <ele>626.050242</ele>
        <time>2023-03-11T15:41:16.729Z</time>
      </trkpt>
      <trkpt lat="47.11454" lon="7.18843">
        <ele>627.01919</ele>
        <time>2023-03-11T15:41:21.719Z</time>
      </trkpt>
      <trkpt lat="47.11448" lon="7.18832">
        <ele>627.966633</ele>
        <time>2023-03-11T15:41:26.739Z</time>
      </trkpt>
      <trkpt lat="47.11444" lon="7.1882">
        <ele>628.911499</ele>
        <time>2023-03-11T15:41:31.736Z</time>
      </trkpt>
      <trkpt lat="47.11438" lon="7.18807">
        <ele>630.010038</ele>
        <time>2023-03-11T15:41:37.730Z</time>
      </trkpt>
      <trkpt lat="47.11433" lon="7.18796">
        <ele>630.941131</ele>
        <time>2023-03-11T15:41:42.734Z</time>
      </trkpt>
      <trkpt lat="47.11429" lon="7.18784">
        <ele>631.919588</ele>
        <time>2023-03-11T15:41:47.734Z</time>
      </trkpt>
      <trkpt lat="47.11423" lon="7.18771">
        <ele>632.995029</ele>
        <time>2023-03-11T15:41:53.731Z</time>
      </trkpt>
      <trkpt lat="47.11418" lon="7.18759">
        <ele>633.991891</ele>
        <time>2023-03-11T15:41:58.733Z</time>
      </trkpt>
      <trkpt lat="47.11413" lon="7.18746">
        <ele>634.948583</ele>
        <time>2023-03-11T15:42:04.736Z</time>
      </trkpt>
      <trkpt lat="47.11408" lon="7.18732">
        <ele>635.908401</ele>
        <time>2023-03-11T15:42:10.724Z</time>
      </trkpt>
      <trkpt lat="47.11403" lon="7.1872">
        <ele>636.81035</ele>
        <time>2023-03-11T15:42:15.733Z</time>
      </trkpt>
      <trkpt lat="47.11398" lon="7.18708">
        <ele>637.689082</ele>
        <time>2023-03-11T15:42:20.715Z</time>
      </trkpt>
      <trkpt lat="47.11393" lon="7.18695">
        <ele>638.613677</ele>
        <time>2023-03-11T15:42:26.720Z</time>
      </trkpt>
      <trkpt lat="47.11388" lon="7.18683">
        <ele>639.463917</ele>
        <time>2023-03-11T15:42:31.728Z</time>
      </trkpt>
      <trkpt lat="47.11383" lon="7.1867">
        <ele>640.390343</ele>
        <time>2023-03-11T15:42:36.737Z</time>
      </trkpt>
      <trkpt lat="47.11377" lon="7.18659">
        <ele>641.258354</ele>
        <time>2023-03-11T15:42:41.749Z</time>
      </trkpt>
      <trkpt lat="47.11372" lon="7.18645">
        <ele>642.218176</ele>
        <time>2023-03-11T15:42:46.762Z</time>
      </trkpt>
      <trkpt lat="47.11366" lon="7.18634">
        <ele>643.099605</ele>
        <time>2023-03-11T15:42:51.764Z</time>
      </trkpt>
      <trkpt lat="47.11361" lon="7.18622">
        <ele>643.945007</ele>
        <time>2023-03-11T15:42:56.743Z</time>
      </trkpt>
      <trkpt lat="47.11357" lon="7.1861">
        <ele>644.825688</ele>
        <time>2023-03-11T15:43:01.754Z</time>
      </trkpt>
      <trkpt lat="47.11352" lon="7.18597">
        <ele>645.737814</ele>
        <time>2023-03-11T15:43:06.728Z</time>
      </trkpt>
      <trkpt lat="47.11346" lon="7.18584">
        <ele>646.68172</ele>
        <time>2023-03-11T15:43:12.752Z</time>
      </trkpt>
      <trkpt lat="47.11341" lon="7.18572">
        <ele>647.55854</ele>
        <time>2023-03-11T15:43:17.721Z</time>
      </trkpt>
      <trkpt lat="47.11335" lon="7.1856">
        <ele>648.506433</ele>
        <time>2023-03-11T15:43:22.753Z</time>
      </trkpt>
      <trkpt lat="47.11331" lon="7.18547">
        <ele>649.356896</ele>
        <time>2023-03-11T15:43:27.762Z</time>
      </trkpt>
      <trkpt lat="47.11329" lon="7.18534">
        <ele>650.225404</ele>
        <time>2023-03-11T15:43:32.757Z</time>
      </trkpt>
      <trkpt lat="47.11328" lon="7.1852">
        <ele>651.156123</ele>
        <time>2023-03-11T15:43:37.753Z</time>
      </trkpt>
      <trkpt lat="47.11329" lon="7.18506">
        <ele>652.172582</ele>
        <time>2023-03-11T15:43:42.718Z</time>
      </trkpt>
      <trkpt lat="47.1133" lon="7.18491">
        <ele>653.278588</ele>
        <time>2023-03-11T15:43:48.743Z</time>
      </trkpt>
      <trkpt lat="47.11329" lon="7.18477">
        <ele>654.23775</ele>
        <time>2023-03-11T15:43:54.731Z</time>
      </trkpt>
      <trkpt lat="47.11331" lon="7.18463">
        <ele>655.337416</ele>
        <time>2023-03-11T15:44:00.731Z</time>
      </trkpt>
      <trkpt lat="47.11332" lon="7.18448">
        <ele>656.417293</ele>
        <time>2023-03-11T15:44:06.728Z</time>
      </trkpt>
      <trkpt lat="47.11332" lon="7.18432">
        <ele>657.521264</ele>
        <time>2023-03-11T15:44:12.733Z</time>
      </trkpt>
      <trkpt lat="47.11332" lon="7.18417">
        <ele>658.611178</ele>
        <time>2023-03-11T15:44:19.729Z</time>
      </trkpt>
      <trkpt lat="47.11333" lon="7.18403">
        <ele>659.611063</ele>
        <time>2023-03-11T15:44:25.724Z</time>
      </trkpt>
      <trkpt lat="47.11334" lon="7.18389">
        <ele>660.672149</ele>
        <time>2023-03-11T15:44:31.730Z</time>
      </trkpt>
      <trkpt lat="47.11335" lon="7.18374">
        <ele>661.750151</ele>
        <time>2023-03-11T15:44:37.725Z</time>
      </trkpt>
      <trkpt lat="47.11335" lon="7.1836">
        <ele>662.759958</ele>
        <time>2023-03-11T15:44:43.734Z</time>
      </trkpt>
      <trkpt lat="47.11333" lon="7.18346">
        <ele>663.747187</ele>
        <time>2023-03-11T15:44:49.723Z</time>
      </trkpt>
      <trkpt lat="47.1133" lon="7.18333">
        <ele>664.802186</ele>
        <time>2023-03-11T15:44:55.724Z</time>
      </trkpt>
      <trkpt lat="47.11328" lon="7.18319">
        <ele>665.815645</ele>
        <time>2023-03-11T15:45:02.725Z</time>
      </trkpt>
      <trkpt lat="47.11326" lon="7.18305">
        <ele>666.865159</ele>
        <time>2023-03-11T15:45:09.729Z</time>
      </trkpt>
      <trkpt lat="47.11324" lon="7.1829">
        <ele>667.903279</ele>
        <time>2023-03-11T15:45:16.726Z</time>
      </trkpt>
      <trkpt lat="47.11322" lon="7.18277">
        <ele>668.906821</ele>
        <time>2023-03-11T15:45:22.735Z</time>
      </trkpt>
      <trkpt lat="47.11321" lon="7.18263">
        <ele>669.960249</ele>
        <time>2023-03-11T15:45:30.736Z</time>
      </trkpt>
      <trkpt lat="47.11319" lon="7.18248">
        <ele>671.143303</ele>
        <time>2023-03-11T15:45:37.731Z</time>
      </trkpt>
      <trkpt lat="47.11319" lon="7.18234">
        <ele>672.191937</ele>
        <time>2023-03-11T15:45:43.713Z</time>
      </trkpt>
      <trkpt lat="47.11319" lon="7.1822">
        <ele>673.296355</ele>
        <time>2023-03-11T15:45:50.729Z</time>
      </trkpt>
      <trkpt lat="47.1132" lon="7.18206">
        <ele>674.409174</ele>
        <time>2023-03-11T15:45:57.721Z</time>
      </trkpt>
      <trkpt lat="47.1132" lon="7.1819">
        <ele>675.613306</ele>
        <time>2023-03-11T15:46:05.716Z</time>
      </trkpt>
      <trkpt lat="47.11318" lon="7.18177">
        <ele>676.656774</ele>
        <time>2023-03-11T15:46:11.721Z</time>
      </trkpt>
      <trkpt lat="47.11314" lon="7.18163">
        <ele>677.831755</ele>
        <time>2023-03-11T15:46:18.733Z</time>
      </trkpt>
      <trkpt lat="47.11314" lon="7.18149">
        <ele>678.893078</ele>
        <time>2023-03-11T15:46:24.722Z</time>
      </trkpt>
      <trkpt lat="47.11312" lon="7.18134">
        <ele>680.095799</ele>
        <time>2023-03-11T15:46:30.726Z</time>
      </trkpt>
      <trkpt lat="47.11311" lon="7.1812">
        <ele>681.181259</ele>
        <time>2023-03-11T15:46:37.725Z</time>
      </trkpt>
      <trkpt lat="47.11312" lon="7.18106">
        <ele>682.263072</ele>
        <time>2023-03-11T15:46:43.728Z</time>
      </trkpt>
      <trkpt lat="47.11311" lon="7.18091">
        <ele>683.422411</ele>
        <time>2023-03-11T15:46:51.737Z</time>
      </trkpt>
      <trkpt lat="47.1131" lon="7.18077">
        <ele>684.504223</ele>
        <time>2023-03-11T15:46:58.731Z</time>
      </trkpt>
      <trkpt lat="47.1131" lon="7.18064">
        <ele>685.568576</ele>
        <time>2023-03-11T15:47:04.713Z</time>
      </trkpt>
      <trkpt lat="47.11311" lon="7.18049">
        <ele>686.707232</ele>
        <time>2023-03-11T15:47:09.735Z</time>
      </trkpt>
      <trkpt lat="47.11315" lon="7.18035">
        <ele>687.906851</ele>
        <time>2023-03-11T15:47:15.743Z</time>
      </trkpt>
      <trkpt lat="47.11318" lon="7.18021">
        <ele>689.054302</ele>
        <time>2023-03-11T15:47:21.737Z</time>
      </trkpt>
      <trkpt lat="47.11321" lon="7.18008">
        <ele>690.12051</ele>
        <time>2023-03-11T15:47:26.734Z</time>
      </trkpt>
      <trkpt lat="47.1132" lon="7.17992">
        <ele>691.20393</ele>
        <time>2023-03-11T15:47:33.722Z</time>
      </trkpt>
      <trkpt lat="47.1132" lon="7.17978">
        <ele>692.1776</ele>
        <time>2023-03-11T15:47:40.729Z</time>
      </trkpt>
      <trkpt lat="47.11318" lon="7.17962">
        <ele>693.311885</ele>
        <time>2023-03-11T15:49:07.738Z</time>
      </trkpt>
      <trkpt lat="47.11315" lon="7.17949">
        <ele>694.336878</ele>
        <time>2023-03-11T15:49:21.736Z</time>
      </trkpt>
      <trkpt lat="47.11312" lon="7.17935">
        <ele>695.38462</ele>
        <time>2023-03-11T15:49:30.715Z</time>
      </trkpt>
      <trkpt lat="47.11306" lon="7.17922">
        <ele>696.450869</ele>
        <time>2023-03-11T15:49:37.745Z</time>
      </trkpt>
      <trkpt lat="47.11303" lon="7.17908">
        <ele>697.440346</ele>
        <time>2023-03-11T15:49:43.733Z</time>
      </trkpt>
      <trkpt lat="47.11301" lon="7.17895">
        <ele>698.415128</ele>
        <time>2023-03-11T15:49:49.734Z</time>
      </trkpt>
      <trkpt lat="47.11298" lon="7.17881">
        <ele>699.440124</ele>
        <time>2023-03-11T15:49:55.740Z</time>
      </trkpt>
      <trkpt lat="47.11295" lon="7.17868">
        <ele>700.391721</ele>
        <time>2023-03-11T15:50:02.724Z</time>
      </trkpt>
      <trkpt lat="47.11292" lon="7.17853">
        <ele>701.462989</ele>
        <time>2023-03-11T15:50:09.718Z</time>
      </trkpt>
      <trkpt lat="47.11288" lon="7.1784">
        <ele>702.511286</ele>
        <time>2023-03-11T15:50:16.731Z</time>
      </trkpt>
      <trkpt lat="47.11285" lon="7.17825">
        <ele>703.567805</ele>
        <time>2023-03-11T15:50:24.743Z</time>
      </trkpt>
      <trkpt lat="47.11282" lon="7.17811">
        <ele>704.572426</ele>
        <time>2023-03-11T15:50:33.731Z</time>
      </trkpt>
      <trkpt lat="47.1128" lon="7.17797">
        <ele>705.63629</ele>
        <time>2023-03-11T15:50:41.741Z</time>
      </trkpt>
      <trkpt lat="47.11276" lon="7.17784">
        <ele>706.595041</ele>
        <time>2023-03-11T15:50:47.744Z</time>
      </trkpt>
      <trkpt lat="47.11273" lon="7.17771">
        <ele>707.559953</ele>
        <time>2023-03-11T15:50:54.745Z</time>
      </trkpt>
      <trkpt lat="47.11271" lon="7.17758">
        <ele>708.522492</ele>
        <time>2023-03-11T15:51:02.733Z</time>
      </trkpt>
      <trkpt lat="47.11268" lon="7.17743">
        <ele>709.783676</ele>
        <time>2023-03-11T15:51:10.731Z</time>
      </trkpt>
      <trkpt lat="47.11265" lon="7.1773">
        <ele>711.040944</ele>
        <time>2023-03-11T15:51:16.746Z</time>
      </trkpt>
      <trkpt lat="47.11261" lon="7.17717">
        <ele>712.356954</ele>
        <time>2023-03-11T15:51:56.741Z</time>
      </trkpt>
      <trkpt lat="47.11258" lon="7.17704">
        <ele>713.609422</ele>
        <time>2023-03-11T15:52:02.742Z</time>
      </trkpt>
      <trkpt lat="47.11252" lon="7.17691">
        <ele>714.940507</ele>
        <time>2023-03-11T15:52:10.734Z</time>
      </trkpt>
      <trkpt lat="47.11249" lon="7.17677">
        <ele>716.282412</ele>
        <time>2023-03-11T15:52:17.742Z</time>
      </trkpt>
      <trkpt lat="47.11245" lon="7.17663">
        <ele>717.658576</ele>
        <time>2023-03-11T15:52:23.749Z</time>
      </trkpt>
      <trkpt lat="47.11241" lon="7.1765">
        <ele>718.944473</ele>
        <time>2023-03-11T15:52:30.739Z</time>
      </trkpt>
      <trkpt lat="47.11237" lon="7.17638">
        <ele>720.18005</ele>
        <time>2023-03-11T15:52:37.728Z</time>
      </trkpt>
      <trkpt lat="47.11233" lon="7.17625">
        <ele>721.463897</ele>
        <time>2023-03-11T15:52:45.728Z</time>
      </trkpt>
      <trkpt lat="47.1123" lon="7.17611">
        <ele>722.755226</ele>
        <time>2023-03-11T15:52:54.739Z</time>
      </trkpt>
      <trkpt lat="47.11224" lon="7.17586">
        <ele>725.139705</ele>
        <time>2023-03-11T15:53:46.736Z</time>
      </trkpt>
      <trkpt lat="47.11221" lon="7.17572">
        <ele>726.456986</ele>
        <time>2023-03-11T15:53:52.760Z</time>
      </trkpt>
      <trkpt lat="47.11219" lon="7.17558">
        <ele>727.746647</ele>
        <time>2023-03-11T15:53:58.743Z</time>
      </trkpt>
      <trkpt lat="47.11215" lon="7.17546">
        <ele>728.957258</ele>
        <time>2023-03-11T15:54:03.745Z</time>
      </trkpt>
      <trkpt lat="47.11213" lon="7.17532">
        <ele>730.250233</ele>
        <time>2023-03-11T15:54:09.746Z</time>
      </trkpt>
      <trkpt lat="47.11212" lon="7.17517">
        <ele>731.580205</ele>
        <time>2023-03-11T15:54:14.723Z</time>
      </trkpt>
      <trkpt lat="47.11208" lon="7.17502">
        <ele>732.721473</ele>
        <time>2023-03-11T15:54:21.736Z</time>
      </trkpt>
      <trkpt lat="47.11207" lon="7.17489">
        <ele>733.306033</ele>
        <time>2023-03-11T15:54:28.753Z</time>
      </trkpt>
      <trkpt lat="47.11205" lon="7.17475">
        <ele>733.929825</ele>
        <time>2023-03-11T15:54:35.733Z</time>
      </trkpt>
      <trkpt lat="47.11203" lon="7.1746">
        <ele>734.575607</ele>
        <time>2023-03-11T15:54:41.747Z</time>
      </trkpt>
      <trkpt lat="47.11202" lon="7.17445">
        <ele>735.224711</ele>
        <time>2023-03-11T15:54:48.732Z</time>
      </trkpt>
      <trkpt lat="47.11201" lon="7.17432">
        <ele>735.825766</ele>
        <time>2023-03-11T15:54:54.745Z</time>
      </trkpt>
      <trkpt lat="47.11202" lon="7.17418">
        <ele>736.415091</ele>
        <time>2023-03-11T15:54:59.733Z</time>
      </trkpt>
      <trkpt lat="47.11202" lon="7.17403">
        <ele>737.043375</ele>
        <time>2023-03-11T15:55:05.732Z</time>
      </trkpt>
      <trkpt lat="47.11199" lon="7.17391">
        <ele>737.626059</ele>
        <time>2023-03-11T15:55:10.739Z</time>
      </trkpt>
      <trkpt lat="47.11196" lon="7.17376">
        <ele>738.308735</ele>
        <time>2023-03-11T15:55:15.746Z</time>
      </trkpt>
      <trkpt lat="47.11192" lon="7.17361">
        <ele>738.980784</ele>
        <time>2023-03-11T15:55:21.762Z</time>
      </trkpt>
      <trkpt lat="47.11185" lon="7.1735">
        <ele>739.624894</ele>
        <time>2023-03-11T15:55:27.749Z</time>
      </trkpt>
      <trkpt lat="47.11179" lon="7.17338">
        <ele>740.262547</ele>
        <time>2023-03-11T15:55:33.731Z</time>
      </trkpt>
      <trkpt lat="47.11174" lon="7.17326">
        <ele>740.850518</ele>
        <time>2023-03-11T15:55:38.743Z</time>
      </trkpt>
      <trkpt lat="47.11169" lon="7.17315">
        <ele>741.430641</ele>
        <time>2023-03-11T15:55:43.726Z</time>
      </trkpt>
      <trkpt lat="47.11164" lon="7.17302">
        <ele>742.07999</ele>
        <time>2023-03-11T15:55:48.754Z</time>
      </trkpt>
      <trkpt lat="47.11159" lon="7.17291">
        <ele>742.66767</ele>
        <time>2023-03-11T15:55:53.782Z</time>
      </trkpt>
      <trkpt lat="47.11153" lon="7.17278">
        <ele>743.34108</ele>
        <time>2023-03-11T15:55:58.778Z</time>
      </trkpt>
      <trkpt lat="47.11147" lon="7.17266">
        <ele>743.926877</ele>
        <time>2023-03-11T15:56:03.775Z</time>
      </trkpt>
      <trkpt lat="47.11139" lon="7.17255">
        <ele>743.859244</ele>
        <time>2023-03-11T15:56:08.772Z</time>
      </trkpt>
      <trkpt lat="47.11133" lon="7.17243">
        <ele>743.795538</ele>
        <time>2023-03-11T15:56:12.773Z</time>
      </trkpt>
      <trkpt lat="47.11127" lon="7.17232">
        <ele>743.734881</ele>
        <time>2023-03-11T15:56:16.776Z</time>
      </trkpt>
      <trkpt lat="47.1112" lon="7.17222">
        <ele>743.674741</ele>
        <time>2023-03-11T15:56:20.774Z</time>
      </trkpt>
      <trkpt lat="47.11114" lon="7.17213">
        <ele>743.618313</ele>
        <time>2023-03-11T15:56:24.751Z</time>
      </trkpt>
      <trkpt lat="47.11106" lon="7.17202">
        <ele>743.550558</ele>
        <time>2023-03-11T15:56:28.775Z</time>
      </trkpt>
      <trkpt lat="47.11098" lon="7.1719">
        <ele>743.476365</ele>
        <time>2023-03-11T15:56:32.759Z</time>
      </trkpt>
      <trkpt lat="47.11091" lon="7.1718">
        <ele>743.416106</ele>
        <time>2023-03-11T15:56:36.766Z</time>
      </trkpt>
      <trkpt lat="47.11085" lon="7.17169">
        <ele>743.357649</ele>
        <time>2023-03-11T15:56:40.764Z</time>
      </trkpt>
      <trkpt lat="47.11077" lon="7.17157">
        <ele>743.289078</ele>
        <time>2023-03-11T15:56:45.763Z</time>
      </trkpt>
      <trkpt lat="47.11071" lon="7.17147">
        <ele>743.231036</ele>
        <time>2023-03-11T15:56:49.763Z</time>
      </trkpt>
      <trkpt lat="47.11064" lon="7.17135">
        <ele>743.160462</ele>
        <time>2023-03-11T15:56:53.771Z</time>
      </trkpt>
      <trkpt lat="47.11057" lon="7.17123">
        <ele>743.090954</ele>
        <time>2023-03-11T15:56:57.770Z</time>
      </trkpt>
      <trkpt lat="47.11052" lon="7.17109">
        <ele>743.026242</ele>
        <time>2023-03-11T15:57:01.780Z</time>
      </trkpt>
      <trkpt lat="47.11047" lon="7.17097">
        <ele>742.969041</ele>
        <time>2023-03-11T15:57:04.772Z</time>
      </trkpt>
      <trkpt lat="47.11042" lon="7.17083">
        <ele>742.898779</ele>
        <time>2023-03-11T15:57:07.769Z</time>
      </trkpt>
      <trkpt lat="47.11037" lon="7.17067">
        <ele>742.825481</ele>
        <time>2023-03-11T15:57:10.764Z</time>
      </trkpt>
      <trkpt lat="47.11033" lon="7.17049">
        <ele>742.506942</ele>
        <time>2023-03-11T15:57:13.766Z</time>
      </trkpt>
      <trkpt lat="47.11029" lon="7.17036">
        <ele>742.231851</ele>
        <time>2023-03-11T15:57:15.766Z</time>
      </trkpt>
      <trkpt lat="47.11025" lon="7.17023">
        <ele>741.947728</ele>
        <time>2023-03-11T15:57:17.757Z</time>
      </trkpt>
      <trkpt lat="47.11021" lon="7.17008">
        <ele>741.633567</ele>
        <time>2023-03-11T15:57:19.762Z</time>
      </trkpt>
      <trkpt lat="47.11017" lon="7.16992">
        <ele>741.299706</ele>
        <time>2023-03-11T15:57:21.780Z</time>
      </trkpt>
      <trkpt lat="47.11012" lon="7.16977">
        <ele>740.970076</ele>
        <time>2023-03-11T15:57:23.770Z</time>
      </trkpt>
      <trkpt lat="47.11007" lon="7.16961">
        <ele>740.623029</ele>
        <time>2023-03-11T15:57:25.763Z</time>
      </trkpt>
      <trkpt lat="47.11002" lon="7.16945">
        <ele>740.280789</ele>
        <time>2023-03-11T15:57:27.763Z</time>
      </trkpt>
      <trkpt lat="47.10996" lon="7.16928">
        <ele>739.908389</ele>
        <time>2023-03-11T15:57:29.775Z</time>
      </trkpt>
      <trkpt lat="47.10989" lon="7.16911">
        <ele>739.517359</ele>
        <time>2023-03-11T15:57:31.756Z</time>
      </trkpt>
      <trkpt lat="47.10982" lon="7.16896">
        <ele>739.136966</ele>
        <time>2023-03-11T15:57:33.746Z</time>
      </trkpt>
      <trkpt lat="47.10975" lon="7.16879">
        <ele>738.746517</ele>
        <time>2023-03-11T15:57:35.765Z</time>
      </trkpt>
      <trkpt lat="47.10967" lon="7.16861">
        <ele>738.33281</ele>
        <time>2023-03-11T15:57:37.768Z</time>
      </trkpt>
      <trkpt lat="47.1096" lon="7.16842">
        <ele>737.904845</ele>
        <time>2023-03-11T15:57:39.772Z</time>
      </trkpt>
      <trkpt lat="47.10954" lon="7.16824">
        <ele>737.419088</ele>
        <time>2023-03-11T15:57:41.767Z</time>
      </trkpt>
      <trkpt lat="47.10948" lon="7.16805">
        <ele>736.659155</ele>
        <time>2023-03-11T15:57:43.773Z</time>
      </trkpt>
      <trkpt lat="47.10942" lon="7.16788">
        <ele>735.910616</ele>
        <time>2023-03-11T15:57:45.765Z</time>
      </trkpt>
      <trkpt lat="47.10936" lon="7.16771">
        <ele>735.201147</ele>
        <time>2023-03-11T15:57:47.764Z</time>
      </trkpt>
      <trkpt lat="47.10929" lon="7.16755">
        <ele>734.451433</ele>
        <time>2023-03-11T15:57:49.779Z</time>
      </trkpt>
      <trkpt lat="47.10922" lon="7.16739">
        <ele>733.72943</ele>
        <time>2023-03-11T15:57:51.758Z</time>
      </trkpt>
      <trkpt lat="47.10917" lon="7.16723">
        <ele>733.060759</ele>
        <time>2023-03-11T15:57:53.766Z</time>
      </trkpt>
      <trkpt lat="47.10911" lon="7.16707">
        <ele>732.351724</ele>
        <time>2023-03-11T15:57:55.777Z</time>
      </trkpt>
      <trkpt lat="47.10906" lon="7.1669">
        <ele>731.657454</ele>
        <time>2023-03-11T15:57:57.756Z</time>
      </trkpt>
      <trkpt lat="47.109" lon="7.16678">
        <ele>731.088457</ele>
        <time>2023-03-11T15:57:59.764Z</time>
      </trkpt>
      <trkpt lat="47.10888" lon="7.16673">
        <ele>730.391164</ele>
        <time>2023-03-11T15:58:01.754Z</time>
      </trkpt>
      <trkpt lat="47.10873" lon="7.16676">
        <ele>729.568238</ele>
        <time>2023-03-11T15:58:03.732Z</time>
      </trkpt>
      <trkpt lat="47.10859" lon="7.16687">
        <ele>728.62418</ele>
        <time>2023-03-11T15:58:05.760Z</time>
      </trkpt>
      <trkpt lat="47.1085" lon="7.16693">
        <ele>728.104606</ele>
        <time>2023-03-11T15:58:06.757Z</time>
      </trkpt>
      <trkpt lat="47.10838" lon="7.16702">
        <ele>727.195496</ele>
        <time>2023-03-11T15:58:08.768Z</time>
      </trkpt>
      <trkpt lat="47.10825" lon="7.16712">
        <ele>725.766028</ele>
        <time>2023-03-11T15:58:10.782Z</time>
      </trkpt>
      <trkpt lat="47.1081" lon="7.16722">
        <ele>724.125792</ele>
        <time>2023-03-11T15:58:12.779Z</time>
      </trkpt>
      <trkpt lat="47.10795" lon="7.16735">
        <ele>722.370947</ele>
        <time>2023-03-11T15:58:14.766Z</time>
      </trkpt>
      <trkpt lat="47.10786" lon="7.16741">
        <ele>721.448549</ele>
        <time>2023-03-11T15:58:15.780Z</time>
      </trkpt>
      <trkpt lat="47.10777" lon="7.16747">
        <ele>720.486755</ele>
        <time>2023-03-11T15:58:16.766Z</time>
      </trkpt>
      <trkpt lat="47.10767" lon="7.16752">
        <ele>719.433631</ele>
        <time>2023-03-11T15:58:17.768Z</time>
      </trkpt>
      <trkpt lat="47.10758" lon="7.16757">
        <ele>718.425945</ele>
        <time>2023-03-11T15:58:18.747Z</time>
      </trkpt>
      <trkpt lat="47.10748" lon="7.1676">
        <ele>717.412295</ele>
        <time>2023-03-11T15:58:19.758Z</time>
      </trkpt>
      <trkpt lat="47.10737" lon="7.16763">
        <ele>716.350826</ele>
        <time>2023-03-11T15:58:20.760Z</time>
      </trkpt>
      <trkpt lat="47.10728" lon="7.16762">
        <ele>715.4095</ele>
        <time>2023-03-11T15:58:21.743Z</time>
      </trkpt>
      <trkpt lat="47.10718" lon="7.16761">
        <ele>714.433418</ele>
        <time>2023-03-11T15:58:22.750Z</time>
      </trkpt>
      <trkpt lat="47.10709" lon="7.1676">
        <ele>713.507962</ele>
        <time>2023-03-11T15:58:23.751Z</time>
      </trkpt>
      <trkpt lat="47.10699" lon="7.16757">
        <ele>712.534607</ele>
        <time>2023-03-11T15:58:24.739Z</time>
      </trkpt>
      <trkpt lat="47.10689" lon="7.16754">
        <ele>711.516244</ele>
        <time>2023-03-11T15:58:25.744Z</time>
      </trkpt>
      <trkpt lat="47.10679" lon="7.16749">
        <ele>710.46671</ele>
        <time>2023-03-11T15:58:26.756Z</time>
      </trkpt>
      <trkpt lat="47.10669" lon="7.16744">
        <ele>709.534823</ele>
        <time>2023-03-11T15:58:27.763Z</time>
      </trkpt>
      <trkpt lat="47.10659" lon="7.16738">
        <ele>708.919433</ele>
        <time>2023-03-11T15:58:28.757Z</time>
      </trkpt>
      <trkpt lat="47.10648" lon="7.16733">
        <ele>708.283693</ele>
        <time>2023-03-11T15:58:29.767Z</time>
      </trkpt>
      <trkpt lat="47.10637" lon="7.16728">
        <ele>707.644887</ele>
        <time>2023-03-11T15:58:30.773Z</time>
      </trkpt>
      <trkpt lat="47.10626" lon="7.16722">
        <ele>706.989712</ele>
        <time>2023-03-11T15:58:31.772Z</time>
      </trkpt>
      <trkpt lat="47.10616" lon="7.16715">
        <ele>706.361828</ele>
        <time>2023-03-11T15:58:32.771Z</time>
      </trkpt>
      <trkpt lat="47.10606" lon="7.16707">
        <ele>705.725487</ele>
        <time>2023-03-11T15:58:33.752Z</time>
      </trkpt>
      <trkpt lat="47.10598" lon="7.16697">
        <ele>705.114852</ele>
        <time>2023-03-11T15:58:34.752Z</time>
      </trkpt>
      <trkpt lat="47.1059" lon="7.16686">
        <ele>704.510472</ele>
        <time>2023-03-11T15:58:35.749Z</time>
      </trkpt>
      <trkpt lat="47.10583" lon="7.16675">
        <ele>703.925562</ele>
        <time>2023-03-11T15:58:36.748Z</time>
      </trkpt>
      <trkpt lat="47.10577" lon="7.16664">
        <ele>703.362444</ele>
        <time>2023-03-11T15:58:37.758Z</time>
      </trkpt>
      <trkpt lat="47.10569" lon="7.16654">
        <ele>702.802491</ele>
        <time>2023-03-11T15:58:38.743Z</time>
      </trkpt>
      <trkpt lat="47.10562" lon="7.16645">
        <ele>702.250819</ele>
        <time>2023-03-11T15:58:39.772Z</time>
      </trkpt>
      <trkpt lat="47.10554" lon="7.16637">
        <ele>701.705576</ele>
        <time>2023-03-11T15:58:40.751Z</time>
      </trkpt>
      <trkpt lat="47.10545" lon="7.16631">
        <ele>701.180816</ele>
        <time>2023-03-11T15:58:41.751Z</time>
      </trkpt>
      <trkpt lat="47.10537" lon="7.16625">
        <ele>700.663023</ele>
        <time>2023-03-11T15:58:42.750Z</time>
      </trkpt>
      <trkpt lat="47.10521" lon="7.16615">
        <ele>699.677826</ele>
        <time>2023-03-11T15:58:44.747Z</time>
      </trkpt>
      <trkpt lat="47.10506" lon="7.16604">
        <ele>697.798825</ele>
        <time>2023-03-11T15:58:46.775Z</time>
      </trkpt>
      <trkpt lat="47.10491" lon="7.1659">
        <ele>695.686209</ele>
        <time>2023-03-11T15:58:48.768Z</time>
      </trkpt>
      <trkpt lat="47.10478" lon="7.16574">
        <ele>693.596479</ele>
        <time>2023-03-11T15:58:50.754Z</time>
      </trkpt>
      <trkpt lat="47.10466" lon="7.16558">
        <ele>691.567202</ele>
        <time>2023-03-11T15:58:52.751Z</time>
      </trkpt>
      <trkpt lat="47.10456" lon="7.16543">
        <ele>689.846088</ele>
        <time>2023-03-11T15:58:54.778Z</time>
      </trkpt>
      <trkpt lat="47.10448" lon="7.16528">
        <ele>688.303242</ele>
        <time>2023-03-11T15:58:56.747Z</time>
      </trkpt>
      <trkpt lat="47.10439" lon="7.16512">
        <ele>686.58707</ele>
        <time>2023-03-11T15:58:58.753Z</time>
      </trkpt>
      <trkpt lat="47.10429" lon="7.16494">
        <ele>684.680757</ele>
        <time>2023-03-11T15:59:00.787Z</time>
      </trkpt>
      <trkpt lat="47.10423" lon="7.16481">
        <ele>683.454661</ele>
        <time>2023-03-11T15:59:02.773Z</time>
      </trkpt>
      <trkpt lat="47.10407" lon="7.16459">
        <ele>680.742242</ele>
        <time>2023-03-11T15:59:27.765Z</time>
      </trkpt>
      <trkpt lat="47.104" lon="7.16449">
        <ele>679.539931</ele>
        <time>2023-03-11T15:59:31.766Z</time>
      </trkpt>
      <trkpt lat="47.10391" lon="7.16443">
        <ele>678.427587</ele>
        <time>2023-03-11T15:59:34.758Z</time>
      </trkpt>
      <trkpt lat="47.10382" lon="7.16438">
        <ele>676.714721</ele>
        <time>2023-03-11T15:59:37.750Z</time>
      </trkpt>
      <trkpt lat="47.10372" lon="7.16435">
        <ele>674.211032</ele>
        <time>2023-03-11T15:59:41.770Z</time>
      </trkpt>
      <trkpt lat="47.10362" lon="7.16431">
        <ele>671.912103</ele>
        <time>2023-03-11T15:59:46.750Z</time>
      </trkpt>
      <trkpt lat="47.10351" lon="7.16428">
        <ele>669.368134</ele>
        <time>2023-03-11T15:59:51.745Z</time>
      </trkpt>
      <trkpt lat="47.10341" lon="7.16425">
        <ele>666.825801</ele>
        <time>2023-03-11T15:59:56.760Z</time>
      </trkpt>
      <trkpt lat="47.10332" lon="7.16424">
        <ele>664.658496</ele>
        <time>2023-03-11T16:00:00.727Z</time>
      </trkpt>
      <trkpt lat="47.10322" lon="7.1642">
        <ele>662.365324</ele>
        <time>2023-03-11T16:00:05.744Z</time>
      </trkpt>
      <trkpt lat="47.10312" lon="7.16421">
        <ele>659.939969</ele>
        <time>2023-03-11T16:00:10.747Z</time>
      </trkpt>
      <trkpt lat="47.10302" lon="7.16419">
        <ele>657.619305</ele>
        <time>2023-03-11T16:00:15.733Z</time>
      </trkpt>
      <trkpt lat="47.10293" lon="7.16413">
        <ele>655.290347</ele>
        <time>2023-03-11T16:00:20.750Z</time>
      </trkpt>
      <trkpt lat="47.10283" lon="7.16407">
        <ele>652.832064</ele>
        <time>2023-03-11T16:00:24.752Z</time>
      </trkpt>
      <trkpt lat="47.10275" lon="7.16402">
        <ele>650.671477</ele>
        <time>2023-03-11T16:00:27.760Z</time>
      </trkpt>
      <trkpt lat="47.10266" lon="7.16392">
        <ele>648.063677</ele>
        <time>2023-03-11T16:00:31.749Z</time>
      </trkpt>
      <trkpt lat="47.10259" lon="7.16382">
        <ele>645.809137</ele>
        <time>2023-03-11T16:00:34.755Z</time>
      </trkpt>
      <trkpt lat="47.1025" lon="7.16371">
        <ele>643.0173</ele>
        <time>2023-03-11T16:00:38.753Z</time>
      </trkpt>
      <trkpt lat="47.10242" lon="7.16363">
        <ele>640.713979</ele>
        <time>2023-03-11T16:00:41.756Z</time>
      </trkpt>
      <trkpt lat="47.10234" lon="7.16356">
        <ele>638.511921</ele>
        <time>2023-03-11T16:00:44.761Z</time>
      </trkpt>
      <trkpt lat="47.10223" lon="7.16348">
        <ele>635.725497</ele>
        <time>2023-03-11T16:00:48.734Z</time>
      </trkpt>
      <trkpt lat="47.10215" lon="7.16343">
        <ele>634.111834</ele>
        <time>2023-03-11T16:00:51.760Z</time>
      </trkpt>
      <trkpt lat="47.10204" lon="7.16337">
        <ele>632.230379</ele>
        <time>2023-03-11T16:00:54.755Z</time>
      </trkpt>
      <trkpt lat="47.10193" lon="7.16332">
        <ele>630.195769</ele>
        <time>2023-03-11T16:00:57.762Z</time>
      </trkpt>
      <trkpt lat="47.1018" lon="7.16326">
        <ele>627.913072</ele>
        <time>2023-03-11T16:01:00.756Z</time>
      </trkpt>
      <trkpt lat="47.10171" lon="7.16322">
        <ele>626.295508</ele>
        <time>2023-03-11T16:01:02.769Z</time>
      </trkpt>
      <trkpt lat="47.10163" lon="7.16317">
        <ele>624.717266</ele>
        <time>2023-03-11T16:01:05.755Z</time>
      </trkpt>
      <trkpt lat="47.10153" lon="7.1631">
        <ele>622.92608</ele>
        <time>2023-03-11T16:01:08.776Z</time>
      </trkpt>
      <trkpt lat="47.10144" lon="7.163">
        <ele>620.956256</ele>
        <time>2023-03-11T16:01:11.757Z</time>
      </trkpt>
      <trkpt lat="47.10135" lon="7.16291">
        <ele>619.151459</ele>
        <time>2023-03-11T16:01:14.777Z</time>
      </trkpt>
      <trkpt lat="47.10126" lon="7.16283">
        <ele>617.238661</ele>
        <time>2023-03-11T16:01:17.767Z</time>
      </trkpt>
      <trkpt lat="47.10117" lon="7.16275">
        <ele>615.505063</ele>
        <time>2023-03-11T16:01:20.771Z</time>
      </trkpt>
      <trkpt lat="47.10108" lon="7.16265">
        <ele>613.52834</ele>
        <time>2023-03-11T16:01:24.769Z</time>
      </trkpt>
      <trkpt lat="47.101" lon="7.16254">
        <ele>611.732682</ele>
        <time>2023-03-11T16:01:27.737Z</time>
      </trkpt>
      <trkpt lat="47.10093" lon="7.16243">
        <ele>609.925064</ele>
        <time>2023-03-11T16:01:30.777Z</time>
      </trkpt>
      <trkpt lat="47.10085" lon="7.16233">
        <ele>608.094023</ele>
        <time>2023-03-11T16:01:33.784Z</time>
      </trkpt>
      <trkpt lat="47.10077" lon="7.16222">
        <ele>606.217548</ele>
        <time>2023-03-11T16:01:36.778Z</time>
      </trkpt>
      <trkpt lat="47.10067" lon="7.16211">
        <ele>604.08169</ele>
        <time>2023-03-11T16:01:39.763Z</time>
      </trkpt>
      <trkpt lat="47.10056" lon="7.16199">
        <ele>601.623426</ele>
        <time>2023-03-11T16:01:42.767Z</time>
      </trkpt>
      <trkpt lat="47.10047" lon="7.16189">
        <ele>599.475836</ele>
        <time>2023-03-11T16:01:45.774Z</time>
      </trkpt>
      <trkpt lat="47.10038" lon="7.16181">
        <ele>597.603076</ele>
        <time>2023-03-11T16:01:48.754Z</time>
      </trkpt>
      <trkpt lat="47.10029" lon="7.16175">
        <ele>595.826338</ele>
        <time>2023-03-11T16:01:51.757Z</time>
      </trkpt>
      <trkpt lat="47.1002" lon="7.16166">
        <ele>593.747157</ele>
        <time>2023-03-11T16:01:55.768Z</time>
      </trkpt>
      <trkpt lat="47.10011" lon="7.16156">
        <ele>591.643954</ele>
        <time>2023-03-11T16:01:59.747Z</time>
      </trkpt>
      <trkpt lat="47.10001" lon="7.16148">
        <ele>589.654088</ele>
        <time>2023-03-11T16:02:02.763Z</time>
      </trkpt>
      <trkpt lat="47.0999" lon="7.16136">
        <ele>587.08376</ele>
        <time>2023-03-11T16:02:05.771Z</time>
      </trkpt>
      <trkpt lat="47.0998" lon="7.16126">
        <ele>584.883231</ele>
        <time>2023-03-11T16:02:08.754Z</time>
      </trkpt>
      <trkpt lat="47.09971" lon="7.16118">
        <ele>582.921659</ele>
        <time>2023-03-11T16:02:13.746Z</time>
      </trkpt>
      <trkpt lat="47.09961" lon="7.16111">
        <ele>580.957904</ele>
        <time>2023-03-11T16:02:16.750Z</time>
      </trkpt>
      <trkpt lat="47.0995" lon="7.16104">
        <ele>578.660944</ele>
        <time>2023-03-11T16:02:19.746Z</time>
      </trkpt>
      <trkpt lat="47.0994" lon="7.161">
        <ele>576.879135</ele>
        <time>2023-03-11T16:02:23.761Z</time>
      </trkpt>
      <trkpt lat="47.09931" lon="7.16096">
        <ele>575.144004</ele>
        <time>2023-03-11T16:02:26.766Z</time>
      </trkpt>
      <trkpt lat="47.09922" lon="7.16092">
        <ele>573.331249</ele>
        <time>2023-03-11T16:02:30.735Z</time>
      </trkpt>
      <trkpt lat="47.09911" lon="7.16089">
        <ele>571.070448</ele>
        <time>2023-03-11T16:02:34.738Z</time>
      </trkpt>
      <trkpt lat="47.09901" lon="7.16084">
        <ele>568.733393</ele>
        <time>2023-03-11T16:02:39.774Z</time>
      </trkpt>
      <trkpt lat="47.0989" lon="7.16081">
        <ele>566.250865</ele>
        <time>2023-03-11T16:02:42.733Z</time>
      </trkpt>
      <trkpt lat="47.09878" lon="7.16077">
        <ele>563.469059</ele>
        <time>2023-03-11T16:02:46.776Z</time>
      </trkpt>
      <trkpt lat="47.09868" lon="7.16073">
        <ele>561.130475</ele>
        <time>2023-03-11T16:02:49.771Z</time>
      </trkpt>
      <trkpt lat="47.09859" lon="7.1607">
        <ele>558.918425</ele>
        <time>2023-03-11T16:02:52.743Z</time>
      </trkpt>
      <trkpt lat="47.09849" lon="7.16064">
        <ele>556.365328</ele>
        <time>2023-03-11T16:02:55.776Z</time>
      </trkpt>
      <trkpt lat="47.0984" lon="7.16058">
        <ele>554.278304</ele>
        <time>2023-03-11T16:02:58.790Z</time>
      </trkpt>
      <trkpt lat="47.09831" lon="7.1605">
        <ele>551.73131</ele>
        <time>2023-03-11T16:03:01.745Z</time>
      </trkpt>
      <trkpt lat="47.09822" lon="7.16037">
        <ele>548.972233</ele>
        <time>2023-03-11T16:03:05.770Z</time>
      </trkpt>
      <trkpt lat="47.09815" lon="7.16027">
        <ele>546.626201</ele>
        <time>2023-03-11T16:03:08.766Z</time>
      </trkpt>
      <trkpt lat="47.09807" lon="7.16015">
        <ele>544.083626</ele>
        <time>2023-03-11T16:03:12.770Z</time>
      </trkpt>
      <trkpt lat="47.09797" lon="7.16014">
        <ele>541.773211</ele>
        <time>2023-03-11T16:03:15.745Z</time>
      </trkpt>
      <trkpt lat="47.09789" lon="7.16021">
        <ele>539.631257</ele>
        <time>2023-03-11T16:03:17.757Z</time>
      </trkpt>
      <trkpt lat="47.09778" lon="7.16032">
        <ele>536.739645</ele>
        <time>2023-03-11T16:03:20.745Z</time>
      </trkpt>
      <trkpt lat="47.09767" lon="7.16038">
        <ele>533.913691</ele>
        <time>2023-03-11T16:03:23.758Z</time>
      </trkpt>
      <trkpt lat="47.09758" lon="7.16038">
        <ele>531.833412</ele>
        <time>2023-03-11T16:03:25.755Z</time>
      </trkpt>
      <trkpt lat="47.09749" lon="7.16036">
        <ele>529.897886</ele>
        <time>2023-03-11T16:03:27.750Z</time>
      </trkpt>
      <trkpt lat="47.09738" lon="7.16029">
        <ele>527.632289</ele>
        <time>2023-03-11T16:03:30.750Z</time>
      </trkpt>
      <trkpt lat="47.09729" lon="7.16025">
        <ele>525.860275</ele>
        <time>2023-03-11T16:03:33.770Z</time>
      </trkpt>
      <trkpt lat="47.09697" lon="7.16021">
        <ele>519.823801</ele>
        <time>2023-03-11T16:04:42.757Z</time>
      </trkpt>
      <trkpt lat="47.09684" lon="7.16017">
        <ele>517.277925</ele>
        <time>2023-03-11T16:04:44.761Z</time>
      </trkpt>
      <trkpt lat="47.09671" lon="7.16011">
        <ele>514.581062</ele>
        <time>2023-03-11T16:04:46.742Z</time>
      </trkpt>
      <trkpt lat="47.09657" lon="7.16006">
        <ele>511.874927</ele>
        <time>2023-03-11T16:04:48.734Z</time>
      </trkpt>
      <trkpt lat="47.09645" lon="7.16001">
        <ele>509.565561</ele>
        <time>2023-03-11T16:04:50.780Z</time>
      </trkpt>
      <trkpt lat="47.09635" lon="7.15996">
        <ele>507.491948</ele>
        <time>2023-03-11T16:04:52.776Z</time>
      </trkpt>
      <trkpt lat="47.09623" lon="7.15991">
        <ele>505.137158</ele>
        <time>2023-03-11T16:04:54.758Z</time>
      </trkpt>
      <trkpt lat="47.09612" lon="7.15987">
        <ele>503.031806</ele>
        <time>2023-03-11T16:04:56.786Z</time>
      </trkpt>
      <trkpt lat="47.09602" lon="7.15986">
        <ele>501.201116</ele>
        <time>2023-03-11T16:04:58.773Z</time>
      </trkpt>
      <trkpt lat="47.09593" lon="7.15987">
        <ele>499.462704</ele>
        <time>2023-03-11T16:05:00.736Z</time>
      </trkpt>
      <trkpt lat="47.09582" lon="7.1599">
        <ele>497.23895</ele>
        <time>2023-03-11T16:05:03.761Z</time>
      </trkpt>
      <trkpt lat="47.09571" lon="7.15997">
        <ele>495.847724</ele>
        <time>2023-03-11T16:05:06.759Z</time>
      </trkpt>
      <trkpt lat="47.09559" lon="7.15995">
        <ele>494.914999</ele>
        <time>2023-03-11T16:05:10.751Z</time>
      </trkpt>
      <trkpt lat="47.0955" lon="7.15985">
        <ele>493.989154</ele>
        <time>2023-03-11T16:05:13.762Z</time>
      </trkpt>
      <trkpt lat="47.09542" lon="7.15979">
        <ele>493.258803</ele>
        <time>2023-03-11T16:05:16.767Z</time>
      </trkpt>
      <trkpt lat="47.09532" lon="7.15973">
        <ele>492.4193</ele>
        <time>2023-03-11T16:05:20.784Z</time>
      </trkpt>
      <trkpt lat="47.09523" lon="7.15969">
        <ele>491.64976</ele>
        <time>2023-03-11T16:05:24.780Z</time>
      </trkpt>
      <trkpt lat="47.09521" lon="7.15951">
        <ele>490.676364</ele>
        <time>2023-03-11T16:05:27.751Z</time>
      </trkpt>
      <trkpt lat="47.0952" lon="7.15935">
        <ele>489.771437</ele>
        <time>2023-03-11T16:05:30.769Z</time>
      </trkpt>
      <trkpt lat="47.09519" lon="7.15918">
        <ele>488.884352</ele>
        <time>2023-03-11T16:05:33.774Z</time>
      </trkpt>
      <trkpt lat="47.09521" lon="7.15901">
        <ele>487.931656</ele>
        <time>2023-03-11T16:05:36.760Z</time>
      </trkpt>
      <trkpt lat="47.09523" lon="7.15883">
        <ele>486.90645</ele>
        <time>2023-03-11T16:05:39.777Z</time>
      </trkpt>
      <trkpt lat="47.09524" lon="7.15866">
        <ele>485.985082</ele>
        <time>2023-03-11T16:05:42.780Z</time>
      </trkpt>
      <trkpt lat="47.09511" lon="7.1586">
        <ele>484.874141</ele>
        <time>2023-03-11T16:05:49.761Z</time>
      </trkpt>
      <trkpt lat="47.09501" lon="7.15859">
        <ele>484.025421</ele>
        <time>2023-03-11T16:05:51.771Z</time>
      </trkpt>
      <trkpt lat="47.09488" lon="7.15858">
        <ele>483.056345</ele>
        <time>2023-03-11T16:05:54.771Z</time>
      </trkpt>
      <trkpt lat="47.09478" lon="7.15861">
        <ele>482.229452</ele>
        <time>2023-03-11T16:05:58.772Z</time>
      </trkpt>
      <trkpt lat="47.09474" lon="7.15873">
        <ele>481.931492</ele>
        <time>2023-03-11T16:06:05.759Z</time>
      </trkpt>
      <trkpt lat="47.09476" lon="7.15886">
        <ele>481.736827</ele>
        <time>2023-03-11T16:06:09.748Z</time>
      </trkpt>
      <trkpt lat="47.09486" lon="7.15886">
        <ele>481.53122</ele>
        <time>2023-03-11T16:06:13.766Z</time>
      </trkpt>
      <trkpt lat="47.09496" lon="7.1589">
        <ele>481.297933</ele>
        <time>2023-03-11T16:06:16.774Z</time>
      </trkpt>
      <trkpt lat="47.09487" lon="7.15892">
        <ele>481.099704</ele>
        <time>2023-03-11T16:06:25.755Z</time>
      </trkpt>
      <trkpt lat="47.09477" lon="7.1589">
        <ele>480.881216</ele>
        <time>2023-03-11T16:06:28.812Z</time>
      </trkpt>
      <trkpt lat="47.09467" lon="7.15891">
        <ele>480.651377</ele>
        <time>2023-03-11T16:06:31.804Z</time>
      </trkpt>
      <trkpt lat="47.09457" lon="7.15892">
        <ele>480.449454</ele>
        <time>2023-03-11T16:06:35.813Z</time>
      </trkpt>
      <trkpt lat="47.09449" lon="7.15897">
        <ele>480.249404</ele>
        <time>2023-03-11T16:06:39.785Z</time>
      </trkpt>
      <trkpt lat="47.09441" lon="7.1589">
        <ele>480.049573</ele>
        <time>2023-03-11T16:06:44.803Z</time>
      </trkpt>
      <trkpt lat="47.09437" lon="7.15874">
        <ele>479.801752</ele>
        <time>2023-03-11T16:06:48.826Z</time>
      </trkpt>
      <trkpt lat="47.09432" lon="7.1586">
        <ele>479.567532</ele>
        <time>2023-03-11T16:06:51.826Z</time>
      </trkpt>
      <trkpt lat="47.09427" lon="7.15846">
        <ele>479.334225</ele>
        <time>2023-03-11T16:06:54.835Z</time>
      </trkpt>
      <trkpt lat="47.09422" lon="7.15831">
        <ele>479.101809</ele>
        <time>2023-03-11T16:06:57.774Z</time>
      </trkpt>
      <trkpt lat="47.09417" lon="7.15817">
        <ele>478.858681</ele>
        <time>2023-03-11T16:07:00.765Z</time>
      </trkpt>
      <trkpt lat="47.0941" lon="7.15803">
        <ele>478.604269</ele>
        <time>2023-03-11T16:07:03.780Z</time>
      </trkpt>
      <trkpt lat="47.09402" lon="7.15786">
        <ele>478.305924</ele>
        <time>2023-03-11T16:07:06.766Z</time>
      </trkpt>
      <trkpt lat="47.09396" lon="7.15772">
        <ele>478.22705</ele>
        <time>2023-03-11T16:07:08.769Z</time>
      </trkpt>
      <trkpt lat="47.09389" lon="7.15759">
        <ele>478.248979</ele>
        <time>2023-03-11T16:07:10.775Z</time>
      </trkpt>
      <trkpt lat="47.09384" lon="7.15746">
        <ele>478.267784</ele>
        <time>2023-03-11T16:07:12.774Z</time>
      </trkpt>
      <trkpt lat="47.09377" lon="7.1573">
        <ele>478.292644</ele>
        <time>2023-03-11T16:07:15.780Z</time>
      </trkpt>
      <trkpt lat="47.0937" lon="7.15715">
        <ele>478.316747</ele>
        <time>2023-03-11T16:07:18.789Z</time>
      </trkpt>
      <trkpt lat="47.09364" lon="7.15701">
        <ele>478.33878</ele>
        <time>2023-03-11T16:07:21.789Z</time>
      </trkpt>
      <trkpt lat="47.09358" lon="7.15687">
        <ele>478.360393</ele>
        <time>2023-03-11T16:07:24.778Z</time>
      </trkpt>
      <trkpt lat="47.09351" lon="7.15673">
        <ele>478.383074</ele>
        <time>2023-03-11T16:07:27.783Z</time>
      </trkpt>
      <trkpt lat="47.09345" lon="7.15662">
        <ele>478.402185</ele>
        <time>2023-03-11T16:07:29.777Z</time>
      </trkpt>
      <trkpt lat="47.09339" lon="7.1565">
        <ele>478.421115</ele>
        <time>2023-03-11T16:07:31.779Z</time>
      </trkpt>
      <trkpt lat="47.09333" lon="7.15639">
        <ele>478.438935</ele>
        <time>2023-03-11T16:07:33.777Z</time>
      </trkpt>
      <trkpt lat="47.09325" lon="7.15624">
        <ele>478.464897</ele>
        <time>2023-03-11T16:07:36.774Z</time>
      </trkpt>
      <trkpt lat="47.09319" lon="7.15613">
        <ele>478.482544</ele>
        <time>2023-03-11T16:07:38.777Z</time>
      </trkpt>
      <trkpt lat="47.09314" lon="7.15602">
        <ele>478.500784</ele>
        <time>2023-03-11T16:07:40.772Z</time>
      </trkpt>
      <trkpt lat="47.09309" lon="7.15591">
        <ele>478.518584</ele>
        <time>2023-03-11T16:07:42.779Z</time>
      </trkpt>
      <trkpt lat="47.09302" lon="7.15575">
        <ele>478.543216</ele>
        <time>2023-03-11T16:07:45.783Z</time>
      </trkpt>
      <trkpt lat="47.09296" lon="7.15562">
        <ele>478.573778</ele>
        <time>2023-03-11T16:07:48.781Z</time>
      </trkpt>
      <trkpt lat="47.09292" lon="7.15551">
        <ele>478.638263</ele>
        <time>2023-03-11T16:07:51.790Z</time>
      </trkpt>
      <trkpt lat="47.09285" lon="7.15536">
        <ele>478.72276</ele>
        <time>2023-03-11T16:07:55.786Z</time>
      </trkpt>
      <trkpt lat="47.09279" lon="7.15522">
        <ele>478.804004</ele>
        <time>2023-03-11T16:07:59.786Z</time>
      </trkpt>
      <trkpt lat="47.09273" lon="7.15507">
        <ele>478.892523</ele>
        <time>2023-03-11T16:08:02.764Z</time>
      </trkpt>
      <trkpt lat="47.09268" lon="7.15495">
        <ele>478.956882</ele>
        <time>2023-03-11T16:08:04.781Z</time>
      </trkpt>
      <trkpt lat="47.09263" lon="7.15484">
        <ele>479.023597</ele>
        <time>2023-03-11T16:08:06.748Z</time>
      </trkpt>
      <trkpt lat="47.09258" lon="7.15473">
        <ele>479.089537</ele>
        <time>2023-03-11T16:08:08.778Z</time>
      </trkpt>
      <trkpt lat="47.09252" lon="7.15457">
        <ele>479.176943</ele>
        <time>2023-03-11T16:08:11.776Z</time>
      </trkpt>
      <trkpt lat="47.09245" lon="7.1544">
        <ele>479.272607</ele>
        <time>2023-03-11T16:08:14.794Z</time>
      </trkpt>
      <trkpt lat="47.0924" lon="7.15426">
        <ele>479.355461</ele>
        <time>2023-03-11T16:08:17.783Z</time>
      </trkpt>
      <trkpt lat="47.09235" lon="7.15412">
        <ele>479.428185</ele>
        <time>2023-03-11T16:08:20.781Z</time>
      </trkpt>
      <trkpt lat="47.09232" lon="7.15399">
        <ele>479.499258</ele>
        <time>2023-03-11T16:08:23.755Z</time>
      </trkpt>
      <trkpt lat="47.09226" lon="7.15383">
        <ele>479.587532</ele>
        <time>2023-03-11T16:08:26.759Z</time>
      </trkpt>
      <trkpt lat="47.09222" lon="7.1537">
        <ele>479.653417</ele>
        <time>2023-03-11T16:08:28.775Z</time>
      </trkpt>
      <trkpt lat="47.09217" lon="7.15353">
        <ele>479.747653</ele>
        <time>2023-03-11T16:08:31.779Z</time>
      </trkpt>
      <trkpt lat="47.09212" lon="7.15335">
        <ele>479.842624</ele>
        <time>2023-03-11T16:08:34.774Z</time>
      </trkpt>
      <trkpt lat="47.09207" lon="7.15317">
        <ele>479.72849</ele>
        <time>2023-03-11T16:08:37.785Z</time>
      </trkpt>
      <trkpt lat="47.09204" lon="7.15304">
        <ele>479.630709</ele>
        <time>2023-03-11T16:08:39.783Z</time>
      </trkpt>
      <trkpt lat="47.09199" lon="7.15286">
        <ele>479.495867</ele>
        <time>2023-03-11T16:08:42.792Z</time>
      </trkpt>
      <trkpt lat="47.09196" lon="7.1527">
        <ele>479.379755</ele>
        <time>2023-03-11T16:08:45.780Z</time>
      </trkpt>
      <trkpt lat="47.09189" lon="7.15255">
        <ele>479.250421</ele>
        <time>2023-03-11T16:08:48.767Z</time>
      </trkpt>
      <trkpt lat="47.0918" lon="7.15245">
        <ele>479.137353</ele>
        <time>2023-03-11T16:08:51.753Z</time>
      </trkpt>
      <trkpt lat="47.09184" lon="7.15231">
        <ele>479.028264</ele>
        <time>2023-03-11T16:08:56.771Z</time>
      </trkpt>
      <trkpt lat="47.09181" lon="7.15214">
        <ele>478.909786</ele>
        <time>2023-03-11T16:09:02.751Z</time>
      </trkpt>
      <trkpt lat="47.09177" lon="7.15196">
        <ele>478.769343</ele>
        <time>2023-03-11T16:09:05.776Z</time>
      </trkpt>
      <trkpt lat="47.09173" lon="7.15183">
        <ele>478.672221</ele>
        <time>2023-03-11T16:09:07.779Z</time>
      </trkpt>
      <trkpt lat="47.09167" lon="7.15171">
        <ele>478.568627</ele>
        <time>2023-03-11T16:09:10.763Z</time>
      </trkpt>
      <trkpt lat="47.09163" lon="7.15157">
        <ele>478.460152</ele>
        <time>2023-03-11T16:09:13.757Z</time>
      </trkpt>
      <trkpt lat="47.09157" lon="7.15143">
        <ele>478.340073</ele>
        <time>2023-03-11T16:09:16.763Z</time>
      </trkpt>
      <trkpt lat="47.09151" lon="7.15126">
        <ele>478.210595</ele>
        <time>2023-03-11T16:09:19.761Z</time>
      </trkpt>
      <trkpt lat="47.09148" lon="7.15114">
        <ele>478.114532</ele>
        <time>2023-03-11T16:09:21.754Z</time>
      </trkpt>
      <trkpt lat="47.09143" lon="7.15101">
        <ele>478.016244</ele>
        <time>2023-03-11T16:09:23.778Z</time>
      </trkpt>
      <trkpt lat="47.09138" lon="7.15089">
        <ele>477.967473</ele>
        <time>2023-03-11T16:09:25.787Z</time>
      </trkpt>
      <trkpt lat="47.09134" lon="7.15075">
        <ele>477.935851</ele>
        <time>2023-03-11T16:09:27.784Z</time>
      </trkpt>
      <trkpt lat="47.09131" lon="7.15061">
        <ele>477.905419</ele>
        <time>2023-03-11T16:09:29.762Z</time>
      </trkpt>
      <trkpt lat="47.09127" lon="7.15048">
        <ele>477.876315</ele>
        <time>2023-03-11T16:09:31.781Z</time>
      </trkpt>
      <trkpt lat="47.09123" lon="7.15036">
        <ele>477.846613</ele>
        <time>2023-03-11T16:09:33.759Z</time>
      </trkpt>
      <trkpt lat="47.09119" lon="7.15023">
        <ele>477.817148</ele>
        <time>2023-03-11T16:09:35.777Z</time>
      </trkpt>
      <trkpt lat="47.09114" lon="7.15006">
        <ele>477.778226</ele>
        <time>2023-03-11T16:09:38.782Z</time>
      </trkpt>
      <trkpt lat="47.09108" lon="7.1499">
        <ele>477.741121</ele>
        <time>2023-03-11T16:09:41.782Z</time>
      </trkpt>
      <trkpt lat="47.09103" lon="7.14974">
        <ele>477.7038</ele>
        <time>2023-03-11T16:09:44.780Z</time>
      </trkpt>
      <trkpt lat="47.09097" lon="7.14961">
        <ele>477.670816</ele>
        <time>2023-03-11T16:09:47.762Z</time>
      </trkpt>
      <trkpt lat="47.09089" lon="7.14947">
        <ele>477.632501</ele>
        <time>2023-03-11T16:09:50.781Z</time>
      </trkpt>
      <trkpt lat="47.09082" lon="7.14934">
        <ele>477.598035</ele>
        <time>2023-03-11T16:09:52.783Z</time>
      </trkpt>
      <trkpt lat="47.09074" lon="7.14919">
        <ele>477.558634</ele>
        <time>2023-03-11T16:09:54.789Z</time>
      </trkpt>
      <trkpt lat="47.09067" lon="7.14905">
        <ele>477.522396</ele>
        <time>2023-03-11T16:09:56.779Z</time>
      </trkpt>
      <trkpt lat="47.09061" lon="7.14891">
        <ele>477.488024</ele>
        <time>2023-03-11T16:09:58.772Z</time>
      </trkpt>
      <trkpt lat="47.09055" lon="7.14878">
        <ele>477.455749</ele>
        <time>2023-03-11T16:10:00.780Z</time>
      </trkpt>
      <trkpt lat="47.09049" lon="7.14868">
        <ele>477.461589</ele>
        <time>2023-03-11T16:10:02.788Z</time>
      </trkpt>
      <trkpt lat="47.09041" lon="7.14853">
        <ele>477.550428</ele>
        <time>2023-03-11T16:10:05.784Z</time>
      </trkpt>
      <trkpt lat="47.09033" lon="7.14839">
        <ele>477.636316</ele>
        <time>2023-03-11T16:10:08.781Z</time>
      </trkpt>
      <trkpt lat="47.09027" lon="7.14828">
        <ele>477.701764</ele>
        <time>2023-03-11T16:10:10.771Z</time>
      </trkpt>
      <trkpt lat="47.09021" lon="7.14816">
        <ele>477.76994</ele>
        <time>2023-03-11T16:10:12.789Z</time>
      </trkpt>
      <trkpt lat="47.09015" lon="7.14805">
        <ele>477.832217</ele>
        <time>2023-03-11T16:10:14.778Z</time>
      </trkpt>
      <trkpt lat="47.09007" lon="7.14794">
        <ele>477.910986</ele>
        <time>2023-03-11T16:10:17.756Z</time>
      </trkpt>
      <trkpt lat="47.09" lon="7.14785">
        <ele>477.975828</ele>
        <time>2023-03-11T16:10:19.779Z</time>
      </trkpt>
      <trkpt lat="47.08992" lon="7.14776">
        <ele>478.040974</ele>
        <time>2023-03-11T16:10:21.791Z</time>
      </trkpt>
      <trkpt lat="47.08983" lon="7.14762">
        <ele>478.13398</ele>
        <time>2023-03-11T16:10:24.792Z</time>
      </trkpt>
      <trkpt lat="47.08973" lon="7.14749">
        <ele>478.221376</ele>
        <time>2023-03-11T16:10:27.778Z</time>
      </trkpt>
      <trkpt lat="47.08964" lon="7.14737">
        <ele>478.306187</ele>
        <time>2023-03-11T16:10:30.795Z</time>
      </trkpt>
      <trkpt lat="47.08954" lon="7.14725">
        <ele>478.395096</ele>
        <time>2023-03-11T16:10:33.778Z</time>
      </trkpt>
      <trkpt lat="47.08944" lon="7.1472">
        <ele>478.466868</ele>
        <time>2023-03-11T16:10:36.754Z</time>
      </trkpt>
      <trkpt lat="47.08934" lon="7.14716">
        <ele>478.539701</ele>
        <time>2023-03-11T16:10:38.767Z</time>
      </trkpt>
      <trkpt lat="47.08925" lon="7.14706">
        <ele>478.613755</ele>
        <time>2023-03-11T16:10:40.761Z</time>
      </trkpt>
      <trkpt lat="47.08918" lon="7.14695">
        <ele>478.710206</ele>
        <time>2023-03-11T16:10:42.764Z</time>
      </trkpt>
      <trkpt lat="47.08911" lon="7.14685">
        <ele>478.859084</ele>
        <time>2023-03-11T16:10:44.780Z</time>
      </trkpt>
      <trkpt lat="47.08904" lon="7.14676">
        <ele>478.996811</ele>
        <time>2023-03-11T16:10:46.786Z</time>
      </trkpt>
      <trkpt lat="47.08897" lon="7.14666">
        <ele>479.144625</ele>
        <time>2023-03-11T16:10:48.781Z</time>
      </trkpt>
      <trkpt lat="47.0889" lon="7.14656">
        <ele>479.291447</ele>
        <time>2023-03-11T16:10:50.801Z</time>
      </trkpt>
      <trkpt lat="47.08882" lon="7.14647">
        <ele>479.437026</ele>
        <time>2023-03-11T16:10:52.751Z</time>
      </trkpt>
      <trkpt lat="47.08875" lon="7.14638">
        <ele>479.585074</ele>
        <time>2023-03-11T16:10:54.790Z</time>
      </trkpt>
      <trkpt lat="47.08867" lon="7.1463">
        <ele>479.734784</ele>
        <time>2023-03-11T16:10:56.779Z</time>
      </trkpt>
      <trkpt lat="47.08859" lon="7.14622">
        <ele>479.87753</ele>
        <time>2023-03-11T16:10:58.780Z</time>
      </trkpt>
      <trkpt lat="47.08848" lon="7.14611">
        <ele>480.068591</ele>
        <time>2023-03-11T16:11:01.784Z</time>
      </trkpt>
      <trkpt lat="47.08841" lon="7.14604">
        <ele>480.204584</ele>
        <time>2023-03-11T16:11:03.797Z</time>
      </trkpt>
      <trkpt lat="47.08833" lon="7.14596">
        <ele>480.342108</ele>
        <time>2023-03-11T16:11:06.788Z</time>
      </trkpt>
      <trkpt lat="47.0884" lon="7.14587">
        <ele>480.484516</ele>
        <time>2023-03-11T16:11:11.748Z</time>
      </trkpt>
      <trkpt lat="47.08848" lon="7.14574">
        <ele>480.658063</ele>
        <time>2023-03-11T16:11:15.767Z</time>
      </trkpt>
      <trkpt lat="47.08854" lon="7.14562">
        <ele>480.815387</ele>
        <time>2023-03-11T16:11:19.783Z</time>
      </trkpt>
      <trkpt lat="47.08852" lon="7.14549">
        <ele>480.953076</ele>
        <time>2023-03-11T16:11:22.765Z</time>
      </trkpt>
      <trkpt lat="47.08847" lon="7.14536">
        <ele>481.106937</ele>
        <time>2023-03-11T16:11:25.775Z</time>
      </trkpt>
      <trkpt lat="47.08839" lon="7.14522">
        <ele>481.302005</ele>
        <time>2023-03-11T16:11:28.750Z</time>
      </trkpt>
      <trkpt lat="47.08833" lon="7.14511">
        <ele>481.404449</ele>
        <time>2023-03-11T16:11:30.787Z</time>
      </trkpt>
      <trkpt lat="47.08825" lon="7.14495">
        <ele>481.481927</ele>
        <time>2023-03-11T16:11:33.783Z</time>
      </trkpt>
      <trkpt lat="47.08817" lon="7.1448">
        <ele>481.561065</ele>
        <time>2023-03-11T16:11:36.781Z</time>
      </trkpt>
      <trkpt lat="47.08809" lon="7.14465">
        <ele>481.640217</ele>
        <time>2023-03-11T16:11:39.784Z</time>
      </trkpt>
      <trkpt lat="47.08801" lon="7.14449">
        <ele>481.71824</ele>
        <time>2023-03-11T16:11:42.789Z</time>
      </trkpt>
      <trkpt lat="47.08795" lon="7.14437">
        <ele>481.774754</ele>
        <time>2023-03-11T16:11:44.785Z</time>
      </trkpt>
      <trkpt lat="47.08791" lon="7.14426">
        <ele>481.829016</ele>
        <time>2023-03-11T16:11:46.778Z</time>
      </trkpt>
      <trkpt lat="47.08786" lon="7.14414">
        <ele>481.884567</ele>
        <time>2023-03-11T16:11:48.795Z</time>
      </trkpt>
      <trkpt lat="47.08779" lon="7.14397">
        <ele>481.964101</ele>
        <time>2023-03-11T16:11:51.783Z</time>
      </trkpt>
      <trkpt lat="47.08775" lon="7.14384">
        <ele>482.020181</ele>
        <time>2023-03-11T16:11:53.772Z</time>
      </trkpt>
      <trkpt lat="47.08769" lon="7.14367">
        <ele>482.099499</ele>
        <time>2023-03-11T16:11:56.785Z</time>
      </trkpt>
      <trkpt lat="47.08764" lon="7.14356">
        <ele>482.152948</ele>
        <time>2023-03-11T16:11:58.764Z</time>
      </trkpt>
      <trkpt lat="47.08759" lon="7.14344">
        <ele>482.208675</ele>
        <time>2023-03-11T16:12:00.795Z</time>
      </trkpt>
      <trkpt lat="47.08754" lon="7.14331">
        <ele>482.267083</ele>
        <time>2023-03-11T16:12:02.792Z</time>
      </trkpt>
      <trkpt lat="47.0875" lon="7.14318">
        <ele>482.327185</ele>
        <time>2023-03-11T16:12:04.784Z</time>
      </trkpt>
      <trkpt lat="47.08745" lon="7.14304">
        <ele>482.387215</ele>
        <time>2023-03-11T16:12:06.787Z</time>
      </trkpt>
      <trkpt lat="47.08739" lon="7.14292">
        <ele>482.437983</ele>
        <time>2023-03-11T16:12:08.779Z</time>
      </trkpt>
      <trkpt lat="47.08734" lon="7.14278">
        <ele>482.385728</ele>
        <time>2023-03-11T16:12:10.786Z</time>
      </trkpt>
      <trkpt lat="47.08728" lon="7.14264">
        <ele>482.331006</ele>
        <time>2023-03-11T16:12:12.794Z</time>
      </trkpt>
      <trkpt lat="47.08723" lon="7.1425">
        <ele>482.278057</ele>
        <time>2023-03-11T16:12:14.778Z</time>
      </trkpt>
      <trkpt lat="47.08718" lon="7.14236">
        <ele>482.226157</ele>
        <time>2023-03-11T16:12:16.789Z</time>
      </trkpt>
      <trkpt lat="47.08714" lon="7.14223">
        <ele>482.176254</ele>
        <time>2023-03-11T16:12:18.806Z</time>
      </trkpt>
      <trkpt lat="47.08708" lon="7.1421">
        <ele>482.126011</ele>
        <time>2023-03-11T16:12:20.784Z</time>
      </trkpt>
      <trkpt lat="47.08703" lon="7.14197">
        <ele>482.076168</ele>
        <time>2023-03-11T16:12:22.786Z</time>
      </trkpt>
      <trkpt lat="47.08699" lon="7.14184">
        <ele>482.027084</ele>
        <time>2023-03-11T16:12:24.778Z</time>
      </trkpt>
      <trkpt lat="47.08694" lon="7.14171">
        <ele>481.978739</ele>
        <time>2023-03-11T16:12:26.787Z</time>
      </trkpt>
      <trkpt lat="47.08688" lon="7.14159">
        <ele>481.929916</ele>
        <time>2023-03-11T16:12:28.793Z</time>
      </trkpt>
      <trkpt lat="47.08683" lon="7.14146">
        <ele>481.878814</ele>
        <time>2023-03-11T16:12:30.791Z</time>
      </trkpt>
      <trkpt lat="47.08678" lon="7.14131">
        <ele>481.824981</ele>
        <time>2023-03-11T16:12:32.796Z</time>
      </trkpt>
      <trkpt lat="47.08672" lon="7.14118">
        <ele>481.773138</ele>
        <time>2023-03-11T16:12:34.789Z</time>
      </trkpt>
      <trkpt lat="47.08667" lon="7.14105">
        <ele>481.721414</ele>
        <time>2023-03-11T16:12:36.785Z</time>
      </trkpt>
      <trkpt lat="47.08662" lon="7.14092">
        <ele>481.672308</ele>
        <time>2023-03-11T16:12:38.782Z</time>
      </trkpt>
      <trkpt lat="47.08656" lon="7.1408">
        <ele>481.623223</ele>
        <time>2023-03-11T16:12:40.782Z</time>
      </trkpt>
      <trkpt lat="47.08651" lon="7.14067">
        <ele>481.571672</ele>
        <time>2023-03-11T16:12:42.760Z</time>
      </trkpt>
      <trkpt lat="47.08645" lon="7.14053">
        <ele>481.545863</ele>
        <time>2023-03-11T16:12:44.778Z</time>
      </trkpt>
      <trkpt lat="47.08639" lon="7.1404">
        <ele>481.527104</ele>
        <time>2023-03-11T16:12:46.790Z</time>
      </trkpt>
      <trkpt lat="47.08633" lon="7.14027">
        <ele>481.509053</ele>
        <time>2023-03-11T16:12:48.781Z</time>
      </trkpt>
      <trkpt lat="47.08627" lon="7.14015">
        <ele>481.490862</ele>
        <time>2023-03-11T16:12:50.782Z</time>
      </trkpt>
      <trkpt lat="47.08621" lon="7.14002">
        <ele>481.472418</ele>
        <time>2023-03-11T16:12:52.794Z</time>
      </trkpt>
      <trkpt lat="47.08615" lon="7.1399">
        <ele>481.45505</ele>
        <time>2023-03-11T16:12:54.782Z</time>
      </trkpt>
      <trkpt lat="47.08609" lon="7.13978">
        <ele>481.437388</ele>
        <time>2023-03-11T16:12:56.786Z</time>
      </trkpt>
      <trkpt lat="47.08603" lon="7.13965">
        <ele>481.419241</ele>
        <time>2023-03-11T16:12:58.790Z</time>
      </trkpt>
      <trkpt lat="47.08597" lon="7.13953">
        <ele>481.401676</ele>
        <time>2023-03-11T16:13:00.784Z</time>
      </trkpt>
      <trkpt lat="47.08592" lon="7.13941">
        <ele>481.384652</ele>
        <time>2023-03-11T16:13:02.782Z</time>
      </trkpt>
      <trkpt lat="47.08587" lon="7.13929">
        <ele>481.368355</ele>
        <time>2023-03-11T16:13:04.783Z</time>
      </trkpt>
      <trkpt lat="47.08581" lon="7.13917">
        <ele>481.350593</ele>
        <time>2023-03-11T16:13:06.795Z</time>
      </trkpt>
      <trkpt lat="47.08575" lon="7.13904">
        <ele>481.332541</ele>
        <time>2023-03-11T16:13:08.784Z</time>
      </trkpt>
      <trkpt lat="47.0857" lon="7.13891">
        <ele>481.313793</ele>
        <time>2023-03-11T16:13:10.773Z</time>
      </trkpt>
      <trkpt lat="47.08564" lon="7.13878">
        <ele>481.295354</ele>
        <time>2023-03-11T16:13:12.784Z</time>
      </trkpt>
      <trkpt lat="47.08557" lon="7.13866">
        <ele>481.276855</ele>
        <time>2023-03-11T16:13:14.761Z</time>
      </trkpt>
      <trkpt lat="47.08551" lon="7.13852">
        <ele>481.258317</ele>
        <time>2023-03-11T16:13:16.789Z</time>
      </trkpt>
      <trkpt lat="47.08546" lon="7.1384">
        <ele>481.252357</ele>
        <time>2023-03-11T16:13:18.788Z</time>
      </trkpt>
      <trkpt lat="47.08541" lon="7.13826">
        <ele>481.257815</ele>
        <time>2023-03-11T16:13:20.801Z</time>
      </trkpt>
      <trkpt lat="47.08535" lon="7.13813">
        <ele>481.263213</ele>
        <time>2023-03-11T16:13:22.785Z</time>
      </trkpt>
      <trkpt lat="47.08528" lon="7.138">
        <ele>481.268967</ele>
        <time>2023-03-11T16:13:24.772Z</time>
      </trkpt>
      <trkpt lat="47.08522" lon="7.13787">
        <ele>481.274568</ele>
        <time>2023-03-11T16:13:26.775Z</time>
      </trkpt>
      <trkpt lat="47.08516" lon="7.13774">
        <ele>481.28008</ele>
        <time>2023-03-11T16:13:28.793Z</time>
      </trkpt>
      <trkpt lat="47.0851" lon="7.13762">
        <ele>481.285712</ele>
        <time>2023-03-11T16:13:30.789Z</time>
      </trkpt>
      <trkpt lat="47.08504" lon="7.13749">
        <ele>481.29137</ele>
        <time>2023-03-11T16:13:32.786Z</time>
      </trkpt>
      <trkpt lat="47.08497" lon="7.13736">
        <ele>481.297031</ele>
        <time>2023-03-11T16:13:34.780Z</time>
      </trkpt>
      <trkpt lat="47.08491" lon="7.13723">
        <ele>481.30278</ele>
        <time>2023-03-11T16:13:36.789Z</time>
      </trkpt>
      <trkpt lat="47.08485" lon="7.1371">
        <ele>481.308146</ele>
        <time>2023-03-11T16:13:38.791Z</time>
      </trkpt>
      <trkpt lat="47.08479" lon="7.13698">
        <ele>481.313427</ele>
        <time>2023-03-11T16:13:40.794Z</time>
      </trkpt>
      <trkpt lat="47.08473" lon="7.13685">
        <ele>481.319176</ele>
        <time>2023-03-11T16:13:42.780Z</time>
      </trkpt>
      <trkpt lat="47.08467" lon="7.13672">
        <ele>481.324602</ele>
        <time>2023-03-11T16:13:44.795Z</time>
      </trkpt>
      <trkpt lat="47.08461" lon="7.13659">
        <ele>481.330114</ele>
        <time>2023-03-11T16:13:46.782Z</time>
      </trkpt>
      <trkpt lat="47.08456" lon="7.13646">
        <ele>481.335421</ele>
        <time>2023-03-11T16:13:48.782Z</time>
      </trkpt>
      <trkpt lat="47.08449" lon="7.13634">
        <ele>481.340883</ele>
        <time>2023-03-11T16:13:50.780Z</time>
      </trkpt>
      <trkpt lat="47.08443" lon="7.13622">
        <ele>481.353971</ele>
        <time>2023-03-11T16:13:52.774Z</time>
      </trkpt>
      <trkpt lat="47.08438" lon="7.13609">
        <ele>481.373529</ele>
        <time>2023-03-11T16:13:54.790Z</time>
      </trkpt>
      <trkpt lat="47.08432" lon="7.13597">
        <ele>481.392881</ele>
        <time>2023-03-11T16:13:56.798Z</time>
      </trkpt>
      <trkpt lat="47.08426" lon="7.13584">
        <ele>481.412449</ele>
        <time>2023-03-11T16:13:58.793Z</time>
      </trkpt>
      <trkpt lat="47.0842" lon="7.13572">
        <ele>481.432543</ele>
        <time>2023-03-11T16:14:00.788Z</time>
      </trkpt>
      <trkpt lat="47.08415" lon="7.13558">
        <ele>481.453328</ele>
        <time>2023-03-11T16:14:02.782Z</time>
      </trkpt>
      <trkpt lat="47.08409" lon="7.13546">
        <ele>481.472674</ele>
        <time>2023-03-11T16:14:04.796Z</time>
      </trkpt>
      <trkpt lat="47.08404" lon="7.13533">
        <ele>481.490637</ele>
        <time>2023-03-11T16:14:06.779Z</time>
      </trkpt>
      <trkpt lat="47.08401" lon="7.1352">
        <ele>481.508447</ele>
        <time>2023-03-11T16:14:08.772Z</time>
      </trkpt>
      <trkpt lat="47.08398" lon="7.13507">
        <ele>481.526935</ele>
        <time>2023-03-11T16:14:10.776Z</time>
      </trkpt>
      <trkpt lat="47.08394" lon="7.13492">
        <ele>481.547561</ele>
        <time>2023-03-11T16:14:12.777Z</time>
      </trkpt>
      <trkpt lat="47.08391" lon="7.13478">
        <ele>481.567339</ele>
        <time>2023-03-11T16:14:14.782Z</time>
      </trkpt>
      <trkpt lat="47.08386" lon="7.13464">
        <ele>481.586457</ele>
        <time>2023-03-11T16:14:16.789Z</time>
      </trkpt>
      <trkpt lat="47.08382" lon="7.13449">
        <ele>481.607187</ele>
        <time>2023-03-11T16:14:18.782Z</time>
      </trkpt>
      <trkpt lat="47.08378" lon="7.13436">
        <ele>481.626459</ele>
        <time>2023-03-11T16:14:20.783Z</time>
      </trkpt>
      <trkpt lat="47.08374" lon="7.13422">
        <ele>481.645634</ele>
        <time>2023-03-11T16:14:22.798Z</time>
      </trkpt>
      <trkpt lat="47.08371" lon="7.13409">
        <ele>481.663625</ele>
        <time>2023-03-11T16:14:24.761Z</time>
      </trkpt>
      <trkpt lat="47.08369" lon="7.13396">
        <ele>481.680895</ele>
        <time>2023-03-11T16:14:26.749Z</time>
      </trkpt>
      <trkpt lat="47.08363" lon="7.13384">
        <ele>481.652131</ele>
        <time>2023-03-11T16:14:28.783Z</time>
      </trkpt>
      <trkpt lat="47.08358" lon="7.13371">
        <ele>481.607792</ele>
        <time>2023-03-11T16:14:30.768Z</time>
      </trkpt>
      <trkpt lat="47.08353" lon="7.13358">
        <ele>481.565113</ele>
        <time>2023-03-11T16:14:32.792Z</time>
      </trkpt>
      <trkpt lat="47.08348" lon="7.13345">
        <ele>481.522078</ele>
        <time>2023-03-11T16:14:34.783Z</time>
      </trkpt>
      <trkpt lat="47.08343" lon="7.13331">
        <ele>481.478492</ele>
        <time>2023-03-11T16:14:36.765Z</time>
      </trkpt>
      <trkpt lat="47.08338" lon="7.13319">
        <ele>481.435353</ele>
        <time>2023-03-11T16:14:38.743Z</time>
      </trkpt>
      <trkpt lat="47.08332" lon="7.13305">
        <ele>481.388304</ele>
        <time>2023-03-11T16:14:40.759Z</time>
      </trkpt>
      <trkpt lat="47.08327" lon="7.13292">
        <ele>481.34552</ele>
        <time>2023-03-11T16:14:42.753Z</time>
      </trkpt>
      <trkpt lat="47.08322" lon="7.13279">
        <ele>481.302986</ele>
        <time>2023-03-11T16:14:44.769Z</time>
      </trkpt>
      <trkpt lat="47.08316" lon="7.13266">
        <ele>481.258903</ele>
        <time>2023-03-11T16:14:46.762Z</time>
      </trkpt>
      <trkpt lat="47.08311" lon="7.13253">
        <ele>481.215659</ele>
        <time>2023-03-11T16:14:48.771Z</time>
      </trkpt>
      <trkpt lat="47.08306" lon="7.1324">
        <ele>481.172258</ele>
        <time>2023-03-11T16:14:50.760Z</time>
      </trkpt>
      <trkpt lat="47.08301" lon="7.13227">
        <ele>481.128089</ele>
        <time>2023-03-11T16:14:52.773Z</time>
      </trkpt>
      <trkpt lat="47.08295" lon="7.13215">
        <ele>481.086377</ele>
        <time>2023-03-11T16:14:54.771Z</time>
      </trkpt>
      <trkpt lat="47.0829" lon="7.13202">
        <ele>481.042704</ele>
        <time>2023-03-11T16:14:56.767Z</time>
      </trkpt>
      <trkpt lat="47.08285" lon="7.1319">
        <ele>481.001629</ele>
        <time>2023-03-11T16:14:58.793Z</time>
      </trkpt>
      <trkpt lat="47.0828" lon="7.13176">
        <ele>480.956372</ele>
        <time>2023-03-11T16:15:00.779Z</time>
      </trkpt>
      <trkpt lat="47.08275" lon="7.13163">
        <ele>480.931092</ele>
        <time>2023-03-11T16:15:02.766Z</time>
      </trkpt>
      <trkpt lat="47.08269" lon="7.1315">
        <ele>480.965994</ele>
        <time>2023-03-11T16:15:04.797Z</time>
      </trkpt>
      <trkpt lat="47.08264" lon="7.13137">
        <ele>481.000337</ele>
        <time>2023-03-11T16:15:06.795Z</time>
      </trkpt>
      <trkpt lat="47.08258" lon="7.13124">
        <ele>481.035836</ele>
        <time>2023-03-11T16:15:08.783Z</time>
      </trkpt>
      <trkpt lat="47.08253" lon="7.13111">
        <ele>481.069229</ele>
        <time>2023-03-11T16:15:10.784Z</time>
      </trkpt>
      <trkpt lat="47.08248" lon="7.13099">
        <ele>481.101189</ele>
        <time>2023-03-11T16:15:12.790Z</time>
      </trkpt>
      <trkpt lat="47.08243" lon="7.13088">
        <ele>481.131591</ele>
        <time>2023-03-11T16:15:14.786Z</time>
      </trkpt>
      <trkpt lat="47.08238" lon="7.13076">
        <ele>481.16351</ele>
        <time>2023-03-11T16:15:16.786Z</time>
      </trkpt>
      <trkpt lat="47.08233" lon="7.13063">
        <ele>481.197201</ele>
        <time>2023-03-11T16:15:18.803Z</time>
      </trkpt>
      <trkpt lat="47.08227" lon="7.13049">
        <ele>481.233063</ele>
        <time>2023-03-11T16:15:20.786Z</time>
      </trkpt>
      <trkpt lat="47.08221" lon="7.13036">
        <ele>481.267953</ele>
        <time>2023-03-11T16:15:22.789Z</time>
      </trkpt>
      <trkpt lat="47.08216" lon="7.13024">
        <ele>481.301351</ele>
        <time>2023-03-11T16:15:24.791Z</time>
      </trkpt>
      <trkpt lat="47.0821" lon="7.13011">
        <ele>481.336681</ele>
        <time>2023-03-11T16:15:26.784Z</time>
      </trkpt>
      <trkpt lat="47.08205" lon="7.12997">
        <ele>481.3718</ele>
        <time>2023-03-11T16:15:28.760Z</time>
      </trkpt>
      <trkpt lat="47.082" lon="7.12983">
        <ele>481.406963</ele>
        <time>2023-03-11T16:15:30.784Z</time>
      </trkpt>
      <trkpt lat="47.08195" lon="7.12971">
        <ele>481.440748</ele>
        <time>2023-03-11T16:15:32.787Z</time>
      </trkpt>
      <trkpt lat="47.08189" lon="7.12958">
        <ele>481.47452</ele>
        <time>2023-03-11T16:15:34.807Z</time>
      </trkpt>
      <trkpt lat="47.08185" lon="7.12944">
        <ele>481.509454</ele>
        <time>2023-03-11T16:15:36.791Z</time>
      </trkpt>
      <trkpt lat="47.0818" lon="7.12929">
        <ele>481.529569</ele>
        <time>2023-03-11T16:15:38.759Z</time>
      </trkpt>
      <trkpt lat="47.08175" lon="7.12915">
        <ele>481.543567</ele>
        <time>2023-03-11T16:15:40.791Z</time>
      </trkpt>
      <trkpt lat="47.08169" lon="7.12902">
        <ele>481.557393</ele>
        <time>2023-03-11T16:15:42.770Z</time>
      </trkpt>
      <trkpt lat="47.08162" lon="7.12889">
        <ele>481.571165</ele>
        <time>2023-03-11T16:15:44.769Z</time>
      </trkpt>
      <trkpt lat="47.08157" lon="7.12876">
        <ele>481.584432</ele>
        <time>2023-03-11T16:15:46.790Z</time>
      </trkpt>
      <trkpt lat="47.08151" lon="7.12863">
        <ele>481.597481</ele>
        <time>2023-03-11T16:15:48.780Z</time>
      </trkpt>
      <trkpt lat="47.08145" lon="7.12849">
        <ele>481.611694</ele>
        <time>2023-03-11T16:15:50.791Z</time>
      </trkpt>
      <trkpt lat="47.08139" lon="7.12835">
        <ele>481.625604</ele>
        <time>2023-03-11T16:15:52.782Z</time>
      </trkpt>
      <trkpt lat="47.08134" lon="7.12821">
        <ele>481.639435</ele>
        <time>2023-03-11T16:15:54.793Z</time>
      </trkpt>
      <trkpt lat="47.08127" lon="7.12808">
        <ele>481.653048</ele>
        <time>2023-03-11T16:15:56.791Z</time>
      </trkpt>
      <trkpt lat="47.08122" lon="7.12795">
        <ele>481.666523</ele>
        <time>2023-03-11T16:15:58.791Z</time>
      </trkpt>
      <trkpt lat="47.08116" lon="7.12782">
        <ele>481.679603</ele>
        <time>2023-03-11T16:16:00.786Z</time>
      </trkpt>
      <trkpt lat="47.08111" lon="7.12769">
        <ele>481.692747</ele>
        <time>2023-03-11T16:16:02.789Z</time>
      </trkpt>
      <trkpt lat="47.08106" lon="7.12756">
        <ele>481.705385</ele>
        <time>2023-03-11T16:16:04.784Z</time>
      </trkpt>
      <trkpt lat="47.08101" lon="7.12743">
        <ele>481.71783</ele>
        <time>2023-03-11T16:16:06.784Z</time>
      </trkpt>
      <trkpt lat="47.08096" lon="7.12731">
        <ele>481.729717</ele>
        <time>2023-03-11T16:16:08.786Z</time>
      </trkpt>
      <trkpt lat="47.08091" lon="7.1272">
        <ele>481.741633</ele>
        <time>2023-03-11T16:16:10.790Z</time>
      </trkpt>
      <trkpt lat="47.08086" lon="7.12707">
        <ele>481.983752</ele>
        <time>2023-03-11T16:16:12.789Z</time>
      </trkpt>
      <trkpt lat="47.08081" lon="7.12695">
        <ele>482.364223</ele>
        <time>2023-03-11T16:16:14.785Z</time>
      </trkpt>
      <trkpt lat="47.08076" lon="7.12682">
        <ele>482.744694</ele>
        <time>2023-03-11T16:16:16.787Z</time>
      </trkpt>
      <trkpt lat="47.08071" lon="7.1267">
        <ele>483.120991</ele>
        <time>2023-03-11T16:16:18.780Z</time>
      </trkpt>
      <trkpt lat="47.08066" lon="7.12657">
        <ele>483.498016</ele>
        <time>2023-03-11T16:16:20.788Z</time>
      </trkpt>
      <trkpt lat="47.08062" lon="7.12644">
        <ele>483.882908</ele>
        <time>2023-03-11T16:16:22.784Z</time>
      </trkpt>
      <trkpt lat="47.08057" lon="7.12631">
        <ele>484.262205</ele>
        <time>2023-03-11T16:16:24.807Z</time>
      </trkpt>
      <trkpt lat="47.08053" lon="7.12617">
        <ele>484.637163</ele>
        <time>2023-03-11T16:16:26.788Z</time>
      </trkpt>
      <trkpt lat="47.0805" lon="7.12605">
        <ele>484.983637</ele>
        <time>2023-03-11T16:16:28.786Z</time>
      </trkpt>
      <trkpt lat="47.08045" lon="7.12588">
        <ele>485.477622</ele>
        <time>2023-03-11T16:16:31.786Z</time>
      </trkpt>
      <trkpt lat="47.0804" lon="7.12573">
        <ele>485.91627</ele>
        <time>2023-03-11T16:16:34.804Z</time>
      </trkpt>
      <trkpt lat="47.08034" lon="7.12557">
        <ele>486.357809</ele>
        <time>2023-03-11T16:16:37.791Z</time>
      </trkpt>
      <trkpt lat="47.08029" lon="7.12543">
        <ele>486.787269</ele>
        <time>2023-03-11T16:16:40.796Z</time>
      </trkpt>
      <trkpt lat="47.08023" lon="7.12528">
        <ele>487.237686</ele>
        <time>2023-03-11T16:16:43.791Z</time>
      </trkpt>
      <trkpt lat="47.08018" lon="7.12512">
        <ele>487.678196</ele>
        <time>2023-03-11T16:16:46.789Z</time>
      </trkpt>
      <trkpt lat="47.08015" lon="7.12496">
        <ele>488.125465</ele>
        <time>2023-03-11T16:16:49.772Z</time>
      </trkpt>
      <trkpt lat="47.08012" lon="7.12479">
        <ele>488.567606</ele>
        <time>2023-03-11T16:16:52.790Z</time>
      </trkpt>
      <trkpt lat="47.08009" lon="7.12466">
        <ele>488.404164</ele>
        <time>2023-03-11T16:16:55.783Z</time>
      </trkpt>
      <trkpt lat="47.08006" lon="7.12453">
        <ele>488.193949</ele>
        <time>2023-03-11T16:16:58.788Z</time>
      </trkpt>
      <trkpt lat="47.08003" lon="7.12439">
        <ele>487.979057</ele>
        <time>2023-03-11T16:17:01.802Z</time>
      </trkpt>
      <trkpt lat="47.07998" lon="7.12425">
        <ele>487.732281</ele>
        <time>2023-03-11T16:17:04.779Z</time>
      </trkpt>
      <trkpt lat="47.07991" lon="7.12411">
        <ele>487.458143</ele>
        <time>2023-03-11T16:17:07.793Z</time>
      </trkpt>
      <trkpt lat="47.07984" lon="7.124">
        <ele>487.240892</ele>
        <time>2023-03-11T16:17:09.787Z</time>
      </trkpt>
      <trkpt lat="47.07976" lon="7.12388">
        <ele>486.987828</ele>
        <time>2023-03-11T16:17:11.786Z</time>
      </trkpt>
      <trkpt lat="47.07968" lon="7.12373">
        <ele>486.697949</ele>
        <time>2023-03-11T16:17:13.794Z</time>
      </trkpt>
      <trkpt lat="47.07959" lon="7.12357">
        <ele>486.366883</ele>
        <time>2023-03-11T16:17:15.796Z</time>
      </trkpt>
      <trkpt lat="47.07947" lon="7.12339">
        <ele>485.997568</ele>
        <time>2023-03-11T16:17:17.798Z</time>
      </trkpt>
      <trkpt lat="47.07936" lon="7.12319">
        <ele>485.603471</ele>
        <time>2023-03-11T16:17:19.789Z</time>
      </trkpt>
      <trkpt lat="47.0793" lon="7.12309">
        <ele>485.399583</ele>
        <time>2023-03-11T16:17:20.806Z</time>
      </trkpt>
      <trkpt lat="47.07924" lon="7.12298">
        <ele>485.188366</ele>
        <time>2023-03-11T16:17:21.787Z</time>
      </trkpt>
      <trkpt lat="47.07919" lon="7.12287">
        <ele>484.982739</ele>
        <time>2023-03-11T16:17:22.797Z</time>
      </trkpt>
      <trkpt lat="47.07909" lon="7.12266">
        <ele>484.585548</ele>
        <time>2023-03-11T16:17:24.784Z</time>
      </trkpt>
      <trkpt lat="47.079" lon="7.12245">
        <ele>484.339263</ele>
        <time>2023-03-11T16:17:26.792Z</time>
      </trkpt>
      <trkpt lat="47.07891" lon="7.12225">
        <ele>484.108892</ele>
        <time>2023-03-11T16:17:28.777Z</time>
      </trkpt>
      <trkpt lat="47.07883" lon="7.12206">
        <ele>483.882329</ele>
        <time>2023-03-11T16:17:30.787Z</time>
      </trkpt>
      <trkpt lat="47.07875" lon="7.12187">
        <ele>483.664717</ele>
        <time>2023-03-11T16:17:32.789Z</time>
      </trkpt>
      <trkpt lat="47.07867" lon="7.12169">
        <ele>483.455459</ele>
        <time>2023-03-11T16:17:34.789Z</time>
      </trkpt>
      <trkpt lat="47.07859" lon="7.12152">
        <ele>483.251067</ele>
        <time>2023-03-11T16:17:36.794Z</time>
      </trkpt>
      <trkpt lat="47.07851" lon="7.12135">
        <ele>483.049036</ele>
        <time>2023-03-11T16:17:38.792Z</time>
      </trkpt>
      <trkpt lat="47.07844" lon="7.12118">
        <ele>482.851323</ele>
        <time>2023-03-11T16:17:40.796Z</time>
      </trkpt>
      <trkpt lat="47.07837" lon="7.121">
        <ele>482.652273</ele>
        <time>2023-03-11T16:17:42.801Z</time>
      </trkpt>
      <trkpt lat="47.0783" lon="7.12083">
        <ele>482.451538</ele>
        <time>2023-03-11T16:17:44.790Z</time>
      </trkpt>
      <trkpt lat="47.07822" lon="7.12065">
        <ele>482.249318</ele>
        <time>2023-03-11T16:17:46.797Z</time>
      </trkpt>
      <trkpt lat="47.07815" lon="7.12048">
        <ele>482.047935</ele>
        <time>2023-03-11T16:17:48.794Z</time>
      </trkpt>
      <trkpt lat="47.07808" lon="7.12029">
        <ele>481.922819</ele>
        <time>2023-03-11T16:17:50.789Z</time>
      </trkpt>
      <trkpt lat="47.078" lon="7.12011">
        <ele>481.84027</ele>
        <time>2023-03-11T16:17:52.796Z</time>
      </trkpt>
      <trkpt lat="47.07793" lon="7.11993">
        <ele>481.756123</ele>
        <time>2023-03-11T16:17:54.805Z</time>
      </trkpt>
      <trkpt lat="47.07785" lon="7.11975">
        <ele>481.674493</ele>
        <time>2023-03-11T16:17:56.791Z</time>
      </trkpt>
      <trkpt lat="47.07778" lon="7.11957">
        <ele>481.591254</ele>
        <time>2023-03-11T16:17:58.790Z</time>
      </trkpt>
      <trkpt lat="47.07771" lon="7.11939">
        <ele>481.509589</ele>
        <time>2023-03-11T16:18:00.797Z</time>
      </trkpt>
      <trkpt lat="47.07763" lon="7.11922">
        <ele>481.430202</ele>
        <time>2023-03-11T16:18:02.794Z</time>
      </trkpt>
      <trkpt lat="47.07756" lon="7.11904">
        <ele>481.349879</ele>
        <time>2023-03-11T16:18:04.797Z</time>
      </trkpt>
      <trkpt lat="47.07749" lon="7.11886">
        <ele>481.266568</ele>
        <time>2023-03-11T16:18:06.789Z</time>
      </trkpt>
      <trkpt lat="47.07741" lon="7.11868">
        <ele>481.18068</ele>
        <time>2023-03-11T16:18:08.798Z</time>
      </trkpt>
      <trkpt lat="47.07734" lon="7.11849">
        <ele>481.096015</ele>
        <time>2023-03-11T16:18:10.788Z</time>
      </trkpt>
      <trkpt lat="47.07726" lon="7.1183">
        <ele>481.008185</ele>
        <time>2023-03-11T16:18:12.794Z</time>
      </trkpt>
      <trkpt lat="47.07718" lon="7.11811">
        <ele>480.935856</ele>
        <time>2023-03-11T16:18:14.796Z</time>
      </trkpt>
      <trkpt lat="47.0771" lon="7.11793">
        <ele>480.909927</ele>
        <time>2023-03-11T16:18:16.787Z</time>
      </trkpt>
      <trkpt lat="47.07703" lon="7.11775">
        <ele>480.884674</ele>
        <time>2023-03-11T16:18:18.778Z</time>
      </trkpt>
      <trkpt lat="47.07695" lon="7.11757">
        <ele>480.859615</ele>
        <time>2023-03-11T16:18:20.800Z</time>
      </trkpt>
      <trkpt lat="47.07688" lon="7.11738">
        <ele>480.833592</ele>
        <time>2023-03-11T16:18:22.795Z</time>
      </trkpt>
      <trkpt lat="47.07679" lon="7.1172">
        <ele>480.806979</ele>
        <time>2023-03-11T16:18:24.794Z</time>
      </trkpt>
      <trkpt lat="47.07672" lon="7.11702">
        <ele>480.780964</ele>
        <time>2023-03-11T16:18:26.795Z</time>
      </trkpt>
      <trkpt lat="47.07664" lon="7.11683">
        <ele>480.754908</ele>
        <time>2023-03-11T16:18:28.786Z</time>
      </trkpt>
      <trkpt lat="47.07657" lon="7.11665">
        <ele>480.730131</ele>
        <time>2023-03-11T16:18:30.792Z</time>
      </trkpt>
      <trkpt lat="47.0765" lon="7.11649">
        <ele>480.706313</ele>
        <time>2023-03-11T16:18:32.794Z</time>
      </trkpt>
      <trkpt lat="47.07642" lon="7.11632">
        <ele>480.682998</ele>
        <time>2023-03-11T16:18:34.795Z</time>
      </trkpt>
      <trkpt lat="47.07635" lon="7.11617">
        <ele>480.659683</ele>
        <time>2023-03-11T16:18:36.801Z</time>
      </trkpt>
      <trkpt lat="47.07627" lon="7.116">
        <ele>480.63567</ele>
        <time>2023-03-11T16:18:38.804Z</time>
      </trkpt>
      <trkpt lat="47.07619" lon="7.11584">
        <ele>480.635152</ele>
        <time>2023-03-11T16:18:40.802Z</time>
      </trkpt>
      <trkpt lat="47.07611" lon="7.11568">
        <ele>480.654128</ele>
        <time>2023-03-11T16:18:42.791Z</time>
      </trkpt>
      <trkpt lat="47.07602" lon="7.11554">
        <ele>480.672421</ele>
        <time>2023-03-11T16:18:44.792Z</time>
      </trkpt>
      <trkpt lat="47.07594" lon="7.11539">
        <ele>480.691172</ele>
        <time>2023-03-11T16:18:46.789Z</time>
      </trkpt>
      <trkpt lat="47.07585" lon="7.11525">
        <ele>480.70956</ele>
        <time>2023-03-11T16:18:48.791Z</time>
      </trkpt>
      <trkpt lat="47.07576" lon="7.11512">
        <ele>480.728004</ele>
        <time>2023-03-11T16:18:50.795Z</time>
      </trkpt>
      <trkpt lat="47.07566" lon="7.11498">
        <ele>480.746545</ele>
        <time>2023-03-11T16:18:52.788Z</time>
      </trkpt>
      <trkpt lat="47.07557" lon="7.11485">
        <ele>480.765054</ele>
        <time>2023-03-11T16:18:54.790Z</time>
      </trkpt>
      <trkpt lat="47.07547" lon="7.11472">
        <ele>480.783873</ele>
        <time>2023-03-11T16:18:56.787Z</time>
      </trkpt>
      <trkpt lat="47.07537" lon="7.11459">
        <ele>480.802944</ele>
        <time>2023-03-11T16:18:58.792Z</time>
      </trkpt>
      <trkpt lat="47.07526" lon="7.11447">
        <ele>480.822074</ele>
        <time>2023-03-11T16:19:00.786Z</time>
      </trkpt>
      <trkpt lat="47.07515" lon="7.11435">
        <ele>480.841239</ele>
        <time>2023-03-11T16:19:02.792Z</time>
      </trkpt>
      <trkpt lat="47.07504" lon="7.11423">
        <ele>480.861205</ele>
        <time>2023-03-11T16:19:04.782Z</time>
      </trkpt>
      <trkpt lat="47.07492" lon="7.11411">
        <ele>480.884177</ele>
        <time>2023-03-11T16:19:06.795Z</time>
      </trkpt>
      <trkpt lat="47.0748" lon="7.114">
        <ele>480.927799</ele>
        <time>2023-03-11T16:19:08.788Z</time>
      </trkpt>
      <trkpt lat="47.07469" lon="7.1139">
        <ele>480.970803</ele>
        <time>2023-03-11T16:19:10.786Z</time>
      </trkpt>
      <trkpt lat="47.07457" lon="7.1138">
        <ele>481.013208</ele>
        <time>2023-03-11T16:19:12.790Z</time>
      </trkpt>
      <trkpt lat="47.07446" lon="7.11369">
        <ele>481.056012</ele>
        <time>2023-03-11T16:19:14.792Z</time>
      </trkpt>
      <trkpt lat="47.07434" lon="7.11359">
        <ele>481.098816</ele>
        <time>2023-03-11T16:19:16.794Z</time>
      </trkpt>
      <trkpt lat="47.07422" lon="7.1135">
        <ele>481.141067</ele>
        <time>2023-03-11T16:19:18.787Z</time>
      </trkpt>
      <trkpt lat="47.0741" lon="7.11342">
        <ele>481.182599</ele>
        <time>2023-03-11T16:19:20.788Z</time>
      </trkpt>
      <trkpt lat="47.07398" lon="7.11334">
        <ele>481.224049</ele>
        <time>2023-03-11T16:19:22.789Z</time>
      </trkpt>
      <trkpt lat="47.07386" lon="7.11327">
        <ele>481.26363</ele>
        <time>2023-03-11T16:19:24.783Z</time>
      </trkpt>
      <trkpt lat="47.07374" lon="7.11321">
        <ele>481.303891</ele>
        <time>2023-03-11T16:19:26.779Z</time>
      </trkpt>
      <trkpt lat="47.07362" lon="7.11315">
        <ele>481.345392</ele>
        <time>2023-03-11T16:19:28.798Z</time>
      </trkpt>
      <trkpt lat="47.07349" lon="7.1131">
        <ele>481.388171</ele>
        <time>2023-03-11T16:19:30.793Z</time>
      </trkpt>
      <trkpt lat="47.07335" lon="7.11305">
        <ele>481.431451</ele>
        <time>2023-03-11T16:19:32.810Z</time>
      </trkpt>
      <trkpt lat="47.07322" lon="7.113">
        <ele>481.431396</ele>
        <time>2023-03-11T16:19:34.804Z</time>
      </trkpt>
      <trkpt lat="47.07309" lon="7.11293">
        <ele>481.408678</ele>
        <time>2023-03-11T16:19:36.784Z</time>
      </trkpt>
      <trkpt lat="47.07296" lon="7.11287">
        <ele>481.385786</ele>
        <time>2023-03-11T16:19:38.799Z</time>
      </trkpt>
      <trkpt lat="47.07282" lon="7.11281">
        <ele>481.36279</ele>
        <time>2023-03-11T16:19:40.802Z</time>
      </trkpt>
      <trkpt lat="47.07268" lon="7.11275">
        <ele>481.33889</ele>
        <time>2023-03-11T16:19:42.804Z</time>
      </trkpt>
      <trkpt lat="47.07254" lon="7.11269">
        <ele>481.315081</ele>
        <time>2023-03-11T16:19:44.792Z</time>
      </trkpt>
      <trkpt lat="47.0724" lon="7.11262">
        <ele>481.291675</ele>
        <time>2023-03-11T16:19:46.786Z</time>
      </trkpt>
      <trkpt lat="47.07226" lon="7.11256">
        <ele>481.267959</ele>
        <time>2023-03-11T16:19:48.807Z</time>
      </trkpt>
      <trkpt lat="47.07213" lon="7.1125">
        <ele>481.24493</ele>
        <time>2023-03-11T16:19:50.792Z</time>
      </trkpt>
      <trkpt lat="47.072" lon="7.11244">
        <ele>481.222488</ele>
        <time>2023-03-11T16:19:52.800Z</time>
      </trkpt>
      <trkpt lat="47.07187" lon="7.11238">
        <ele>481.200368</ele>
        <time>2023-03-11T16:19:54.798Z</time>
      </trkpt>
      <trkpt lat="47.07175" lon="7.11232">
        <ele>481.1798</ele>
        <time>2023-03-11T16:19:56.788Z</time>
      </trkpt>
      <trkpt lat="47.07162" lon="7.11227">
        <ele>481.157992</ele>
        <time>2023-03-11T16:19:58.793Z</time>
      </trkpt>
      <trkpt lat="47.07149" lon="7.11221">
        <ele>481.062419</ele>
        <time>2023-03-11T16:20:00.799Z</time>
      </trkpt>
      <trkpt lat="47.07136" lon="7.11214">
        <ele>480.937591</ele>
        <time>2023-03-11T16:20:02.790Z</time>
      </trkpt>
      <trkpt lat="47.07124" lon="7.11208">
        <ele>480.819285</ele>
        <time>2023-03-11T16:20:04.794Z</time>
      </trkpt>
      <trkpt lat="47.07111" lon="7.11201">
        <ele>480.696996</ele>
        <time>2023-03-11T16:20:06.793Z</time>
      </trkpt>
      <trkpt lat="47.07098" lon="7.11194">
        <ele>480.573238</ele>
        <time>2023-03-11T16:20:08.792Z</time>
      </trkpt>
      <trkpt lat="47.07085" lon="7.11185">
        <ele>480.445092</ele>
        <time>2023-03-11T16:20:10.792Z</time>
      </trkpt>
      <trkpt lat="47.07072" lon="7.11177">
        <ele>480.320896</ele>
        <time>2023-03-11T16:20:12.790Z</time>
      </trkpt>
      <trkpt lat="47.07059" lon="7.11168">
        <ele>480.193051</ele>
        <time>2023-03-11T16:20:14.789Z</time>
      </trkpt>
      <trkpt lat="47.07047" lon="7.11158">
        <ele>480.069143</ele>
        <time>2023-03-11T16:20:16.796Z</time>
      </trkpt>
      <trkpt lat="47.07035" lon="7.11148">
        <ele>479.945173</ele>
        <time>2023-03-11T16:20:18.780Z</time>
      </trkpt>
      <trkpt lat="47.07023" lon="7.11137">
        <ele>479.819721</ele>
        <time>2023-03-11T16:20:20.782Z</time>
      </trkpt>
      <trkpt lat="47.07012" lon="7.11126">
        <ele>479.699021</ele>
        <time>2023-03-11T16:20:22.815Z</time>
      </trkpt>
      <trkpt lat="47.07001" lon="7.11114">
        <ele>479.575262</ele>
        <time>2023-03-11T16:20:24.795Z</time>
      </trkpt>
      <trkpt lat="47.06989" lon="7.11103">
        <ele>479.592102</ele>
        <time>2023-03-11T16:20:26.786Z</time>
      </trkpt>
      <trkpt lat="47.06978" lon="7.11091">
        <ele>479.658797</ele>
        <time>2023-03-11T16:20:28.788Z</time>
      </trkpt>
      <trkpt lat="47.06966" lon="7.11078">
        <ele>479.725107</ele>
        <time>2023-03-11T16:20:30.793Z</time>
      </trkpt>
      <trkpt lat="47.06955" lon="7.11066">
        <ele>479.790867</ele>
        <time>2023-03-11T16:20:32.790Z</time>
      </trkpt>
      <trkpt lat="47.06943" lon="7.11055">
        <ele>479.855677</ele>
        <time>2023-03-11T16:20:34.802Z</time>
      </trkpt>
      <trkpt lat="47.06932" lon="7.11043">
        <ele>479.91972</ele>
        <time>2023-03-11T16:20:36.787Z</time>
      </trkpt>
      <trkpt lat="47.06922" lon="7.11032">
        <ele>479.980944</ele>
        <time>2023-03-11T16:20:38.799Z</time>
      </trkpt>
      <trkpt lat="47.0691" lon="7.1102">
        <ele>480.046878</ele>
        <time>2023-03-11T16:20:40.791Z</time>
      </trkpt>
      <trkpt lat="47.06899" lon="7.11008">
        <ele>480.110924</ele>
        <time>2023-03-11T16:20:42.795Z</time>
      </trkpt>
      <trkpt lat="47.06888" lon="7.10997">
        <ele>480.174473</ele>
        <time>2023-03-11T16:20:44.790Z</time>
      </trkpt>
      <trkpt lat="47.06877" lon="7.10985">
        <ele>480.238198</ele>
        <time>2023-03-11T16:20:46.800Z</time>
      </trkpt>
      <trkpt lat="47.06866" lon="7.10972">
        <ele>480.30362</ele>
        <time>2023-03-11T16:20:48.802Z</time>
      </trkpt>
      <trkpt lat="47.06856" lon="7.10959">
        <ele>480.368356</ele>
        <time>2023-03-11T16:20:50.802Z</time>
      </trkpt>
      <trkpt lat="47.06845" lon="7.10945">
        <ele>480.503859</ele>
        <time>2023-03-11T16:20:52.790Z</time>
      </trkpt>
      <trkpt lat="47.06835" lon="7.1093">
        <ele>480.664239</ele>
        <time>2023-03-11T16:20:54.807Z</time>
      </trkpt>
      <trkpt lat="47.06825" lon="7.10916">
        <ele>480.816669</ele>
        <time>2023-03-11T16:20:56.792Z</time>
      </trkpt>
      <trkpt lat="47.06816" lon="7.10901">
        <ele>480.965108</ele>
        <time>2023-03-11T16:20:58.793Z</time>
      </trkpt>
      <trkpt lat="47.06807" lon="7.10886">
        <ele>481.113192</ele>
        <time>2023-03-11T16:21:00.806Z</time>
      </trkpt>
      <trkpt lat="47.06799" lon="7.10872">
        <ele>481.259975</ele>
        <time>2023-03-11T16:21:02.795Z</time>
      </trkpt>
      <trkpt lat="47.0679" lon="7.10856">
        <ele>481.409262</ele>
        <time>2023-03-11T16:21:04.796Z</time>
      </trkpt>
      <trkpt lat="47.06782" lon="7.10841">
        <ele>481.555388</ele>
        <time>2023-03-11T16:21:06.795Z</time>
      </trkpt>
      <trkpt lat="47.06773" lon="7.10826">
        <ele>481.707735</ele>
        <time>2023-03-11T16:21:08.793Z</time>
      </trkpt>
      <trkpt lat="47.06765" lon="7.1081">
        <ele>481.85858</ele>
        <time>2023-03-11T16:21:10.795Z</time>
      </trkpt>
      <trkpt lat="47.06757" lon="7.10793">
        <ele>482.012037</ele>
        <time>2023-03-11T16:21:12.799Z</time>
      </trkpt>
      <trkpt lat="47.06749" lon="7.10778">
        <ele>482.161324</ele>
        <time>2023-03-11T16:21:14.799Z</time>
      </trkpt>
      <trkpt lat="47.0674" lon="7.10762">
        <ele>482.315265</ele>
        <time>2023-03-11T16:21:16.795Z</time>
      </trkpt>
      <trkpt lat="47.06733" lon="7.10745">
        <ele>482.408059</ele>
        <time>2023-03-11T16:21:18.794Z</time>
      </trkpt>
      <trkpt lat="47.06726" lon="7.10729">
        <ele>482.450059</ele>
        <time>2023-03-11T16:21:20.792Z</time>
      </trkpt>
      <trkpt lat="47.06718" lon="7.10715">
        <ele>482.491549</ele>
        <time>2023-03-11T16:21:22.788Z</time>
      </trkpt>
      <trkpt lat="47.06712" lon="7.107">
        <ele>482.529741</ele>
        <time>2023-03-11T16:21:24.800Z</time>
      </trkpt>
      <trkpt lat="47.06705" lon="7.10687">
        <ele>482.56406</ele>
        <time>2023-03-11T16:21:26.794Z</time>
      </trkpt>
      <trkpt lat="47.06701" lon="7.10675">
        <ele>482.595519</ele>
        <time>2023-03-11T16:21:28.818Z</time>
      </trkpt>
      <trkpt lat="47.06701" lon="7.10661">
        <ele>482.625553</ele>
        <time>2023-03-11T16:21:30.776Z</time>
      </trkpt>
      <trkpt lat="47.06705" lon="7.10673">
        <ele>482.654908</ele>
        <time>2023-03-11T16:21:47.771Z</time>
      </trkpt>
      <trkpt lat="47.06711" lon="7.10683">
        <ele>482.684763</ele>
        <time>2023-03-11T16:22:01.768Z</time>
      </trkpt>
      <trkpt lat="47.06723" lon="7.10698">
        <ele>482.735563</ele>
        <time>2023-03-11T16:22:21.750Z</time>
      </trkpt>
      <trkpt lat="47.06708" lon="7.10699">
        <ele>482.78292</ele>
        <time>2023-03-11T16:22:22.792Z</time>
      </trkpt>
      <trkpt lat="47.06698" lon="7.10702">
        <ele>482.817725</ele>
        <time>2023-03-11T16:22:24.813Z</time>
      </trkpt>
      <trkpt lat="47.06688" lon="7.10709">
        <ele>482.852955</ele>
        <time>2023-03-11T16:22:29.832Z</time>
      </trkpt>
      <trkpt lat="47.0668" lon="7.10704">
        <ele>482.882253</ele>
        <time>2023-03-11T16:22:38.774Z</time>
      </trkpt>
      <trkpt lat="47.06671" lon="7.10699">
        <ele>482.912235</ele>
        <time>2023-03-11T16:22:45.782Z</time>
      </trkpt>
      <trkpt lat="47.06661" lon="7.10699">
        <ele>482.943683</ele>
        <time>2023-03-11T16:22:51.762Z</time>
      </trkpt>
      <trkpt lat="47.06652" lon="7.10706">
        <ele>482.909652</ele>
        <time>2023-03-11T16:22:57.781Z</time>
      </trkpt>
      <trkpt lat="47.06642" lon="7.10703">
        <ele>482.744923</ele>
        <time>2023-03-11T16:23:00.789Z</time>
      </trkpt>
      <trkpt lat="47.06632" lon="7.10693">
        <ele>482.518366</ele>
        <time>2023-03-11T16:23:03.791Z</time>
      </trkpt>
      <trkpt lat="47.06624" lon="7.1068">
        <ele>482.306717</ele>
        <time>2023-03-11T16:23:06.784Z</time>
      </trkpt>
      <trkpt lat="47.06617" lon="7.10667">
        <ele>482.100424</ele>
        <time>2023-03-11T16:23:09.793Z</time>
      </trkpt>
      <trkpt lat="47.06608" lon="7.10653">
        <ele>481.875532</ele>
        <time>2023-03-11T16:23:12.798Z</time>
      </trkpt>
      <trkpt lat="47.06599" lon="7.10638">
        <ele>481.629955</ele>
        <time>2023-03-11T16:23:15.799Z</time>
      </trkpt>
      <trkpt lat="47.06592" lon="7.10628">
        <ele>481.45844</ele>
        <time>2023-03-11T16:23:17.798Z</time>
      </trkpt>
      <trkpt lat="47.06587" lon="7.10615">
        <ele>481.28158</ele>
        <time>2023-03-11T16:23:19.791Z</time>
      </trkpt>
      <trkpt lat="47.06582" lon="7.10602">
        <ele>481.099239</ele>
        <time>2023-03-11T16:23:21.783Z</time>
      </trkpt>
      <trkpt lat="47.06578" lon="7.10587">
        <ele>480.903765</ele>
        <time>2023-03-11T16:23:23.781Z</time>
      </trkpt>
      <trkpt lat="47.06574" lon="7.10573">
        <ele>480.715916</ele>
        <time>2023-03-11T16:23:25.783Z</time>
      </trkpt>
      <trkpt lat="47.0657" lon="7.10558">
        <ele>480.516592</ele>
        <time>2023-03-11T16:23:27.776Z</time>
      </trkpt>
      <trkpt lat="47.06567" lon="7.10543">
        <ele>480.324534</ele>
        <time>2023-03-11T16:23:29.784Z</time>
      </trkpt>
      <trkpt lat="47.06566" lon="7.10527">
        <ele>480.13092</ele>
        <time>2023-03-11T16:23:31.774Z</time>
      </trkpt>
      <trkpt lat="47.06565" lon="7.10511">
        <ele>479.937675</ele>
        <time>2023-03-11T16:23:33.799Z</time>
      </trkpt>
      <trkpt lat="47.06568" lon="7.10496">
        <ele>479.76848</ele>
        <time>2023-03-11T16:23:35.773Z</time>
      </trkpt>
      <trkpt lat="47.06572" lon="7.10481">
        <ele>479.981016</ele>
        <time>2023-03-11T16:23:37.765Z</time>
      </trkpt>
      <trkpt lat="47.06577" lon="7.10464">
        <ele>480.214899</ele>
        <time>2023-03-11T16:23:39.782Z</time>
      </trkpt>
      <trkpt lat="47.06581" lon="7.10446">
        <ele>480.467368</ele>
        <time>2023-03-11T16:23:41.796Z</time>
      </trkpt>
      <trkpt lat="47.06585" lon="7.10426">
        <ele>480.74001</ele>
        <time>2023-03-11T16:23:43.782Z</time>
      </trkpt>
      <trkpt lat="47.06589" lon="7.10406">
        <ele>481.011916</ele>
        <time>2023-03-11T16:23:45.815Z</time>
      </trkpt>
      <trkpt lat="47.06593" lon="7.10382">
        <ele>481.324724</ele>
        <time>2023-03-11T16:23:47.856Z</time>
      </trkpt>
      <trkpt lat="47.06591" lon="7.10368">
        <ele>481.510082</ele>
        <time>2023-03-11T16:23:49.826Z</time>
      </trkpt>
      <trkpt lat="47.06587" lon="7.10357">
        <ele>481.683043</ele>
        <time>2023-03-11T16:23:51.835Z</time>
      </trkpt>
      <trkpt lat="47.06581" lon="7.10343">
        <ele>481.897137</ele>
        <time>2023-03-11T16:23:54.789Z</time>
      </trkpt>
      <trkpt lat="47.06576" lon="7.10329">
        <ele>482.103075</ele>
        <time>2023-03-11T16:23:57.787Z</time>
      </trkpt>
      <trkpt lat="47.06572" lon="7.10314">
        <ele>482.313606</ele>
        <time>2023-03-11T16:24:00.796Z</time>
      </trkpt>
      <trkpt lat="47.06567" lon="7.10299">
        <ele>482.529598</ele>
        <time>2023-03-11T16:24:03.775Z</time>
      </trkpt>
      <trkpt lat="47.06561" lon="7.10286">
        <ele>482.730673</ele>
        <time>2023-03-11T16:24:06.794Z</time>
      </trkpt>
      <trkpt lat="47.06555" lon="7.10271">
        <ele>482.956556</ele>
        <time>2023-03-11T16:24:10.772Z</time>
      </trkpt>
      <trkpt lat="47.06549" lon="7.10256">
        <ele>483.186871</ele>
        <time>2023-03-11T16:24:13.788Z</time>
      </trkpt>
      <trkpt lat="47.06548" lon="7.10242">
        <ele>483.066729</ele>
        <time>2023-03-11T16:24:15.775Z</time>
      </trkpt>
      <trkpt lat="47.06548" lon="7.10228">
        <ele>482.933413</ele>
        <time>2023-03-11T16:24:17.780Z</time>
      </trkpt>
      <trkpt lat="47.06548" lon="7.10213">
        <ele>482.800062</ele>
        <time>2023-03-11T16:24:19.776Z</time>
      </trkpt>
      <trkpt lat="47.06551" lon="7.10197">
        <ele>482.643747</ele>
        <time>2023-03-11T16:24:22.769Z</time>
      </trkpt>
      <trkpt lat="47.06547" lon="7.10177">
        <ele>482.449575</ele>
        <time>2023-03-11T16:24:25.750Z</time>
      </trkpt>
      <trkpt lat="47.06542" lon="7.10164">
        <ele>482.304513</ele>
        <time>2023-03-11T16:24:27.780Z</time>
      </trkpt>
      <trkpt lat="47.06537" lon="7.10149">
        <ele>482.153002</ele>
        <time>2023-03-11T16:24:29.806Z</time>
      </trkpt>
      <trkpt lat="47.06532" lon="7.10134">
        <ele>481.994036</ele>
        <time>2023-03-11T16:24:31.798Z</time>
      </trkpt>
      <trkpt lat="47.06528" lon="7.10118">
        <ele>481.830792</ele>
        <time>2023-03-11T16:24:33.789Z</time>
      </trkpt>
      <trkpt lat="47.06523" lon="7.10102">
        <ele>481.662382</ele>
        <time>2023-03-11T16:24:35.804Z</time>
      </trkpt>
      <trkpt lat="47.06518" lon="7.10086">
        <ele>481.501098</ele>
        <time>2023-03-11T16:24:37.801Z</time>
      </trkpt>
      <trkpt lat="47.06513" lon="7.1007">
        <ele>481.337233</ele>
        <time>2023-03-11T16:24:39.808Z</time>
      </trkpt>
      <trkpt lat="47.06508" lon="7.10054">
        <ele>481.170755</ele>
        <time>2023-03-11T16:24:41.806Z</time>
      </trkpt>
      <trkpt lat="47.06504" lon="7.10037">
        <ele>481.003408</ele>
        <time>2023-03-11T16:24:43.790Z</time>
      </trkpt>
      <trkpt lat="47.065" lon="7.1002">
        <ele>480.832784</ele>
        <time>2023-03-11T16:24:45.807Z</time>
      </trkpt>
      <trkpt lat="47.06495" lon="7.10002">
        <ele>480.685073</ele>
        <time>2023-03-11T16:24:47.796Z</time>
      </trkpt>
      <trkpt lat="47.06491" lon="7.09983">
        <ele>480.603149</ele>
        <time>2023-03-11T16:24:49.807Z</time>
      </trkpt>
      <trkpt lat="47.06485" lon="7.09964">
        <ele>480.516117</ele>
        <time>2023-03-11T16:24:51.775Z</time>
      </trkpt>
      <trkpt lat="47.0648" lon="7.09945">
        <ele>480.431885</ele>
        <time>2023-03-11T16:24:53.813Z</time>
      </trkpt>
      <trkpt lat="47.06475" lon="7.09928">
        <ele>480.354574</ele>
        <time>2023-03-11T16:24:55.796Z</time>
      </trkpt>
      <trkpt lat="47.06471" lon="7.09911">
        <ele>480.276946</ele>
        <time>2023-03-11T16:24:57.802Z</time>
      </trkpt>
      <trkpt lat="47.06466" lon="7.09893">
        <ele>480.197137</ele>
        <time>2023-03-11T16:24:59.801Z</time>
      </trkpt>
      <trkpt lat="47.06461" lon="7.09875">
        <ele>480.114999</ele>
        <time>2023-03-11T16:25:01.796Z</time>
      </trkpt>
      <trkpt lat="47.06456" lon="7.09857">
        <ele>480.03131</ele>
        <time>2023-03-11T16:25:03.806Z</time>
      </trkpt>
      <trkpt lat="47.06451" lon="7.09838">
        <ele>479.946784</ele>
        <time>2023-03-11T16:25:05.788Z</time>
      </trkpt>
      <trkpt lat="47.06445" lon="7.0982">
        <ele>479.864033</ele>
        <time>2023-03-11T16:25:07.779Z</time>
      </trkpt>
      <trkpt lat="47.0644" lon="7.09802">
        <ele>479.782667</ele>
        <time>2023-03-11T16:25:09.786Z</time>
      </trkpt>
      <trkpt lat="47.06434" lon="7.09785">
        <ele>479.701554</ele>
        <time>2023-03-11T16:25:11.800Z</time>
      </trkpt>
      <trkpt lat="47.0643" lon="7.09768">
        <ele>479.624243</ele>
        <time>2023-03-11T16:25:13.792Z</time>
      </trkpt>
      <trkpt lat="47.06426" lon="7.09751">
        <ele>479.579815</ele>
        <time>2023-03-11T16:25:15.795Z</time>
      </trkpt>
      <trkpt lat="47.06423" lon="7.09735">
        <ele>479.547744</ele>
        <time>2023-03-11T16:25:17.801Z</time>
      </trkpt>
      <trkpt lat="47.06419" lon="7.09719">
        <ele>479.513527</ele>
        <time>2023-03-11T16:25:19.793Z</time>
      </trkpt>
      <trkpt lat="47.06416" lon="7.09702">
        <ele>479.478313</ele>
        <time>2023-03-11T16:25:21.783Z</time>
      </trkpt>
      <trkpt lat="47.06413" lon="7.09686">
        <ele>479.446489</ele>
        <time>2023-03-11T16:25:23.801Z</time>
      </trkpt>
      <trkpt lat="47.06406" lon="7.09673">
        <ele>479.41325</ele>
        <time>2023-03-11T16:25:26.774Z</time>
      </trkpt>
      <trkpt lat="47.06395" lon="7.09679">
        <ele>479.37952</ele>
        <time>2023-03-11T16:25:28.788Z</time>
      </trkpt>
      <trkpt lat="47.06385" lon="7.09685">
        <ele>479.34833</ele>
        <time>2023-03-11T16:25:30.789Z</time>
      </trkpt>
      <trkpt lat="47.06374" lon="7.0969">
        <ele>479.316285</ele>
        <time>2023-03-11T16:25:32.806Z</time>
      </trkpt>
      <trkpt lat="47.06363" lon="7.0969">
        <ele>479.282854</ele>
        <time>2023-03-11T16:25:34.782Z</time>
      </trkpt>
      <trkpt lat="47.06353" lon="7.09677">
        <ele>479.245633</ele>
        <time>2023-03-11T16:25:36.778Z</time>
      </trkpt>
      <trkpt lat="47.06348" lon="7.09659">
        <ele>479.206949</ele>
        <time>2023-03-11T16:25:38.782Z</time>
      </trkpt>
      <trkpt lat="47.06344" lon="7.09642">
        <ele>479.171554</ele>
        <time>2023-03-11T16:25:40.783Z</time>
      </trkpt>
      <trkpt lat="47.0634" lon="7.09626">
        <ele>479.137729</ele>
        <time>2023-03-11T16:25:42.795Z</time>
      </trkpt>
      <trkpt lat="47.06334" lon="7.09611">
        <ele>479.104882</ele>
        <time>2023-03-11T16:25:44.789Z</time>
      </trkpt>
      <trkpt lat="47.06329" lon="7.09597">
        <ele>479.067096</ele>
        <time>2023-03-11T16:25:46.811Z</time>
      </trkpt>
      <trkpt lat="47.06324" lon="7.09583">
        <ele>479.023094</ele>
        <time>2023-03-11T16:25:48.803Z</time>
      </trkpt>
      <trkpt lat="47.06318" lon="7.09569">
        <ele>478.978486</ele>
        <time>2023-03-11T16:25:50.796Z</time>
      </trkpt>
      <trkpt lat="47.06314" lon="7.09555">
        <ele>478.93636</ele>
        <time>2023-03-11T16:25:52.801Z</time>
      </trkpt>
      <trkpt lat="47.06309" lon="7.09541">
        <ele>478.893424</ele>
        <time>2023-03-11T16:25:54.805Z</time>
      </trkpt>
      <trkpt lat="47.06305" lon="7.09526">
        <ele>478.847781</ele>
        <time>2023-03-11T16:25:56.796Z</time>
      </trkpt>
      <trkpt lat="47.06301" lon="7.09511">
        <ele>478.802507</ele>
        <time>2023-03-11T16:25:58.796Z</time>
      </trkpt>
      <trkpt lat="47.06296" lon="7.09496">
        <ele>478.757183</ele>
        <time>2023-03-11T16:26:00.792Z</time>
      </trkpt>
      <trkpt lat="47.06291" lon="7.09482">
        <ele>478.714494</ele>
        <time>2023-03-11T16:26:02.776Z</time>
      </trkpt>
      <trkpt lat="47.06286" lon="7.09469">
        <ele>478.67372</ele>
        <time>2023-03-11T16:26:04.806Z</time>
      </trkpt>
      <trkpt lat="47.06281" lon="7.09458">
        <ele>478.636718</ele>
        <time>2023-03-11T16:26:06.765Z</time>
      </trkpt>
      <trkpt lat="47.06276" lon="7.09441">
        <ele>478.585374</ele>
        <time>2023-03-11T16:26:09.800Z</time>
      </trkpt>
      <trkpt lat="47.06272" lon="7.09425">
        <ele>478.537585</ele>
        <time>2023-03-11T16:26:12.792Z</time>
      </trkpt>
      <trkpt lat="47.06266" lon="7.09408">
        <ele>478.484075</ele>
        <time>2023-03-11T16:26:15.796Z</time>
      </trkpt>
      <trkpt lat="47.06261" lon="7.09396">
        <ele>478.446078</ele>
        <time>2023-03-11T16:26:17.795Z</time>
      </trkpt>
      <trkpt lat="47.06254" lon="7.0938">
        <ele>478.394014</ele>
        <time>2023-03-11T16:26:20.805Z</time>
      </trkpt>
      <trkpt lat="47.06248" lon="7.09364">
        <ele>478.350888</ele>
        <time>2023-03-11T16:26:23.770Z</time>
      </trkpt>
      <trkpt lat="47.06242" lon="7.09349">
        <ele>478.328649</ele>
        <time>2023-03-11T16:26:26.803Z</time>
      </trkpt>
      <trkpt lat="47.06237" lon="7.09335">
        <ele>478.306806</ele>
        <time>2023-03-11T16:26:29.797Z</time>
      </trkpt>
      <trkpt lat="47.06231" lon="7.09322">
        <ele>478.286289</ele>
        <time>2023-03-11T16:26:32.795Z</time>
      </trkpt>
      <trkpt lat="47.06217" lon="7.09322">
        <ele>478.259134</ele>
        <time>2023-03-11T16:26:35.783Z</time>
      </trkpt>
      <trkpt lat="47.06206" lon="7.09325">
        <ele>478.237096</ele>
        <time>2023-03-11T16:26:37.788Z</time>
      </trkpt>
      <trkpt lat="47.06195" lon="7.09327">
        <ele>478.215352</ele>
        <time>2023-03-11T16:26:39.817Z</time>
      </trkpt>
      <trkpt lat="47.06183" lon="7.09329">
        <ele>478.189821</ele>
        <time>2023-03-11T16:26:41.835Z</time>
      </trkpt>
      <trkpt lat="47.06171" lon="7.09334">
        <ele>478.166979</ele>
        <time>2023-03-11T16:26:43.842Z</time>
      </trkpt>
      <trkpt lat="47.06163" lon="7.09331">
        <ele>478.149237</ele>
        <time>2023-03-11T16:26:45.829Z</time>
      </trkpt>
      <trkpt lat="47.06154" lon="7.09326">
        <ele>478.131035</ele>
        <time>2023-03-11T16:26:47.781Z</time>
      </trkpt>
      <trkpt lat="47.06145" lon="7.09319">
        <ele>478.110526</ele>
        <time>2023-03-11T16:26:49.775Z</time>
      </trkpt>
      <trkpt lat="47.06137" lon="7.09304">
        <ele>478.085719</ele>
        <time>2023-03-11T16:26:51.760Z</time>
      </trkpt>
      <trkpt lat="47.06133" lon="7.09288">
        <ele>478.062399</ele>
        <time>2023-03-11T16:26:53.773Z</time>
      </trkpt>
      <trkpt lat="47.06129" lon="7.09272">
        <ele>478.040262</ele>
        <time>2023-03-11T16:26:55.794Z</time>
      </trkpt>
      <trkpt lat="47.06126" lon="7.09256">
        <ele>478.017239</ele>
        <time>2023-03-11T16:26:57.816Z</time>
      </trkpt>
      <trkpt lat="47.06121" lon="7.0924">
        <ele>477.988552</ele>
        <time>2023-03-11T16:26:59.795Z</time>
      </trkpt>
      <trkpt lat="47.06116" lon="7.09225">
        <ele>477.952659</ele>
        <time>2023-03-11T16:27:01.785Z</time>
      </trkpt>
      <trkpt lat="47.06111" lon="7.0921">
        <ele>477.916329</ele>
        <time>2023-03-11T16:27:03.769Z</time>
      </trkpt>
      <trkpt lat="47.06107" lon="7.09195">
        <ele>477.881491</ele>
        <time>2023-03-11T16:27:05.788Z</time>
      </trkpt>
      <trkpt lat="47.06103" lon="7.0918">
        <ele>477.847717</ele>
        <time>2023-03-11T16:27:07.775Z</time>
      </trkpt>
      <trkpt lat="47.06099" lon="7.09165">
        <ele>477.812703</ele>
        <time>2023-03-11T16:27:09.808Z</time>
      </trkpt>
      <trkpt lat="47.06094" lon="7.0915">
        <ele>477.778059</ele>
        <time>2023-03-11T16:27:11.795Z</time>
      </trkpt>
      <trkpt lat="47.0609" lon="7.09134">
        <ele>477.74287</ele>
        <time>2023-03-11T16:27:13.791Z</time>
      </trkpt>
      <trkpt lat="47.06086" lon="7.09118">
        <ele>477.705558</ele>
        <time>2023-03-11T16:27:15.794Z</time>
      </trkpt>
      <trkpt lat="47.06082" lon="7.09103">
        <ele>477.670068</ele>
        <time>2023-03-11T16:27:17.794Z</time>
      </trkpt>
      <trkpt lat="47.06077" lon="7.09088">
        <ele>477.635357</ele>
        <time>2023-03-11T16:27:19.788Z</time>
      </trkpt>
      <trkpt lat="47.06072" lon="7.09073">
        <ele>477.600131</ele>
        <time>2023-03-11T16:27:21.791Z</time>
      </trkpt>
      <trkpt lat="47.06068" lon="7.09059">
        <ele>477.566701</ele>
        <time>2023-03-11T16:27:23.796Z</time>
      </trkpt>
      <trkpt lat="47.06065" lon="7.09045">
        <ele>477.537479</ele>
        <time>2023-03-11T16:27:25.801Z</time>
      </trkpt>
      <trkpt lat="47.06069" lon="7.09032">
        <ele>477.506934</ele>
        <time>2023-03-11T16:27:27.784Z</time>
      </trkpt>
      <trkpt lat="47.06071" lon="7.09019">
        <ele>477.477993</ele>
        <time>2023-03-11T16:27:29.771Z</time>
      </trkpt>
      <trkpt lat="47.06069" lon="7.09003">
        <ele>477.443615</ele>
        <time>2023-03-11T16:27:31.767Z</time>
      </trkpt>
      <trkpt lat="47.06065" lon="7.08987">
        <ele>477.478246</ele>
        <time>2023-03-11T16:27:33.787Z</time>
      </trkpt>
      <trkpt lat="47.06062" lon="7.08971">
        <ele>477.514679</ele>
        <time>2023-03-11T16:27:35.783Z</time>
      </trkpt>
      <trkpt lat="47.06058" lon="7.08957">
        <ele>477.548582</ele>
        <time>2023-03-11T16:27:37.791Z</time>
      </trkpt>
      <trkpt lat="47.06055" lon="7.08943">
        <ele>477.580593</ele>
        <time>2023-03-11T16:27:39.784Z</time>
      </trkpt>
      <trkpt lat="47.06053" lon="7.08929">
        <ele>477.613117</ele>
        <time>2023-03-11T16:27:41.756Z</time>
      </trkpt>
      <trkpt lat="47.06051" lon="7.08914">
        <ele>477.645988</ele>
        <time>2023-03-11T16:27:43.796Z</time>
      </trkpt>
      <trkpt lat="47.06049" lon="7.089">
        <ele>477.678785</ele>
        <time>2023-03-11T16:27:45.804Z</time>
      </trkpt>
      <trkpt lat="47.06047" lon="7.08886">
        <ele>477.710657</ele>
        <time>2023-03-11T16:27:47.798Z</time>
      </trkpt>
      <trkpt lat="47.06046" lon="7.0887">
        <ele>477.745594</ele>
        <time>2023-03-11T16:27:49.776Z</time>
      </trkpt>
      <trkpt lat="47.06052" lon="7.08856">
        <ele>477.781738</ele>
        <time>2023-03-11T16:27:51.778Z</time>
      </trkpt>
      <trkpt lat="47.06061" lon="7.08846">
        <ele>477.818614</ele>
        <time>2023-03-11T16:27:53.784Z</time>
      </trkpt>
      <trkpt lat="47.0607" lon="7.08837">
        <ele>477.854061</ele>
        <time>2023-03-11T16:27:55.785Z</time>
      </trkpt>
      <trkpt lat="47.06079" lon="7.08828">
        <ele>477.888963</ele>
        <time>2023-03-11T16:27:57.799Z</time>
      </trkpt>
      <trkpt lat="47.06087" lon="7.08818">
        <ele>477.924524</ele>
        <time>2023-03-11T16:27:59.799Z</time>
      </trkpt>
      <trkpt lat="47.06096" lon="7.08808">
        <ele>477.959476</ele>
        <time>2023-03-11T16:28:01.780Z</time>
      </trkpt>
      <trkpt lat="47.06104" lon="7.08799">
        <ele>477.993363</ele>
        <time>2023-03-11T16:28:03.800Z</time>
      </trkpt>
      <trkpt lat="47.06111" lon="7.0879">
        <ele>478.023898</ele>
        <time>2023-03-11T16:28:05.820Z</time>
      </trkpt>
      <trkpt lat="47.06115" lon="7.08774">
        <ele>478.093142</ele>
        <time>2023-03-11T16:28:08.777Z</time>
      </trkpt>
      <trkpt lat="47.06111" lon="7.08759">
        <ele>478.15898</ele>
        <time>2023-03-11T16:28:10.787Z</time>
      </trkpt>
      <trkpt lat="47.06107" lon="7.08746">
        <ele>478.220059</ele>
        <time>2023-03-11T16:28:12.774Z</time>
      </trkpt>
      <trkpt lat="47.06102" lon="7.0873">
        <ele>478.297887</ele>
        <time>2023-03-11T16:28:15.806Z</time>
      </trkpt>
      <trkpt lat="47.06096" lon="7.08714">
        <ele>478.369815</ele>
        <time>2023-03-11T16:28:18.798Z</time>
      </trkpt>
      <trkpt lat="47.06097" lon="7.08699">
        <ele>478.433739</ele>
        <time>2023-03-11T16:28:21.789Z</time>
      </trkpt>
      <trkpt lat="47.06109" lon="7.08692">
        <ele>478.516093</ele>
        <time>2023-03-11T16:28:24.782Z</time>
      </trkpt>
      <trkpt lat="47.06119" lon="7.0869">
        <ele>478.577133</ele>
        <time>2023-03-11T16:28:26.774Z</time>
      </trkpt>
      <trkpt lat="47.06127" lon="7.0868">
        <ele>478.637564</ele>
        <time>2023-03-11T16:28:28.767Z</time>
      </trkpt>
      <trkpt lat="47.06127" lon="7.08666">
        <ele>478.699571</ele>
        <time>2023-03-11T16:28:30.770Z</time>
      </trkpt>
      <trkpt lat="47.06124" lon="7.08649">
        <ele>478.772293</ele>
        <time>2023-03-11T16:28:32.771Z</time>
      </trkpt>
      <trkpt lat="47.06122" lon="7.08634">
        <ele>478.837745</ele>
        <time>2023-03-11T16:28:34.798Z</time>
      </trkpt>
      <trkpt lat="47.06118" lon="7.08619">
        <ele>478.9051</ele>
        <time>2023-03-11T16:28:36.796Z</time>
      </trkpt>
      <trkpt lat="47.06116" lon="7.08604">
        <ele>478.968715</ele>
        <time>2023-03-11T16:28:38.797Z</time>
      </trkpt>
      <trkpt lat="47.06114" lon="7.0859">
        <ele>479.030726</ele>
        <time>2023-03-11T16:28:40.805Z</time>
      </trkpt>
      <trkpt lat="47.06111" lon="7.08577">
        <ele>479.090115</ele>
        <time>2023-03-11T16:28:42.796Z</time>
      </trkpt>
      <trkpt lat="47.06107" lon="7.08563">
        <ele>479.147205</ele>
        <time>2023-03-11T16:28:44.795Z</time>
      </trkpt>
      <trkpt lat="47.06103" lon="7.08549">
        <ele>479.120814</ele>
        <time>2023-03-11T16:28:46.779Z</time>
      </trkpt>
      <trkpt lat="47.06099" lon="7.08535">
        <ele>479.095015</ele>
        <time>2023-03-11T16:28:48.782Z</time>
      </trkpt>
      <trkpt lat="47.06096" lon="7.08521">
        <ele>479.069397</ele>
        <time>2023-03-11T16:28:50.798Z</time>
      </trkpt>
      <trkpt lat="47.06091" lon="7.08507">
        <ele>479.042526</ele>
        <time>2023-03-11T16:28:52.791Z</time>
      </trkpt>
      <trkpt lat="47.06087" lon="7.08494">
        <ele>479.016812</ele>
        <time>2023-03-11T16:28:54.777Z</time>
      </trkpt>
      <trkpt lat="47.06081" lon="7.0848">
        <ele>478.988423</ele>
        <time>2023-03-11T16:28:56.804Z</time>
      </trkpt>
      <trkpt lat="47.06076" lon="7.08465">
        <ele>478.959976</ele>
        <time>2023-03-11T16:28:58.789Z</time>
      </trkpt>
      <trkpt lat="47.0607" lon="7.08451">
        <ele>478.931205</ele>
        <time>2023-03-11T16:29:00.803Z</time>
      </trkpt>
      <trkpt lat="47.06065" lon="7.08436">
        <ele>478.901875</ele>
        <time>2023-03-11T16:29:02.807Z</time>
      </trkpt>
      <trkpt lat="47.0606" lon="7.0842">
        <ele>478.871549</ele>
        <time>2023-03-11T16:29:04.786Z</time>
      </trkpt>
      <trkpt lat="47.06056" lon="7.08404">
        <ele>478.842334</ele>
        <time>2023-03-11T16:29:06.776Z</time>
      </trkpt>
      <trkpt lat="47.06053" lon="7.08389">
        <ele>478.815911</ele>
        <time>2023-03-11T16:29:08.774Z</time>
      </trkpt>
      <trkpt lat="47.06053" lon="7.08374">
        <ele>478.790315</ele>
        <time>2023-03-11T16:29:10.777Z</time>
      </trkpt>
      <trkpt lat="47.06056" lon="7.0836">
        <ele>478.763952</ele>
        <time>2023-03-11T16:29:12.783Z</time>
      </trkpt>
      <trkpt lat="47.06062" lon="7.08345">
        <ele>478.733938</ele>
        <time>2023-03-11T16:29:14.758Z</time>
      </trkpt>
      <trkpt lat="47.0607" lon="7.08332">
        <ele>478.703983</ele>
        <time>2023-03-11T16:29:16.773Z</time>
      </trkpt>
      <trkpt lat="47.06073" lon="7.08316">
        <ele>478.771676</ele>
        <time>2023-03-11T16:29:18.775Z</time>
      </trkpt>
      <trkpt lat="47.0607" lon="7.083">
        <ele>478.911832</ele>
        <time>2023-03-11T16:29:20.784Z</time>
      </trkpt>
      <trkpt lat="47.06065" lon="7.08285">
        <ele>479.057583</ele>
        <time>2023-03-11T16:29:22.764Z</time>
      </trkpt>
      <trkpt lat="47.0606" lon="7.0827">
        <ele>479.198761</ele>
        <time>2023-03-11T16:29:24.801Z</time>
      </trkpt>
      <trkpt lat="47.06055" lon="7.08254">
        <ele>479.344827</ele>
        <time>2023-03-11T16:29:26.793Z</time>
      </trkpt>
      <trkpt lat="47.0605" lon="7.08238">
        <ele>479.494829</ele>
        <time>2023-03-11T16:29:28.803Z</time>
      </trkpt>
      <trkpt lat="47.06045" lon="7.08224">
        <ele>479.632643</ele>
        <time>2023-03-11T16:29:30.804Z</time>
      </trkpt>
      <trkpt lat="47.0604" lon="7.0821">
        <ele>479.761383</ele>
        <time>2023-03-11T16:29:32.802Z</time>
      </trkpt>
      <trkpt lat="47.06034" lon="7.08197">
        <ele>479.892917</ele>
        <time>2023-03-11T16:29:34.798Z</time>
      </trkpt>
      <trkpt lat="47.0603" lon="7.08184">
        <ele>480.017154</ele>
        <time>2023-03-11T16:29:36.808Z</time>
      </trkpt>
      <trkpt lat="47.06026" lon="7.08171">
        <ele>480.139875</ele>
        <time>2023-03-11T16:29:38.794Z</time>
      </trkpt>
      <trkpt lat="47.06021" lon="7.08158">
        <ele>480.26132</ele>
        <time>2023-03-11T16:29:40.801Z</time>
      </trkpt>
      <trkpt lat="47.06016" lon="7.08145">
        <ele>480.382174</ele>
        <time>2023-03-11T16:29:42.781Z</time>
      </trkpt>
      <trkpt lat="47.06012" lon="7.08133">
        <ele>480.499819</ele>
        <time>2023-03-11T16:29:44.802Z</time>
      </trkpt>
      <trkpt lat="47.06007" lon="7.0812">
        <ele>480.626674</ele>
        <time>2023-03-11T16:29:46.818Z</time>
      </trkpt>
      <trkpt lat="47.06002" lon="7.08106">
        <ele>480.759869</ele>
        <time>2023-03-11T16:29:48.786Z</time>
      </trkpt>
      <trkpt lat="47.05994" lon="7.08093">
        <ele>480.911464</ele>
        <time>2023-03-11T16:29:50.788Z</time>
      </trkpt>
      <trkpt lat="47.05987" lon="7.08079">
        <ele>480.961111</ele>
        <time>2023-03-11T16:29:52.804Z</time>
      </trkpt>
      <trkpt lat="47.05981" lon="7.08064">
        <ele>481.002963</ele>
        <time>2023-03-11T16:29:54.773Z</time>
      </trkpt>
      <trkpt lat="47.05977" lon="7.0805">
        <ele>481.039202</ele>
        <time>2023-03-11T16:29:56.762Z</time>
      </trkpt>
      <trkpt lat="47.05971" lon="7.08035">
        <ele>481.080341</ele>
        <time>2023-03-11T16:29:58.802Z</time>
      </trkpt>
      <trkpt lat="47.05966" lon="7.0802">
        <ele>481.121105</ele>
        <time>2023-03-11T16:30:00.797Z</time>
      </trkpt>
      <trkpt lat="47.0596" lon="7.08006">
        <ele>481.159645</ele>
        <time>2023-03-11T16:30:02.795Z</time>
      </trkpt>
      <trkpt lat="47.05954" lon="7.07992">
        <ele>481.199041</ele>
        <time>2023-03-11T16:30:04.804Z</time>
      </trkpt>
      <trkpt lat="47.05948" lon="7.07978">
        <ele>481.239186</ele>
        <time>2023-03-11T16:30:06.803Z</time>
      </trkpt>
      <trkpt lat="47.05943" lon="7.07963">
        <ele>481.279652</ele>
        <time>2023-03-11T16:30:08.811Z</time>
      </trkpt>
      <trkpt lat="47.05937" lon="7.07948">
        <ele>481.31974</ele>
        <time>2023-03-11T16:30:10.805Z</time>
      </trkpt>
      <trkpt lat="47.05931" lon="7.07933">
        <ele>481.36127</ele>
        <time>2023-03-11T16:30:12.800Z</time>
      </trkpt>
      <trkpt lat="47.05925" lon="7.07919">
        <ele>481.402597</ele>
        <time>2023-03-11T16:30:14.808Z</time>
      </trkpt>
      <trkpt lat="47.05919" lon="7.07904">
        <ele>481.443861</ele>
        <time>2023-03-11T16:30:16.801Z</time>
      </trkpt>
      <trkpt lat="47.05913" lon="7.07888">
        <ele>481.485166</ele>
        <time>2023-03-11T16:30:18.794Z</time>
      </trkpt>
      <trkpt lat="47.05908" lon="7.07874">
        <ele>481.525133</ele>
        <time>2023-03-11T16:30:20.804Z</time>
      </trkpt>
      <trkpt lat="47.05903" lon="7.07859">
        <ele>481.536254</ele>
        <time>2023-03-11T16:30:22.791Z</time>
      </trkpt>
      <trkpt lat="47.05899" lon="7.07843">
        <ele>481.446218</ele>
        <time>2023-03-11T16:30:24.805Z</time>
      </trkpt>
      <trkpt lat="47.05895" lon="7.07826">
        <ele>481.3518</ele>
        <time>2023-03-11T16:30:26.800Z</time>
      </trkpt>
      <trkpt lat="47.05891" lon="7.07809">
        <ele>481.257382</ele>
        <time>2023-03-11T16:30:28.798Z</time>
      </trkpt>
      <trkpt lat="47.05887" lon="7.07792">
        <ele>481.165712</ele>
        <time>2023-03-11T16:30:30.810Z</time>
      </trkpt>
      <trkpt lat="47.05884" lon="7.07776">
        <ele>481.07634</ele>
        <time>2023-03-11T16:30:32.816Z</time>
      </trkpt>
      <trkpt lat="47.05881" lon="7.07761">
        <ele>480.996087</ele>
        <time>2023-03-11T16:30:34.799Z</time>
      </trkpt>
      <trkpt lat="47.05879" lon="7.07748">
        <ele>480.921531</ele>
        <time>2023-03-11T16:30:36.811Z</time>
      </trkpt>
      <trkpt lat="47.05876" lon="7.07734">
        <ele>480.84479</ele>
        <time>2023-03-11T16:30:38.814Z</time>
      </trkpt>
      <trkpt lat="47.05873" lon="7.07719">
        <ele>480.766892</ele>
        <time>2023-03-11T16:30:40.787Z</time>
      </trkpt>
      <trkpt lat="47.0587" lon="7.07705">
        <ele>480.685334</ele>
        <time>2023-03-11T16:30:42.801Z</time>
      </trkpt>
      <trkpt lat="47.05868" lon="7.07689">
        <ele>480.603169</ele>
        <time>2023-03-11T16:30:44.811Z</time>
      </trkpt>
      <trkpt lat="47.05864" lon="7.07673">
        <ele>480.515184</ele>
        <time>2023-03-11T16:30:46.804Z</time>
      </trkpt>
      <trkpt lat="47.05861" lon="7.07658">
        <ele>480.430482</ele>
        <time>2023-03-11T16:30:48.800Z</time>
      </trkpt>
      <trkpt lat="47.05858" lon="7.07643">
        <ele>480.347404</ele>
        <time>2023-03-11T16:30:50.808Z</time>
      </trkpt>
      <trkpt lat="47.05855" lon="7.07628">
        <ele>480.265125</ele>
        <time>2023-03-11T16:30:52.806Z</time>
      </trkpt>
      <trkpt lat="47.05852" lon="7.07612">
        <ele>480.179599</ele>
        <time>2023-03-11T16:30:54.810Z</time>
      </trkpt>
      <trkpt lat="47.05849" lon="7.07597">
        <ele>480.083642</ele>
        <time>2023-03-11T16:30:56.804Z</time>
      </trkpt>
      <trkpt lat="47.05846" lon="7.07582">
        <ele>479.987227</ele>
        <time>2023-03-11T16:30:58.798Z</time>
      </trkpt>
      <trkpt lat="47.05844" lon="7.07567">
        <ele>479.887181</ele>
        <time>2023-03-11T16:31:00.801Z</time>
      </trkpt>
      <trkpt lat="47.0584" lon="7.07551">
        <ele>479.785034</ele>
        <time>2023-03-11T16:31:02.812Z</time>
      </trkpt>
      <trkpt lat="47.05837" lon="7.07536">
        <ele>479.68322</ele>
        <time>2023-03-11T16:31:04.792Z</time>
      </trkpt>
      <trkpt lat="47.05833" lon="7.07521">
        <ele>479.585839</ele>
        <time>2023-03-11T16:31:06.801Z</time>
      </trkpt>
      <trkpt lat="47.05831" lon="7.07506">
        <ele>479.492712</ele>
        <time>2023-03-11T16:31:08.799Z</time>
      </trkpt>
      <trkpt lat="47.05829" lon="7.07491">
        <ele>479.391225</ele>
        <time>2023-03-11T16:31:10.801Z</time>
      </trkpt>
      <trkpt lat="47.05826" lon="7.07475">
        <ele>479.291785</ele>
        <time>2023-03-11T16:31:12.808Z</time>
      </trkpt>
      <trkpt lat="47.05823" lon="7.0746">
        <ele>479.189307</ele>
        <time>2023-03-11T16:31:14.805Z</time>
      </trkpt>
      <trkpt lat="47.05819" lon="7.07444">
        <ele>479.085095</ele>
        <time>2023-03-11T16:31:16.797Z</time>
      </trkpt>
      <trkpt lat="47.05814" lon="7.07432">
        <ele>478.997206</ele>
        <time>2023-03-11T16:31:18.777Z</time>
      </trkpt>
      <trkpt lat="47.05805" lon="7.07424">
        <ele>478.899683</ele>
        <time>2023-03-11T16:31:20.789Z</time>
      </trkpt>
      <trkpt lat="47.05795" lon="7.07417">
        <ele>478.803578</ele>
        <time>2023-03-11T16:31:22.767Z</time>
      </trkpt>
      <trkpt lat="47.05786" lon="7.07409">
        <ele>478.705259</ele>
        <time>2023-03-11T16:31:24.827Z</time>
      </trkpt>
      <trkpt lat="47.05778" lon="7.07399">
        <ele>478.607166</ele>
        <time>2023-03-11T16:31:26.820Z</time>
      </trkpt>
      <trkpt lat="47.05772" lon="7.07387">
        <ele>478.515011</ele>
        <time>2023-03-11T16:31:28.780Z</time>
      </trkpt>
      <trkpt lat="47.05766" lon="7.07375">
        <ele>478.483177</ele>
        <time>2023-03-11T16:31:30.802Z</time>
      </trkpt>
      <trkpt lat="47.0576" lon="7.07362">
        <ele>478.450007</ele>
        <time>2023-03-11T16:31:32.788Z</time>
      </trkpt>
      <trkpt lat="47.05755" lon="7.07347">
        <ele>478.416461</ele>
        <time>2023-03-11T16:31:34.783Z</time>
      </trkpt>
      <trkpt lat="47.05752" lon="7.07332">
        <ele>478.38292</ele>
        <time>2023-03-11T16:31:36.792Z</time>
      </trkpt>
      <trkpt lat="47.05749" lon="7.07317">
        <ele>478.349891</ele>
        <time>2023-03-11T16:31:38.802Z</time>
      </trkpt>
      <trkpt lat="47.05746" lon="7.07302">
        <ele>478.316862</ele>
        <time>2023-03-11T16:31:40.802Z</time>
      </trkpt>
      <trkpt lat="47.05741" lon="7.07287">
        <ele>478.283124</ele>
        <time>2023-03-11T16:31:42.801Z</time>
      </trkpt>
      <trkpt lat="47.05735" lon="7.07273">
        <ele>478.247867</ele>
        <time>2023-03-11T16:31:44.767Z</time>
      </trkpt>
      <trkpt lat="47.05729" lon="7.07261">
        <ele>478.216434</ele>
        <time>2023-03-11T16:31:46.784Z</time>
      </trkpt>
      <trkpt lat="47.05721" lon="7.07251">
        <ele>478.183114</ele>
        <time>2023-03-11T16:31:49.770Z</time>
      </trkpt>
      <trkpt lat="47.05713" lon="7.07258">
        <ele>478.155345</ele>
        <time>2023-03-11T16:31:51.796Z</time>
      </trkpt>
      <trkpt lat="47.05707" lon="7.07268">
        <ele>478.126724</ele>
        <time>2023-03-11T16:31:53.791Z</time>
      </trkpt>
      <trkpt lat="47.05699" lon="7.07277">
        <ele>478.096753</ele>
        <time>2023-03-11T16:31:55.804Z</time>
      </trkpt>
      <trkpt lat="47.05691" lon="7.07285">
        <ele>478.066523</ele>
        <time>2023-03-11T16:31:57.803Z</time>
      </trkpt>
      <trkpt lat="47.05682" lon="7.0729">
        <ele>478.035803</ele>
        <time>2023-03-11T16:31:59.791Z</time>
      </trkpt>
      <trkpt lat="47.05672" lon="7.07285">
        <ele>478.004227</ele>
        <time>2023-03-11T16:32:01.786Z</time>
      </trkpt>
      <trkpt lat="47.05666" lon="7.0727">
        <ele>477.967377</ele>
        <time>2023-03-11T16:32:03.787Z</time>
      </trkpt>
      <trkpt lat="47.05659" lon="7.07258">
        <ele>477.960479</ele>
        <time>2023-03-11T16:32:05.782Z</time>
      </trkpt>
      <trkpt lat="47.0565" lon="7.07246">
        <ele>477.960479</ele>
        <time>2023-03-11T16:32:07.775Z</time>
      </trkpt>
      <trkpt lat="47.05641" lon="7.07234">
        <ele>477.960479</ele>
        <time>2023-03-11T16:32:09.809Z</time>
      </trkpt>
      <trkpt lat="47.05634" lon="7.07223">
        <ele>477.960479</ele>
        <time>2023-03-11T16:32:11.820Z</time>
      </trkpt>
      <trkpt lat="47.05628" lon="7.07211">
        <ele>477.960479</ele>
        <time>2023-03-11T16:32:13.783Z</time>
      </trkpt>
      <trkpt lat="47.05622" lon="7.072">
        <ele>477.960479</ele>
        <time>2023-03-11T16:32:15.785Z</time>
      </trkpt>
      <trkpt lat="47.05616" lon="7.0719">
        <ele>477.960479</ele>
        <time>2023-03-11T16:32:17.810Z</time>
      </trkpt>
      <trkpt lat="47.05609" lon="7.07175">
        <ele>477.960479</ele>
        <time>2023-03-11T16:32:20.810Z</time>
      </trkpt>
      <trkpt lat="47.05604" lon="7.07163">
        <ele>477.960479</ele>
        <time>2023-03-11T16:32:24.807Z</time>
      </trkpt>
      <trkpt lat="47.05603" lon="7.07161">
        <ele>477.960479</ele>
        <time>2023-03-11T16:32:59.818Z</time>
      </trkpt>
    </trkseg>
  </trk>
</gpx>